<?xml version="1.0" encoding="UTF-8" standalone="no" ?>
<gpx xmlns="http://www.topografix.com/GPX/1/1" xmlns:xsi="http://www.w3.org/2001/XMLSchema-instance" xsi:schemaLocation="http://www.topografix.com/GPX/1/1 http://www.topografix.com/GPX/1/1/gpx.xsd" version="1.1" creator="VisuGPX - https://www.visugpx.com">
  <metadata>
    <name>Tour d'Europe: étape 028</name>
    <desc><![CDATA[Étape 028]]></desc>
  </metadata>
  <trk>
    <name><![CDATA[Tour d'Europe: étape 028]]></name>
    <trkseg>
      <trkpt lat="60.84318" lon="5.17178">
        <ele>65.109412</ele>
        <time>2020-07-26T07:02:41.773Z</time>
      </trkpt>
      <trkpt lat="60.84328" lon="5.17212">
        <ele>65.109412</ele>
        <time>2020-07-26T07:02:56.810Z</time>
      </trkpt>
      <trkpt lat="60.84332" lon="5.1723">
        <ele>65.109412</ele>
        <time>2020-07-26T07:03:02.780Z</time>
      </trkpt>
      <trkpt lat="60.84337" lon="5.17248">
        <ele>65.109412</ele>
        <time>2020-07-26T07:03:08.780Z</time>
      </trkpt>
      <trkpt lat="60.84347" lon="5.17251">
        <ele>65.109412</ele>
        <time>2020-07-26T07:03:12.773Z</time>
      </trkpt>
      <trkpt lat="60.84355" lon="5.17238">
        <ele>65.109412</ele>
        <time>2020-07-26T07:03:16.780Z</time>
      </trkpt>
      <trkpt lat="60.84356" lon="5.17217">
        <ele>65.109412</ele>
        <time>2020-07-26T07:03:20.769Z</time>
      </trkpt>
      <trkpt lat="60.84355" lon="5.17196">
        <ele>65.109412</ele>
        <time>2020-07-26T07:03:24.808Z</time>
      </trkpt>
      <trkpt lat="60.84353" lon="5.17176">
        <ele>65.109412</ele>
        <time>2020-07-26T07:03:28.813Z</time>
      </trkpt>
      <trkpt lat="60.84351" lon="5.17157">
        <ele>64.850572</ele>
        <time>2020-07-26T07:03:32.791Z</time>
      </trkpt>
      <trkpt lat="60.8435" lon="5.17138">
        <ele>64.575662</ele>
        <time>2020-07-26T07:03:36.805Z</time>
      </trkpt>
      <trkpt lat="60.84349" lon="5.17117">
        <ele>64.284896</ele>
        <time>2020-07-26T07:03:40.773Z</time>
      </trkpt>
      <trkpt lat="60.84347" lon="5.17095">
        <ele>63.969605</ele>
        <time>2020-07-26T07:03:44.774Z</time>
      </trkpt>
      <trkpt lat="60.84346" lon="5.17073">
        <ele>63.655429</ele>
        <time>2020-07-26T07:03:48.774Z</time>
      </trkpt>
      <trkpt lat="60.84345" lon="5.1705">
        <ele>63.33308</ele>
        <time>2020-07-26T07:03:52.773Z</time>
      </trkpt>
      <trkpt lat="60.84344" lon="5.17027">
        <ele>63.00679</ele>
        <time>2020-07-26T07:03:56.798Z</time>
      </trkpt>
      <trkpt lat="60.84343" lon="5.17005">
        <ele>62.687668</ele>
        <time>2020-07-26T07:04:00.774Z</time>
      </trkpt>
      <trkpt lat="60.84342" lon="5.16986">
        <ele>62.424268</ele>
        <time>2020-07-26T07:04:03.776Z</time>
      </trkpt>
      <trkpt lat="60.84341" lon="5.16967">
        <ele>62.152082</ele>
        <time>2020-07-26T07:04:06.763Z</time>
      </trkpt>
      <trkpt lat="60.84339" lon="5.16947">
        <ele>61.859928</ele>
        <time>2020-07-26T07:04:09.781Z</time>
      </trkpt>
      <trkpt lat="60.84338" lon="5.16924">
        <ele>61.538735</ele>
        <time>2020-07-26T07:04:12.770Z</time>
      </trkpt>
      <trkpt lat="60.84336" lon="5.169">
        <ele>61.199759</ele>
        <time>2020-07-26T07:04:15.773Z</time>
      </trkpt>
      <trkpt lat="60.84335" lon="5.16873">
        <ele>60.821905</ele>
        <time>2020-07-26T07:04:18.827Z</time>
      </trkpt>
      <trkpt lat="60.84334" lon="5.16852">
        <ele>60.51843</ele>
        <time>2020-07-26T07:04:20.796Z</time>
      </trkpt>
      <trkpt lat="60.84333" lon="5.16828">
        <ele>60.177069</ele>
        <time>2020-07-26T07:04:22.791Z</time>
      </trkpt>
      <trkpt lat="60.84331" lon="5.16802">
        <ele>60.016395</ele>
        <time>2020-07-26T07:04:24.795Z</time>
      </trkpt>
      <trkpt lat="60.84329" lon="5.16772">
        <ele>60.461465</ele>
        <time>2020-07-26T07:04:26.788Z</time>
      </trkpt>
      <trkpt lat="60.84327" lon="5.16741">
        <ele>60.940872</ele>
        <time>2020-07-26T07:04:28.805Z</time>
      </trkpt>
      <trkpt lat="60.84325" lon="5.16708">
        <ele>61.444193</ele>
        <time>2020-07-26T07:04:30.772Z</time>
      </trkpt>
      <trkpt lat="60.84323" lon="5.16676">
        <ele>61.934774</ele>
        <time>2020-07-26T07:04:32.770Z</time>
      </trkpt>
      <trkpt lat="60.84321" lon="5.16645">
        <ele>62.404027</ele>
        <time>2020-07-26T07:04:34.767Z</time>
      </trkpt>
      <trkpt lat="60.84319" lon="5.16617">
        <ele>62.830308</ele>
        <time>2020-07-26T07:04:36.773Z</time>
      </trkpt>
      <trkpt lat="60.84317" lon="5.16591">
        <ele>63.220779</ele>
        <time>2020-07-26T07:04:38.779Z</time>
      </trkpt>
      <trkpt lat="60.84317" lon="5.16568">
        <ele>63.574111</ele>
        <time>2020-07-26T07:04:40.789Z</time>
      </trkpt>
      <trkpt lat="60.84316" lon="5.16548">
        <ele>63.868408</ele>
        <time>2020-07-26T07:04:42.803Z</time>
      </trkpt>
      <trkpt lat="60.84317" lon="5.16525">
        <ele>64.218729</ele>
        <time>2020-07-26T07:04:45.776Z</time>
      </trkpt>
      <trkpt lat="60.84319" lon="5.16506">
        <ele>64.509722</ele>
        <time>2020-07-26T07:04:48.783Z</time>
      </trkpt>
      <trkpt lat="60.84321" lon="5.16485">
        <ele>64.832725</ele>
        <time>2020-07-26T07:04:52.781Z</time>
      </trkpt>
      <trkpt lat="60.84322" lon="5.16465">
        <ele>65.139343</ele>
        <time>2020-07-26T07:04:56.767Z</time>
      </trkpt>
      <trkpt lat="60.84327" lon="5.16444">
        <ele>65.495254</ele>
        <time>2020-07-26T07:05:01.775Z</time>
      </trkpt>
      <trkpt lat="60.8433" lon="5.16426">
        <ele>65.88119</ele>
        <time>2020-07-26T07:05:05.798Z</time>
      </trkpt>
      <trkpt lat="60.84335" lon="5.16406">
        <ele>66.374165</ele>
        <time>2020-07-26T07:05:10.777Z</time>
      </trkpt>
      <trkpt lat="60.84342" lon="5.16391">
        <ele>66.807047</ele>
        <time>2020-07-26T07:05:14.775Z</time>
      </trkpt>
      <trkpt lat="60.84349" lon="5.16376">
        <ele>67.231029</ele>
        <time>2020-07-26T07:05:18.793Z</time>
      </trkpt>
      <trkpt lat="60.84356" lon="5.16361">
        <ele>67.673008</ele>
        <time>2020-07-26T07:05:22.779Z</time>
      </trkpt>
      <trkpt lat="60.84365" lon="5.16347">
        <ele>68.175218</ele>
        <time>2020-07-26T07:05:26.765Z</time>
      </trkpt>
      <trkpt lat="60.84374" lon="5.16334">
        <ele>68.62908</ele>
        <time>2020-07-26T07:05:30.776Z</time>
      </trkpt>
      <trkpt lat="60.84382" lon="5.1632">
        <ele>69.083793</ele>
        <time>2020-07-26T07:05:34.782Z</time>
      </trkpt>
      <trkpt lat="60.84391" lon="5.16306">
        <ele>69.579343</ele>
        <time>2020-07-26T07:05:38.785Z</time>
      </trkpt>
      <trkpt lat="60.84399" lon="5.16291">
        <ele>70.026038</ele>
        <time>2020-07-26T07:05:42.777Z</time>
      </trkpt>
      <trkpt lat="60.84408" lon="5.16276">
        <ele>70.526103</ele>
        <time>2020-07-26T07:05:46.785Z</time>
      </trkpt>
      <trkpt lat="60.84414" lon="5.16264">
        <ele>70.912961</ele>
        <time>2020-07-26T07:05:49.796Z</time>
      </trkpt>
      <trkpt lat="60.84422" lon="5.16253">
        <ele>71.302546</ele>
        <time>2020-07-26T07:05:52.812Z</time>
      </trkpt>
      <trkpt lat="60.84431" lon="5.16237">
        <ele>71.81657</ele>
        <time>2020-07-26T07:05:56.816Z</time>
      </trkpt>
      <trkpt lat="60.84438" lon="5.16224">
        <ele>72.223618</ele>
        <time>2020-07-26T07:05:59.795Z</time>
      </trkpt>
      <trkpt lat="60.84445" lon="5.16212">
        <ele>72.644436</ele>
        <time>2020-07-26T07:06:02.781Z</time>
      </trkpt>
      <trkpt lat="60.84453" lon="5.162">
        <ele>73.045984</ele>
        <time>2020-07-26T07:06:05.773Z</time>
      </trkpt>
      <trkpt lat="60.8446" lon="5.16187">
        <ele>72.923006</ele>
        <time>2020-07-26T07:06:08.795Z</time>
      </trkpt>
      <trkpt lat="60.84468" lon="5.16173">
        <ele>72.311687</ele>
        <time>2020-07-26T07:06:11.799Z</time>
      </trkpt>
      <trkpt lat="60.84476" lon="5.16158">
        <ele>71.646246</ele>
        <time>2020-07-26T07:06:14.818Z</time>
      </trkpt>
      <trkpt lat="60.84487" lon="5.16141">
        <ele>70.86202</ele>
        <time>2020-07-26T07:06:17.787Z</time>
      </trkpt>
      <trkpt lat="60.84495" lon="5.16127">
        <ele>70.242379</ele>
        <time>2020-07-26T07:06:19.772Z</time>
      </trkpt>
      <trkpt lat="60.84506" lon="5.16113">
        <ele>69.502097</ele>
        <time>2020-07-26T07:06:21.789Z</time>
      </trkpt>
      <trkpt lat="60.84518" lon="5.16096">
        <ele>68.656014</ele>
        <time>2020-07-26T07:06:23.794Z</time>
      </trkpt>
      <trkpt lat="60.8453" lon="5.16077">
        <ele>67.772549</ele>
        <time>2020-07-26T07:06:25.791Z</time>
      </trkpt>
      <trkpt lat="60.84541" lon="5.16054">
        <ele>66.843503</ele>
        <time>2020-07-26T07:06:27.776Z</time>
      </trkpt>
      <trkpt lat="60.84552" lon="5.16027">
        <ele>65.865421</ele>
        <time>2020-07-26T07:06:29.837Z</time>
      </trkpt>
      <trkpt lat="60.84557" lon="5.16012">
        <ele>65.323427</ele>
        <time>2020-07-26T07:06:30.785Z</time>
      </trkpt>
      <trkpt lat="60.84562" lon="5.15994">
        <ele>64.733233</ele>
        <time>2020-07-26T07:06:31.787Z</time>
      </trkpt>
      <trkpt lat="60.84567" lon="5.15975">
        <ele>64.128659</ele>
        <time>2020-07-26T07:06:32.787Z</time>
      </trkpt>
      <trkpt lat="60.84571" lon="5.15956">
        <ele>63.528615</ele>
        <time>2020-07-26T07:06:33.811Z</time>
      </trkpt>
      <trkpt lat="60.84575" lon="5.15936">
        <ele>62.925969</ele>
        <time>2020-07-26T07:06:34.781Z</time>
      </trkpt>
      <trkpt lat="60.84579" lon="5.15917">
        <ele>62.705441</ele>
        <time>2020-07-26T07:06:35.794Z</time>
      </trkpt>
      <trkpt lat="60.84583" lon="5.15897">
        <ele>62.648819</ele>
        <time>2020-07-26T07:06:36.789Z</time>
      </trkpt>
      <trkpt lat="60.84586" lon="5.15878">
        <ele>62.59347</ele>
        <time>2020-07-26T07:06:37.810Z</time>
      </trkpt>
      <trkpt lat="60.8459" lon="5.1586">
        <ele>62.540147</ele>
        <time>2020-07-26T07:06:38.788Z</time>
      </trkpt>
      <trkpt lat="60.84593" lon="5.15843">
        <ele>62.488507</ele>
        <time>2020-07-26T07:06:39.775Z</time>
      </trkpt>
      <trkpt lat="60.84597" lon="5.15826">
        <ele>62.438341</ele>
        <time>2020-07-26T07:06:40.838Z</time>
      </trkpt>
      <trkpt lat="60.84603" lon="5.15793">
        <ele>62.343952</ele>
        <time>2020-07-26T07:06:42.788Z</time>
      </trkpt>
      <trkpt lat="60.84608" lon="5.15765">
        <ele>62.259122</ele>
        <time>2020-07-26T07:06:44.796Z</time>
      </trkpt>
      <trkpt lat="60.84613" lon="5.15739">
        <ele>62.183136</ele>
        <time>2020-07-26T07:06:46.804Z</time>
      </trkpt>
      <trkpt lat="60.84619" lon="5.15717">
        <ele>62.116685</ele>
        <time>2020-07-26T07:06:48.777Z</time>
      </trkpt>
      <trkpt lat="60.84624" lon="5.15701">
        <ele>62.06613</ele>
        <time>2020-07-26T07:06:50.787Z</time>
      </trkpt>
      <trkpt lat="60.84631" lon="5.15684">
        <ele>62.003018</ele>
        <time>2020-07-26T07:06:53.777Z</time>
      </trkpt>
      <trkpt lat="60.84639" lon="5.15673">
        <ele>61.950606</ele>
        <time>2020-07-26T07:06:56.808Z</time>
      </trkpt>
      <trkpt lat="60.84647" lon="5.15663">
        <ele>61.89962</ele>
        <time>2020-07-26T07:06:58.813Z</time>
      </trkpt>
      <trkpt lat="60.84656" lon="5.15654">
        <ele>61.843329</ele>
        <time>2020-07-26T07:07:00.784Z</time>
      </trkpt>
      <trkpt lat="60.84666" lon="5.15648">
        <ele>61.780543</ele>
        <time>2020-07-26T07:07:02.806Z</time>
      </trkpt>
      <trkpt lat="60.84679" lon="5.15645">
        <ele>61.860633</ele>
        <time>2020-07-26T07:07:04.770Z</time>
      </trkpt>
      <trkpt lat="60.84691" lon="5.15641">
        <ele>62.160136</ele>
        <time>2020-07-26T07:07:06.778Z</time>
      </trkpt>
      <trkpt lat="60.84702" lon="5.15635">
        <ele>62.446397</ele>
        <time>2020-07-26T07:07:08.790Z</time>
      </trkpt>
      <trkpt lat="60.84712" lon="5.15627">
        <ele>62.705195</ele>
        <time>2020-07-26T07:07:10.795Z</time>
      </trkpt>
      <trkpt lat="60.8472" lon="5.15613">
        <ele>62.967136</ele>
        <time>2020-07-26T07:07:12.791Z</time>
      </trkpt>
      <trkpt lat="60.84726" lon="5.15596">
        <ele>63.23505</ele>
        <time>2020-07-26T07:07:14.774Z</time>
      </trkpt>
      <trkpt lat="60.84733" lon="5.1558">
        <ele>63.485741</ele>
        <time>2020-07-26T07:07:16.779Z</time>
      </trkpt>
      <trkpt lat="60.84738" lon="5.15556">
        <ele>63.805088</ele>
        <time>2020-07-26T07:07:19.784Z</time>
      </trkpt>
      <trkpt lat="60.84739" lon="5.15534">
        <ele>64.079094</ele>
        <time>2020-07-26T07:07:22.794Z</time>
      </trkpt>
      <trkpt lat="60.84734" lon="5.15517">
        <ele>64.309045</ele>
        <time>2020-07-26T07:07:25.797Z</time>
      </trkpt>
      <trkpt lat="60.84725" lon="5.15503">
        <ele>64.593893</ele>
        <time>2020-07-26T07:07:29.805Z</time>
      </trkpt>
      <trkpt lat="60.84717" lon="5.15494">
        <ele>64.827017</ele>
        <time>2020-07-26T07:07:33.776Z</time>
      </trkpt>
      <trkpt lat="60.84709" lon="5.15486">
        <ele>65.054482</ele>
        <time>2020-07-26T07:07:37.795Z</time>
      </trkpt>
      <trkpt lat="60.847" lon="5.15479">
        <ele>65.278737</ele>
        <time>2020-07-26T07:07:41.778Z</time>
      </trkpt>
      <trkpt lat="60.8469" lon="5.15473">
        <ele>65.534283</ele>
        <time>2020-07-26T07:07:46.788Z</time>
      </trkpt>
      <trkpt lat="60.84681" lon="5.15464">
        <ele>65.782352</ele>
        <time>2020-07-26T07:07:51.853Z</time>
      </trkpt>
      <trkpt lat="60.84671" lon="5.15458">
        <ele>66.051843</ele>
        <time>2020-07-26T07:07:56.789Z</time>
      </trkpt>
      <trkpt lat="60.84663" lon="5.15451">
        <ele>66.476147</ele>
        <time>2020-07-26T07:08:01.795Z</time>
      </trkpt>
      <trkpt lat="60.84653" lon="5.1544">
        <ele>67.53361</ele>
        <time>2020-07-26T07:08:07.803Z</time>
      </trkpt>
      <trkpt lat="60.84644" lon="5.15435">
        <ele>68.480756</ele>
        <time>2020-07-26T07:08:12.794Z</time>
      </trkpt>
      <trkpt lat="60.84635" lon="5.15425">
        <ele>69.530557</ele>
        <time>2020-07-26T07:08:18.777Z</time>
      </trkpt>
      <trkpt lat="60.84626" lon="5.15415">
        <ele>70.551674</ele>
        <time>2020-07-26T07:08:24.792Z</time>
      </trkpt>
      <trkpt lat="60.84617" lon="5.15408">
        <ele>71.452631</ele>
        <time>2020-07-26T07:08:29.834Z</time>
      </trkpt>
      <trkpt lat="60.84608" lon="5.15399">
        <ele>72.494577</ele>
        <time>2020-07-26T07:08:35.825Z</time>
      </trkpt>
      <trkpt lat="60.84599" lon="5.15393">
        <ele>73.442122</ele>
        <time>2020-07-26T07:08:41.808Z</time>
      </trkpt>
      <trkpt lat="60.84591" lon="5.15382">
        <ele>74.373333</ele>
        <time>2020-07-26T07:08:47.778Z</time>
      </trkpt>
      <trkpt lat="60.84585" lon="5.15369">
        <ele>75.285644</ele>
        <time>2020-07-26T07:08:53.780Z</time>
      </trkpt>
      <trkpt lat="60.84577" lon="5.15357">
        <ele>76.260489</ele>
        <time>2020-07-26T07:09:00.776Z</time>
      </trkpt>
      <trkpt lat="60.84569" lon="5.15347">
        <ele>77.161221</ele>
        <time>2020-07-26T07:09:06.796Z</time>
      </trkpt>
      <trkpt lat="60.84561" lon="5.15336">
        <ele>78.1138</ele>
        <time>2020-07-26T07:09:11.796Z</time>
      </trkpt>
      <trkpt lat="60.84553" lon="5.15324">
        <ele>79.105313</ele>
        <time>2020-07-26T07:09:17.788Z</time>
      </trkpt>
      <trkpt lat="60.84545" lon="5.15311">
        <ele>80.13026</ele>
        <time>2020-07-26T07:09:23.789Z</time>
      </trkpt>
      <trkpt lat="60.84539" lon="5.15297">
        <ele>81.073858</ele>
        <time>2020-07-26T07:09:28.790Z</time>
      </trkpt>
      <trkpt lat="60.84533" lon="5.15282">
        <ele>82.012491</ele>
        <time>2020-07-26T07:09:34.812Z</time>
      </trkpt>
      <trkpt lat="60.84529" lon="5.15264">
        <ele>82.992901</ele>
        <time>2020-07-26T07:09:40.809Z</time>
      </trkpt>
      <trkpt lat="60.84526" lon="5.15244">
        <ele>83.965844</ele>
        <time>2020-07-26T07:09:45.786Z</time>
      </trkpt>
      <trkpt lat="60.84523" lon="5.15228">
        <ele>84.49594</ele>
        <time>2020-07-26T07:09:50.807Z</time>
      </trkpt>
      <trkpt lat="60.84518" lon="5.15208">
        <ele>85.012647</ele>
        <time>2020-07-26T07:09:56.793Z</time>
      </trkpt>
      <trkpt lat="60.84515" lon="5.15189">
        <ele>85.473357</ele>
        <time>2020-07-26T07:10:01.798Z</time>
      </trkpt>
      <trkpt lat="60.84513" lon="5.1517">
        <ele>85.931886</ele>
        <time>2020-07-26T07:10:06.777Z</time>
      </trkpt>
      <trkpt lat="60.8451" lon="5.15152">
        <ele>86.371896</ele>
        <time>2020-07-26T07:10:10.802Z</time>
      </trkpt>
      <trkpt lat="60.84508" lon="5.15133">
        <ele>86.82588</ele>
        <time>2020-07-26T07:10:14.796Z</time>
      </trkpt>
      <trkpt lat="60.84506" lon="5.15113">
        <ele>87.286868</ele>
        <time>2020-07-26T07:10:18.782Z</time>
      </trkpt>
      <trkpt lat="60.84505" lon="5.15093">
        <ele>87.761936</ele>
        <time>2020-07-26T07:10:22.789Z</time>
      </trkpt>
      <trkpt lat="60.84503" lon="5.15074">
        <ele>88.229782</ele>
        <time>2020-07-26T07:10:26.798Z</time>
      </trkpt>
      <trkpt lat="60.84501" lon="5.15056">
        <ele>88.661851</ele>
        <time>2020-07-26T07:10:30.779Z</time>
      </trkpt>
      <trkpt lat="60.84499" lon="5.15035">
        <ele>89.164636</ele>
        <time>2020-07-26T07:10:35.792Z</time>
      </trkpt>
      <trkpt lat="60.84496" lon="5.15016">
        <ele>89.608435</ele>
        <time>2020-07-26T07:10:39.793Z</time>
      </trkpt>
      <trkpt lat="60.84494" lon="5.14994">
        <ele>90.14</ele>
        <time>2020-07-26T07:10:44.807Z</time>
      </trkpt>
      <trkpt lat="60.84492" lon="5.14972">
        <ele>90.665023</ele>
        <time>2020-07-26T07:10:49.784Z</time>
      </trkpt>
      <trkpt lat="60.84491" lon="5.14952">
        <ele>91.127329</ele>
        <time>2020-07-26T07:10:53.800Z</time>
      </trkpt>
      <trkpt lat="60.8449" lon="5.14931">
        <ele>91.631914</ele>
        <time>2020-07-26T07:10:58.813Z</time>
      </trkpt>
      <trkpt lat="60.84487" lon="5.1491">
        <ele>92.140403</ele>
        <time>2020-07-26T07:11:03.789Z</time>
      </trkpt>
      <trkpt lat="60.84484" lon="5.14891">
        <ele>92.610746</ele>
        <time>2020-07-26T07:11:08.798Z</time>
      </trkpt>
      <trkpt lat="60.84482" lon="5.14871">
        <ele>92.970596</ele>
        <time>2020-07-26T07:11:13.786Z</time>
      </trkpt>
      <trkpt lat="60.8448" lon="5.14851">
        <ele>93.265414</ele>
        <time>2020-07-26T07:11:18.793Z</time>
      </trkpt>
      <trkpt lat="60.84478" lon="5.14831">
        <ele>93.556974</ele>
        <time>2020-07-26T07:11:23.826Z</time>
      </trkpt>
      <trkpt lat="60.84477" lon="5.14811">
        <ele>93.83675</ele>
        <time>2020-07-26T07:11:28.773Z</time>
      </trkpt>
      <trkpt lat="60.84477" lon="5.14793">
        <ele>94.102395</ele>
        <time>2020-07-26T07:11:33.792Z</time>
      </trkpt>
      <trkpt lat="60.84476" lon="5.14772">
        <ele>94.403645</ele>
        <time>2020-07-26T07:11:39.786Z</time>
      </trkpt>
      <trkpt lat="60.84475" lon="5.14753">
        <ele>94.678309</ele>
        <time>2020-07-26T07:11:44.781Z</time>
      </trkpt>
      <trkpt lat="60.84473" lon="5.14734">
        <ele>94.962881</ele>
        <time>2020-07-26T07:11:49.790Z</time>
      </trkpt>
      <trkpt lat="60.8447" lon="5.14715">
        <ele>95.249945</ele>
        <time>2020-07-26T07:11:54.793Z</time>
      </trkpt>
      <trkpt lat="60.84467" lon="5.14697">
        <ele>95.52923</ele>
        <time>2020-07-26T07:11:59.808Z</time>
      </trkpt>
      <trkpt lat="60.84465" lon="5.14677">
        <ele>95.821543</ele>
        <time>2020-07-26T07:12:04.833Z</time>
      </trkpt>
      <trkpt lat="60.84463" lon="5.14657">
        <ele>96.119517</ele>
        <time>2020-07-26T07:12:09.809Z</time>
      </trkpt>
      <trkpt lat="60.84462" lon="5.14634">
        <ele>96.452208</ele>
        <time>2020-07-26T07:12:14.769Z</time>
      </trkpt>
      <trkpt lat="60.84462" lon="5.14611">
        <ele>96.785206</ele>
        <time>2020-07-26T07:12:19.817Z</time>
      </trkpt>
      <trkpt lat="60.84461" lon="5.14587">
        <ele>97.120103</ele>
        <time>2020-07-26T07:12:24.817Z</time>
      </trkpt>
      <trkpt lat="60.84462" lon="5.14565">
        <ele>97.439345</ele>
        <time>2020-07-26T07:12:28.799Z</time>
      </trkpt>
      <trkpt lat="60.84463" lon="5.14542">
        <ele>97.779656</ele>
        <time>2020-07-26T07:12:32.794Z</time>
      </trkpt>
      <trkpt lat="60.84465" lon="5.14517">
        <ele>98.12422</ele>
        <time>2020-07-26T07:12:36.804Z</time>
      </trkpt>
      <trkpt lat="60.84467" lon="5.14495">
        <ele>98.260279</ele>
        <time>2020-07-26T07:12:39.789Z</time>
      </trkpt>
      <trkpt lat="60.84469" lon="5.14472">
        <ele>98.411416</ele>
        <time>2020-07-26T07:12:42.792Z</time>
      </trkpt>
      <trkpt lat="60.84473" lon="5.14449">
        <ele>98.564864</ele>
        <time>2020-07-26T07:12:45.807Z</time>
      </trkpt>
      <trkpt lat="60.84478" lon="5.14428">
        <ele>98.711258</ele>
        <time>2020-07-26T07:12:48.804Z</time>
      </trkpt>
      <trkpt lat="60.84481" lon="5.1441">
        <ele>98.829751</ele>
        <time>2020-07-26T07:12:50.785Z</time>
      </trkpt>
      <trkpt lat="60.84485" lon="5.14389">
        <ele>98.967114</ele>
        <time>2020-07-26T07:12:52.798Z</time>
      </trkpt>
      <trkpt lat="60.84489" lon="5.14367">
        <ele>99.117335</ele>
        <time>2020-07-26T07:12:54.797Z</time>
      </trkpt>
      <trkpt lat="60.84494" lon="5.14344">
        <ele>99.276216</ele>
        <time>2020-07-26T07:12:56.787Z</time>
      </trkpt>
      <trkpt lat="60.84499" lon="5.1432">
        <ele>99.436714</ele>
        <time>2020-07-26T07:12:58.800Z</time>
      </trkpt>
      <trkpt lat="60.84505" lon="5.14294">
        <ele>99.618047</ele>
        <time>2020-07-26T07:13:00.785Z</time>
      </trkpt>
      <trkpt lat="60.84511" lon="5.14269">
        <ele>99.795988</ele>
        <time>2020-07-26T07:13:02.810Z</time>
      </trkpt>
      <trkpt lat="60.84517" lon="5.14244">
        <ele>99.969986</ele>
        <time>2020-07-26T07:13:04.799Z</time>
      </trkpt>
      <trkpt lat="60.84524" lon="5.14221">
        <ele>100.143351</ele>
        <time>2020-07-26T07:13:06.780Z</time>
      </trkpt>
      <trkpt lat="60.84534" lon="5.14197">
        <ele>100.339631</ele>
        <time>2020-07-26T07:13:08.787Z</time>
      </trkpt>
      <trkpt lat="60.84546" lon="5.14172">
        <ele>99.903311</ele>
        <time>2020-07-26T07:13:10.784Z</time>
      </trkpt>
      <trkpt lat="60.8456" lon="5.14147">
        <ele>98.968101</ele>
        <time>2020-07-26T07:13:12.775Z</time>
      </trkpt>
      <trkpt lat="60.84567" lon="5.14135">
        <ele>98.49411</ele>
        <time>2020-07-26T07:13:13.818Z</time>
      </trkpt>
      <trkpt lat="60.84575" lon="5.14123">
        <ele>97.994405</ele>
        <time>2020-07-26T07:13:14.792Z</time>
      </trkpt>
      <trkpt lat="60.84583" lon="5.14111">
        <ele>97.47086</ele>
        <time>2020-07-26T07:13:15.792Z</time>
      </trkpt>
      <trkpt lat="60.84592" lon="5.141">
        <ele>96.955737</ele>
        <time>2020-07-26T07:13:16.800Z</time>
      </trkpt>
      <trkpt lat="60.846" lon="5.14087">
        <ele>96.429067</ele>
        <time>2020-07-26T07:13:17.808Z</time>
      </trkpt>
      <trkpt lat="60.84609" lon="5.14074">
        <ele>95.874154</ele>
        <time>2020-07-26T07:13:18.786Z</time>
      </trkpt>
      <trkpt lat="60.84617" lon="5.14059">
        <ele>95.312139</ele>
        <time>2020-07-26T07:13:19.816Z</time>
      </trkpt>
      <trkpt lat="60.84624" lon="5.14042">
        <ele>94.762192</ele>
        <time>2020-07-26T07:13:20.779Z</time>
      </trkpt>
      <trkpt lat="60.8463" lon="5.14023">
        <ele>94.214709</ele>
        <time>2020-07-26T07:13:21.793Z</time>
      </trkpt>
      <trkpt lat="60.84634" lon="5.14004">
        <ele>93.691848</ele>
        <time>2020-07-26T07:13:22.784Z</time>
      </trkpt>
      <trkpt lat="60.84637" lon="5.13984">
        <ele>93.168456</ele>
        <time>2020-07-26T07:13:23.808Z</time>
      </trkpt>
      <trkpt lat="60.84639" lon="5.13964">
        <ele>92.650244</ele>
        <time>2020-07-26T07:13:24.780Z</time>
      </trkpt>
      <trkpt lat="60.8464" lon="5.13943">
        <ele>92.143838</ele>
        <time>2020-07-26T07:13:25.790Z</time>
      </trkpt>
      <trkpt lat="60.8464" lon="5.13924">
        <ele>91.661434</ele>
        <time>2020-07-26T07:13:26.789Z</time>
      </trkpt>
      <trkpt lat="60.84638" lon="5.13905">
        <ele>91.270674</ele>
        <time>2020-07-26T07:13:27.787Z</time>
      </trkpt>
      <trkpt lat="60.84637" lon="5.13887">
        <ele>91.427614</ele>
        <time>2020-07-26T07:13:28.810Z</time>
      </trkpt>
      <trkpt lat="60.84635" lon="5.13869">
        <ele>91.580734</ele>
        <time>2020-07-26T07:13:29.805Z</time>
      </trkpt>
      <trkpt lat="60.84632" lon="5.13851">
        <ele>91.735347</ele>
        <time>2020-07-26T07:13:30.800Z</time>
      </trkpt>
      <trkpt lat="60.84628" lon="5.13834">
        <ele>91.891119</ele>
        <time>2020-07-26T07:13:31.784Z</time>
      </trkpt>
      <trkpt lat="60.84623" lon="5.13818">
        <ele>92.044972</ele>
        <time>2020-07-26T07:13:32.815Z</time>
      </trkpt>
      <trkpt lat="60.84615" lon="5.13786">
        <ele>92.346701</ele>
        <time>2020-07-26T07:13:34.792Z</time>
      </trkpt>
      <trkpt lat="60.84605" lon="5.1376">
        <ele>92.612487</ele>
        <time>2020-07-26T07:13:36.785Z</time>
      </trkpt>
      <trkpt lat="60.84597" lon="5.13737">
        <ele>92.844303</ele>
        <time>2020-07-26T07:13:38.784Z</time>
      </trkpt>
      <trkpt lat="60.84591" lon="5.13717">
        <ele>93.036682</ele>
        <time>2020-07-26T07:13:40.791Z</time>
      </trkpt>
      <trkpt lat="60.84586" lon="5.13697">
        <ele>93.225173</ele>
        <time>2020-07-26T07:13:43.786Z</time>
      </trkpt>
      <trkpt lat="60.84581" lon="5.13681">
        <ele>93.38344</ele>
        <time>2020-07-26T07:13:47.806Z</time>
      </trkpt>
      <trkpt lat="60.84575" lon="5.13664">
        <ele>93.557383</ele>
        <time>2020-07-26T07:13:53.782Z</time>
      </trkpt>
      <trkpt lat="60.84569" lon="5.13646">
        <ele>93.732199</ele>
        <time>2020-07-26T07:13:58.811Z</time>
      </trkpt>
      <trkpt lat="60.84566" lon="5.13629">
        <ele>93.885224</ele>
        <time>2020-07-26T07:14:03.803Z</time>
      </trkpt>
      <trkpt lat="60.84564" lon="5.1361">
        <ele>94.04114</ele>
        <time>2020-07-26T07:14:08.826Z</time>
      </trkpt>
      <trkpt lat="60.84563" lon="5.1359">
        <ele>94.210686</ele>
        <time>2020-07-26T07:14:15.808Z</time>
      </trkpt>
      <trkpt lat="60.84565" lon="5.13572">
        <ele>94.610141</ele>
        <time>2020-07-26T07:14:21.795Z</time>
      </trkpt>
      <trkpt lat="60.84567" lon="5.13552">
        <ele>95.404236</ele>
        <time>2020-07-26T07:14:28.796Z</time>
      </trkpt>
      <trkpt lat="60.8457" lon="5.13533">
        <ele>96.187244</ele>
        <time>2020-07-26T07:14:34.820Z</time>
      </trkpt>
      <trkpt lat="60.84573" lon="5.13515">
        <ele>96.904503</ele>
        <time>2020-07-26T07:14:40.798Z</time>
      </trkpt>
      <trkpt lat="60.84577" lon="5.13497">
        <ele>97.700678</ele>
        <time>2020-07-26T07:14:47.830Z</time>
      </trkpt>
      <trkpt lat="60.84581" lon="5.1348">
        <ele>98.440571</ele>
        <time>2020-07-26T07:14:55.830Z</time>
      </trkpt>
      <trkpt lat="60.84584" lon="5.13461">
        <ele>99.212444</ele>
        <time>2020-07-26T07:15:02.774Z</time>
      </trkpt>
      <trkpt lat="60.84588" lon="5.13445">
        <ele>99.951141</ele>
        <time>2020-07-26T07:15:09.782Z</time>
      </trkpt>
      <trkpt lat="60.84592" lon="5.13424">
        <ele>100.812004</ele>
        <time>2020-07-26T07:15:17.806Z</time>
      </trkpt>
      <trkpt lat="60.84594" lon="5.13403">
        <ele>101.6167</ele>
        <time>2020-07-26T07:15:24.780Z</time>
      </trkpt>
      <trkpt lat="60.84594" lon="5.13382">
        <ele>102.455531</ele>
        <time>2020-07-26T07:15:32.828Z</time>
      </trkpt>
      <trkpt lat="60.84594" lon="5.13363">
        <ele>103.177198</ele>
        <time>2020-07-26T07:15:38.794Z</time>
      </trkpt>
      <trkpt lat="60.84593" lon="5.13343">
        <ele>103.971473</ele>
        <time>2020-07-26T07:15:45.803Z</time>
      </trkpt>
      <trkpt lat="60.84592" lon="5.13324">
        <ele>104.718467</ele>
        <time>2020-07-26T07:15:52.808Z</time>
      </trkpt>
      <trkpt lat="60.84592" lon="5.13305">
        <ele>105.462219</ele>
        <time>2020-07-26T07:15:59.776Z</time>
      </trkpt>
      <trkpt lat="60.84591" lon="5.13284">
        <ele>106.277465</ele>
        <time>2020-07-26T07:16:06.800Z</time>
      </trkpt>
      <trkpt lat="60.84592" lon="5.13266">
        <ele>106.998999</ele>
        <time>2020-07-26T07:16:11.779Z</time>
      </trkpt>
      <trkpt lat="60.84592" lon="5.13245">
        <ele>107.806446</ele>
        <time>2020-07-26T07:16:16.801Z</time>
      </trkpt>
      <trkpt lat="60.84592" lon="5.13224">
        <ele>108.630308</ele>
        <time>2020-07-26T07:16:21.784Z</time>
      </trkpt>
      <trkpt lat="60.84592" lon="5.13204">
        <ele>108.617618</ele>
        <time>2020-07-26T07:16:25.788Z</time>
      </trkpt>
      <trkpt lat="60.84592" lon="5.13182">
        <ele>108.524174</ele>
        <time>2020-07-26T07:16:29.824Z</time>
      </trkpt>
      <trkpt lat="60.84591" lon="5.13161">
        <ele>108.429828</ele>
        <time>2020-07-26T07:16:33.786Z</time>
      </trkpt>
      <trkpt lat="60.84591" lon="5.13141">
        <ele>108.346783</ele>
        <time>2020-07-26T07:16:36.798Z</time>
      </trkpt>
      <trkpt lat="60.84592" lon="5.13123">
        <ele>108.265822</ele>
        <time>2020-07-26T07:16:39.812Z</time>
      </trkpt>
      <trkpt lat="60.84593" lon="5.131">
        <ele>108.166072</ele>
        <time>2020-07-26T07:16:42.828Z</time>
      </trkpt>
      <trkpt lat="60.84593" lon="5.13072">
        <ele>108.04716</ele>
        <time>2020-07-26T07:16:45.772Z</time>
      </trkpt>
      <trkpt lat="60.84593" lon="5.13052">
        <ele>107.958953</ele>
        <time>2020-07-26T07:16:47.799Z</time>
      </trkpt>
      <trkpt lat="60.84593" lon="5.13031">
        <ele>107.868563</ele>
        <time>2020-07-26T07:16:49.788Z</time>
      </trkpt>
      <trkpt lat="60.84593" lon="5.1301">
        <ele>107.776478</ele>
        <time>2020-07-26T07:16:51.827Z</time>
      </trkpt>
      <trkpt lat="60.84593" lon="5.12987">
        <ele>107.68001</ele>
        <time>2020-07-26T07:16:53.806Z</time>
      </trkpt>
      <trkpt lat="60.84594" lon="5.12963">
        <ele>107.574826</ele>
        <time>2020-07-26T07:16:55.813Z</time>
      </trkpt>
      <trkpt lat="60.84596" lon="5.12938">
        <ele>107.467152</ele>
        <time>2020-07-26T07:16:57.790Z</time>
      </trkpt>
      <trkpt lat="60.84599" lon="5.12911">
        <ele>107.345747</ele>
        <time>2020-07-26T07:16:59.790Z</time>
      </trkpt>
      <trkpt lat="60.84603" lon="5.12882">
        <ele>107.217282</ele>
        <time>2020-07-26T07:17:01.799Z</time>
      </trkpt>
      <trkpt lat="60.84608" lon="5.12853">
        <ele>107.082848</ele>
        <time>2020-07-26T07:17:03.790Z</time>
      </trkpt>
      <trkpt lat="60.84614" lon="5.12823">
        <ele>106.957497</ele>
        <time>2020-07-26T07:17:05.789Z</time>
      </trkpt>
      <trkpt lat="60.84621" lon="5.12795">
        <ele>106.83329</ele>
        <time>2020-07-26T07:17:07.783Z</time>
      </trkpt>
      <trkpt lat="60.84629" lon="5.12768">
        <ele>106.712026</ele>
        <time>2020-07-26T07:17:09.828Z</time>
      </trkpt>
      <trkpt lat="60.84637" lon="5.12741">
        <ele>106.58598</ele>
        <time>2020-07-26T07:17:11.808Z</time>
      </trkpt>
      <trkpt lat="60.84647" lon="5.12715">
        <ele>106.458604</ele>
        <time>2020-07-26T07:17:13.788Z</time>
      </trkpt>
      <trkpt lat="60.84658" lon="5.12691">
        <ele>106.328512</ele>
        <time>2020-07-26T07:17:15.797Z</time>
      </trkpt>
      <trkpt lat="60.84669" lon="5.12667">
        <ele>106.198156</ele>
        <time>2020-07-26T07:17:17.864Z</time>
      </trkpt>
      <trkpt lat="60.84681" lon="5.12642">
        <ele>106.059383</ele>
        <time>2020-07-26T07:17:19.781Z</time>
      </trkpt>
      <trkpt lat="60.84694" lon="5.12617">
        <ele>105.916623</ele>
        <time>2020-07-26T07:17:21.781Z</time>
      </trkpt>
      <trkpt lat="60.84701" lon="5.12604">
        <ele>105.843439</ele>
        <time>2020-07-26T07:17:22.788Z</time>
      </trkpt>
      <trkpt lat="60.84707" lon="5.12591">
        <ele>105.769705</ele>
        <time>2020-07-26T07:17:23.785Z</time>
      </trkpt>
      <trkpt lat="60.84714" lon="5.12578">
        <ele>105.697092</ele>
        <time>2020-07-26T07:17:24.795Z</time>
      </trkpt>
      <trkpt lat="60.8472" lon="5.12564">
        <ele>105.417666</ele>
        <time>2020-07-26T07:17:25.777Z</time>
      </trkpt>
      <trkpt lat="60.84727" lon="5.12551">
        <ele>104.874894</ele>
        <time>2020-07-26T07:17:26.815Z</time>
      </trkpt>
      <trkpt lat="60.84733" lon="5.12537">
        <ele>104.338283</ele>
        <time>2020-07-26T07:17:27.813Z</time>
      </trkpt>
      <trkpt lat="60.8474" lon="5.12524">
        <ele>103.793081</ele>
        <time>2020-07-26T07:17:28.794Z</time>
      </trkpt>
      <trkpt lat="60.84746" lon="5.12512">
        <ele>103.260047</ele>
        <time>2020-07-26T07:17:29.784Z</time>
      </trkpt>
      <trkpt lat="60.84753" lon="5.12499">
        <ele>102.723072</ele>
        <time>2020-07-26T07:17:30.785Z</time>
      </trkpt>
      <trkpt lat="60.84759" lon="5.12485">
        <ele>102.180276</ele>
        <time>2020-07-26T07:17:31.793Z</time>
      </trkpt>
      <trkpt lat="60.84766" lon="5.12472">
        <ele>101.627094</ele>
        <time>2020-07-26T07:17:32.835Z</time>
      </trkpt>
      <trkpt lat="60.84773" lon="5.12458">
        <ele>101.071899</ele>
        <time>2020-07-26T07:17:33.774Z</time>
      </trkpt>
      <trkpt lat="60.84779" lon="5.12445">
        <ele>100.520879</ele>
        <time>2020-07-26T07:17:34.779Z</time>
      </trkpt>
      <trkpt lat="60.84786" lon="5.12431">
        <ele>99.971889</ele>
        <time>2020-07-26T07:17:35.817Z</time>
      </trkpt>
      <trkpt lat="60.84793" lon="5.12418">
        <ele>99.424922</ele>
        <time>2020-07-26T07:17:36.785Z</time>
      </trkpt>
      <trkpt lat="60.84799" lon="5.12404">
        <ele>98.859297</ele>
        <time>2020-07-26T07:17:37.798Z</time>
      </trkpt>
      <trkpt lat="60.84806" lon="5.1239">
        <ele>98.287749</ele>
        <time>2020-07-26T07:17:38.804Z</time>
      </trkpt>
      <trkpt lat="60.84813" lon="5.12376">
        <ele>97.72028</ele>
        <time>2020-07-26T07:17:39.813Z</time>
      </trkpt>
      <trkpt lat="60.8482" lon="5.12362">
        <ele>97.156863</ele>
        <time>2020-07-26T07:17:40.829Z</time>
      </trkpt>
      <trkpt lat="60.84827" lon="5.12349">
        <ele>96.605418</ele>
        <time>2020-07-26T07:17:41.822Z</time>
      </trkpt>
      <trkpt lat="60.84833" lon="5.12336">
        <ele>96.072884</ele>
        <time>2020-07-26T07:17:42.812Z</time>
      </trkpt>
      <trkpt lat="60.84839" lon="5.12322">
        <ele>95.536282</ele>
        <time>2020-07-26T07:17:43.800Z</time>
      </trkpt>
      <trkpt lat="60.84846" lon="5.12309">
        <ele>95.013619</ele>
        <time>2020-07-26T07:17:44.793Z</time>
      </trkpt>
      <trkpt lat="60.84859" lon="5.12284">
        <ele>94.125122</ele>
        <time>2020-07-26T07:17:46.786Z</time>
      </trkpt>
      <trkpt lat="60.84871" lon="5.1226">
        <ele>93.258889</ele>
        <time>2020-07-26T07:17:48.789Z</time>
      </trkpt>
      <trkpt lat="60.84884" lon="5.12236">
        <ele>92.411128</ele>
        <time>2020-07-26T07:17:50.790Z</time>
      </trkpt>
      <trkpt lat="60.84896" lon="5.12213">
        <ele>91.587252</ele>
        <time>2020-07-26T07:17:52.807Z</time>
      </trkpt>
      <trkpt lat="60.84908" lon="5.12192">
        <ele>90.810724</ele>
        <time>2020-07-26T07:17:54.780Z</time>
      </trkpt>
      <trkpt lat="60.84919" lon="5.1217">
        <ele>90.029317</ele>
        <time>2020-07-26T07:17:56.796Z</time>
      </trkpt>
      <trkpt lat="60.84931" lon="5.12149">
        <ele>89.259751</ele>
        <time>2020-07-26T07:17:58.780Z</time>
      </trkpt>
      <trkpt lat="60.84941" lon="5.12128">
        <ele>88.528332</ele>
        <time>2020-07-26T07:18:00.788Z</time>
      </trkpt>
      <trkpt lat="60.84951" lon="5.12108">
        <ele>87.824778</ele>
        <time>2020-07-26T07:18:02.807Z</time>
      </trkpt>
      <trkpt lat="60.84962" lon="5.12088">
        <ele>87.117073</ele>
        <time>2020-07-26T07:18:04.784Z</time>
      </trkpt>
      <trkpt lat="60.84972" lon="5.12067">
        <ele>86.397891</ele>
        <time>2020-07-26T07:18:06.796Z</time>
      </trkpt>
      <trkpt lat="60.84983" lon="5.12048">
        <ele>85.703211</ele>
        <time>2020-07-26T07:18:08.798Z</time>
      </trkpt>
      <trkpt lat="60.84994" lon="5.12031">
        <ele>85.049458</ele>
        <time>2020-07-26T07:18:10.793Z</time>
      </trkpt>
      <trkpt lat="60.85005" lon="5.12017">
        <ele>84.447787</ele>
        <time>2020-07-26T07:18:12.787Z</time>
      </trkpt>
      <trkpt lat="60.85017" lon="5.12005">
        <ele>83.828672</ele>
        <time>2020-07-26T07:18:14.805Z</time>
      </trkpt>
      <trkpt lat="60.85031" lon="5.11993">
        <ele>83.138026</ele>
        <time>2020-07-26T07:18:16.795Z</time>
      </trkpt>
      <trkpt lat="60.85047" lon="5.11986">
        <ele>82.387739</ele>
        <time>2020-07-26T07:18:18.772Z</time>
      </trkpt>
      <trkpt lat="60.85064" lon="5.1198">
        <ele>81.562283</ele>
        <time>2020-07-26T07:18:20.792Z</time>
      </trkpt>
      <trkpt lat="60.85073" lon="5.11976">
        <ele>81.139164</ele>
        <time>2020-07-26T07:18:21.792Z</time>
      </trkpt>
      <trkpt lat="60.85082" lon="5.1197">
        <ele>80.693788</ele>
        <time>2020-07-26T07:18:22.869Z</time>
      </trkpt>
      <trkpt lat="60.85091" lon="5.11964">
        <ele>80.2708</ele>
        <time>2020-07-26T07:18:23.811Z</time>
      </trkpt>
      <trkpt lat="60.85099" lon="5.11956">
        <ele>79.83787</ele>
        <time>2020-07-26T07:18:24.783Z</time>
      </trkpt>
      <trkpt lat="60.85108" lon="5.11946">
        <ele>79.369712</ele>
        <time>2020-07-26T07:18:25.786Z</time>
      </trkpt>
      <trkpt lat="60.85117" lon="5.11934">
        <ele>78.886593</ele>
        <time>2020-07-26T07:18:26.852Z</time>
      </trkpt>
      <trkpt lat="60.85125" lon="5.11922">
        <ele>78.403707</ele>
        <time>2020-07-26T07:18:27.798Z</time>
      </trkpt>
      <trkpt lat="60.85133" lon="5.11909">
        <ele>77.933874</ele>
        <time>2020-07-26T07:18:28.787Z</time>
      </trkpt>
      <trkpt lat="60.8514" lon="5.11895">
        <ele>77.425824</ele>
        <time>2020-07-26T07:18:29.816Z</time>
      </trkpt>
      <trkpt lat="60.85146" lon="5.11881">
        <ele>76.872444</ele>
        <time>2020-07-26T07:18:30.810Z</time>
      </trkpt>
      <trkpt lat="60.85151" lon="5.11866">
        <ele>76.33027</ele>
        <time>2020-07-26T07:18:31.776Z</time>
      </trkpt>
      <trkpt lat="60.85157" lon="5.1185">
        <ele>75.74064</ele>
        <time>2020-07-26T07:18:32.809Z</time>
      </trkpt>
      <trkpt lat="60.85163" lon="5.11831">
        <ele>75.075342</ele>
        <time>2020-07-26T07:18:33.826Z</time>
      </trkpt>
      <trkpt lat="60.8517" lon="5.11811">
        <ele>74.349565</ele>
        <time>2020-07-26T07:18:34.800Z</time>
      </trkpt>
      <trkpt lat="60.85177" lon="5.11791">
        <ele>73.644031</ele>
        <time>2020-07-26T07:18:35.800Z</time>
      </trkpt>
      <trkpt lat="60.85183" lon="5.11772">
        <ele>72.971068</ele>
        <time>2020-07-26T07:18:36.812Z</time>
      </trkpt>
      <trkpt lat="60.85189" lon="5.11753">
        <ele>72.311201</ele>
        <time>2020-07-26T07:18:37.788Z</time>
      </trkpt>
      <trkpt lat="60.85195" lon="5.11735">
        <ele>71.667768</ele>
        <time>2020-07-26T07:18:38.792Z</time>
      </trkpt>
      <trkpt lat="60.85201" lon="5.11717">
        <ele>71.027258</ele>
        <time>2020-07-26T07:18:39.782Z</time>
      </trkpt>
      <trkpt lat="60.85208" lon="5.11699">
        <ele>70.374997</ele>
        <time>2020-07-26T07:18:40.823Z</time>
      </trkpt>
      <trkpt lat="60.85214" lon="5.11682">
        <ele>69.739037</ele>
        <time>2020-07-26T07:18:41.787Z</time>
      </trkpt>
      <trkpt lat="60.85221" lon="5.11666">
        <ele>69.10999</ele>
        <time>2020-07-26T07:18:42.820Z</time>
      </trkpt>
      <trkpt lat="60.85227" lon="5.1165">
        <ele>68.502394</ele>
        <time>2020-07-26T07:18:43.812Z</time>
      </trkpt>
      <trkpt lat="60.85234" lon="5.11636">
        <ele>67.912246</ele>
        <time>2020-07-26T07:18:44.812Z</time>
      </trkpt>
      <trkpt lat="60.85242" lon="5.1162">
        <ele>67.25852</ele>
        <time>2020-07-26T07:18:45.779Z</time>
      </trkpt>
      <trkpt lat="60.8525" lon="5.11605">
        <ele>66.699852</ele>
        <time>2020-07-26T07:18:46.793Z</time>
      </trkpt>
      <trkpt lat="60.85259" lon="5.1159">
        <ele>66.29601</ele>
        <time>2020-07-26T07:18:47.789Z</time>
      </trkpt>
      <trkpt lat="60.85267" lon="5.11577">
        <ele>65.905545</ele>
        <time>2020-07-26T07:18:48.784Z</time>
      </trkpt>
      <trkpt lat="60.85275" lon="5.11564">
        <ele>65.529292</ele>
        <time>2020-07-26T07:18:49.813Z</time>
      </trkpt>
      <trkpt lat="60.85283" lon="5.11552">
        <ele>65.161708</ele>
        <time>2020-07-26T07:18:50.783Z</time>
      </trkpt>
      <trkpt lat="60.8529" lon="5.11541">
        <ele>64.805475</ele>
        <time>2020-07-26T07:18:51.784Z</time>
      </trkpt>
      <trkpt lat="60.85298" lon="5.1153">
        <ele>64.456377</ele>
        <time>2020-07-26T07:18:52.792Z</time>
      </trkpt>
      <trkpt lat="60.85312" lon="5.11509">
        <ele>63.804395</ele>
        <time>2020-07-26T07:18:54.779Z</time>
      </trkpt>
      <trkpt lat="60.85325" lon="5.11489">
        <ele>63.191133</ele>
        <time>2020-07-26T07:18:56.809Z</time>
      </trkpt>
      <trkpt lat="60.85338" lon="5.11471">
        <ele>62.611102</ele>
        <time>2020-07-26T07:18:58.783Z</time>
      </trkpt>
      <trkpt lat="60.85351" lon="5.11452">
        <ele>62.035168</ele>
        <time>2020-07-26T07:19:00.812Z</time>
      </trkpt>
      <trkpt lat="60.85363" lon="5.11435">
        <ele>61.473649</ele>
        <time>2020-07-26T07:19:02.788Z</time>
      </trkpt>
      <trkpt lat="60.85376" lon="5.11418">
        <ele>60.914145</ele>
        <time>2020-07-26T07:19:04.842Z</time>
      </trkpt>
      <trkpt lat="60.85388" lon="5.11401">
        <ele>60.357786</ele>
        <time>2020-07-26T07:19:06.810Z</time>
      </trkpt>
      <trkpt lat="60.85399" lon="5.11385">
        <ele>60.549667</ele>
        <time>2020-07-26T07:19:08.788Z</time>
      </trkpt>
      <trkpt lat="60.85409" lon="5.1137">
        <ele>61.085061</ele>
        <time>2020-07-26T07:19:10.782Z</time>
      </trkpt>
      <trkpt lat="60.85418" lon="5.11356">
        <ele>61.547848</ele>
        <time>2020-07-26T07:19:12.800Z</time>
      </trkpt>
      <trkpt lat="60.85425" lon="5.11343">
        <ele>61.962452</ele>
        <time>2020-07-26T07:19:14.781Z</time>
      </trkpt>
      <trkpt lat="60.85432" lon="5.11331">
        <ele>62.371883</ele>
        <time>2020-07-26T07:19:16.808Z</time>
      </trkpt>
      <trkpt lat="60.8544" lon="5.11321">
        <ele>62.785846</ele>
        <time>2020-07-26T07:19:18.793Z</time>
      </trkpt>
      <trkpt lat="60.85449" lon="5.11312">
        <ele>63.203197</ele>
        <time>2020-07-26T07:19:20.780Z</time>
      </trkpt>
      <trkpt lat="60.85457" lon="5.11304">
        <ele>63.60244</ele>
        <time>2020-07-26T07:19:22.823Z</time>
      </trkpt>
      <trkpt lat="60.8547" lon="5.11294">
        <ele>64.172443</ele>
        <time>2020-07-26T07:19:25.781Z</time>
      </trkpt>
      <trkpt lat="60.85482" lon="5.11286">
        <ele>64.725244</ele>
        <time>2020-07-26T07:19:28.799Z</time>
      </trkpt>
      <trkpt lat="60.85493" lon="5.11281">
        <ele>65.233754</ele>
        <time>2020-07-26T07:19:31.780Z</time>
      </trkpt>
      <trkpt lat="60.85504" lon="5.11277">
        <ele>65.727483</ele>
        <time>2020-07-26T07:19:34.778Z</time>
      </trkpt>
      <trkpt lat="60.85516" lon="5.11274">
        <ele>66.224743</ele>
        <time>2020-07-26T07:19:37.788Z</time>
      </trkpt>
      <trkpt lat="60.85527" lon="5.11273">
        <ele>66.706191</ele>
        <time>2020-07-26T07:19:40.779Z</time>
      </trkpt>
      <trkpt lat="60.85538" lon="5.11274">
        <ele>67.174561</ele>
        <time>2020-07-26T07:19:43.787Z</time>
      </trkpt>
      <trkpt lat="60.85549" lon="5.11276">
        <ele>67.666612</ele>
        <time>2020-07-26T07:19:46.808Z</time>
      </trkpt>
      <trkpt lat="60.85561" lon="5.1128">
        <ele>68.05838</ele>
        <time>2020-07-26T07:19:49.793Z</time>
      </trkpt>
      <trkpt lat="60.85573" lon="5.11286">
        <ele>68.277061</ele>
        <time>2020-07-26T07:19:52.800Z</time>
      </trkpt>
      <trkpt lat="60.85584" lon="5.11293">
        <ele>68.484103</ele>
        <time>2020-07-26T07:19:55.804Z</time>
      </trkpt>
      <trkpt lat="60.85595" lon="5.11302">
        <ele>68.693762</ele>
        <time>2020-07-26T07:19:58.826Z</time>
      </trkpt>
      <trkpt lat="60.85607" lon="5.11311">
        <ele>68.914253</ele>
        <time>2020-07-26T07:20:01.793Z</time>
      </trkpt>
      <trkpt lat="60.85615" lon="5.11318">
        <ele>69.078372</ele>
        <time>2020-07-26T07:20:03.798Z</time>
      </trkpt>
      <trkpt lat="60.85625" lon="5.11325">
        <ele>69.255712</ele>
        <time>2020-07-26T07:20:05.769Z</time>
      </trkpt>
      <trkpt lat="60.85634" lon="5.11333">
        <ele>69.433261</ele>
        <time>2020-07-26T07:20:07.808Z</time>
      </trkpt>
      <trkpt lat="60.85644" lon="5.11342">
        <ele>69.615823</ele>
        <time>2020-07-26T07:20:09.786Z</time>
      </trkpt>
      <trkpt lat="60.85653" lon="5.11351">
        <ele>69.80626</ele>
        <time>2020-07-26T07:20:11.806Z</time>
      </trkpt>
      <trkpt lat="60.85664" lon="5.1136">
        <ele>70.010022</ele>
        <time>2020-07-26T07:20:13.785Z</time>
      </trkpt>
      <trkpt lat="60.85675" lon="5.1137">
        <ele>70.219086</ele>
        <time>2020-07-26T07:20:15.804Z</time>
      </trkpt>
      <trkpt lat="60.85685" lon="5.11379">
        <ele>70.423525</ele>
        <time>2020-07-26T07:20:17.847Z</time>
      </trkpt>
      <trkpt lat="60.85696" lon="5.11389">
        <ele>70.632242</ele>
        <time>2020-07-26T07:20:19.786Z</time>
      </trkpt>
      <trkpt lat="60.85707" lon="5.11399">
        <ele>70.842927</ele>
        <time>2020-07-26T07:20:21.812Z</time>
      </trkpt>
      <trkpt lat="60.85718" lon="5.11408">
        <ele>71.045741</ele>
        <time>2020-07-26T07:20:23.799Z</time>
      </trkpt>
      <trkpt lat="60.85728" lon="5.11417">
        <ele>70.910491</ele>
        <time>2020-07-26T07:20:25.767Z</time>
      </trkpt>
      <trkpt lat="60.85738" lon="5.11426">
        <ele>70.416677</ele>
        <time>2020-07-26T07:20:27.780Z</time>
      </trkpt>
      <trkpt lat="60.85747" lon="5.11434">
        <ele>69.938169</ele>
        <time>2020-07-26T07:20:29.813Z</time>
      </trkpt>
      <trkpt lat="60.85757" lon="5.11442">
        <ele>69.463892</ele>
        <time>2020-07-26T07:20:31.779Z</time>
      </trkpt>
      <trkpt lat="60.85766" lon="5.1145">
        <ele>68.993047</ele>
        <time>2020-07-26T07:20:33.806Z</time>
      </trkpt>
      <trkpt lat="60.85776" lon="5.11457">
        <ele>68.5149</ele>
        <time>2020-07-26T07:20:35.789Z</time>
      </trkpt>
      <trkpt lat="60.85786" lon="5.11464">
        <ele>68.040405</ele>
        <time>2020-07-26T07:20:37.792Z</time>
      </trkpt>
      <trkpt lat="60.85796" lon="5.11471">
        <ele>67.564258</ele>
        <time>2020-07-26T07:20:39.827Z</time>
      </trkpt>
      <trkpt lat="60.85805" lon="5.1148">
        <ele>67.07946</ele>
        <time>2020-07-26T07:20:41.798Z</time>
      </trkpt>
      <trkpt lat="60.85815" lon="5.1149">
        <ele>66.581183</ele>
        <time>2020-07-26T07:20:43.806Z</time>
      </trkpt>
      <trkpt lat="60.85826" lon="5.115">
        <ele>66.027643</ele>
        <time>2020-07-26T07:20:45.793Z</time>
      </trkpt>
      <trkpt lat="60.85837" lon="5.1151">
        <ele>65.459694</ele>
        <time>2020-07-26T07:20:47.784Z</time>
      </trkpt>
      <trkpt lat="60.85849" lon="5.11522">
        <ele>64.852626</ele>
        <time>2020-07-26T07:20:49.810Z</time>
      </trkpt>
      <trkpt lat="60.85861" lon="5.11532">
        <ele>64.259379</ele>
        <time>2020-07-26T07:20:51.789Z</time>
      </trkpt>
      <trkpt lat="60.85875" lon="5.11543">
        <ele>63.586245</ele>
        <time>2020-07-26T07:20:53.799Z</time>
      </trkpt>
      <trkpt lat="60.85891" lon="5.11556">
        <ele>62.814073</ele>
        <time>2020-07-26T07:20:55.799Z</time>
      </trkpt>
      <trkpt lat="60.85907" lon="5.11569">
        <ele>62.035667</ele>
        <time>2020-07-26T07:20:57.807Z</time>
      </trkpt>
      <trkpt lat="60.85922" lon="5.11583">
        <ele>61.271402</ele>
        <time>2020-07-26T07:20:59.784Z</time>
      </trkpt>
      <trkpt lat="60.85938" lon="5.11595">
        <ele>60.525449</ele>
        <time>2020-07-26T07:21:01.780Z</time>
      </trkpt>
      <trkpt lat="60.85953" lon="5.11607">
        <ele>59.783434</ele>
        <time>2020-07-26T07:21:03.774Z</time>
      </trkpt>
      <trkpt lat="60.85967" lon="5.11618">
        <ele>59.091344</ele>
        <time>2020-07-26T07:21:05.807Z</time>
      </trkpt>
      <trkpt lat="60.85981" lon="5.11626">
        <ele>58.43668</ele>
        <time>2020-07-26T07:21:07.825Z</time>
      </trkpt>
      <trkpt lat="60.85994" lon="5.11633">
        <ele>57.826528</ele>
        <time>2020-07-26T07:21:09.797Z</time>
      </trkpt>
      <trkpt lat="60.86007" lon="5.11638">
        <ele>57.25977</ele>
        <time>2020-07-26T07:21:11.797Z</time>
      </trkpt>
      <trkpt lat="60.8602" lon="5.11642">
        <ele>56.670419</ele>
        <time>2020-07-26T07:21:13.781Z</time>
      </trkpt>
      <trkpt lat="60.86032" lon="5.11645">
        <ele>56.120529</ele>
        <time>2020-07-26T07:21:15.812Z</time>
      </trkpt>
      <trkpt lat="60.86043" lon="5.11647">
        <ele>55.5907</ele>
        <time>2020-07-26T07:21:17.787Z</time>
      </trkpt>
      <trkpt lat="60.86055" lon="5.1165">
        <ele>55.07005</ele>
        <time>2020-07-26T07:21:19.773Z</time>
      </trkpt>
      <trkpt lat="60.86067" lon="5.11649">
        <ele>54.77926</ele>
        <time>2020-07-26T07:21:21.794Z</time>
      </trkpt>
      <trkpt lat="60.86078" lon="5.11648">
        <ele>54.785115</ele>
        <time>2020-07-26T07:21:23.807Z</time>
      </trkpt>
      <trkpt lat="60.86089" lon="5.11648">
        <ele>54.790764</ele>
        <time>2020-07-26T07:21:25.782Z</time>
      </trkpt>
      <trkpt lat="60.861" lon="5.11648">
        <ele>54.796259</ele>
        <time>2020-07-26T07:21:27.794Z</time>
      </trkpt>
      <trkpt lat="60.8611" lon="5.11648">
        <ele>54.801399</ele>
        <time>2020-07-26T07:21:29.815Z</time>
      </trkpt>
      <trkpt lat="60.8612" lon="5.11648">
        <ele>54.806589</ele>
        <time>2020-07-26T07:21:31.786Z</time>
      </trkpt>
      <trkpt lat="60.86131" lon="5.11648">
        <ele>54.811729</ele>
        <time>2020-07-26T07:21:33.808Z</time>
      </trkpt>
      <trkpt lat="60.86141" lon="5.11648">
        <ele>54.817123</ele>
        <time>2020-07-26T07:21:35.809Z</time>
      </trkpt>
      <trkpt lat="60.86152" lon="5.11649">
        <ele>54.822518</ele>
        <time>2020-07-26T07:21:37.791Z</time>
      </trkpt>
      <trkpt lat="60.86162" lon="5.11648">
        <ele>54.827815</ele>
        <time>2020-07-26T07:21:39.784Z</time>
      </trkpt>
      <trkpt lat="60.86172" lon="5.11648">
        <ele>54.832802</ele>
        <time>2020-07-26T07:21:41.785Z</time>
      </trkpt>
      <trkpt lat="60.86181" lon="5.11649">
        <ele>54.837585</ele>
        <time>2020-07-26T07:21:43.784Z</time>
      </trkpt>
      <trkpt lat="60.86191" lon="5.11647">
        <ele>54.842379</ele>
        <time>2020-07-26T07:21:45.796Z</time>
      </trkpt>
      <trkpt lat="60.862" lon="5.11647">
        <ele>54.847062</ele>
        <time>2020-07-26T07:21:47.776Z</time>
      </trkpt>
      <trkpt lat="60.86212" lon="5.11645">
        <ele>54.853386</ele>
        <time>2020-07-26T07:21:50.823Z</time>
      </trkpt>
      <trkpt lat="60.86224" lon="5.11646">
        <ele>54.859138</ele>
        <time>2020-07-26T07:21:53.790Z</time>
      </trkpt>
      <trkpt lat="60.86233" lon="5.11646">
        <ele>54.864075</ele>
        <time>2020-07-26T07:21:56.787Z</time>
      </trkpt>
      <trkpt lat="60.86242" lon="5.11647">
        <ele>54.899659</ele>
        <time>2020-07-26T07:21:59.797Z</time>
      </trkpt>
      <trkpt lat="60.86253" lon="5.11646">
        <ele>55.205896</ele>
        <time>2020-07-26T07:22:03.791Z</time>
      </trkpt>
      <trkpt lat="60.86264" lon="5.11648">
        <ele>55.507706</ele>
        <time>2020-07-26T07:22:07.781Z</time>
      </trkpt>
      <trkpt lat="60.86274" lon="5.1165">
        <ele>55.812612</ele>
        <time>2020-07-26T07:22:11.804Z</time>
      </trkpt>
      <trkpt lat="60.86285" lon="5.11652">
        <ele>56.110654</ele>
        <time>2020-07-26T07:22:15.796Z</time>
      </trkpt>
      <trkpt lat="60.86295" lon="5.11655">
        <ele>56.40849</ele>
        <time>2020-07-26T07:22:19.826Z</time>
      </trkpt>
      <trkpt lat="60.86305" lon="5.11656">
        <ele>56.695005</ele>
        <time>2020-07-26T07:22:23.810Z</time>
      </trkpt>
      <trkpt lat="60.86317" lon="5.11662">
        <ele>57.023046</ele>
        <time>2020-07-26T07:22:27.788Z</time>
      </trkpt>
      <trkpt lat="60.86326" lon="5.11666">
        <ele>57.293214</ele>
        <time>2020-07-26T07:22:30.777Z</time>
      </trkpt>
      <trkpt lat="60.86336" lon="5.1167">
        <ele>57.572824</ele>
        <time>2020-07-26T07:22:33.804Z</time>
      </trkpt>
      <trkpt lat="60.86347" lon="5.11675">
        <ele>57.911183</ele>
        <time>2020-07-26T07:22:36.797Z</time>
      </trkpt>
      <trkpt lat="60.8636" lon="5.11683">
        <ele>58.293877</ele>
        <time>2020-07-26T07:22:39.780Z</time>
      </trkpt>
      <trkpt lat="60.8637" lon="5.11689">
        <ele>58.593846</ele>
        <time>2020-07-26T07:22:41.795Z</time>
      </trkpt>
      <trkpt lat="60.86381" lon="5.11697">
        <ele>58.923748</ele>
        <time>2020-07-26T07:22:43.799Z</time>
      </trkpt>
      <trkpt lat="60.86394" lon="5.11704">
        <ele>59.281555</ele>
        <time>2020-07-26T07:22:45.793Z</time>
      </trkpt>
      <trkpt lat="60.86405" lon="5.11713">
        <ele>59.625046</ele>
        <time>2020-07-26T07:22:47.787Z</time>
      </trkpt>
      <trkpt lat="60.86417" lon="5.11722">
        <ele>59.942271</ele>
        <time>2020-07-26T07:22:49.804Z</time>
      </trkpt>
      <trkpt lat="60.86431" lon="5.11731">
        <ele>59.675336</ele>
        <time>2020-07-26T07:22:51.791Z</time>
      </trkpt>
      <trkpt lat="60.86445" lon="5.1174">
        <ele>59.397394</ele>
        <time>2020-07-26T07:22:53.816Z</time>
      </trkpt>
      <trkpt lat="60.86459" lon="5.11749">
        <ele>59.120026</ele>
        <time>2020-07-26T07:22:55.834Z</time>
      </trkpt>
      <trkpt lat="60.86475" lon="5.1176">
        <ele>58.807484</ele>
        <time>2020-07-26T07:22:57.777Z</time>
      </trkpt>
      <trkpt lat="60.8649" lon="5.11771">
        <ele>58.49879</ele>
        <time>2020-07-26T07:22:59.789Z</time>
      </trkpt>
      <trkpt lat="60.86505" lon="5.11782">
        <ele>58.203715</ele>
        <time>2020-07-26T07:23:01.792Z</time>
      </trkpt>
      <trkpt lat="60.86522" lon="5.11792">
        <ele>57.872241</ele>
        <time>2020-07-26T07:23:03.809Z</time>
      </trkpt>
      <trkpt lat="60.86539" lon="5.11802">
        <ele>57.54672</ele>
        <time>2020-07-26T07:23:05.806Z</time>
      </trkpt>
      <trkpt lat="60.86555" lon="5.11813">
        <ele>57.217595</ele>
        <time>2020-07-26T07:23:07.787Z</time>
      </trkpt>
      <trkpt lat="60.86572" lon="5.11822">
        <ele>56.886847</ele>
        <time>2020-07-26T07:23:09.798Z</time>
      </trkpt>
      <trkpt lat="60.8659" lon="5.11827">
        <ele>56.576896</ele>
        <time>2020-07-26T07:23:11.801Z</time>
      </trkpt>
      <trkpt lat="60.86607" lon="5.1183">
        <ele>56.467766</ele>
        <time>2020-07-26T07:23:13.778Z</time>
      </trkpt>
      <trkpt lat="60.86624" lon="5.11831">
        <ele>56.358317</ele>
        <time>2020-07-26T07:23:15.787Z</time>
      </trkpt>
      <trkpt lat="60.86641" lon="5.11831">
        <ele>56.246998</ele>
        <time>2020-07-26T07:23:17.786Z</time>
      </trkpt>
      <trkpt lat="60.86657" lon="5.11831">
        <ele>56.149118</ele>
        <time>2020-07-26T07:23:19.850Z</time>
      </trkpt>
      <trkpt lat="60.8667" lon="5.11829">
        <ele>56.061933</ele>
        <time>2020-07-26T07:23:21.824Z</time>
      </trkpt>
      <trkpt lat="60.86682" lon="5.11826">
        <ele>55.984437</ele>
        <time>2020-07-26T07:23:23.804Z</time>
      </trkpt>
      <trkpt lat="60.86693" lon="5.11822">
        <ele>55.916003</ele>
        <time>2020-07-26T07:23:25.789Z</time>
      </trkpt>
      <trkpt lat="60.86704" lon="5.11816">
        <ele>55.83878</ele>
        <time>2020-07-26T07:23:28.785Z</time>
      </trkpt>
      <trkpt lat="60.86715" lon="5.11811">
        <ele>55.770589</ele>
        <time>2020-07-26T07:23:31.796Z</time>
      </trkpt>
      <trkpt lat="60.86725" lon="5.11806">
        <ele>55.704406</ele>
        <time>2020-07-26T07:23:34.779Z</time>
      </trkpt>
      <trkpt lat="60.86736" lon="5.11801">
        <ele>55.632675</ele>
        <time>2020-07-26T07:23:37.828Z</time>
      </trkpt>
      <trkpt lat="60.86748" lon="5.11795">
        <ele>55.55221</ele>
        <time>2020-07-26T07:23:40.808Z</time>
      </trkpt>
      <trkpt lat="60.86758" lon="5.11792">
        <ele>55.488978</ele>
        <time>2020-07-26T07:23:42.804Z</time>
      </trkpt>
      <trkpt lat="60.86768" lon="5.11786">
        <ele>55.396638</ele>
        <time>2020-07-26T07:23:44.783Z</time>
      </trkpt>
      <trkpt lat="60.8678" lon="5.11782">
        <ele>55.215512</ele>
        <time>2020-07-26T07:23:46.788Z</time>
      </trkpt>
      <trkpt lat="60.86792" lon="5.11776">
        <ele>55.020086</ele>
        <time>2020-07-26T07:23:48.779Z</time>
      </trkpt>
      <trkpt lat="60.86806" lon="5.11771">
        <ele>54.788635</ele>
        <time>2020-07-26T07:23:50.781Z</time>
      </trkpt>
      <trkpt lat="60.8682" lon="5.11765">
        <ele>54.572144</ele>
        <time>2020-07-26T07:23:52.788Z</time>
      </trkpt>
      <trkpt lat="60.86832" lon="5.11759">
        <ele>54.380166</ele>
        <time>2020-07-26T07:23:54.775Z</time>
      </trkpt>
      <trkpt lat="60.86842" lon="5.11755">
        <ele>54.214548</ele>
        <time>2020-07-26T07:23:56.798Z</time>
      </trkpt>
      <trkpt lat="60.86851" lon="5.1175">
        <ele>54.065363</ele>
        <time>2020-07-26T07:23:58.785Z</time>
      </trkpt>
      <trkpt lat="60.8686" lon="5.11745">
        <ele>53.920531</ele>
        <time>2020-07-26T07:24:00.776Z</time>
      </trkpt>
      <trkpt lat="60.86873" lon="5.11739">
        <ele>53.718013</ele>
        <time>2020-07-26T07:24:03.788Z</time>
      </trkpt>
      <trkpt lat="60.86884" lon="5.11735">
        <ele>53.53016</ele>
        <time>2020-07-26T07:24:06.824Z</time>
      </trkpt>
      <trkpt lat="60.86896" lon="5.11734">
        <ele>53.350982</ele>
        <time>2020-07-26T07:24:09.829Z</time>
      </trkpt>
      <trkpt lat="60.86907" lon="5.11734">
        <ele>53.18143</ele>
        <time>2020-07-26T07:24:12.788Z</time>
      </trkpt>
      <trkpt lat="60.86917" lon="5.11735">
        <ele>53.011696</ele>
        <time>2020-07-26T07:24:15.787Z</time>
      </trkpt>
      <trkpt lat="60.86928" lon="5.11738">
        <ele>52.844218</ele>
        <time>2020-07-26T07:24:18.782Z</time>
      </trkpt>
      <trkpt lat="60.86939" lon="5.11742">
        <ele>52.671682</ele>
        <time>2020-07-26T07:24:21.789Z</time>
      </trkpt>
      <trkpt lat="60.8695" lon="5.11747">
        <ele>52.500942</ele>
        <time>2020-07-26T07:24:24.785Z</time>
      </trkpt>
      <trkpt lat="60.86961" lon="5.11751">
        <ele>52.342651</ele>
        <time>2020-07-26T07:24:27.792Z</time>
      </trkpt>
      <trkpt lat="60.86972" lon="5.11754">
        <ele>52.181033</ele>
        <time>2020-07-26T07:24:30.786Z</time>
      </trkpt>
      <trkpt lat="60.86985" lon="5.11759">
        <ele>51.999068</ele>
        <time>2020-07-26T07:24:33.796Z</time>
      </trkpt>
      <trkpt lat="60.86994" lon="5.11763">
        <ele>51.866781</ele>
        <time>2020-07-26T07:24:35.790Z</time>
      </trkpt>
      <trkpt lat="60.87004" lon="5.11768">
        <ele>51.719578</ele>
        <time>2020-07-26T07:24:37.783Z</time>
      </trkpt>
      <trkpt lat="60.87016" lon="5.11773">
        <ele>51.554839</ele>
        <time>2020-07-26T07:24:39.780Z</time>
      </trkpt>
      <trkpt lat="60.87028" lon="5.11779">
        <ele>51.37809</ele>
        <time>2020-07-26T07:24:41.795Z</time>
      </trkpt>
      <trkpt lat="60.8704" lon="5.11785">
        <ele>51.202721</ele>
        <time>2020-07-26T07:24:43.813Z</time>
      </trkpt>
      <trkpt lat="60.87052" lon="5.11793">
        <ele>51.023844</ele>
        <time>2020-07-26T07:24:45.792Z</time>
      </trkpt>
      <trkpt lat="60.87064" lon="5.11799">
        <ele>50.850008</ele>
        <time>2020-07-26T07:24:47.817Z</time>
      </trkpt>
      <trkpt lat="60.87075" lon="5.11806">
        <ele>50.679696</ele>
        <time>2020-07-26T07:24:49.779Z</time>
      </trkpt>
      <trkpt lat="60.87086" lon="5.11813">
        <ele>50.522731</ele>
        <time>2020-07-26T07:24:51.776Z</time>
      </trkpt>
      <trkpt lat="60.87095" lon="5.11819">
        <ele>50.386284</ele>
        <time>2020-07-26T07:24:53.779Z</time>
      </trkpt>
      <trkpt lat="60.87108" lon="5.1182">
        <ele>50.197277</ele>
        <time>2020-07-26T07:24:56.779Z</time>
      </trkpt>
      <trkpt lat="60.87121" lon="5.11822">
        <ele>49.967154</ele>
        <time>2020-07-26T07:24:59.798Z</time>
      </trkpt>
      <trkpt lat="60.87133" lon="5.11826">
        <ele>49.578184</ele>
        <time>2020-07-26T07:25:02.781Z</time>
      </trkpt>
      <trkpt lat="60.87145" lon="5.11831">
        <ele>49.216559</ele>
        <time>2020-07-26T07:25:05.807Z</time>
      </trkpt>
      <trkpt lat="60.87155" lon="5.11834">
        <ele>48.898265</ele>
        <time>2020-07-26T07:25:08.823Z</time>
      </trkpt>
      <trkpt lat="60.87166" lon="5.11838">
        <ele>48.563089</ele>
        <time>2020-07-26T07:25:11.801Z</time>
      </trkpt>
      <trkpt lat="60.87176" lon="5.11839">
        <ele>48.253568</ele>
        <time>2020-07-26T07:25:14.778Z</time>
      </trkpt>
      <trkpt lat="60.87186" lon="5.11843">
        <ele>47.933349</ele>
        <time>2020-07-26T07:25:17.797Z</time>
      </trkpt>
      <trkpt lat="60.87196" lon="5.11849">
        <ele>47.588675</ele>
        <time>2020-07-26T07:25:20.786Z</time>
      </trkpt>
      <trkpt lat="60.87207" lon="5.11859">
        <ele>47.234604</ele>
        <time>2020-07-26T07:25:23.817Z</time>
      </trkpt>
      <trkpt lat="60.87217" lon="5.11867">
        <ele>46.889956</ele>
        <time>2020-07-26T07:25:26.820Z</time>
      </trkpt>
      <trkpt lat="60.87226" lon="5.11881">
        <ele>46.538771</ele>
        <time>2020-07-26T07:25:29.774Z</time>
      </trkpt>
      <trkpt lat="60.87236" lon="5.119">
        <ele>46.134426</ele>
        <time>2020-07-26T07:25:32.792Z</time>
      </trkpt>
      <trkpt lat="60.87246" lon="5.11916">
        <ele>45.724521</ele>
        <time>2020-07-26T07:25:35.789Z</time>
      </trkpt>
      <trkpt lat="60.87254" lon="5.11926">
        <ele>45.44232</ele>
        <time>2020-07-26T07:25:37.800Z</time>
      </trkpt>
      <trkpt lat="60.87266" lon="5.11941">
        <ele>45.021532</ele>
        <time>2020-07-26T07:25:40.797Z</time>
      </trkpt>
      <trkpt lat="60.87277" lon="5.11954">
        <ele>44.623653</ele>
        <time>2020-07-26T07:25:43.787Z</time>
      </trkpt>
      <trkpt lat="60.87285" lon="5.11964">
        <ele>44.635487</ele>
        <time>2020-07-26T07:25:45.777Z</time>
      </trkpt>
      <trkpt lat="60.87293" lon="5.11975">
        <ele>44.8752</ele>
        <time>2020-07-26T07:25:47.775Z</time>
      </trkpt>
      <trkpt lat="60.87303" lon="5.11989">
        <ele>45.205138</ele>
        <time>2020-07-26T07:25:50.780Z</time>
      </trkpt>
      <trkpt lat="60.87315" lon="5.12004">
        <ele>45.555418</ele>
        <time>2020-07-26T07:25:53.797Z</time>
      </trkpt>
      <trkpt lat="60.87324" lon="5.12014">
        <ele>45.812418</ele>
        <time>2020-07-26T07:25:55.791Z</time>
      </trkpt>
      <trkpt lat="60.87333" lon="5.12025">
        <ele>46.07328</ele>
        <time>2020-07-26T07:25:57.779Z</time>
      </trkpt>
      <trkpt lat="60.87342" lon="5.12037">
        <ele>46.341275</ele>
        <time>2020-07-26T07:25:59.811Z</time>
      </trkpt>
      <trkpt lat="60.8735" lon="5.12046">
        <ele>46.587727</ele>
        <time>2020-07-26T07:26:01.791Z</time>
      </trkpt>
      <trkpt lat="60.87359" lon="5.12056">
        <ele>46.845383</ele>
        <time>2020-07-26T07:26:03.781Z</time>
      </trkpt>
      <trkpt lat="60.87368" lon="5.12065">
        <ele>47.099084</ele>
        <time>2020-07-26T07:26:05.796Z</time>
      </trkpt>
      <trkpt lat="60.87379" lon="5.12078">
        <ele>47.425324</ele>
        <time>2020-07-26T07:26:08.797Z</time>
      </trkpt>
      <trkpt lat="60.87389" lon="5.1209">
        <ele>47.712786</ele>
        <time>2020-07-26T07:26:11.781Z</time>
      </trkpt>
      <trkpt lat="60.87399" lon="5.12102">
        <ele>48.016284</ele>
        <time>2020-07-26T07:26:14.785Z</time>
      </trkpt>
      <trkpt lat="60.8741" lon="5.12111">
        <ele>48.311478</ele>
        <time>2020-07-26T07:26:17.828Z</time>
      </trkpt>
      <trkpt lat="60.87421" lon="5.1212">
        <ele>48.608146</ele>
        <time>2020-07-26T07:26:20.776Z</time>
      </trkpt>
      <trkpt lat="60.87433" lon="5.12127">
        <ele>48.914306</ele>
        <time>2020-07-26T07:26:23.788Z</time>
      </trkpt>
      <trkpt lat="60.87444" lon="5.12133">
        <ele>49.318446</ele>
        <time>2020-07-26T07:26:26.778Z</time>
      </trkpt>
      <trkpt lat="60.87457" lon="5.12135">
        <ele>49.87246</ele>
        <time>2020-07-26T07:26:29.808Z</time>
      </trkpt>
      <trkpt lat="60.87469" lon="5.12135">
        <ele>50.410214</ele>
        <time>2020-07-26T07:26:32.780Z</time>
      </trkpt>
      <trkpt lat="60.8748" lon="5.12139">
        <ele>50.88994</ele>
        <time>2020-07-26T07:26:35.787Z</time>
      </trkpt>
      <trkpt lat="60.87491" lon="5.12145">
        <ele>51.415548</ele>
        <time>2020-07-26T07:26:38.823Z</time>
      </trkpt>
      <trkpt lat="60.87502" lon="5.12151">
        <ele>51.872858</ele>
        <time>2020-07-26T07:26:41.790Z</time>
      </trkpt>
      <trkpt lat="60.87513" lon="5.12155">
        <ele>52.369801</ele>
        <time>2020-07-26T07:26:44.804Z</time>
      </trkpt>
      <trkpt lat="60.87523" lon="5.12159">
        <ele>52.835504</ele>
        <time>2020-07-26T07:26:47.787Z</time>
      </trkpt>
      <trkpt lat="60.87534" lon="5.12161">
        <ele>53.291928</ele>
        <time>2020-07-26T07:26:50.804Z</time>
      </trkpt>
      <trkpt lat="60.87543" lon="5.12163">
        <ele>53.718087</ele>
        <time>2020-07-26T07:26:53.775Z</time>
      </trkpt>
      <trkpt lat="60.87555" lon="5.12167">
        <ele>54.215777</ele>
        <time>2020-07-26T07:26:57.789Z</time>
      </trkpt>
      <trkpt lat="60.87564" lon="5.12166">
        <ele>54.613857</ele>
        <time>2020-07-26T07:27:01.775Z</time>
      </trkpt>
      <trkpt lat="60.87573" lon="5.12176">
        <ele>55.086642</ele>
        <time>2020-07-26T07:27:05.806Z</time>
      </trkpt>
      <trkpt lat="60.87583" lon="5.12179">
        <ele>55.501567</ele>
        <time>2020-07-26T07:27:09.789Z</time>
      </trkpt>
      <trkpt lat="60.87594" lon="5.12184">
        <ele>56.00786</ele>
        <time>2020-07-26T07:27:13.780Z</time>
      </trkpt>
      <trkpt lat="60.87605" lon="5.12186">
        <ele>56.469693</ele>
        <time>2020-07-26T07:27:17.868Z</time>
      </trkpt>
      <trkpt lat="60.87615" lon="5.12191">
        <ele>56.915861</ele>
        <time>2020-07-26T07:27:21.813Z</time>
      </trkpt>
      <trkpt lat="60.87624" lon="5.12198">
        <ele>56.920922</ele>
        <time>2020-07-26T07:27:25.799Z</time>
      </trkpt>
      <trkpt lat="60.87633" lon="5.1221">
        <ele>56.905363</ele>
        <time>2020-07-26T07:27:30.806Z</time>
      </trkpt>
      <trkpt lat="60.8764" lon="5.12222">
        <ele>56.891928</ele>
        <time>2020-07-26T07:27:34.796Z</time>
      </trkpt>
      <trkpt lat="60.87647" lon="5.12236">
        <ele>56.877247</ele>
        <time>2020-07-26T07:27:37.795Z</time>
      </trkpt>
      <trkpt lat="60.87655" lon="5.12253">
        <ele>56.859937</ele>
        <time>2020-07-26T07:27:40.791Z</time>
      </trkpt>
      <trkpt lat="60.87663" lon="5.12274">
        <ele>56.841067</ele>
        <time>2020-07-26T07:27:43.789Z</time>
      </trkpt>
      <trkpt lat="60.87669" lon="5.12297">
        <ele>56.821971</ele>
        <time>2020-07-26T07:27:46.772Z</time>
      </trkpt>
      <trkpt lat="60.87674" lon="5.12315">
        <ele>56.807438</ele>
        <time>2020-07-26T07:27:48.837Z</time>
      </trkpt>
      <trkpt lat="60.87678" lon="5.12335">
        <ele>56.79134</ele>
        <time>2020-07-26T07:27:50.786Z</time>
      </trkpt>
      <trkpt lat="60.8768" lon="5.12359">
        <ele>56.773949</ele>
        <time>2020-07-26T07:27:52.816Z</time>
      </trkpt>
      <trkpt lat="60.87681" lon="5.12385">
        <ele>56.754967</ele>
        <time>2020-07-26T07:27:54.791Z</time>
      </trkpt>
      <trkpt lat="60.87682" lon="5.12413">
        <ele>56.735348</ele>
        <time>2020-07-26T07:27:56.770Z</time>
      </trkpt>
      <trkpt lat="60.87682" lon="5.12441">
        <ele>56.714661</ele>
        <time>2020-07-26T07:27:58.797Z</time>
      </trkpt>
      <trkpt lat="60.87682" lon="5.12472">
        <ele>56.692745</ele>
        <time>2020-07-26T07:28:00.795Z</time>
      </trkpt>
      <trkpt lat="60.87681" lon="5.12502">
        <ele>56.670521</ele>
        <time>2020-07-26T07:28:02.779Z</time>
      </trkpt>
      <trkpt lat="60.87681" lon="5.12533">
        <ele>56.635165</ele>
        <time>2020-07-26T07:28:04.797Z</time>
      </trkpt>
      <trkpt lat="60.87681" lon="5.12564">
        <ele>56.599318</ele>
        <time>2020-07-26T07:28:06.791Z</time>
      </trkpt>
      <trkpt lat="60.87683" lon="5.12595">
        <ele>56.561787</ele>
        <time>2020-07-26T07:28:08.801Z</time>
      </trkpt>
      <trkpt lat="60.87689" lon="5.12625">
        <ele>56.524265</ele>
        <time>2020-07-26T07:28:10.782Z</time>
      </trkpt>
      <trkpt lat="60.87698" lon="5.12651">
        <ele>56.485755</ele>
        <time>2020-07-26T07:28:12.790Z</time>
      </trkpt>
      <trkpt lat="60.87708" lon="5.12672">
        <ele>56.450778</ele>
        <time>2020-07-26T07:28:14.780Z</time>
      </trkpt>
      <trkpt lat="60.87719" lon="5.12688">
        <ele>56.418606</ele>
        <time>2020-07-26T07:28:16.789Z</time>
      </trkpt>
      <trkpt lat="60.8773" lon="5.12698">
        <ele>56.38906</ele>
        <time>2020-07-26T07:28:18.789Z</time>
      </trkpt>
      <trkpt lat="60.8774" lon="5.12707">
        <ele>56.363612</ele>
        <time>2020-07-26T07:28:20.827Z</time>
      </trkpt>
      <trkpt lat="60.87752" lon="5.12717">
        <ele>56.333498</ele>
        <time>2020-07-26T07:28:23.797Z</time>
      </trkpt>
      <trkpt lat="60.87761" lon="5.12727">
        <ele>56.308448</ele>
        <time>2020-07-26T07:28:26.832Z</time>
      </trkpt>
      <trkpt lat="60.87771" lon="5.12741">
        <ele>56.278528</ele>
        <time>2020-07-26T07:28:30.803Z</time>
      </trkpt>
      <trkpt lat="60.87778" lon="5.12753">
        <ele>56.256327</ele>
        <time>2020-07-26T07:28:33.809Z</time>
      </trkpt>
      <trkpt lat="60.87785" lon="5.12769">
        <ele>56.236303</ele>
        <time>2020-07-26T07:28:36.789Z</time>
      </trkpt>
      <trkpt lat="60.87792" lon="5.12784">
        <ele>56.272832</ele>
        <time>2020-07-26T07:28:39.813Z</time>
      </trkpt>
      <trkpt lat="60.87798" lon="5.12799">
        <ele>56.307907</ele>
        <time>2020-07-26T07:28:42.794Z</time>
      </trkpt>
      <trkpt lat="60.87803" lon="5.12815">
        <ele>56.343033</ele>
        <time>2020-07-26T07:28:45.785Z</time>
      </trkpt>
      <trkpt lat="60.87809" lon="5.1283">
        <ele>56.376935</ele>
        <time>2020-07-26T07:28:48.806Z</time>
      </trkpt>
      <trkpt lat="60.87814" lon="5.12847">
        <ele>56.412722</ele>
        <time>2020-07-26T07:28:51.788Z</time>
      </trkpt>
      <trkpt lat="60.87818" lon="5.12866">
        <ele>56.449424</ele>
        <time>2020-07-26T07:28:54.815Z</time>
      </trkpt>
      <trkpt lat="60.8782" lon="5.12884">
        <ele>56.482157</ele>
        <time>2020-07-26T07:28:57.824Z</time>
      </trkpt>
      <trkpt lat="60.87824" lon="5.12904">
        <ele>56.520038</ele>
        <time>2020-07-26T07:29:01.808Z</time>
      </trkpt>
      <trkpt lat="60.87825" lon="5.12925">
        <ele>56.557237</ele>
        <time>2020-07-26T07:29:06.810Z</time>
      </trkpt>
      <trkpt lat="60.87822" lon="5.1295">
        <ele>56.603846</ele>
        <time>2020-07-26T07:30:08.800Z</time>
      </trkpt>
      <trkpt lat="60.87821" lon="5.12975">
        <ele>56.648585</ele>
        <time>2020-07-26T07:30:12.809Z</time>
      </trkpt>
      <trkpt lat="60.8782" lon="5.12995">
        <ele>56.685034</ele>
        <time>2020-07-26T07:30:15.795Z</time>
      </trkpt>
      <trkpt lat="60.8782" lon="5.13016">
        <ele>56.721395</ele>
        <time>2020-07-26T07:30:18.834Z</time>
      </trkpt>
      <trkpt lat="60.8782" lon="5.13037">
        <ele>56.759717</ele>
        <time>2020-07-26T07:30:21.794Z</time>
      </trkpt>
      <trkpt lat="60.87819" lon="5.1306">
        <ele>56.799879</ele>
        <time>2020-07-26T07:30:24.789Z</time>
      </trkpt>
      <trkpt lat="60.87818" lon="5.13083">
        <ele>56.841247</ele>
        <time>2020-07-26T07:30:27.784Z</time>
      </trkpt>
      <trkpt lat="60.87817" lon="5.13108">
        <ele>56.886237</ele>
        <time>2020-07-26T07:30:30.800Z</time>
      </trkpt>
      <trkpt lat="60.87816" lon="5.13134">
        <ele>56.707511</ele>
        <time>2020-07-26T07:30:33.778Z</time>
      </trkpt>
      <trkpt lat="60.87815" lon="5.13153">
        <ele>56.560321</ele>
        <time>2020-07-26T07:30:35.792Z</time>
      </trkpt>
      <trkpt lat="60.87815" lon="5.13172">
        <ele>56.408083</ele>
        <time>2020-07-26T07:30:37.809Z</time>
      </trkpt>
      <trkpt lat="60.87814" lon="5.13192">
        <ele>56.246405</ele>
        <time>2020-07-26T07:30:39.795Z</time>
      </trkpt>
      <trkpt lat="60.87815" lon="5.13213">
        <ele>56.080645</ele>
        <time>2020-07-26T07:30:41.781Z</time>
      </trkpt>
      <trkpt lat="60.87816" lon="5.13235">
        <ele>55.904593</ele>
        <time>2020-07-26T07:30:43.792Z</time>
      </trkpt>
      <trkpt lat="60.87819" lon="5.13258">
        <ele>55.717068</ele>
        <time>2020-07-26T07:30:45.822Z</time>
      </trkpt>
      <trkpt lat="60.87825" lon="5.13282">
        <ele>55.510366</ele>
        <time>2020-07-26T07:30:47.798Z</time>
      </trkpt>
      <trkpt lat="60.87832" lon="5.13304">
        <ele>55.291734</ele>
        <time>2020-07-26T07:30:49.801Z</time>
      </trkpt>
      <trkpt lat="60.87841" lon="5.13323">
        <ele>55.080448</ele>
        <time>2020-07-26T07:30:52.065Z</time>
      </trkpt>
      <trkpt lat="60.87851" lon="5.13337">
        <ele>54.886084</ele>
        <time>2020-07-26T07:30:53.793Z</time>
      </trkpt>
      <trkpt lat="60.87862" lon="5.13347">
        <ele>54.689352</ele>
        <time>2020-07-26T07:30:55.791Z</time>
      </trkpt>
      <trkpt lat="60.87874" lon="5.13353">
        <ele>54.498688</ele>
        <time>2020-07-26T07:30:57.781Z</time>
      </trkpt>
      <trkpt lat="60.87885" lon="5.13355">
        <ele>54.315549</ele>
        <time>2020-07-26T07:30:59.794Z</time>
      </trkpt>
      <trkpt lat="60.87896" lon="5.13354">
        <ele>54.139616</ele>
        <time>2020-07-26T07:31:01.814Z</time>
      </trkpt>
      <trkpt lat="60.87906" lon="5.13351">
        <ele>53.97736</ele>
        <time>2020-07-26T07:31:03.794Z</time>
      </trkpt>
      <trkpt lat="60.87915" lon="5.13344">
        <ele>53.928608</ele>
        <time>2020-07-26T07:31:05.778Z</time>
      </trkpt>
      <trkpt lat="60.87923" lon="5.13336">
        <ele>53.892367</ele>
        <time>2020-07-26T07:31:07.778Z</time>
      </trkpt>
      <trkpt lat="60.87932" lon="5.13327">
        <ele>53.856147</ele>
        <time>2020-07-26T07:31:09.784Z</time>
      </trkpt>
      <trkpt lat="60.8794" lon="5.13318">
        <ele>53.820269</ele>
        <time>2020-07-26T07:31:11.780Z</time>
      </trkpt>
      <trkpt lat="60.87951" lon="5.13307">
        <ele>53.771518</ele>
        <time>2020-07-26T07:31:14.770Z</time>
      </trkpt>
      <trkpt lat="60.8796" lon="5.13298">
        <ele>53.732352</ele>
        <time>2020-07-26T07:31:17.813Z</time>
      </trkpt>
      <trkpt lat="60.87969" lon="5.1329">
        <ele>53.694441</ele>
        <time>2020-07-26T07:31:21.786Z</time>
      </trkpt>
      <trkpt lat="60.8798" lon="5.13282">
        <ele>53.651089</ele>
        <time>2020-07-26T07:31:26.787Z</time>
      </trkpt>
      <trkpt lat="60.87991" lon="5.13282">
        <ele>53.609018</ele>
        <time>2020-07-26T07:31:30.812Z</time>
      </trkpt>
      <trkpt lat="60.88" lon="5.13283">
        <ele>53.574168</ele>
        <time>2020-07-26T07:31:33.817Z</time>
      </trkpt>
      <trkpt lat="60.8801" lon="5.13287">
        <ele>53.533641</ele>
        <time>2020-07-26T07:31:36.779Z</time>
      </trkpt>
      <trkpt lat="60.88021" lon="5.13295">
        <ele>53.489337</ele>
        <time>2020-07-26T07:31:39.821Z</time>
      </trkpt>
      <trkpt lat="60.88033" lon="5.13305">
        <ele>53.439289</ele>
        <time>2020-07-26T07:31:42.827Z</time>
      </trkpt>
      <trkpt lat="60.88041" lon="5.13316">
        <ele>53.402024</ele>
        <time>2020-07-26T07:31:44.803Z</time>
      </trkpt>
      <trkpt lat="60.88049" lon="5.13331">
        <ele>53.360066</ele>
        <time>2020-07-26T07:31:46.795Z</time>
      </trkpt>
      <trkpt lat="60.88057" lon="5.13349">
        <ele>53.314518</ele>
        <time>2020-07-26T07:31:48.792Z</time>
      </trkpt>
      <trkpt lat="60.88065" lon="5.1337">
        <ele>53.29852</ele>
        <time>2020-07-26T07:31:50.818Z</time>
      </trkpt>
      <trkpt lat="60.88074" lon="5.13396">
        <ele>53.606416</ele>
        <time>2020-07-26T07:31:52.775Z</time>
      </trkpt>
      <trkpt lat="60.88081" lon="5.13419">
        <ele>53.880368</ele>
        <time>2020-07-26T07:31:54.772Z</time>
      </trkpt>
      <trkpt lat="60.88085" lon="5.13436">
        <ele>54.070447</ele>
        <time>2020-07-26T07:31:56.776Z</time>
      </trkpt>
      <trkpt lat="60.8809" lon="5.13455">
        <ele>54.284285</ele>
        <time>2020-07-26T07:31:59.810Z</time>
      </trkpt>
      <trkpt lat="60.88093" lon="5.13475">
        <ele>54.488109</ele>
        <time>2020-07-26T07:32:02.795Z</time>
      </trkpt>
      <trkpt lat="60.88098" lon="5.13496">
        <ele>54.721727</ele>
        <time>2020-07-26T07:32:05.808Z</time>
      </trkpt>
      <trkpt lat="60.88102" lon="5.13513">
        <ele>54.911434</ele>
        <time>2020-07-26T07:32:07.786Z</time>
      </trkpt>
      <trkpt lat="60.88107" lon="5.1353">
        <ele>55.108583</ele>
        <time>2020-07-26T07:32:09.807Z</time>
      </trkpt>
      <trkpt lat="60.88112" lon="5.13546">
        <ele>55.2989</ele>
        <time>2020-07-26T07:32:11.785Z</time>
      </trkpt>
      <trkpt lat="60.8812" lon="5.13567">
        <ele>55.561413</ele>
        <time>2020-07-26T07:32:14.788Z</time>
      </trkpt>
      <trkpt lat="60.88132" lon="5.13581">
        <ele>55.839257</ele>
        <time>2020-07-26T07:32:17.813Z</time>
      </trkpt>
      <trkpt lat="60.88141" lon="5.13588">
        <ele>56.044036</ele>
        <time>2020-07-26T07:32:19.803Z</time>
      </trkpt>
      <trkpt lat="60.8815" lon="5.13592">
        <ele>56.239398</ele>
        <time>2020-07-26T07:32:21.791Z</time>
      </trkpt>
      <trkpt lat="60.88162" lon="5.13593">
        <ele>56.478708</ele>
        <time>2020-07-26T07:32:24.824Z</time>
      </trkpt>
      <trkpt lat="60.88172" lon="5.1359">
        <ele>56.686842</ele>
        <time>2020-07-26T07:32:27.790Z</time>
      </trkpt>
      <trkpt lat="60.88182" lon="5.13587">
        <ele>56.887567</ele>
        <time>2020-07-26T07:32:30.829Z</time>
      </trkpt>
      <trkpt lat="60.88193" lon="5.13582">
        <ele>57.493904</ele>
        <time>2020-07-26T07:32:34.788Z</time>
      </trkpt>
      <trkpt lat="60.88203" lon="5.13575">
        <ele>58.187376</ele>
        <time>2020-07-26T07:32:39.841Z</time>
      </trkpt>
      <trkpt lat="60.88213" lon="5.13569">
        <ele>58.835365</ele>
        <time>2020-07-26T07:32:44.798Z</time>
      </trkpt>
      <trkpt lat="60.88223" lon="5.13563">
        <ele>59.527485</ele>
        <time>2020-07-26T07:32:50.775Z</time>
      </trkpt>
      <trkpt lat="60.88233" lon="5.13557">
        <ele>60.182563</ele>
        <time>2020-07-26T07:32:56.806Z</time>
      </trkpt>
      <trkpt lat="60.88242" lon="5.13551">
        <ele>60.77571</ele>
        <time>2020-07-26T07:33:01.829Z</time>
      </trkpt>
      <trkpt lat="60.8825" lon="5.13545">
        <ele>61.372629</ele>
        <time>2020-07-26T07:33:06.803Z</time>
      </trkpt>
      <trkpt lat="60.8826" lon="5.13539">
        <ele>62.028645</ele>
        <time>2020-07-26T07:33:12.804Z</time>
      </trkpt>
      <trkpt lat="60.88269" lon="5.13532">
        <ele>62.639449</ele>
        <time>2020-07-26T07:33:18.779Z</time>
      </trkpt>
      <trkpt lat="60.88279" lon="5.13526">
        <ele>63.290039</ele>
        <time>2020-07-26T07:33:24.785Z</time>
      </trkpt>
      <trkpt lat="60.88287" lon="5.13522">
        <ele>63.868656</ele>
        <time>2020-07-26T07:33:29.792Z</time>
      </trkpt>
      <trkpt lat="60.88296" lon="5.13517">
        <ele>64.452068</ele>
        <time>2020-07-26T07:33:34.797Z</time>
      </trkpt>
      <trkpt lat="60.88305" lon="5.13512">
        <ele>65.062008</ele>
        <time>2020-07-26T07:33:40.791Z</time>
      </trkpt>
      <trkpt lat="60.88315" lon="5.13509">
        <ele>65.728368</ele>
        <time>2020-07-26T07:33:46.793Z</time>
      </trkpt>
      <trkpt lat="60.88326" lon="5.13504">
        <ele>66.396872</ele>
        <time>2020-07-26T07:33:52.794Z</time>
      </trkpt>
      <trkpt lat="60.88335" lon="5.13499">
        <ele>67.034002</ele>
        <time>2020-07-26T07:33:57.793Z</time>
      </trkpt>
      <trkpt lat="60.88344" lon="5.13493">
        <ele>67.654567</ele>
        <time>2020-07-26T07:34:02.817Z</time>
      </trkpt>
      <trkpt lat="60.88355" lon="5.13488">
        <ele>68.339283</ele>
        <time>2020-07-26T07:34:07.773Z</time>
      </trkpt>
      <trkpt lat="60.88364" lon="5.13483">
        <ele>68.914897</ele>
        <time>2020-07-26T07:34:11.778Z</time>
      </trkpt>
      <trkpt lat="60.88373" lon="5.13478">
        <ele>69.459726</ele>
        <time>2020-07-26T07:34:15.787Z</time>
      </trkpt>
      <trkpt lat="60.88383" lon="5.13472">
        <ele>70.024592</ele>
        <time>2020-07-26T07:34:19.817Z</time>
      </trkpt>
      <trkpt lat="60.88394" lon="5.13466">
        <ele>70.679389</ele>
        <time>2020-07-26T07:34:24.805Z</time>
      </trkpt>
      <trkpt lat="60.88403" lon="5.13461">
        <ele>71.243689</ele>
        <time>2020-07-26T07:34:28.828Z</time>
      </trkpt>
      <trkpt lat="60.88412" lon="5.13455">
        <ele>71.78661</ele>
        <time>2020-07-26T07:34:32.790Z</time>
      </trkpt>
      <trkpt lat="60.88423" lon="5.13448">
        <ele>72.436337</ele>
        <time>2020-07-26T07:34:37.797Z</time>
      </trkpt>
      <trkpt lat="60.88432" lon="5.13442">
        <ele>72.970079</ele>
        <time>2020-07-26T07:34:41.801Z</time>
      </trkpt>
      <trkpt lat="60.8844" lon="5.13435">
        <ele>73.504722</ele>
        <time>2020-07-26T07:34:45.786Z</time>
      </trkpt>
      <trkpt lat="60.88449" lon="5.13428">
        <ele>74.054401</ele>
        <time>2020-07-26T07:34:49.794Z</time>
      </trkpt>
      <trkpt lat="60.88459" lon="5.13419">
        <ele>74.672107</ele>
        <time>2020-07-26T07:34:54.793Z</time>
      </trkpt>
      <trkpt lat="60.88468" lon="5.1341">
        <ele>75.256491</ele>
        <time>2020-07-26T07:34:59.796Z</time>
      </trkpt>
      <trkpt lat="60.88477" lon="5.13399">
        <ele>75.854044</ele>
        <time>2020-07-26T07:35:05.782Z</time>
      </trkpt>
      <trkpt lat="60.88486" lon="5.13389">
        <ele>76.44106</ele>
        <time>2020-07-26T07:35:11.854Z</time>
      </trkpt>
      <trkpt lat="60.88495" lon="5.13378">
        <ele>77.026644</ele>
        <time>2020-07-26T07:35:17.796Z</time>
      </trkpt>
      <trkpt lat="60.88504" lon="5.1337">
        <ele>77.590192</ele>
        <time>2020-07-26T07:35:23.785Z</time>
      </trkpt>
      <trkpt lat="60.88514" lon="5.13361">
        <ele>78.228556</ele>
        <time>2020-07-26T07:35:29.776Z</time>
      </trkpt>
      <trkpt lat="60.88523" lon="5.13354">
        <ele>78.783604</ele>
        <time>2020-07-26T07:35:34.808Z</time>
      </trkpt>
      <trkpt lat="60.88532" lon="5.13346">
        <ele>79.123543</ele>
        <time>2020-07-26T07:35:38.801Z</time>
      </trkpt>
      <trkpt lat="60.8854" lon="5.1334">
        <ele>79.404228</ele>
        <time>2020-07-26T07:35:42.778Z</time>
      </trkpt>
      <trkpt lat="60.8855" lon="5.13333">
        <ele>79.712661</ele>
        <time>2020-07-26T07:35:47.800Z</time>
      </trkpt>
      <trkpt lat="60.8856" lon="5.13327">
        <ele>80.047881</ele>
        <time>2020-07-26T07:35:52.799Z</time>
      </trkpt>
      <trkpt lat="60.8857" lon="5.13321">
        <ele>80.365761</ele>
        <time>2020-07-26T07:35:57.792Z</time>
      </trkpt>
      <trkpt lat="60.8858" lon="5.13311">
        <ele>80.704836</ele>
        <time>2020-07-26T07:36:02.791Z</time>
      </trkpt>
      <trkpt lat="60.8859" lon="5.13303">
        <ele>81.040878</ele>
        <time>2020-07-26T07:36:07.794Z</time>
      </trkpt>
      <trkpt lat="60.88601" lon="5.13298">
        <ele>81.389537</ele>
        <time>2020-07-26T07:36:12.777Z</time>
      </trkpt>
      <trkpt lat="60.88612" lon="5.13294">
        <ele>81.708024</ele>
        <time>2020-07-26T07:36:17.797Z</time>
      </trkpt>
      <trkpt lat="60.88621" lon="5.13293">
        <ele>81.992378</ele>
        <time>2020-07-26T07:36:21.777Z</time>
      </trkpt>
      <trkpt lat="60.88631" lon="5.13294">
        <ele>82.304605</ele>
        <time>2020-07-26T07:36:25.808Z</time>
      </trkpt>
      <trkpt lat="60.8864" lon="5.13296">
        <ele>82.598717</ele>
        <time>2020-07-26T07:36:29.783Z</time>
      </trkpt>
      <trkpt lat="60.88649" lon="5.13291">
        <ele>82.883333</ele>
        <time>2020-07-26T07:36:33.798Z</time>
      </trkpt>
      <trkpt lat="60.88659" lon="5.13281">
        <ele>83.22262</ele>
        <time>2020-07-26T07:36:38.800Z</time>
      </trkpt>
      <trkpt lat="60.88667" lon="5.1327">
        <ele>83.520732</ele>
        <time>2020-07-26T07:36:43.786Z</time>
      </trkpt>
      <trkpt lat="60.88675" lon="5.1326">
        <ele>83.807953</ele>
        <time>2020-07-26T07:36:47.802Z</time>
      </trkpt>
      <trkpt lat="60.88684" lon="5.13248">
        <ele>84.134873</ele>
        <time>2020-07-26T07:36:51.786Z</time>
      </trkpt>
      <trkpt lat="60.8869" lon="5.13232">
        <ele>84.403909</ele>
        <time>2020-07-26T07:36:55.800Z</time>
      </trkpt>
      <trkpt lat="60.88695" lon="5.13215">
        <ele>84.025763</ele>
        <time>2020-07-26T07:36:59.784Z</time>
      </trkpt>
      <trkpt lat="60.88699" lon="5.13196">
        <ele>83.61524</ele>
        <time>2020-07-26T07:37:03.780Z</time>
      </trkpt>
      <trkpt lat="60.88705" lon="5.13179">
        <ele>83.202908</ele>
        <time>2020-07-26T07:37:07.798Z</time>
      </trkpt>
      <trkpt lat="60.8871" lon="5.13163">
        <ele>82.839637</ele>
        <time>2020-07-26T07:37:12.820Z</time>
      </trkpt>
      <trkpt lat="60.88718" lon="5.13151">
        <ele>82.44946</ele>
        <time>2020-07-26T07:37:16.789Z</time>
      </trkpt>
      <trkpt lat="60.88725" lon="5.13139">
        <ele>82.090346</ele>
        <time>2020-07-26T07:37:19.791Z</time>
      </trkpt>
      <trkpt lat="60.88734" lon="5.13125">
        <ele>81.615828</ele>
        <time>2020-07-26T07:37:22.789Z</time>
      </trkpt>
      <trkpt lat="60.88742" lon="5.13108">
        <ele>81.166133</ele>
        <time>2020-07-26T07:37:25.795Z</time>
      </trkpt>
      <trkpt lat="60.88751" lon="5.13095">
        <ele>80.734569</ele>
        <time>2020-07-26T07:37:28.786Z</time>
      </trkpt>
      <trkpt lat="60.88762" lon="5.13087">
        <ele>80.2847</ele>
        <time>2020-07-26T07:37:31.798Z</time>
      </trkpt>
      <trkpt lat="60.88774" lon="5.13082">
        <ele>79.768409</ele>
        <time>2020-07-26T07:37:34.787Z</time>
      </trkpt>
      <trkpt lat="60.88788" lon="5.13082">
        <ele>79.205425</ele>
        <time>2020-07-26T07:37:37.775Z</time>
      </trkpt>
      <trkpt lat="60.888" lon="5.1308">
        <ele>78.720247</ele>
        <time>2020-07-26T07:37:39.827Z</time>
      </trkpt>
      <trkpt lat="60.88815" lon="5.13074">
        <ele>78.12725</ele>
        <time>2020-07-26T07:37:41.792Z</time>
      </trkpt>
      <trkpt lat="60.88829" lon="5.13068">
        <ele>77.551944</ele>
        <time>2020-07-26T07:37:43.784Z</time>
      </trkpt>
      <trkpt lat="60.88843" lon="5.13064">
        <ele>76.953571</ele>
        <time>2020-07-26T07:37:45.775Z</time>
      </trkpt>
      <trkpt lat="60.88857" lon="5.13057">
        <ele>76.238023</ele>
        <time>2020-07-26T07:37:47.803Z</time>
      </trkpt>
      <trkpt lat="60.88871" lon="5.13053">
        <ele>75.536596</ele>
        <time>2020-07-26T07:37:49.776Z</time>
      </trkpt>
      <trkpt lat="60.88886" lon="5.13051">
        <ele>74.811094</ele>
        <time>2020-07-26T07:37:51.800Z</time>
      </trkpt>
      <trkpt lat="60.88902" lon="5.13051">
        <ele>74.009197</ele>
        <time>2020-07-26T07:37:53.786Z</time>
      </trkpt>
      <trkpt lat="60.8892" lon="5.13055">
        <ele>73.158537</ele>
        <time>2020-07-26T07:37:55.798Z</time>
      </trkpt>
      <trkpt lat="60.88929" lon="5.13058">
        <ele>72.716785</ele>
        <time>2020-07-26T07:37:56.783Z</time>
      </trkpt>
      <trkpt lat="60.88937" lon="5.13063">
        <ele>72.275105</ele>
        <time>2020-07-26T07:37:57.808Z</time>
      </trkpt>
      <trkpt lat="60.88954" lon="5.13075">
        <ele>71.424771</ele>
        <time>2020-07-26T07:37:59.792Z</time>
      </trkpt>
      <trkpt lat="60.88968" lon="5.13093">
        <ele>70.593604</ele>
        <time>2020-07-26T07:38:01.812Z</time>
      </trkpt>
      <trkpt lat="60.88976" lon="5.13104">
        <ele>70.148494</ele>
        <time>2020-07-26T07:38:02.781Z</time>
      </trkpt>
      <trkpt lat="60.88983" lon="5.13117">
        <ele>69.667294</ele>
        <time>2020-07-26T07:38:03.797Z</time>
      </trkpt>
      <trkpt lat="60.88991" lon="5.1313">
        <ele>69.188251</ele>
        <time>2020-07-26T07:38:04.821Z</time>
      </trkpt>
      <trkpt lat="60.88998" lon="5.13143">
        <ele>68.709734</ele>
        <time>2020-07-26T07:38:05.799Z</time>
      </trkpt>
      <trkpt lat="60.89005" lon="5.13156">
        <ele>68.227543</ele>
        <time>2020-07-26T07:38:06.779Z</time>
      </trkpt>
      <trkpt lat="60.89012" lon="5.1317">
        <ele>67.713286</ele>
        <time>2020-07-26T07:38:07.789Z</time>
      </trkpt>
      <trkpt lat="60.89019" lon="5.13185">
        <ele>67.184069</ele>
        <time>2020-07-26T07:38:08.785Z</time>
      </trkpt>
      <trkpt lat="60.89026" lon="5.132">
        <ele>66.652983</ele>
        <time>2020-07-26T07:38:09.801Z</time>
      </trkpt>
      <trkpt lat="60.89032" lon="5.13213">
        <ele>66.138659</ele>
        <time>2020-07-26T07:38:10.789Z</time>
      </trkpt>
      <trkpt lat="60.89039" lon="5.13228">
        <ele>65.629944</ele>
        <time>2020-07-26T07:38:11.808Z</time>
      </trkpt>
      <trkpt lat="60.89046" lon="5.13242">
        <ele>65.110072</ele>
        <time>2020-07-26T07:38:12.776Z</time>
      </trkpt>
      <trkpt lat="60.89052" lon="5.13255">
        <ele>64.625211</ele>
        <time>2020-07-26T07:38:13.778Z</time>
      </trkpt>
      <trkpt lat="60.89059" lon="5.13267">
        <ele>64.128083</ele>
        <time>2020-07-26T07:38:14.800Z</time>
      </trkpt>
      <trkpt lat="60.89068" lon="5.13279">
        <ele>63.585195</ele>
        <time>2020-07-26T07:38:15.832Z</time>
      </trkpt>
      <trkpt lat="60.89077" lon="5.1329">
        <ele>63.001177</ele>
        <time>2020-07-26T07:38:16.785Z</time>
      </trkpt>
      <trkpt lat="60.89087" lon="5.13299">
        <ele>62.397999</ele>
        <time>2020-07-26T07:38:17.772Z</time>
      </trkpt>
      <trkpt lat="60.89099" lon="5.13306">
        <ele>61.77296</ele>
        <time>2020-07-26T07:38:18.817Z</time>
      </trkpt>
      <trkpt lat="60.8911" lon="5.1331">
        <ele>61.141254</ele>
        <time>2020-07-26T07:38:19.796Z</time>
      </trkpt>
      <trkpt lat="60.89122" lon="5.13311">
        <ele>60.524349</ele>
        <time>2020-07-26T07:38:20.791Z</time>
      </trkpt>
      <trkpt lat="60.89133" lon="5.13308">
        <ele>59.891994</ele>
        <time>2020-07-26T07:38:21.813Z</time>
      </trkpt>
      <trkpt lat="60.89144" lon="5.13303">
        <ele>59.290978</ele>
        <time>2020-07-26T07:38:22.797Z</time>
      </trkpt>
      <trkpt lat="60.89155" lon="5.13297">
        <ele>58.766613</ele>
        <time>2020-07-26T07:38:23.786Z</time>
      </trkpt>
      <trkpt lat="60.89164" lon="5.13287">
        <ele>58.553055</ele>
        <time>2020-07-26T07:38:24.804Z</time>
      </trkpt>
      <trkpt lat="60.89174" lon="5.13276">
        <ele>58.334075</ele>
        <time>2020-07-26T07:38:25.784Z</time>
      </trkpt>
      <trkpt lat="60.89183" lon="5.13264">
        <ele>58.118693</ele>
        <time>2020-07-26T07:38:26.790Z</time>
      </trkpt>
      <trkpt lat="60.89191" lon="5.13251">
        <ele>57.914688</ele>
        <time>2020-07-26T07:38:27.773Z</time>
      </trkpt>
      <trkpt lat="60.89198" lon="5.13239">
        <ele>57.725007</ele>
        <time>2020-07-26T07:38:28.807Z</time>
      </trkpt>
      <trkpt lat="60.89212" lon="5.13217">
        <ele>57.373876</ele>
        <time>2020-07-26T07:38:30.787Z</time>
      </trkpt>
      <trkpt lat="60.89225" lon="5.13197">
        <ele>57.05018</ele>
        <time>2020-07-26T07:38:32.823Z</time>
      </trkpt>
      <trkpt lat="60.89236" lon="5.13175">
        <ele>56.738949</ele>
        <time>2020-07-26T07:38:34.775Z</time>
      </trkpt>
      <trkpt lat="60.89246" lon="5.13152">
        <ele>56.427118</ele>
        <time>2020-07-26T07:38:36.812Z</time>
      </trkpt>
      <trkpt lat="60.89255" lon="5.1313">
        <ele>56.155396</ele>
        <time>2020-07-26T07:38:38.791Z</time>
      </trkpt>
      <trkpt lat="60.89263" lon="5.13113">
        <ele>55.928861</ele>
        <time>2020-07-26T07:38:40.805Z</time>
      </trkpt>
      <trkpt lat="60.8927" lon="5.13093">
        <ele>55.683015</ele>
        <time>2020-07-26T07:38:43.808Z</time>
      </trkpt>
      <trkpt lat="60.89275" lon="5.13077">
        <ele>55.499066</ele>
        <time>2020-07-26T07:38:46.784Z</time>
      </trkpt>
      <trkpt lat="60.8928" lon="5.13059">
        <ele>55.294226</ele>
        <time>2020-07-26T07:38:50.790Z</time>
      </trkpt>
      <trkpt lat="60.89283" lon="5.1304">
        <ele>55.563357</ele>
        <time>2020-07-26T07:38:54.803Z</time>
      </trkpt>
      <trkpt lat="60.89288" lon="5.13021">
        <ele>56.471057</ele>
        <time>2020-07-26T07:38:59.783Z</time>
      </trkpt>
      <trkpt lat="60.89291" lon="5.13001">
        <ele>57.353481</ele>
        <time>2020-07-26T07:39:04.798Z</time>
      </trkpt>
      <trkpt lat="60.89295" lon="5.12984">
        <ele>58.136473</ele>
        <time>2020-07-26T07:39:09.796Z</time>
      </trkpt>
      <trkpt lat="60.89298" lon="5.12966">
        <ele>58.924034</ele>
        <time>2020-07-26T07:39:14.813Z</time>
      </trkpt>
      <trkpt lat="60.89302" lon="5.12948">
        <ele>59.774757</ele>
        <time>2020-07-26T07:39:19.804Z</time>
      </trkpt>
      <trkpt lat="60.89306" lon="5.12928">
        <ele>60.684694</ele>
        <time>2020-07-26T07:39:25.797Z</time>
      </trkpt>
      <trkpt lat="60.8931" lon="5.12911">
        <ele>61.508891</ele>
        <time>2020-07-26T07:39:31.781Z</time>
      </trkpt>
      <trkpt lat="60.89313" lon="5.12892">
        <ele>62.348952</ele>
        <time>2020-07-26T07:39:39.808Z</time>
      </trkpt>
      <trkpt lat="60.89319" lon="5.12874">
        <ele>63.245624</ele>
        <time>2020-07-26T07:39:47.807Z</time>
      </trkpt>
      <trkpt lat="60.89325" lon="5.12859">
        <ele>64.081885</ele>
        <time>2020-07-26T07:39:53.788Z</time>
      </trkpt>
      <trkpt lat="60.8933" lon="5.12844">
        <ele>64.866546</ele>
        <time>2020-07-26T07:39:59.783Z</time>
      </trkpt>
      <trkpt lat="60.89337" lon="5.1283">
        <ele>65.677809</ele>
        <time>2020-07-26T07:40:05.793Z</time>
      </trkpt>
      <trkpt lat="60.89344" lon="5.12815">
        <ele>66.556625</ele>
        <time>2020-07-26T07:40:11.788Z</time>
      </trkpt>
      <trkpt lat="60.89351" lon="5.12802">
        <ele>67.388104</ele>
        <time>2020-07-26T07:40:17.795Z</time>
      </trkpt>
      <trkpt lat="60.89359" lon="5.12791">
        <ele>68.197858</ele>
        <time>2020-07-26T07:40:23.854Z</time>
      </trkpt>
      <trkpt lat="60.89367" lon="5.1278">
        <ele>69.089777</ele>
        <time>2020-07-26T07:40:29.806Z</time>
      </trkpt>
      <trkpt lat="60.89375" lon="5.12766">
        <ele>70.004594</ele>
        <time>2020-07-26T07:40:35.798Z</time>
      </trkpt>
      <trkpt lat="60.89385" lon="5.12757">
        <ele>70.885274</ele>
        <time>2020-07-26T07:40:41.792Z</time>
      </trkpt>
      <trkpt lat="60.89393" lon="5.12751">
        <ele>71.666055</ele>
        <time>2020-07-26T07:40:47.825Z</time>
      </trkpt>
      <trkpt lat="60.89403" lon="5.12745">
        <ele>72.505423</ele>
        <time>2020-07-26T07:40:53.790Z</time>
      </trkpt>
      <trkpt lat="60.89412" lon="5.1274">
        <ele>73.283386</ele>
        <time>2020-07-26T07:40:59.787Z</time>
      </trkpt>
      <trkpt lat="60.89421" lon="5.12735">
        <ele>74.111306</ele>
        <time>2020-07-26T07:41:05.811Z</time>
      </trkpt>
      <trkpt lat="60.89432" lon="5.12731">
        <ele>75.018937</ele>
        <time>2020-07-26T07:41:11.788Z</time>
      </trkpt>
      <trkpt lat="60.89441" lon="5.12725">
        <ele>75.80334</ele>
        <time>2020-07-26T07:41:16.773Z</time>
      </trkpt>
      <trkpt lat="60.8945" lon="5.12719">
        <ele>76.630226</ele>
        <time>2020-07-26T07:41:23.786Z</time>
      </trkpt>
      <trkpt lat="60.8946" lon="5.12714">
        <ele>77.440792</ele>
        <time>2020-07-26T07:41:30.789Z</time>
      </trkpt>
      <trkpt lat="60.8947" lon="5.12709">
        <ele>78.305085</ele>
        <time>2020-07-26T07:41:37.788Z</time>
      </trkpt>
      <trkpt lat="60.8948" lon="5.12705">
        <ele>79.173945</ele>
        <time>2020-07-26T07:41:44.789Z</time>
      </trkpt>
      <trkpt lat="60.89489" lon="5.12699">
        <ele>79.976867</ele>
        <time>2020-07-26T07:41:50.787Z</time>
      </trkpt>
      <trkpt lat="60.895" lon="5.12694">
        <ele>80.884818</ele>
        <time>2020-07-26T07:41:57.785Z</time>
      </trkpt>
      <trkpt lat="60.89509" lon="5.12688">
        <ele>81.724184</ele>
        <time>2020-07-26T07:42:03.792Z</time>
      </trkpt>
      <trkpt lat="60.89519" lon="5.12686">
        <ele>82.592061</ele>
        <time>2020-07-26T07:42:10.811Z</time>
      </trkpt>
      <trkpt lat="60.89529" lon="5.12684">
        <ele>83.385688</ele>
        <time>2020-07-26T07:42:16.806Z</time>
      </trkpt>
      <trkpt lat="60.89539" lon="5.12678">
        <ele>84.24703</ele>
        <time>2020-07-26T07:42:22.787Z</time>
      </trkpt>
      <trkpt lat="60.89548" lon="5.12672">
        <ele>85.101385</ele>
        <time>2020-07-26T07:42:28.794Z</time>
      </trkpt>
      <trkpt lat="60.89558" lon="5.12666">
        <ele>85.925491</ele>
        <time>2020-07-26T07:42:34.771Z</time>
      </trkpt>
      <trkpt lat="60.89568" lon="5.12661">
        <ele>86.308916</ele>
        <time>2020-07-26T07:42:40.777Z</time>
      </trkpt>
      <trkpt lat="60.89578" lon="5.12657">
        <ele>86.709812</ele>
        <time>2020-07-26T07:42:47.817Z</time>
      </trkpt>
      <trkpt lat="60.89589" lon="5.12653">
        <ele>87.105212</ele>
        <time>2020-07-26T07:42:54.780Z</time>
      </trkpt>
      <trkpt lat="60.89599" lon="5.12648">
        <ele>87.49406</ele>
        <time>2020-07-26T07:43:00.788Z</time>
      </trkpt>
      <trkpt lat="60.89608" lon="5.12645">
        <ele>87.875494</ele>
        <time>2020-07-26T07:43:07.781Z</time>
      </trkpt>
      <trkpt lat="60.89618" lon="5.12642">
        <ele>88.25589</ele>
        <time>2020-07-26T07:43:13.778Z</time>
      </trkpt>
      <trkpt lat="60.89627" lon="5.12638">
        <ele>88.613822</ele>
        <time>2020-07-26T07:43:18.796Z</time>
      </trkpt>
      <trkpt lat="60.89637" lon="5.12631">
        <ele>88.982514</ele>
        <time>2020-07-26T07:43:24.805Z</time>
      </trkpt>
      <trkpt lat="60.89644" lon="5.12621">
        <ele>89.332548</ele>
        <time>2020-07-26T07:43:30.786Z</time>
      </trkpt>
      <trkpt lat="60.89653" lon="5.12613">
        <ele>89.68624</ele>
        <time>2020-07-26T07:43:37.818Z</time>
      </trkpt>
      <trkpt lat="60.89663" lon="5.1261">
        <ele>90.064731</ele>
        <time>2020-07-26T07:43:44.804Z</time>
      </trkpt>
      <trkpt lat="60.89672" lon="5.12606">
        <ele>90.430145</ele>
        <time>2020-07-26T07:43:49.776Z</time>
      </trkpt>
      <trkpt lat="60.89681" lon="5.12607">
        <ele>90.781893</ele>
        <time>2020-07-26T07:43:54.833Z</time>
      </trkpt>
      <trkpt lat="60.89691" lon="5.12615">
        <ele>91.190874</ele>
        <time>2020-07-26T07:43:59.795Z</time>
      </trkpt>
      <trkpt lat="60.897" lon="5.12624">
        <ele>91.562592</ele>
        <time>2020-07-26T07:44:03.783Z</time>
      </trkpt>
      <trkpt lat="60.89708" lon="5.12635">
        <ele>91.923621</ele>
        <time>2020-07-26T07:44:07.789Z</time>
      </trkpt>
      <trkpt lat="60.89716" lon="5.12646">
        <ele>92.285488</ele>
        <time>2020-07-26T07:44:11.820Z</time>
      </trkpt>
      <trkpt lat="60.89724" lon="5.12659">
        <ele>92.691026</ele>
        <time>2020-07-26T07:44:15.784Z</time>
      </trkpt>
      <trkpt lat="60.89732" lon="5.12675">
        <ele>92.865684</ele>
        <time>2020-07-26T07:44:19.771Z</time>
      </trkpt>
      <trkpt lat="60.89738" lon="5.1269">
        <ele>92.975755</ele>
        <time>2020-07-26T07:44:22.841Z</time>
      </trkpt>
      <trkpt lat="60.89744" lon="5.12704">
        <ele>93.08882</ele>
        <time>2020-07-26T07:44:25.813Z</time>
      </trkpt>
      <trkpt lat="60.8975" lon="5.1272">
        <ele>93.201823</ele>
        <time>2020-07-26T07:44:28.796Z</time>
      </trkpt>
      <trkpt lat="60.89755" lon="5.12737">
        <ele>93.316257</ele>
        <time>2020-07-26T07:44:31.806Z</time>
      </trkpt>
      <trkpt lat="60.8976" lon="5.12756">
        <ele>93.444734</ele>
        <time>2020-07-26T07:44:34.785Z</time>
      </trkpt>
      <trkpt lat="60.89764" lon="5.12777">
        <ele>93.572485</ele>
        <time>2020-07-26T07:44:37.826Z</time>
      </trkpt>
      <trkpt lat="60.89768" lon="5.12799">
        <ele>93.716748</ele>
        <time>2020-07-26T07:44:40.788Z</time>
      </trkpt>
      <trkpt lat="60.89773" lon="5.12821">
        <ele>93.852158</ele>
        <time>2020-07-26T07:44:43.792Z</time>
      </trkpt>
      <trkpt lat="60.89778" lon="5.1284">
        <ele>93.98404</ele>
        <time>2020-07-26T07:44:46.779Z</time>
      </trkpt>
      <trkpt lat="60.89785" lon="5.12862">
        <ele>94.136947</ele>
        <time>2020-07-26T07:44:49.793Z</time>
      </trkpt>
      <trkpt lat="60.8979" lon="5.12878">
        <ele>94.245178</ele>
        <time>2020-07-26T07:44:51.802Z</time>
      </trkpt>
      <trkpt lat="60.89795" lon="5.12893">
        <ele>94.35418</ele>
        <time>2020-07-26T07:44:53.790Z</time>
      </trkpt>
      <trkpt lat="60.89803" lon="5.12912">
        <ele>94.50179</ele>
        <time>2020-07-26T07:44:56.825Z</time>
      </trkpt>
      <trkpt lat="60.89811" lon="5.12928">
        <ele>94.635527</ele>
        <time>2020-07-26T07:44:59.786Z</time>
      </trkpt>
      <trkpt lat="60.8982" lon="5.12945">
        <ele>94.780621</ele>
        <time>2020-07-26T07:45:02.805Z</time>
      </trkpt>
      <trkpt lat="60.89831" lon="5.12961">
        <ele>94.966084</ele>
        <time>2020-07-26T07:45:05.812Z</time>
      </trkpt>
      <trkpt lat="60.89841" lon="5.12975">
        <ele>95.246206</ele>
        <time>2020-07-26T07:45:08.795Z</time>
      </trkpt>
      <trkpt lat="60.89853" lon="5.1299">
        <ele>95.555927</ele>
        <time>2020-07-26T07:45:11.825Z</time>
      </trkpt>
      <trkpt lat="60.8986" lon="5.12999">
        <ele>95.760652</ele>
        <time>2020-07-26T07:45:13.802Z</time>
      </trkpt>
      <trkpt lat="60.89869" lon="5.13008">
        <ele>95.973131</ele>
        <time>2020-07-26T07:45:15.790Z</time>
      </trkpt>
      <trkpt lat="60.89877" lon="5.13016">
        <ele>96.180071</ele>
        <time>2020-07-26T07:45:17.789Z</time>
      </trkpt>
      <trkpt lat="60.89889" lon="5.13023">
        <ele>96.469343</ele>
        <time>2020-07-26T07:45:20.793Z</time>
      </trkpt>
      <trkpt lat="60.89901" lon="5.13027">
        <ele>96.737166</ele>
        <time>2020-07-26T07:45:23.771Z</time>
      </trkpt>
      <trkpt lat="60.89912" lon="5.13031">
        <ele>97.003997</ele>
        <time>2020-07-26T07:45:26.829Z</time>
      </trkpt>
      <trkpt lat="60.89921" lon="5.13035">
        <ele>97.211577</ele>
        <time>2020-07-26T07:45:29.790Z</time>
      </trkpt>
      <trkpt lat="60.89931" lon="5.13037">
        <ele>97.432208</ele>
        <time>2020-07-26T07:45:32.833Z</time>
      </trkpt>
      <trkpt lat="60.89942" lon="5.1304">
        <ele>97.694083</ele>
        <time>2020-07-26T07:45:35.793Z</time>
      </trkpt>
      <trkpt lat="60.89951" lon="5.13042">
        <ele>97.90286</ele>
        <time>2020-07-26T07:45:37.782Z</time>
      </trkpt>
      <trkpt lat="60.89962" lon="5.13046">
        <ele>98.145057</ele>
        <time>2020-07-26T07:45:39.785Z</time>
      </trkpt>
      <trkpt lat="60.89973" lon="5.13047">
        <ele>98.39178</ele>
        <time>2020-07-26T07:45:41.809Z</time>
      </trkpt>
      <trkpt lat="60.89982" lon="5.13048">
        <ele>98.615123</ele>
        <time>2020-07-26T07:45:43.809Z</time>
      </trkpt>
      <trkpt lat="60.89992" lon="5.13051">
        <ele>98.831705</ele>
        <time>2020-07-26T07:45:45.791Z</time>
      </trkpt>
      <trkpt lat="60.90001" lon="5.13054">
        <ele>98.986915</ele>
        <time>2020-07-26T07:45:47.798Z</time>
      </trkpt>
      <trkpt lat="60.9001" lon="5.13055">
        <ele>98.897907</ele>
        <time>2020-07-26T07:45:49.784Z</time>
      </trkpt>
      <trkpt lat="60.90019" lon="5.13056">
        <ele>98.80789</ele>
        <time>2020-07-26T07:45:51.828Z</time>
      </trkpt>
      <trkpt lat="60.90032" lon="5.13057">
        <ele>98.676391</ele>
        <time>2020-07-26T07:45:54.788Z</time>
      </trkpt>
      <trkpt lat="60.90045" lon="5.13058">
        <ele>98.547767</ele>
        <time>2020-07-26T07:45:57.816Z</time>
      </trkpt>
      <trkpt lat="60.90055" lon="5.13059">
        <ele>98.455752</ele>
        <time>2020-07-26T07:45:59.827Z</time>
      </trkpt>
      <trkpt lat="60.90068" lon="5.13061">
        <ele>98.327103</ele>
        <time>2020-07-26T07:46:02.783Z</time>
      </trkpt>
      <trkpt lat="60.9008" lon="5.13064">
        <ele>98.205757</ele>
        <time>2020-07-26T07:46:05.794Z</time>
      </trkpt>
      <trkpt lat="60.9009" lon="5.13065">
        <ele>98.109742</ele>
        <time>2020-07-26T07:46:07.786Z</time>
      </trkpt>
      <trkpt lat="60.901" lon="5.13068">
        <ele>98.00862</ele>
        <time>2020-07-26T07:46:09.783Z</time>
      </trkpt>
      <trkpt lat="60.9011" lon="5.13072">
        <ele>97.907497</ele>
        <time>2020-07-26T07:46:11.835Z</time>
      </trkpt>
      <trkpt lat="60.90119" lon="5.13076">
        <ele>97.813596</ele>
        <time>2020-07-26T07:46:13.782Z</time>
      </trkpt>
      <trkpt lat="60.90128" lon="5.13083">
        <ele>97.718724</ele>
        <time>2020-07-26T07:46:15.817Z</time>
      </trkpt>
      <trkpt lat="60.90138" lon="5.13091">
        <ele>97.616377</ele>
        <time>2020-07-26T07:46:17.807Z</time>
      </trkpt>
      <trkpt lat="60.90147" lon="5.13101">
        <ele>97.510047</ele>
        <time>2020-07-26T07:46:19.818Z</time>
      </trkpt>
      <trkpt lat="60.90157" lon="5.13111">
        <ele>97.403253</ele>
        <time>2020-07-26T07:46:21.796Z</time>
      </trkpt>
      <trkpt lat="60.90167" lon="5.13125">
        <ele>97.281218</ele>
        <time>2020-07-26T07:46:23.800Z</time>
      </trkpt>
      <trkpt lat="60.90178" lon="5.13144">
        <ele>96.666367</ele>
        <time>2020-07-26T07:46:25.813Z</time>
      </trkpt>
      <trkpt lat="60.90188" lon="5.13167">
        <ele>95.617327</ele>
        <time>2020-07-26T07:46:27.829Z</time>
      </trkpt>
      <trkpt lat="60.90198" lon="5.13195">
        <ele>94.483039</ele>
        <time>2020-07-26T07:46:29.798Z</time>
      </trkpt>
      <trkpt lat="60.90208" lon="5.13224">
        <ele>93.324415</ele>
        <time>2020-07-26T07:46:31.781Z</time>
      </trkpt>
      <trkpt lat="60.90212" lon="5.13241">
        <ele>92.690652</ele>
        <time>2020-07-26T07:46:32.795Z</time>
      </trkpt>
      <trkpt lat="60.90217" lon="5.13258">
        <ele>92.044979</ele>
        <time>2020-07-26T07:46:33.776Z</time>
      </trkpt>
      <trkpt lat="60.90222" lon="5.13275">
        <ele>91.385279</ele>
        <time>2020-07-26T07:46:34.783Z</time>
      </trkpt>
      <trkpt lat="60.90227" lon="5.13294">
        <ele>90.701807</ele>
        <time>2020-07-26T07:46:35.796Z</time>
      </trkpt>
      <trkpt lat="60.90231" lon="5.13312">
        <ele>90.012543</ele>
        <time>2020-07-26T07:46:36.820Z</time>
      </trkpt>
      <trkpt lat="60.90236" lon="5.1333">
        <ele>89.334852</ele>
        <time>2020-07-26T07:46:37.798Z</time>
      </trkpt>
      <trkpt lat="60.90241" lon="5.13348">
        <ele>88.669846</ele>
        <time>2020-07-26T07:46:38.795Z</time>
      </trkpt>
      <trkpt lat="60.90247" lon="5.13365">
        <ele>87.992171</ele>
        <time>2020-07-26T07:46:39.784Z</time>
      </trkpt>
      <trkpt lat="60.90253" lon="5.13381">
        <ele>87.301532</ele>
        <time>2020-07-26T07:46:40.793Z</time>
      </trkpt>
      <trkpt lat="60.9026" lon="5.13396">
        <ele>86.634455</ele>
        <time>2020-07-26T07:46:41.813Z</time>
      </trkpt>
      <trkpt lat="60.90267" lon="5.13409">
        <ele>85.974566</ele>
        <time>2020-07-26T07:46:42.796Z</time>
      </trkpt>
      <trkpt lat="60.90276" lon="5.13421">
        <ele>85.279493</ele>
        <time>2020-07-26T07:46:43.779Z</time>
      </trkpt>
      <trkpt lat="60.90285" lon="5.13432">
        <ele>84.744642</ele>
        <time>2020-07-26T07:46:44.784Z</time>
      </trkpt>
      <trkpt lat="60.90294" lon="5.13443">
        <ele>84.271029</ele>
        <time>2020-07-26T07:46:45.796Z</time>
      </trkpt>
      <trkpt lat="60.90304" lon="5.13451">
        <ele>83.80096</ele>
        <time>2020-07-26T07:46:46.796Z</time>
      </trkpt>
      <trkpt lat="60.90315" lon="5.13458">
        <ele>83.323631</ele>
        <time>2020-07-26T07:46:47.822Z</time>
      </trkpt>
      <trkpt lat="60.90324" lon="5.13462">
        <ele>82.893432</ele>
        <time>2020-07-26T07:46:48.793Z</time>
      </trkpt>
      <trkpt lat="60.90333" lon="5.13466">
        <ele>82.483408</ele>
        <time>2020-07-26T07:46:49.798Z</time>
      </trkpt>
      <trkpt lat="60.90343" lon="5.1347">
        <ele>82.076389</ele>
        <time>2020-07-26T07:46:50.783Z</time>
      </trkpt>
      <trkpt lat="60.90352" lon="5.13474">
        <ele>81.668461</ele>
        <time>2020-07-26T07:46:51.812Z</time>
      </trkpt>
      <trkpt lat="60.90361" lon="5.13478">
        <ele>81.260993</ele>
        <time>2020-07-26T07:46:52.786Z</time>
      </trkpt>
      <trkpt lat="60.9037" lon="5.13482">
        <ele>80.854414</ele>
        <time>2020-07-26T07:46:53.779Z</time>
      </trkpt>
      <trkpt lat="60.90387" lon="5.13489">
        <ele>80.091798</ele>
        <time>2020-07-26T07:46:55.791Z</time>
      </trkpt>
      <trkpt lat="60.90403" lon="5.13494">
        <ele>79.370961</ele>
        <time>2020-07-26T07:46:57.847Z</time>
      </trkpt>
      <trkpt lat="60.90417" lon="5.135">
        <ele>78.766849</ele>
        <time>2020-07-26T07:46:59.785Z</time>
      </trkpt>
      <trkpt lat="60.90428" lon="5.13508">
        <ele>78.230177</ele>
        <time>2020-07-26T07:47:01.801Z</time>
      </trkpt>
      <trkpt lat="60.90441" lon="5.13514">
        <ele>77.668254</ele>
        <time>2020-07-26T07:47:03.790Z</time>
      </trkpt>
      <trkpt lat="60.90453" lon="5.1352">
        <ele>77.271021</ele>
        <time>2020-07-26T07:47:05.800Z</time>
      </trkpt>
      <trkpt lat="60.90464" lon="5.13524">
        <ele>77.766418</ele>
        <time>2020-07-26T07:47:07.794Z</time>
      </trkpt>
      <trkpt lat="60.90476" lon="5.13528">
        <ele>78.286346</ele>
        <time>2020-07-26T07:47:09.796Z</time>
      </trkpt>
      <trkpt lat="60.90488" lon="5.13537">
        <ele>78.832611</ele>
        <time>2020-07-26T07:47:11.790Z</time>
      </trkpt>
      <trkpt lat="60.90499" lon="5.13545">
        <ele>79.33769</ele>
        <time>2020-07-26T07:47:13.780Z</time>
      </trkpt>
      <trkpt lat="60.90508" lon="5.13554">
        <ele>79.795069</ele>
        <time>2020-07-26T07:47:15.795Z</time>
      </trkpt>
      <trkpt lat="60.90517" lon="5.13563">
        <ele>80.220582</ele>
        <time>2020-07-26T07:47:17.781Z</time>
      </trkpt>
      <trkpt lat="60.90525" lon="5.13573">
        <ele>80.625303</ele>
        <time>2020-07-26T07:47:19.826Z</time>
      </trkpt>
      <trkpt lat="60.90536" lon="5.13584">
        <ele>81.172884</ele>
        <time>2020-07-26T07:47:22.834Z</time>
      </trkpt>
      <trkpt lat="60.90546" lon="5.1359">
        <ele>81.622072</ele>
        <time>2020-07-26T07:47:25.790Z</time>
      </trkpt>
      <trkpt lat="60.90557" lon="5.13596">
        <ele>82.111298</ele>
        <time>2020-07-26T07:47:29.793Z</time>
      </trkpt>
      <trkpt lat="60.90566" lon="5.13602">
        <ele>82.511506</ele>
        <time>2020-07-26T07:47:33.797Z</time>
      </trkpt>
      <trkpt lat="60.90575" lon="5.13608">
        <ele>82.951961</ele>
        <time>2020-07-26T07:47:38.821Z</time>
      </trkpt>
      <trkpt lat="60.90584" lon="5.13613">
        <ele>83.37034</ele>
        <time>2020-07-26T07:47:43.809Z</time>
      </trkpt>
      <trkpt lat="60.90594" lon="5.13621">
        <ele>83.811308</ele>
        <time>2020-07-26T07:47:49.814Z</time>
      </trkpt>
      <trkpt lat="60.90602" lon="5.13628">
        <ele>84.208718</ele>
        <time>2020-07-26T07:47:54.808Z</time>
      </trkpt>
      <trkpt lat="60.90611" lon="5.13637">
        <ele>84.641203</ele>
        <time>2020-07-26T07:48:00.808Z</time>
      </trkpt>
      <trkpt lat="60.90619" lon="5.13648">
        <ele>85.034207</ele>
        <time>2020-07-26T07:48:06.774Z</time>
      </trkpt>
      <trkpt lat="60.90627" lon="5.13657">
        <ele>85.3072</ele>
        <time>2020-07-26T07:48:13.781Z</time>
      </trkpt>
      <trkpt lat="60.90637" lon="5.13664">
        <ele>85.578766</ele>
        <time>2020-07-26T07:48:20.826Z</time>
      </trkpt>
      <trkpt lat="60.90645" lon="5.13671">
        <ele>85.839292</ele>
        <time>2020-07-26T07:48:27.819Z</time>
      </trkpt>
      <trkpt lat="60.90654" lon="5.13679">
        <ele>86.086554</ele>
        <time>2020-07-26T07:48:33.806Z</time>
      </trkpt>
      <trkpt lat="60.90662" lon="5.13685">
        <ele>86.341015</ele>
        <time>2020-07-26T07:48:38.800Z</time>
      </trkpt>
      <trkpt lat="60.90671" lon="5.13692">
        <ele>86.597392</ele>
        <time>2020-07-26T07:48:43.794Z</time>
      </trkpt>
      <trkpt lat="60.90679" lon="5.137">
        <ele>86.844654</ele>
        <time>2020-07-26T07:48:48.800Z</time>
      </trkpt>
      <trkpt lat="60.90688" lon="5.13707">
        <ele>87.107282</ele>
        <time>2020-07-26T07:48:53.777Z</time>
      </trkpt>
      <trkpt lat="60.90698" lon="5.13715">
        <ele>87.402161</ele>
        <time>2020-07-26T07:48:58.781Z</time>
      </trkpt>
      <trkpt lat="60.90708" lon="5.13721">
        <ele>87.687222</ele>
        <time>2020-07-26T07:49:02.809Z</time>
      </trkpt>
      <trkpt lat="60.90718" lon="5.13727">
        <ele>87.94965</ele>
        <time>2020-07-26T07:49:05.799Z</time>
      </trkpt>
      <trkpt lat="60.90728" lon="5.13733">
        <ele>88.252625</ele>
        <time>2020-07-26T07:49:08.792Z</time>
      </trkpt>
      <trkpt lat="60.90741" lon="5.13739">
        <ele>88.603913</ele>
        <time>2020-07-26T07:49:11.810Z</time>
      </trkpt>
      <trkpt lat="60.9075" lon="5.13743">
        <ele>88.865574</ele>
        <time>2020-07-26T07:49:13.827Z</time>
      </trkpt>
      <trkpt lat="60.90759" lon="5.13746">
        <ele>89.121607</ele>
        <time>2020-07-26T07:49:15.784Z</time>
      </trkpt>
      <trkpt lat="60.90769" lon="5.1375">
        <ele>89.387765</ele>
        <time>2020-07-26T07:49:17.794Z</time>
      </trkpt>
      <trkpt lat="60.90778" lon="5.13755">
        <ele>89.660133</ele>
        <time>2020-07-26T07:49:19.831Z</time>
      </trkpt>
      <trkpt lat="60.90788" lon="5.1376">
        <ele>89.930824</ele>
        <time>2020-07-26T07:49:21.812Z</time>
      </trkpt>
      <trkpt lat="60.90797" lon="5.13766">
        <ele>89.820829</ele>
        <time>2020-07-26T07:49:23.787Z</time>
      </trkpt>
      <trkpt lat="60.90807" lon="5.13772">
        <ele>89.643874</ele>
        <time>2020-07-26T07:49:25.779Z</time>
      </trkpt>
      <trkpt lat="60.90816" lon="5.13778">
        <ele>89.48688</ele>
        <time>2020-07-26T07:49:27.788Z</time>
      </trkpt>
      <trkpt lat="60.90824" lon="5.13785">
        <ele>89.322645</ele>
        <time>2020-07-26T07:49:29.808Z</time>
      </trkpt>
      <trkpt lat="60.90834" lon="5.13792">
        <ele>89.145951</ele>
        <time>2020-07-26T07:49:31.792Z</time>
      </trkpt>
      <trkpt lat="60.90844" lon="5.138">
        <ele>88.95687</ele>
        <time>2020-07-26T07:49:33.790Z</time>
      </trkpt>
      <trkpt lat="60.90856" lon="5.13807">
        <ele>88.743947</ele>
        <time>2020-07-26T07:49:35.792Z</time>
      </trkpt>
      <trkpt lat="60.90868" lon="5.13814">
        <ele>88.525548</ele>
        <time>2020-07-26T07:49:37.798Z</time>
      </trkpt>
      <trkpt lat="60.90879" lon="5.1382">
        <ele>88.324549</ele>
        <time>2020-07-26T07:49:39.785Z</time>
      </trkpt>
      <trkpt lat="60.90891" lon="5.13825">
        <ele>88.117735</ele>
        <time>2020-07-26T07:49:41.802Z</time>
      </trkpt>
      <trkpt lat="60.90903" lon="5.13828">
        <ele>87.900263</ele>
        <time>2020-07-26T07:49:43.783Z</time>
      </trkpt>
      <trkpt lat="60.90916" lon="5.13831">
        <ele>87.677154</ele>
        <time>2020-07-26T07:49:45.809Z</time>
      </trkpt>
      <trkpt lat="60.90928" lon="5.13832">
        <ele>87.475424</ele>
        <time>2020-07-26T07:49:47.794Z</time>
      </trkpt>
      <trkpt lat="60.90939" lon="5.13831">
        <ele>87.273827</ele>
        <time>2020-07-26T07:49:49.784Z</time>
      </trkpt>
      <trkpt lat="60.90952" lon="5.13828">
        <ele>87.044805</ele>
        <time>2020-07-26T07:49:51.794Z</time>
      </trkpt>
      <trkpt lat="60.90964" lon="5.13822">
        <ele>86.857227</ele>
        <time>2020-07-26T07:49:53.792Z</time>
      </trkpt>
      <trkpt lat="60.90975" lon="5.13815">
        <ele>87.219496</ele>
        <time>2020-07-26T07:49:55.788Z</time>
      </trkpt>
      <trkpt lat="60.90984" lon="5.13809">
        <ele>87.543184</ele>
        <time>2020-07-26T07:49:57.834Z</time>
      </trkpt>
      <trkpt lat="60.90995" lon="5.13801">
        <ele>87.944638</ele>
        <time>2020-07-26T07:50:00.812Z</time>
      </trkpt>
      <trkpt lat="60.91004" lon="5.13793">
        <ele>88.261598</ele>
        <time>2020-07-26T07:50:03.795Z</time>
      </trkpt>
      <trkpt lat="60.91012" lon="5.13784">
        <ele>88.578776</ele>
        <time>2020-07-26T07:50:07.797Z</time>
      </trkpt>
      <trkpt lat="60.9102" lon="5.13773">
        <ele>88.90243</ele>
        <time>2020-07-26T07:50:11.787Z</time>
      </trkpt>
      <trkpt lat="60.91028" lon="5.13763">
        <ele>89.207566</ele>
        <time>2020-07-26T07:50:15.814Z</time>
      </trkpt>
      <trkpt lat="60.91036" lon="5.13751">
        <ele>89.539304</ele>
        <time>2020-07-26T07:50:19.799Z</time>
      </trkpt>
      <trkpt lat="60.91046" lon="5.13742">
        <ele>89.899695</ele>
        <time>2020-07-26T07:50:23.783Z</time>
      </trkpt>
      <trkpt lat="60.91056" lon="5.13732">
        <ele>90.253184</ele>
        <time>2020-07-26T07:50:27.798Z</time>
      </trkpt>
      <trkpt lat="60.91065" lon="5.13721">
        <ele>90.619753</ele>
        <time>2020-07-26T07:50:31.836Z</time>
      </trkpt>
      <trkpt lat="60.91074" lon="5.1371">
        <ele>90.95532</ele>
        <time>2020-07-26T07:50:34.779Z</time>
      </trkpt>
      <trkpt lat="60.91082" lon="5.13699">
        <ele>91.288639</ele>
        <time>2020-07-26T07:50:37.787Z</time>
      </trkpt>
      <trkpt lat="60.91093" lon="5.13686">
        <ele>91.702001</ele>
        <time>2020-07-26T07:50:40.801Z</time>
      </trkpt>
      <trkpt lat="60.91105" lon="5.13671">
        <ele>92.167163</ele>
        <time>2020-07-26T07:50:43.823Z</time>
      </trkpt>
      <trkpt lat="60.91113" lon="5.13661">
        <ele>92.491923</ele>
        <time>2020-07-26T07:50:45.792Z</time>
      </trkpt>
      <trkpt lat="60.91122" lon="5.1365">
        <ele>92.820372</ele>
        <time>2020-07-26T07:50:47.800Z</time>
      </trkpt>
      <trkpt lat="60.9113" lon="5.13639">
        <ele>93.104022</ele>
        <time>2020-07-26T07:50:49.791Z</time>
      </trkpt>
      <trkpt lat="60.91139" lon="5.13629">
        <ele>93.38266</ele>
        <time>2020-07-26T07:50:51.833Z</time>
      </trkpt>
      <trkpt lat="60.91146" lon="5.13619">
        <ele>93.6392</ele>
        <time>2020-07-26T07:50:53.816Z</time>
      </trkpt>
      <trkpt lat="60.91157" lon="5.13605">
        <ele>93.983478</ele>
        <time>2020-07-26T07:50:56.789Z</time>
      </trkpt>
      <trkpt lat="60.91165" lon="5.13595">
        <ele>94.2711</ele>
        <time>2020-07-26T07:50:59.792Z</time>
      </trkpt>
      <trkpt lat="60.91175" lon="5.13584">
        <ele>94.572893</ele>
        <time>2020-07-26T07:51:03.784Z</time>
      </trkpt>
      <trkpt lat="60.91183" lon="5.13575">
        <ele>94.840934</ele>
        <time>2020-07-26T07:51:07.798Z</time>
      </trkpt>
      <trkpt lat="60.91192" lon="5.13564">
        <ele>95.116458</ele>
        <time>2020-07-26T07:51:11.817Z</time>
      </trkpt>
      <trkpt lat="60.91199" lon="5.13554">
        <ele>95.377359</ele>
        <time>2020-07-26T07:51:15.783Z</time>
      </trkpt>
      <trkpt lat="60.91209" lon="5.13543">
        <ele>95.677118</ele>
        <time>2020-07-26T07:51:20.785Z</time>
      </trkpt>
      <trkpt lat="60.91217" lon="5.13533">
        <ele>95.939513</ele>
        <time>2020-07-26T07:51:24.837Z</time>
      </trkpt>
      <trkpt lat="60.91225" lon="5.13519">
        <ele>96.244574</ele>
        <time>2020-07-26T07:51:29.787Z</time>
      </trkpt>
      <trkpt lat="60.91234" lon="5.13508">
        <ele>96.533227</ele>
        <time>2020-07-26T07:51:34.819Z</time>
      </trkpt>
      <trkpt lat="60.91242" lon="5.13499">
        <ele>96.804055</ele>
        <time>2020-07-26T07:51:39.802Z</time>
      </trkpt>
      <trkpt lat="60.91251" lon="5.1349">
        <ele>97.081815</ele>
        <time>2020-07-26T07:51:44.807Z</time>
      </trkpt>
      <trkpt lat="60.91259" lon="5.13478">
        <ele>97.355045</ele>
        <time>2020-07-26T07:51:48.779Z</time>
      </trkpt>
      <trkpt lat="60.91269" lon="5.13468">
        <ele>97.64959</ele>
        <time>2020-07-26T07:51:52.778Z</time>
      </trkpt>
      <trkpt lat="60.91277" lon="5.13459">
        <ele>97.867444</ele>
        <time>2020-07-26T07:51:55.808Z</time>
      </trkpt>
      <trkpt lat="60.91285" lon="5.13449">
        <ele>97.697814</ele>
        <time>2020-07-26T07:51:58.781Z</time>
      </trkpt>
      <trkpt lat="60.91295" lon="5.13436">
        <ele>97.491203</ele>
        <time>2020-07-26T07:52:02.798Z</time>
      </trkpt>
      <trkpt lat="60.91305" lon="5.13425">
        <ele>97.291849</ele>
        <time>2020-07-26T07:52:07.775Z</time>
      </trkpt>
      <trkpt lat="60.91313" lon="5.13417">
        <ele>97.125778</ele>
        <time>2020-07-26T07:52:11.835Z</time>
      </trkpt>
      <trkpt lat="60.91322" lon="5.13408">
        <ele>96.957561</ele>
        <time>2020-07-26T07:52:15.814Z</time>
      </trkpt>
      <trkpt lat="60.9133" lon="5.13401">
        <ele>96.795417</ele>
        <time>2020-07-26T07:52:19.778Z</time>
      </trkpt>
      <trkpt lat="60.91339" lon="5.13393">
        <ele>96.632924</ele>
        <time>2020-07-26T07:52:22.793Z</time>
      </trkpt>
      <trkpt lat="60.91349" lon="5.13384">
        <ele>96.435857</ele>
        <time>2020-07-26T07:52:25.802Z</time>
      </trkpt>
      <trkpt lat="60.91361" lon="5.13377">
        <ele>96.213053</ele>
        <time>2020-07-26T07:52:28.789Z</time>
      </trkpt>
      <trkpt lat="60.91372" lon="5.13369">
        <ele>96.016658</ele>
        <time>2020-07-26T07:52:30.787Z</time>
      </trkpt>
      <trkpt lat="60.91385" lon="5.13359">
        <ele>95.761175</ele>
        <time>2020-07-26T07:52:32.794Z</time>
      </trkpt>
      <trkpt lat="60.91401" lon="5.13348">
        <ele>95.470609</ele>
        <time>2020-07-26T07:52:34.811Z</time>
      </trkpt>
      <trkpt lat="60.91419" lon="5.13338">
        <ele>95.142418</ele>
        <time>2020-07-26T07:52:36.788Z</time>
      </trkpt>
      <trkpt lat="60.91429" lon="5.13332">
        <ele>94.949045</ele>
        <time>2020-07-26T07:52:37.796Z</time>
      </trkpt>
      <trkpt lat="60.9144" lon="5.13328">
        <ele>94.757803</ele>
        <time>2020-07-26T07:52:38.790Z</time>
      </trkpt>
      <trkpt lat="60.9145" lon="5.13323">
        <ele>94.294889</ele>
        <time>2020-07-26T07:52:39.787Z</time>
      </trkpt>
      <trkpt lat="60.91461" lon="5.13318">
        <ele>93.727765</ele>
        <time>2020-07-26T07:52:40.782Z</time>
      </trkpt>
      <trkpt lat="60.91471" lon="5.13313">
        <ele>93.17204</ele>
        <time>2020-07-26T07:52:41.802Z</time>
      </trkpt>
      <trkpt lat="60.91481" lon="5.13308">
        <ele>92.639078</ele>
        <time>2020-07-26T07:52:42.816Z</time>
      </trkpt>
      <trkpt lat="60.91491" lon="5.13304">
        <ele>92.110641</ele>
        <time>2020-07-26T07:52:43.830Z</time>
      </trkpt>
      <trkpt lat="60.91501" lon="5.13299">
        <ele>91.582205</ele>
        <time>2020-07-26T07:52:44.811Z</time>
      </trkpt>
      <trkpt lat="60.9151" lon="5.13294">
        <ele>91.061465</ele>
        <time>2020-07-26T07:52:45.801Z</time>
      </trkpt>
      <trkpt lat="60.91519" lon="5.13289">
        <ele>90.587593</ele>
        <time>2020-07-26T07:52:46.794Z</time>
      </trkpt>
      <trkpt lat="60.91536" lon="5.13282">
        <ele>89.702816</ele>
        <time>2020-07-26T07:52:48.796Z</time>
      </trkpt>
      <trkpt lat="60.9155" lon="5.13279">
        <ele>88.923423</ele>
        <time>2020-07-26T07:52:50.802Z</time>
      </trkpt>
      <trkpt lat="60.91565" lon="5.13281">
        <ele>88.161853</ele>
        <time>2020-07-26T07:52:52.833Z</time>
      </trkpt>
      <trkpt lat="60.91581" lon="5.13287">
        <ele>87.320841</ele>
        <time>2020-07-26T07:52:54.826Z</time>
      </trkpt>
      <trkpt lat="60.91589" lon="5.13292">
        <ele>86.849176</ele>
        <time>2020-07-26T07:52:55.807Z</time>
      </trkpt>
      <trkpt lat="60.91598" lon="5.13299">
        <ele>86.358214</ele>
        <time>2020-07-26T07:52:56.791Z</time>
      </trkpt>
      <trkpt lat="60.91607" lon="5.13308">
        <ele>85.849669</ele>
        <time>2020-07-26T07:52:57.805Z</time>
      </trkpt>
      <trkpt lat="60.91615" lon="5.13315">
        <ele>85.361476</ele>
        <time>2020-07-26T07:52:58.825Z</time>
      </trkpt>
      <trkpt lat="60.91631" lon="5.13327">
        <ele>84.438729</ele>
        <time>2020-07-26T07:53:00.796Z</time>
      </trkpt>
      <trkpt lat="60.91647" lon="5.13344">
        <ele>83.483844</ele>
        <time>2020-07-26T07:53:02.789Z</time>
      </trkpt>
      <trkpt lat="60.91655" lon="5.13354">
        <ele>82.969119</ele>
        <time>2020-07-26T07:53:03.855Z</time>
      </trkpt>
      <trkpt lat="60.91663" lon="5.13363">
        <ele>82.451967</ele>
        <time>2020-07-26T07:53:04.805Z</time>
      </trkpt>
      <trkpt lat="60.91672" lon="5.13369">
        <ele>81.913585</ele>
        <time>2020-07-26T07:53:05.796Z</time>
      </trkpt>
      <trkpt lat="60.91682" lon="5.13374">
        <ele>81.359033</ele>
        <time>2020-07-26T07:53:06.785Z</time>
      </trkpt>
      <trkpt lat="60.91692" lon="5.13377">
        <ele>80.79934</ele>
        <time>2020-07-26T07:53:07.793Z</time>
      </trkpt>
      <trkpt lat="60.91703" lon="5.13376">
        <ele>80.216094</ele>
        <time>2020-07-26T07:53:08.810Z</time>
      </trkpt>
      <trkpt lat="60.91713" lon="5.13371">
        <ele>79.621494</ele>
        <time>2020-07-26T07:53:09.789Z</time>
      </trkpt>
      <trkpt lat="60.91724" lon="5.13365">
        <ele>79.02383</ele>
        <time>2020-07-26T07:53:10.817Z</time>
      </trkpt>
      <trkpt lat="60.91733" lon="5.13357">
        <ele>78.454301</ele>
        <time>2020-07-26T07:53:11.793Z</time>
      </trkpt>
      <trkpt lat="60.91742" lon="5.13348">
        <ele>77.920071</ele>
        <time>2020-07-26T07:53:12.788Z</time>
      </trkpt>
      <trkpt lat="60.9175" lon="5.13337">
        <ele>77.387565</ele>
        <time>2020-07-26T07:53:13.788Z</time>
      </trkpt>
      <trkpt lat="60.91758" lon="5.13326">
        <ele>76.85697</ele>
        <time>2020-07-26T07:53:14.791Z</time>
      </trkpt>
      <trkpt lat="60.91766" lon="5.13315">
        <ele>76.346019</ele>
        <time>2020-07-26T07:53:15.792Z</time>
      </trkpt>
      <trkpt lat="60.91773" lon="5.13305">
        <ele>75.846745</ele>
        <time>2020-07-26T07:53:16.787Z</time>
      </trkpt>
      <trkpt lat="60.91788" lon="5.13289">
        <ele>75.168739</ele>
        <time>2020-07-26T07:53:18.782Z</time>
      </trkpt>
      <trkpt lat="60.91804" lon="5.13278">
        <ele>74.716095</ele>
        <time>2020-07-26T07:53:20.829Z</time>
      </trkpt>
      <trkpt lat="60.91821" lon="5.1327">
        <ele>74.238683</ele>
        <time>2020-07-26T07:53:22.791Z</time>
      </trkpt>
      <trkpt lat="60.91839" lon="5.13262">
        <ele>73.767063</ele>
        <time>2020-07-26T07:53:24.784Z</time>
      </trkpt>
      <trkpt lat="60.91856" lon="5.13253">
        <ele>73.292547</ele>
        <time>2020-07-26T07:53:26.830Z</time>
      </trkpt>
      <trkpt lat="60.91872" lon="5.13245">
        <ele>72.860768</ele>
        <time>2020-07-26T07:53:28.779Z</time>
      </trkpt>
      <trkpt lat="60.91886" lon="5.13239">
        <ele>72.475032</ele>
        <time>2020-07-26T07:53:30.776Z</time>
      </trkpt>
      <trkpt lat="60.91899" lon="5.13234">
        <ele>72.116494</ele>
        <time>2020-07-26T07:53:32.788Z</time>
      </trkpt>
      <trkpt lat="60.91911" lon="5.1323">
        <ele>71.800491</ele>
        <time>2020-07-26T07:53:34.792Z</time>
      </trkpt>
      <trkpt lat="60.91921" lon="5.13226">
        <ele>71.517563</ele>
        <time>2020-07-26T07:53:36.794Z</time>
      </trkpt>
      <trkpt lat="60.91931" lon="5.1322">
        <ele>71.246729</ele>
        <time>2020-07-26T07:53:38.811Z</time>
      </trkpt>
      <trkpt lat="60.9194" lon="5.13212">
        <ele>70.982367</ele>
        <time>2020-07-26T07:53:40.791Z</time>
      </trkpt>
      <trkpt lat="60.9195" lon="5.13207">
        <ele>70.713139</ele>
        <time>2020-07-26T07:53:42.812Z</time>
      </trkpt>
      <trkpt lat="60.91961" lon="5.13205">
        <ele>70.636819</ele>
        <time>2020-07-26T07:53:44.815Z</time>
      </trkpt>
      <trkpt lat="60.91972" lon="5.13201">
        <ele>70.746608</ele>
        <time>2020-07-26T07:53:46.816Z</time>
      </trkpt>
      <trkpt lat="60.91985" lon="5.13196">
        <ele>70.866219</ele>
        <time>2020-07-26T07:53:48.788Z</time>
      </trkpt>
      <trkpt lat="60.91999" lon="5.13187">
        <ele>71.000663</ele>
        <time>2020-07-26T07:53:50.793Z</time>
      </trkpt>
      <trkpt lat="60.92014" lon="5.13175">
        <ele>71.145597</ele>
        <time>2020-07-26T07:53:52.788Z</time>
      </trkpt>
      <trkpt lat="60.92027" lon="5.13161">
        <ele>71.278997</ele>
        <time>2020-07-26T07:53:54.787Z</time>
      </trkpt>
      <trkpt lat="60.92039" lon="5.13145">
        <ele>71.406538</ele>
        <time>2020-07-26T07:53:56.778Z</time>
      </trkpt>
      <trkpt lat="60.92047" lon="5.13133">
        <ele>71.503452</ele>
        <time>2020-07-26T07:53:58.807Z</time>
      </trkpt>
      <trkpt lat="60.92058" lon="5.1312">
        <ele>71.613011</ele>
        <time>2020-07-26T07:54:01.789Z</time>
      </trkpt>
      <trkpt lat="60.92067" lon="5.13109">
        <ele>71.714817</ele>
        <time>2020-07-26T07:54:04.812Z</time>
      </trkpt>
      <trkpt lat="60.92077" lon="5.131">
        <ele>71.813977</ele>
        <time>2020-07-26T07:54:07.786Z</time>
      </trkpt>
      <trkpt lat="60.92087" lon="5.1309">
        <ele>71.911877</ele>
        <time>2020-07-26T07:54:10.797Z</time>
      </trkpt>
      <trkpt lat="60.92097" lon="5.1308">
        <ele>72.012604</ele>
        <time>2020-07-26T07:54:13.814Z</time>
      </trkpt>
      <trkpt lat="60.92109" lon="5.13072">
        <ele>72.126942</ele>
        <time>2020-07-26T07:54:16.808Z</time>
      </trkpt>
      <trkpt lat="60.92118" lon="5.13065">
        <ele>72.213651</ele>
        <time>2020-07-26T07:54:18.788Z</time>
      </trkpt>
      <trkpt lat="60.92127" lon="5.1306">
        <ele>72.066792</ele>
        <time>2020-07-26T07:54:20.814Z</time>
      </trkpt>
      <trkpt lat="60.92139" lon="5.13057">
        <ele>71.85637</ele>
        <time>2020-07-26T07:54:22.793Z</time>
      </trkpt>
      <trkpt lat="60.92152" lon="5.13055">
        <ele>71.607736</ele>
        <time>2020-07-26T07:54:24.833Z</time>
      </trkpt>
      <trkpt lat="60.92168" lon="5.13057">
        <ele>71.324702</ele>
        <time>2020-07-26T07:54:26.799Z</time>
      </trkpt>
      <trkpt lat="60.92177" lon="5.13061">
        <ele>71.152255</ele>
        <time>2020-07-26T07:54:27.806Z</time>
      </trkpt>
      <trkpt lat="60.92186" lon="5.13064">
        <ele>70.988145</ele>
        <time>2020-07-26T07:54:28.779Z</time>
      </trkpt>
      <trkpt lat="60.92203" lon="5.13069">
        <ele>70.673891</ele>
        <time>2020-07-26T07:54:30.789Z</time>
      </trkpt>
      <trkpt lat="60.9222" lon="5.13069">
        <ele>70.373228</ele>
        <time>2020-07-26T07:54:32.809Z</time>
      </trkpt>
      <trkpt lat="60.92235" lon="5.13066">
        <ele>70.096832</ele>
        <time>2020-07-26T07:54:34.826Z</time>
      </trkpt>
      <trkpt lat="60.92248" lon="5.13065">
        <ele>69.861276</ele>
        <time>2020-07-26T07:54:36.791Z</time>
      </trkpt>
      <trkpt lat="60.92258" lon="5.13064">
        <ele>69.672391</ele>
        <time>2020-07-26T07:54:38.813Z</time>
      </trkpt>
      <trkpt lat="60.92268" lon="5.13061">
        <ele>69.50216</ele>
        <time>2020-07-26T07:54:40.805Z</time>
      </trkpt>
      <trkpt lat="60.9228" lon="5.13057">
        <ele>69.284186</ele>
        <time>2020-07-26T07:54:43.789Z</time>
      </trkpt>
      <trkpt lat="60.9229" lon="5.13054">
        <ele>69.099363</ele>
        <time>2020-07-26T07:54:46.791Z</time>
      </trkpt>
      <trkpt lat="60.92299" lon="5.1305">
        <ele>69.031128</ele>
        <time>2020-07-26T07:54:49.788Z</time>
      </trkpt>
      <trkpt lat="60.9231" lon="5.13047">
        <ele>69.364854</ele>
        <time>2020-07-26T07:54:53.808Z</time>
      </trkpt>
      <trkpt lat="60.92321" lon="5.13045">
        <ele>69.677009</ele>
        <time>2020-07-26T07:54:57.785Z</time>
      </trkpt>
      <trkpt lat="60.9233" lon="5.13042">
        <ele>69.966713</ele>
        <time>2020-07-26T07:55:01.801Z</time>
      </trkpt>
      <trkpt lat="60.92341" lon="5.1304">
        <ele>70.278452</ele>
        <time>2020-07-26T07:55:06.800Z</time>
      </trkpt>
      <trkpt lat="60.9235" lon="5.13041">
        <ele>70.574131</ele>
        <time>2020-07-26T07:55:11.844Z</time>
      </trkpt>
      <trkpt lat="60.9236" lon="5.13043">
        <ele>70.859907</ele>
        <time>2020-07-26T07:55:15.783Z</time>
      </trkpt>
      <trkpt lat="60.92369" lon="5.13044">
        <ele>71.128875</ele>
        <time>2020-07-26T07:55:19.800Z</time>
      </trkpt>
      <trkpt lat="60.92378" lon="5.13046">
        <ele>71.401695</ele>
        <time>2020-07-26T07:55:23.798Z</time>
      </trkpt>
      <trkpt lat="60.92389" lon="5.13048">
        <ele>71.72393</ele>
        <time>2020-07-26T07:55:28.802Z</time>
      </trkpt>
      <trkpt lat="60.92399" lon="5.13052">
        <ele>72.044701</ele>
        <time>2020-07-26T07:55:33.796Z</time>
      </trkpt>
      <trkpt lat="60.92409" lon="5.13057">
        <ele>72.335766</ele>
        <time>2020-07-26T07:55:38.801Z</time>
      </trkpt>
      <trkpt lat="60.92419" lon="5.13064">
        <ele>72.64365</ele>
        <time>2020-07-26T07:55:43.778Z</time>
      </trkpt>
      <trkpt lat="60.92428" lon="5.13072">
        <ele>72.960623</ele>
        <time>2020-07-26T07:55:48.796Z</time>
      </trkpt>
      <trkpt lat="60.92438" lon="5.1308">
        <ele>73.263911</ele>
        <time>2020-07-26T07:55:53.829Z</time>
      </trkpt>
      <trkpt lat="60.92448" lon="5.13089">
        <ele>73.587978</ele>
        <time>2020-07-26T07:55:58.859Z</time>
      </trkpt>
      <trkpt lat="60.92457" lon="5.13097">
        <ele>73.893385</ele>
        <time>2020-07-26T07:56:03.786Z</time>
      </trkpt>
      <trkpt lat="60.92466" lon="5.13105">
        <ele>74.194345</ele>
        <time>2020-07-26T07:56:08.796Z</time>
      </trkpt>
      <trkpt lat="60.92475" lon="5.13113">
        <ele>74.462067</ele>
        <time>2020-07-26T07:56:12.809Z</time>
      </trkpt>
      <trkpt lat="60.92484" lon="5.13125">
        <ele>74.753838</ele>
        <time>2020-07-26T07:56:17.780Z</time>
      </trkpt>
      <trkpt lat="60.92492" lon="5.13137">
        <ele>75.023029</ele>
        <time>2020-07-26T07:56:22.798Z</time>
      </trkpt>
      <trkpt lat="60.925" lon="5.13148">
        <ele>75.290761</ele>
        <time>2020-07-26T07:56:27.784Z</time>
      </trkpt>
      <trkpt lat="60.92509" lon="5.13158">
        <ele>75.551988</ele>
        <time>2020-07-26T07:56:32.797Z</time>
      </trkpt>
      <trkpt lat="60.92516" lon="5.13173">
        <ele>75.837298</ele>
        <time>2020-07-26T07:56:37.811Z</time>
      </trkpt>
      <trkpt lat="60.92523" lon="5.13189">
        <ele>76.116183</ele>
        <time>2020-07-26T07:56:42.825Z</time>
      </trkpt>
      <trkpt lat="60.9253" lon="5.13205">
        <ele>76.408051</ele>
        <time>2020-07-26T07:56:47.802Z</time>
      </trkpt>
      <trkpt lat="60.92537" lon="5.1322">
        <ele>76.685689</ele>
        <time>2020-07-26T07:56:51.800Z</time>
      </trkpt>
      <trkpt lat="60.92544" lon="5.13236">
        <ele>76.964573</ele>
        <time>2020-07-26T07:56:54.786Z</time>
      </trkpt>
      <trkpt lat="60.92553" lon="5.13254">
        <ele>77.302044</ele>
        <time>2020-07-26T07:56:57.801Z</time>
      </trkpt>
      <trkpt lat="60.92563" lon="5.13272">
        <ele>77.656974</ele>
        <time>2020-07-26T07:57:00.792Z</time>
      </trkpt>
      <trkpt lat="60.9257" lon="5.13283">
        <ele>77.915679</ele>
        <time>2020-07-26T07:57:02.806Z</time>
      </trkpt>
      <trkpt lat="60.92579" lon="5.13298">
        <ele>78.207092</ele>
        <time>2020-07-26T07:57:04.797Z</time>
      </trkpt>
      <trkpt lat="60.92588" lon="5.13311">
        <ele>78.521039</ele>
        <time>2020-07-26T07:57:06.800Z</time>
      </trkpt>
      <trkpt lat="60.92598" lon="5.13324">
        <ele>78.838801</ele>
        <time>2020-07-26T07:57:08.785Z</time>
      </trkpt>
      <trkpt lat="60.92609" lon="5.13336">
        <ele>79.171001</ele>
        <time>2020-07-26T07:57:10.827Z</time>
      </trkpt>
      <trkpt lat="60.92619" lon="5.13347">
        <ele>79.283507</ele>
        <time>2020-07-26T07:57:12.796Z</time>
      </trkpt>
      <trkpt lat="60.9263" lon="5.13356">
        <ele>79.353673</ele>
        <time>2020-07-26T07:57:14.806Z</time>
      </trkpt>
      <trkpt lat="60.92641" lon="5.13359">
        <ele>79.419585</ele>
        <time>2020-07-26T07:57:16.800Z</time>
      </trkpt>
      <trkpt lat="60.92652" lon="5.13359">
        <ele>79.48086</ele>
        <time>2020-07-26T07:57:18.791Z</time>
      </trkpt>
      <trkpt lat="60.92662" lon="5.13358">
        <ele>79.538718</ele>
        <time>2020-07-26T07:57:20.811Z</time>
      </trkpt>
      <trkpt lat="60.92671" lon="5.13354">
        <ele>79.59165</ele>
        <time>2020-07-26T07:57:22.797Z</time>
      </trkpt>
      <trkpt lat="60.92682" lon="5.13347">
        <ele>79.658677</ele>
        <time>2020-07-26T07:57:25.796Z</time>
      </trkpt>
      <trkpt lat="60.92691" lon="5.13338">
        <ele>79.718745</ele>
        <time>2020-07-26T07:57:28.809Z</time>
      </trkpt>
      <trkpt lat="60.92701" lon="5.13328">
        <ele>79.780909</ele>
        <time>2020-07-26T07:57:31.790Z</time>
      </trkpt>
      <trkpt lat="60.92709" lon="5.13318">
        <ele>79.840414</ele>
        <time>2020-07-26T07:57:34.797Z</time>
      </trkpt>
      <trkpt lat="60.9272" lon="5.13305">
        <ele>79.911224</ele>
        <time>2020-07-26T07:57:38.802Z</time>
      </trkpt>
      <trkpt lat="60.92728" lon="5.13295">
        <ele>79.965491</ele>
        <time>2020-07-26T07:57:41.820Z</time>
      </trkpt>
      <trkpt lat="60.92739" lon="5.13288">
        <ele>80.031919</ele>
        <time>2020-07-26T07:57:44.808Z</time>
      </trkpt>
      <trkpt lat="60.92752" lon="5.13281">
        <ele>80.111467</ele>
        <time>2020-07-26T07:57:47.790Z</time>
      </trkpt>
      <trkpt lat="60.92761" lon="5.13276">
        <ele>80.165943</ele>
        <time>2020-07-26T07:57:49.804Z</time>
      </trkpt>
      <trkpt lat="60.9277" lon="5.1327">
        <ele>80.222973</ele>
        <time>2020-07-26T07:57:51.836Z</time>
      </trkpt>
      <trkpt lat="60.92779" lon="5.13264">
        <ele>80.268591</ele>
        <time>2020-07-26T07:57:53.790Z</time>
      </trkpt>
      <trkpt lat="60.92788" lon="5.13257">
        <ele>80.12387</ele>
        <time>2020-07-26T07:57:55.789Z</time>
      </trkpt>
      <trkpt lat="60.92799" lon="5.13249">
        <ele>79.937388</ele>
        <time>2020-07-26T07:57:58.787Z</time>
      </trkpt>
      <trkpt lat="60.92808" lon="5.13241">
        <ele>79.781375</ele>
        <time>2020-07-26T07:58:01.789Z</time>
      </trkpt>
      <trkpt lat="60.92819" lon="5.13234">
        <ele>79.607998</ele>
        <time>2020-07-26T07:58:05.796Z</time>
      </trkpt>
      <trkpt lat="60.9283" lon="5.13228">
        <ele>79.42801</ele>
        <time>2020-07-26T07:58:09.819Z</time>
      </trkpt>
      <trkpt lat="60.92839" lon="5.13224">
        <ele>79.284576</ele>
        <time>2020-07-26T07:58:12.776Z</time>
      </trkpt>
      <trkpt lat="60.92849" lon="5.13219">
        <ele>79.125972</ele>
        <time>2020-07-26T07:58:16.829Z</time>
      </trkpt>
      <trkpt lat="60.92859" lon="5.13216">
        <ele>78.967909</ele>
        <time>2020-07-26T07:58:20.806Z</time>
      </trkpt>
      <trkpt lat="60.92868" lon="5.13215">
        <ele>78.813844</ele>
        <time>2020-07-26T07:58:24.800Z</time>
      </trkpt>
      <trkpt lat="60.92878" lon="5.13217">
        <ele>78.660854</ele>
        <time>2020-07-26T07:58:28.780Z</time>
      </trkpt>
      <trkpt lat="60.92888" lon="5.13218">
        <ele>78.50365</ele>
        <time>2020-07-26T07:58:32.814Z</time>
      </trkpt>
      <trkpt lat="60.92898" lon="5.13222">
        <ele>78.350365</ele>
        <time>2020-07-26T07:58:36.807Z</time>
      </trkpt>
      <trkpt lat="60.92909" lon="5.13228">
        <ele>78.169492</ele>
        <time>2020-07-26T07:58:40.798Z</time>
      </trkpt>
      <trkpt lat="60.92918" lon="5.13234">
        <ele>78.022623</ele>
        <time>2020-07-26T07:58:43.806Z</time>
      </trkpt>
      <trkpt lat="60.92927" lon="5.13243">
        <ele>77.858458</ele>
        <time>2020-07-26T07:58:46.789Z</time>
      </trkpt>
      <trkpt lat="60.92937" lon="5.13252">
        <ele>77.694952</ele>
        <time>2020-07-26T07:58:49.782Z</time>
      </trkpt>
      <trkpt lat="60.92946" lon="5.13266">
        <ele>77.515296</ele>
        <time>2020-07-26T07:58:52.810Z</time>
      </trkpt>
      <trkpt lat="60.92954" lon="5.13277">
        <ele>77.193581</ele>
        <time>2020-07-26T07:58:54.809Z</time>
      </trkpt>
      <trkpt lat="60.92962" lon="5.13292">
        <ele>76.687474</ele>
        <time>2020-07-26T07:58:56.811Z</time>
      </trkpt>
      <trkpt lat="60.92972" lon="5.13309">
        <ele>76.107536</ele>
        <time>2020-07-26T07:58:58.779Z</time>
      </trkpt>
      <trkpt lat="60.92982" lon="5.13329">
        <ele>75.472315</ele>
        <time>2020-07-26T07:59:00.809Z</time>
      </trkpt>
      <trkpt lat="60.92992" lon="5.13351">
        <ele>74.789167</ele>
        <time>2020-07-26T07:59:02.813Z</time>
      </trkpt>
      <trkpt lat="60.93004" lon="5.13376">
        <ele>74.016119</ele>
        <time>2020-07-26T07:59:04.800Z</time>
      </trkpt>
      <trkpt lat="60.9301" lon="5.1339">
        <ele>73.589019</ele>
        <time>2020-07-26T07:59:05.793Z</time>
      </trkpt>
      <trkpt lat="60.93017" lon="5.13404">
        <ele>73.160314</ele>
        <time>2020-07-26T07:59:06.797Z</time>
      </trkpt>
      <trkpt lat="60.93024" lon="5.13416">
        <ele>72.732877</ele>
        <time>2020-07-26T07:59:07.806Z</time>
      </trkpt>
      <trkpt lat="60.93032" lon="5.13427">
        <ele>72.293798</ele>
        <time>2020-07-26T07:59:08.808Z</time>
      </trkpt>
      <trkpt lat="60.9304" lon="5.13436">
        <ele>71.840727</ele>
        <time>2020-07-26T07:59:09.810Z</time>
      </trkpt>
      <trkpt lat="60.93049" lon="5.13445">
        <ele>71.392209</ele>
        <time>2020-07-26T07:59:10.790Z</time>
      </trkpt>
      <trkpt lat="60.93058" lon="5.13452">
        <ele>70.950755</ele>
        <time>2020-07-26T07:59:11.794Z</time>
      </trkpt>
      <trkpt lat="60.93067" lon="5.13459">
        <ele>70.511436</ele>
        <time>2020-07-26T07:59:12.830Z</time>
      </trkpt>
      <trkpt lat="60.93076" lon="5.13465">
        <ele>70.085195</ele>
        <time>2020-07-26T07:59:13.846Z</time>
      </trkpt>
      <trkpt lat="60.93085" lon="5.1347">
        <ele>69.659903</ele>
        <time>2020-07-26T07:59:14.799Z</time>
      </trkpt>
      <trkpt lat="60.93094" lon="5.13475">
        <ele>69.244209</ele>
        <time>2020-07-26T07:59:15.792Z</time>
      </trkpt>
      <trkpt lat="60.93111" lon="5.13485">
        <ele>68.133785</ele>
        <time>2020-07-26T07:59:17.793Z</time>
      </trkpt>
      <trkpt lat="60.93127" lon="5.13495">
        <ele>67.054922</ele>
        <time>2020-07-26T07:59:19.800Z</time>
      </trkpt>
      <trkpt lat="60.93143" lon="5.13506">
        <ele>65.954018</ele>
        <time>2020-07-26T07:59:21.785Z</time>
      </trkpt>
      <trkpt lat="60.93153" lon="5.13509">
        <ele>65.341017</ele>
        <time>2020-07-26T07:59:22.834Z</time>
      </trkpt>
      <trkpt lat="60.93162" lon="5.13513">
        <ele>64.718203</ele>
        <time>2020-07-26T07:59:23.799Z</time>
      </trkpt>
      <trkpt lat="60.93172" lon="5.13516">
        <ele>64.083256</ele>
        <time>2020-07-26T07:59:24.808Z</time>
      </trkpt>
      <trkpt lat="60.93182" lon="5.13519">
        <ele>63.440994</ele>
        <time>2020-07-26T07:59:25.805Z</time>
      </trkpt>
      <trkpt lat="60.93192" lon="5.13523">
        <ele>62.790278</ele>
        <time>2020-07-26T07:59:26.808Z</time>
      </trkpt>
      <trkpt lat="60.93202" lon="5.13527">
        <ele>62.125247</ele>
        <time>2020-07-26T07:59:27.784Z</time>
      </trkpt>
      <trkpt lat="60.93213" lon="5.13532">
        <ele>61.426405</ele>
        <time>2020-07-26T07:59:28.793Z</time>
      </trkpt>
      <trkpt lat="60.93224" lon="5.13536">
        <ele>60.697917</ele>
        <time>2020-07-26T07:59:29.815Z</time>
      </trkpt>
      <trkpt lat="60.93235" lon="5.1354">
        <ele>59.969429</ele>
        <time>2020-07-26T07:59:30.780Z</time>
      </trkpt>
      <trkpt lat="60.93246" lon="5.13544">
        <ele>59.254636</ele>
        <time>2020-07-26T07:59:31.804Z</time>
      </trkpt>
      <trkpt lat="60.93257" lon="5.13548">
        <ele>58.565588</ele>
        <time>2020-07-26T07:59:32.815Z</time>
      </trkpt>
      <trkpt lat="60.93267" lon="5.13552">
        <ele>57.902283</ele>
        <time>2020-07-26T07:59:33.814Z</time>
      </trkpt>
      <trkpt lat="60.93277" lon="5.13556">
        <ele>57.91682</ele>
        <time>2020-07-26T07:59:34.809Z</time>
      </trkpt>
      <trkpt lat="60.93287" lon="5.13558">
        <ele>58.25611</ele>
        <time>2020-07-26T07:59:35.799Z</time>
      </trkpt>
      <trkpt lat="60.93297" lon="5.13559">
        <ele>58.588094</ele>
        <time>2020-07-26T07:59:36.786Z</time>
      </trkpt>
      <trkpt lat="60.93307" lon="5.1356">
        <ele>58.919552</ele>
        <time>2020-07-26T07:59:37.791Z</time>
      </trkpt>
      <trkpt lat="60.93317" lon="5.13561">
        <ele>59.234054</ele>
        <time>2020-07-26T07:59:38.826Z</time>
      </trkpt>
      <trkpt lat="60.93326" lon="5.1356">
        <ele>59.535868</ele>
        <time>2020-07-26T07:59:39.811Z</time>
      </trkpt>
      <trkpt lat="60.93335" lon="5.13556">
        <ele>59.842885</ele>
        <time>2020-07-26T07:59:40.848Z</time>
      </trkpt>
      <trkpt lat="60.9335" lon="5.13546">
        <ele>60.362108</ele>
        <time>2020-07-26T07:59:42.787Z</time>
      </trkpt>
      <trkpt lat="60.9336" lon="5.13536">
        <ele>60.73468</ele>
        <time>2020-07-26T07:59:44.787Z</time>
      </trkpt>
      <trkpt lat="60.93371" lon="5.13527">
        <ele>61.111209</ele>
        <time>2020-07-26T07:59:47.793Z</time>
      </trkpt>
      <trkpt lat="60.93392" lon="5.13501">
        <ele>61.934518</ele>
        <time>2020-07-26T08:04:21.793Z</time>
      </trkpt>
      <trkpt lat="60.93402" lon="5.13491">
        <ele>62.286229</ele>
        <time>2020-07-26T08:04:26.834Z</time>
      </trkpt>
      <trkpt lat="60.9341" lon="5.13482">
        <ele>62.611446</ele>
        <time>2020-07-26T08:04:30.808Z</time>
      </trkpt>
      <trkpt lat="60.93419" lon="5.13473">
        <ele>62.92195</ele>
        <time>2020-07-26T08:04:34.793Z</time>
      </trkpt>
      <trkpt lat="60.93428" lon="5.13461">
        <ele>63.27863</ele>
        <time>2020-07-26T08:04:39.789Z</time>
      </trkpt>
      <trkpt lat="60.93437" lon="5.13454">
        <ele>63.609479</ele>
        <time>2020-07-26T08:04:45.820Z</time>
      </trkpt>
      <trkpt lat="60.93447" lon="5.13446">
        <ele>64.284847</ele>
        <time>2020-07-26T08:04:51.821Z</time>
      </trkpt>
      <trkpt lat="60.93455" lon="5.13435">
        <ele>64.946067</ele>
        <time>2020-07-26T08:04:57.797Z</time>
      </trkpt>
      <trkpt lat="60.93462" lon="5.13423">
        <ele>65.609169</ele>
        <time>2020-07-26T08:05:03.793Z</time>
      </trkpt>
      <trkpt lat="60.93471" lon="5.1341">
        <ele>66.305077</ele>
        <time>2020-07-26T08:05:09.806Z</time>
      </trkpt>
      <trkpt lat="60.93479" lon="5.13397">
        <ele>67.023181</ele>
        <time>2020-07-26T08:05:15.808Z</time>
      </trkpt>
      <trkpt lat="60.93488" lon="5.13389">
        <ele>67.715631</ele>
        <time>2020-07-26T08:05:21.796Z</time>
      </trkpt>
      <trkpt lat="60.93499" lon="5.13386">
        <ele>68.415771</ele>
        <time>2020-07-26T08:05:27.797Z</time>
      </trkpt>
      <trkpt lat="60.93508" lon="5.13384">
        <ele>69.056691</ele>
        <time>2020-07-26T08:05:33.797Z</time>
      </trkpt>
      <trkpt lat="60.93518" lon="5.13381">
        <ele>69.775322</ele>
        <time>2020-07-26T08:05:40.831Z</time>
      </trkpt>
      <trkpt lat="60.93527" lon="5.13388">
        <ele>70.402009</ele>
        <time>2020-07-26T08:05:45.813Z</time>
      </trkpt>
      <trkpt lat="60.93536" lon="5.13399">
        <ele>71.119097</ele>
        <time>2020-07-26T08:05:50.795Z</time>
      </trkpt>
      <trkpt lat="60.93544" lon="5.1341">
        <ele>71.783993</ele>
        <time>2020-07-26T08:05:55.797Z</time>
      </trkpt>
      <trkpt lat="60.93553" lon="5.13424">
        <ele>72.524687</ele>
        <time>2020-07-26T08:06:01.779Z</time>
      </trkpt>
      <trkpt lat="60.93559" lon="5.13439">
        <ele>73.178206</ele>
        <time>2020-07-26T08:06:06.797Z</time>
      </trkpt>
      <trkpt lat="60.93564" lon="5.13455">
        <ele>73.797621</ele>
        <time>2020-07-26T08:06:11.778Z</time>
      </trkpt>
      <trkpt lat="60.93567" lon="5.13473">
        <ele>74.417512</ele>
        <time>2020-07-26T08:06:16.795Z</time>
      </trkpt>
      <trkpt lat="60.93569" lon="5.13491">
        <ele>75.035009</ele>
        <time>2020-07-26T08:06:21.789Z</time>
      </trkpt>
      <trkpt lat="60.9357" lon="5.13511">
        <ele>75.695487</ele>
        <time>2020-07-26T08:06:26.786Z</time>
      </trkpt>
      <trkpt lat="60.9357" lon="5.13532">
        <ele>76.11007</ele>
        <time>2020-07-26T08:06:31.801Z</time>
      </trkpt>
      <trkpt lat="60.93567" lon="5.13554">
        <ele>76.445018</ele>
        <time>2020-07-26T08:06:36.808Z</time>
      </trkpt>
      <trkpt lat="60.93562" lon="5.13574">
        <ele>76.783804</ele>
        <time>2020-07-26T08:06:41.788Z</time>
      </trkpt>
      <trkpt lat="60.93556" lon="5.1359">
        <ele>77.08376</ele>
        <time>2020-07-26T08:06:45.782Z</time>
      </trkpt>
      <trkpt lat="60.93551" lon="5.13606">
        <ele>77.361703</ele>
        <time>2020-07-26T08:06:49.801Z</time>
      </trkpt>
      <trkpt lat="60.93545" lon="5.13624">
        <ele>77.714497</ele>
        <time>2020-07-26T08:06:53.794Z</time>
      </trkpt>
      <trkpt lat="60.93538" lon="5.13642">
        <ele>78.054544</ele>
        <time>2020-07-26T08:06:57.796Z</time>
      </trkpt>
      <trkpt lat="60.93531" lon="5.13657">
        <ele>78.357583</ele>
        <time>2020-07-26T08:07:01.812Z</time>
      </trkpt>
      <trkpt lat="60.93525" lon="5.13674">
        <ele>78.685914</ele>
        <time>2020-07-26T08:07:05.809Z</time>
      </trkpt>
      <trkpt lat="60.93518" lon="5.13691">
        <ele>79.006554</ele>
        <time>2020-07-26T08:07:09.814Z</time>
      </trkpt>
      <trkpt lat="60.93512" lon="5.13708">
        <ele>79.336853</ele>
        <time>2020-07-26T08:07:13.806Z</time>
      </trkpt>
      <trkpt lat="60.93504" lon="5.13727">
        <ele>79.698855</ele>
        <time>2020-07-26T08:07:17.809Z</time>
      </trkpt>
      <trkpt lat="60.935" lon="5.13748">
        <ele>80.04433</ele>
        <time>2020-07-26T08:07:21.788Z</time>
      </trkpt>
      <trkpt lat="60.93497" lon="5.1377">
        <ele>80.391718</ele>
        <time>2020-07-26T08:07:25.792Z</time>
      </trkpt>
      <trkpt lat="60.93496" lon="5.13794">
        <ele>80.741085</ele>
        <time>2020-07-26T08:07:29.837Z</time>
      </trkpt>
      <trkpt lat="60.93495" lon="5.13815">
        <ele>81.072074</ele>
        <time>2020-07-26T08:07:33.786Z</time>
      </trkpt>
      <trkpt lat="60.93493" lon="5.13837">
        <ele>81.398375</ele>
        <time>2020-07-26T08:07:37.784Z</time>
      </trkpt>
      <trkpt lat="60.93491" lon="5.13858">
        <ele>81.598577</ele>
        <time>2020-07-26T08:07:41.800Z</time>
      </trkpt>
      <trkpt lat="60.93488" lon="5.13881">
        <ele>81.791836</ele>
        <time>2020-07-26T08:07:45.796Z</time>
      </trkpt>
      <trkpt lat="60.93486" lon="5.13903">
        <ele>81.979251</ele>
        <time>2020-07-26T08:07:49.797Z</time>
      </trkpt>
      <trkpt lat="60.93483" lon="5.13924">
        <ele>82.166352</ele>
        <time>2020-07-26T08:07:53.844Z</time>
      </trkpt>
      <trkpt lat="60.93481" lon="5.13946">
        <ele>82.35243</ele>
        <time>2020-07-26T08:07:57.800Z</time>
      </trkpt>
      <trkpt lat="60.9348" lon="5.13965">
        <ele>82.510401</ele>
        <time>2020-07-26T08:08:01.793Z</time>
      </trkpt>
      <trkpt lat="60.93479" lon="5.13986">
        <ele>82.685919</ele>
        <time>2020-07-26T08:08:05.789Z</time>
      </trkpt>
      <trkpt lat="60.93477" lon="5.14009">
        <ele>82.880734</ele>
        <time>2020-07-26T08:08:09.776Z</time>
      </trkpt>
      <trkpt lat="60.93477" lon="5.14028">
        <ele>83.037467</ele>
        <time>2020-07-26T08:08:12.793Z</time>
      </trkpt>
      <trkpt lat="60.93476" lon="5.1405">
        <ele>83.222889</ele>
        <time>2020-07-26T08:08:16.793Z</time>
      </trkpt>
      <trkpt lat="60.93476" lon="5.14072">
        <ele>83.404065</ele>
        <time>2020-07-26T08:08:20.793Z</time>
      </trkpt>
      <trkpt lat="60.93477" lon="5.14093">
        <ele>83.579473</ele>
        <time>2020-07-26T08:08:24.811Z</time>
      </trkpt>
      <trkpt lat="60.93478" lon="5.14113">
        <ele>83.747348</ele>
        <time>2020-07-26T08:08:28.793Z</time>
      </trkpt>
      <trkpt lat="60.93482" lon="5.14131">
        <ele>83.909223</ele>
        <time>2020-07-26T08:08:32.779Z</time>
      </trkpt>
      <trkpt lat="60.93485" lon="5.14149">
        <ele>84.076538</ele>
        <time>2020-07-26T08:08:36.806Z</time>
      </trkpt>
      <trkpt lat="60.9349" lon="5.14167">
        <ele>84.247811</ele>
        <time>2020-07-26T08:08:40.804Z</time>
      </trkpt>
      <trkpt lat="60.93496" lon="5.14183">
        <ele>84.412139</ele>
        <time>2020-07-26T08:08:44.836Z</time>
      </trkpt>
      <trkpt lat="60.93502" lon="5.14201">
        <ele>84.512464</ele>
        <time>2020-07-26T08:08:48.797Z</time>
      </trkpt>
      <trkpt lat="60.93508" lon="5.14216">
        <ele>84.480712</ele>
        <time>2020-07-26T08:08:52.796Z</time>
      </trkpt>
      <trkpt lat="60.93514" lon="5.1423">
        <ele>84.448704</ele>
        <time>2020-07-26T08:08:56.794Z</time>
      </trkpt>
      <trkpt lat="60.93521" lon="5.14246">
        <ele>84.413911</ele>
        <time>2020-07-26T08:09:00.786Z</time>
      </trkpt>
      <trkpt lat="60.93528" lon="5.14262">
        <ele>84.379451</ele>
        <time>2020-07-26T08:09:04.809Z</time>
      </trkpt>
      <trkpt lat="60.93535" lon="5.1428">
        <ele>84.340949</ele>
        <time>2020-07-26T08:09:08.813Z</time>
      </trkpt>
      <trkpt lat="60.93542" lon="5.14299">
        <ele>84.303722</ele>
        <time>2020-07-26T08:09:12.808Z</time>
      </trkpt>
      <trkpt lat="60.93549" lon="5.14317">
        <ele>84.266351</ele>
        <time>2020-07-26T08:09:16.788Z</time>
      </trkpt>
      <trkpt lat="60.93556" lon="5.14335">
        <ele>84.227381</ele>
        <time>2020-07-26T08:09:20.787Z</time>
      </trkpt>
      <trkpt lat="60.93563" lon="5.14352">
        <ele>84.190228</ele>
        <time>2020-07-26T08:09:24.798Z</time>
      </trkpt>
      <trkpt lat="60.93571" lon="5.14371">
        <ele>84.150825</ele>
        <time>2020-07-26T08:09:28.797Z</time>
      </trkpt>
      <trkpt lat="60.93576" lon="5.14387">
        <ele>84.119571</ele>
        <time>2020-07-26T08:09:31.837Z</time>
      </trkpt>
      <trkpt lat="60.93584" lon="5.14405">
        <ele>84.079235</ele>
        <time>2020-07-26T08:09:35.832Z</time>
      </trkpt>
      <trkpt lat="60.93591" lon="5.1442">
        <ele>84.044677</ele>
        <time>2020-07-26T08:09:38.802Z</time>
      </trkpt>
      <trkpt lat="60.93599" lon="5.14435">
        <ele>84.010315</ele>
        <time>2020-07-26T08:09:41.795Z</time>
      </trkpt>
      <trkpt lat="60.93607" lon="5.14449">
        <ele>83.974961</ele>
        <time>2020-07-26T08:09:44.791Z</time>
      </trkpt>
      <trkpt lat="60.93615" lon="5.14464">
        <ele>83.938488</ele>
        <time>2020-07-26T08:09:47.798Z</time>
      </trkpt>
      <trkpt lat="60.93625" lon="5.14476">
        <ele>83.794806</ele>
        <time>2020-07-26T08:09:50.818Z</time>
      </trkpt>
      <trkpt lat="60.93635" lon="5.14489">
        <ele>83.562357</ele>
        <time>2020-07-26T08:09:53.790Z</time>
      </trkpt>
      <trkpt lat="60.93647" lon="5.14498">
        <ele>83.324233</ele>
        <time>2020-07-26T08:09:56.809Z</time>
      </trkpt>
      <trkpt lat="60.9366" lon="5.14506">
        <ele>83.065552</ele>
        <time>2020-07-26T08:09:59.797Z</time>
      </trkpt>
      <trkpt lat="60.93669" lon="5.1451">
        <ele>82.88531</ele>
        <time>2020-07-26T08:10:01.777Z</time>
      </trkpt>
      <trkpt lat="60.9368" lon="5.14511">
        <ele>82.68482</ele>
        <time>2020-07-26T08:10:03.788Z</time>
      </trkpt>
      <trkpt lat="60.93691" lon="5.14511">
        <ele>82.475088</ele>
        <time>2020-07-26T08:10:05.812Z</time>
      </trkpt>
      <trkpt lat="60.93702" lon="5.14511">
        <ele>82.255746</ele>
        <time>2020-07-26T08:10:07.829Z</time>
      </trkpt>
      <trkpt lat="60.93714" lon="5.14508">
        <ele>82.02796</ele>
        <time>2020-07-26T08:10:09.791Z</time>
      </trkpt>
      <trkpt lat="60.93726" lon="5.14503">
        <ele>81.791719</ele>
        <time>2020-07-26T08:10:11.789Z</time>
      </trkpt>
      <trkpt lat="60.93738" lon="5.14498">
        <ele>81.558115</ele>
        <time>2020-07-26T08:10:13.813Z</time>
      </trkpt>
      <trkpt lat="60.93751" lon="5.1449">
        <ele>81.313808</ele>
        <time>2020-07-26T08:10:15.800Z</time>
      </trkpt>
      <trkpt lat="60.93763" lon="5.14483">
        <ele>81.072624</ele>
        <time>2020-07-26T08:10:17.796Z</time>
      </trkpt>
      <trkpt lat="60.93775" lon="5.14475">
        <ele>80.826978</ele>
        <time>2020-07-26T08:10:19.812Z</time>
      </trkpt>
      <trkpt lat="60.93786" lon="5.14467">
        <ele>80.601831</ele>
        <time>2020-07-26T08:10:21.788Z</time>
      </trkpt>
      <trkpt lat="60.93796" lon="5.14458">
        <ele>80.613823</ele>
        <time>2020-07-26T08:10:23.798Z</time>
      </trkpt>
      <trkpt lat="60.93805" lon="5.1445">
        <ele>80.832594</ele>
        <time>2020-07-26T08:10:25.787Z</time>
      </trkpt>
      <trkpt lat="60.93814" lon="5.14442">
        <ele>81.038187</ele>
        <time>2020-07-26T08:10:27.775Z</time>
      </trkpt>
      <trkpt lat="60.93822" lon="5.14434">
        <ele>81.243542</ele>
        <time>2020-07-26T08:10:29.797Z</time>
      </trkpt>
      <trkpt lat="60.93834" lon="5.14424">
        <ele>81.515846</ele>
        <time>2020-07-26T08:10:32.797Z</time>
      </trkpt>
      <trkpt lat="60.93844" lon="5.14413">
        <ele>81.77127</ele>
        <time>2020-07-26T08:10:35.841Z</time>
      </trkpt>
      <trkpt lat="60.93854" lon="5.14402">
        <ele>82.020775</ele>
        <time>2020-07-26T08:10:38.790Z</time>
      </trkpt>
      <trkpt lat="60.93863" lon="5.14393">
        <ele>82.247642</ele>
        <time>2020-07-26T08:10:41.820Z</time>
      </trkpt>
      <trkpt lat="60.93872" lon="5.14384">
        <ele>82.467992</ele>
        <time>2020-07-26T08:10:44.825Z</time>
      </trkpt>
      <trkpt lat="60.93881" lon="5.14377">
        <ele>82.68551</ele>
        <time>2020-07-26T08:10:47.823Z</time>
      </trkpt>
      <trkpt lat="60.93888" lon="5.14365">
        <ele>82.891363</ele>
        <time>2020-07-26T08:10:50.804Z</time>
      </trkpt>
      <trkpt lat="60.93896" lon="5.14353">
        <ele>83.104331</ele>
        <time>2020-07-26T08:10:53.779Z</time>
      </trkpt>
      <trkpt lat="60.93906" lon="5.1434">
        <ele>83.360501</ele>
        <time>2020-07-26T08:10:57.778Z</time>
      </trkpt>
      <trkpt lat="60.93914" lon="5.14327">
        <ele>83.588542</ele>
        <time>2020-07-26T08:11:00.784Z</time>
      </trkpt>
      <trkpt lat="60.93922" lon="5.14313">
        <ele>83.818917</ele>
        <time>2020-07-26T08:11:03.819Z</time>
      </trkpt>
      <trkpt lat="60.93929" lon="5.14301">
        <ele>84.033604</ele>
        <time>2020-07-26T08:11:06.804Z</time>
      </trkpt>
      <trkpt lat="60.93937" lon="5.14288">
        <ele>84.243812</ele>
        <time>2020-07-26T08:11:09.839Z</time>
      </trkpt>
      <trkpt lat="60.93944" lon="5.14275">
        <ele>84.452747</ele>
        <time>2020-07-26T08:11:12.821Z</time>
      </trkpt>
      <trkpt lat="60.93951" lon="5.14262">
        <ele>84.492249</ele>
        <time>2020-07-26T08:11:15.802Z</time>
      </trkpt>
      <trkpt lat="60.93957" lon="5.14249">
        <ele>84.510458</ele>
        <time>2020-07-26T08:11:18.795Z</time>
      </trkpt>
      <trkpt lat="60.93965" lon="5.14234">
        <ele>84.53255</ele>
        <time>2020-07-26T08:11:22.793Z</time>
      </trkpt>
      <trkpt lat="60.93971" lon="5.1422">
        <ele>84.551264</ele>
        <time>2020-07-26T08:11:25.791Z</time>
      </trkpt>
      <trkpt lat="60.93979" lon="5.14208">
        <ele>84.570633</ele>
        <time>2020-07-26T08:11:28.787Z</time>
      </trkpt>
      <trkpt lat="60.93987" lon="5.14194">
        <ele>84.591112</ele>
        <time>2020-07-26T08:11:31.797Z</time>
      </trkpt>
      <trkpt lat="60.93995" lon="5.14177">
        <ele>84.614593</ele>
        <time>2020-07-26T08:11:35.839Z</time>
      </trkpt>
      <trkpt lat="60.94003" lon="5.1416">
        <ele>84.637652</ele>
        <time>2020-07-26T08:11:39.808Z</time>
      </trkpt>
      <trkpt lat="60.9401" lon="5.14147">
        <ele>84.656911</ele>
        <time>2020-07-26T08:11:42.784Z</time>
      </trkpt>
      <trkpt lat="60.94019" lon="5.14134">
        <ele>84.678267</ele>
        <time>2020-07-26T08:11:45.788Z</time>
      </trkpt>
      <trkpt lat="60.94029" lon="5.14122">
        <ele>84.702244</ele>
        <time>2020-07-26T08:11:48.797Z</time>
      </trkpt>
      <trkpt lat="60.9404" lon="5.14108">
        <ele>84.729426</ele>
        <time>2020-07-26T08:11:51.796Z</time>
      </trkpt>
      <trkpt lat="60.94049" lon="5.14098">
        <ele>84.749389</ele>
        <time>2020-07-26T08:11:53.791Z</time>
      </trkpt>
      <trkpt lat="60.94059" lon="5.14089">
        <ele>84.772005</ele>
        <time>2020-07-26T08:11:55.808Z</time>
      </trkpt>
      <trkpt lat="60.94072" lon="5.14082">
        <ele>84.79817</ele>
        <time>2020-07-26T08:11:57.777Z</time>
      </trkpt>
      <trkpt lat="60.94086" lon="5.14078">
        <ele>84.827277</ele>
        <time>2020-07-26T08:11:59.837Z</time>
      </trkpt>
      <trkpt lat="60.94101" lon="5.14076">
        <ele>84.457652</ele>
        <time>2020-07-26T08:12:01.792Z</time>
      </trkpt>
      <trkpt lat="60.94117" lon="5.14075">
        <ele>83.760629</ele>
        <time>2020-07-26T08:12:03.781Z</time>
      </trkpt>
      <trkpt lat="60.94127" lon="5.14075">
        <ele>83.372468</ele>
        <time>2020-07-26T08:12:04.808Z</time>
      </trkpt>
      <trkpt lat="60.94137" lon="5.14073">
        <ele>82.962729</ele>
        <time>2020-07-26T08:12:05.787Z</time>
      </trkpt>
      <trkpt lat="60.94147" lon="5.14071">
        <ele>82.529758</ele>
        <time>2020-07-26T08:12:06.793Z</time>
      </trkpt>
      <trkpt lat="60.94158" lon="5.14069">
        <ele>82.04787</ele>
        <time>2020-07-26T08:12:07.809Z</time>
      </trkpt>
      <trkpt lat="60.94169" lon="5.14062">
        <ele>81.564671</ele>
        <time>2020-07-26T08:12:08.801Z</time>
      </trkpt>
      <trkpt lat="60.9418" lon="5.14053">
        <ele>81.076906</ele>
        <time>2020-07-26T08:12:09.788Z</time>
      </trkpt>
      <trkpt lat="60.94191" lon="5.14044">
        <ele>80.59999</ele>
        <time>2020-07-26T08:12:10.797Z</time>
      </trkpt>
      <trkpt lat="60.94201" lon="5.14034">
        <ele>80.12775</ele>
        <time>2020-07-26T08:12:11.818Z</time>
      </trkpt>
      <trkpt lat="60.94211" lon="5.14022">
        <ele>79.663318</ele>
        <time>2020-07-26T08:12:12.813Z</time>
      </trkpt>
      <trkpt lat="60.9422" lon="5.14009">
        <ele>79.203488</ele>
        <time>2020-07-26T08:12:13.795Z</time>
      </trkpt>
      <trkpt lat="60.94228" lon="5.13995">
        <ele>78.763532</ele>
        <time>2020-07-26T08:12:14.815Z</time>
      </trkpt>
      <trkpt lat="60.94235" lon="5.1398">
        <ele>78.318623</ele>
        <time>2020-07-26T08:12:15.793Z</time>
      </trkpt>
      <trkpt lat="60.94242" lon="5.13966">
        <ele>77.907256</ele>
        <time>2020-07-26T08:12:16.802Z</time>
      </trkpt>
      <trkpt lat="60.94249" lon="5.13951">
        <ele>77.497334</ele>
        <time>2020-07-26T08:12:17.786Z</time>
      </trkpt>
      <trkpt lat="60.94256" lon="5.13936">
        <ele>77.471486</ele>
        <time>2020-07-26T08:12:18.778Z</time>
      </trkpt>
      <trkpt lat="60.94263" lon="5.13921">
        <ele>77.704942</ele>
        <time>2020-07-26T08:12:19.782Z</time>
      </trkpt>
      <trkpt lat="60.94352" lon="5.13736">
        <ele>80.547904</ele>
        <time>2020-07-26T08:12:40.804Z</time>
      </trkpt>
      <trkpt lat="60.94371" lon="5.13716">
        <ele>81.034388</ele>
        <time>2020-07-26T08:12:44.899Z</time>
      </trkpt>
      <trkpt lat="60.94378" lon="5.13701">
        <ele>81.267065</ele>
        <time>2020-07-26T08:12:46.797Z</time>
      </trkpt>
      <trkpt lat="60.94386" lon="5.1369">
        <ele>81.494523</ele>
        <time>2020-07-26T08:12:48.824Z</time>
      </trkpt>
      <trkpt lat="60.94394" lon="5.13681">
        <ele>81.754109</ele>
        <time>2020-07-26T08:12:50.781Z</time>
      </trkpt>
      <trkpt lat="60.94404" lon="5.13667">
        <ele>82.120622</ele>
        <time>2020-07-26T08:12:53.794Z</time>
      </trkpt>
      <trkpt lat="60.94415" lon="5.13657">
        <ele>82.443513</ele>
        <time>2020-07-26T08:12:56.819Z</time>
      </trkpt>
      <trkpt lat="60.94425" lon="5.13648">
        <ele>82.772215</ele>
        <time>2020-07-26T08:13:00.817Z</time>
      </trkpt>
      <trkpt lat="60.94435" lon="5.13638">
        <ele>83.093578</ele>
        <time>2020-07-26T08:13:05.788Z</time>
      </trkpt>
      <trkpt lat="60.94444" lon="5.1363">
        <ele>83.380229</ele>
        <time>2020-07-26T08:13:11.796Z</time>
      </trkpt>
      <trkpt lat="60.94454" lon="5.13624">
        <ele>83.659937</ele>
        <time>2020-07-26T08:13:17.794Z</time>
      </trkpt>
      <trkpt lat="60.94463" lon="5.13615">
        <ele>83.948273</ele>
        <time>2020-07-26T08:13:23.817Z</time>
      </trkpt>
      <trkpt lat="60.94472" lon="5.13609">
        <ele>84.228537</ele>
        <time>2020-07-26T08:13:29.781Z</time>
      </trkpt>
      <trkpt lat="60.94481" lon="5.13602">
        <ele>84.494685</ele>
        <time>2020-07-26T08:13:35.773Z</time>
      </trkpt>
      <trkpt lat="60.94491" lon="5.13601">
        <ele>84.785617</ele>
        <time>2020-07-26T08:13:42.787Z</time>
      </trkpt>
      <trkpt lat="60.945" lon="5.13595">
        <ele>85.076876</ele>
        <time>2020-07-26T08:13:49.790Z</time>
      </trkpt>
      <trkpt lat="60.9451" lon="5.13594">
        <ele>85.362343</ele>
        <time>2020-07-26T08:13:55.788Z</time>
      </trkpt>
      <trkpt lat="60.9452" lon="5.13592">
        <ele>85.636961</ele>
        <time>2020-07-26T08:14:01.800Z</time>
      </trkpt>
      <trkpt lat="60.94529" lon="5.13587">
        <ele>85.903298</ele>
        <time>2020-07-26T08:14:07.805Z</time>
      </trkpt>
      <trkpt lat="60.94538" lon="5.13582">
        <ele>86.181941</ele>
        <time>2020-07-26T08:14:14.796Z</time>
      </trkpt>
      <trkpt lat="60.94548" lon="5.13577">
        <ele>86.473796</ele>
        <time>2020-07-26T08:14:21.831Z</time>
      </trkpt>
      <trkpt lat="60.94558" lon="5.13579">
        <ele>87.190338</ele>
        <time>2020-07-26T08:14:27.797Z</time>
      </trkpt>
      <trkpt lat="60.94568" lon="5.13582">
        <ele>88.142337</ele>
        <time>2020-07-26T08:14:33.783Z</time>
      </trkpt>
      <trkpt lat="60.94577" lon="5.13582">
        <ele>89.024502</ele>
        <time>2020-07-26T08:14:39.797Z</time>
      </trkpt>
      <trkpt lat="60.94587" lon="5.13577">
        <ele>89.967234</ele>
        <time>2020-07-26T08:14:46.793Z</time>
      </trkpt>
      <trkpt lat="60.94597" lon="5.13576">
        <ele>90.91826</ele>
        <time>2020-07-26T08:14:53.811Z</time>
      </trkpt>
      <trkpt lat="60.94607" lon="5.13573">
        <ele>91.893705</ele>
        <time>2020-07-26T08:15:00.804Z</time>
      </trkpt>
      <trkpt lat="60.94616" lon="5.13571">
        <ele>92.781623</ele>
        <time>2020-07-26T08:15:07.787Z</time>
      </trkpt>
      <trkpt lat="60.94625" lon="5.13568">
        <ele>93.634253</ele>
        <time>2020-07-26T08:15:14.810Z</time>
      </trkpt>
      <trkpt lat="60.94635" lon="5.13565">
        <ele>94.633794</ele>
        <time>2020-07-26T08:15:21.786Z</time>
      </trkpt>
      <trkpt lat="60.94645" lon="5.13566">
        <ele>95.527725</ele>
        <time>2020-07-26T08:15:27.799Z</time>
      </trkpt>
      <trkpt lat="60.94655" lon="5.13566">
        <ele>96.476417</ele>
        <time>2020-07-26T08:15:34.798Z</time>
      </trkpt>
      <trkpt lat="60.94664" lon="5.13563">
        <ele>97.356023</ele>
        <time>2020-07-26T08:15:40.827Z</time>
      </trkpt>
      <trkpt lat="60.94674" lon="5.1356">
        <ele>98.3361</ele>
        <time>2020-07-26T08:15:47.814Z</time>
      </trkpt>
      <trkpt lat="60.94684" lon="5.13558">
        <ele>99.287126</ele>
        <time>2020-07-26T08:15:55.787Z</time>
      </trkpt>
      <trkpt lat="60.94694" lon="5.1356">
        <ele>100.193894</ele>
        <time>2020-07-26T08:16:01.814Z</time>
      </trkpt>
      <trkpt lat="60.94703" lon="5.13564">
        <ele>101.071967</ele>
        <time>2020-07-26T08:16:07.825Z</time>
      </trkpt>
      <trkpt lat="60.94713" lon="5.13566">
        <ele>102.004802</ele>
        <time>2020-07-26T08:16:13.807Z</time>
      </trkpt>
      <trkpt lat="60.94723" lon="5.13569">
        <ele>102.972068</ele>
        <time>2020-07-26T08:16:19.791Z</time>
      </trkpt>
      <trkpt lat="60.94732" lon="5.13573">
        <ele>103.728711</ele>
        <time>2020-07-26T08:16:26.797Z</time>
      </trkpt>
      <trkpt lat="60.94742" lon="5.13579">
        <ele>104.093522</ele>
        <time>2020-07-26T08:16:32.795Z</time>
      </trkpt>
      <trkpt lat="60.94752" lon="5.13585">
        <ele>104.459247</ele>
        <time>2020-07-26T08:16:38.784Z</time>
      </trkpt>
      <trkpt lat="60.94761" lon="5.13592">
        <ele>104.780742</ele>
        <time>2020-07-26T08:16:43.839Z</time>
      </trkpt>
      <trkpt lat="60.9477" lon="5.13599">
        <ele>105.116307</ele>
        <time>2020-07-26T08:16:49.803Z</time>
      </trkpt>
      <trkpt lat="60.94779" lon="5.1361">
        <ele>105.493372</ele>
        <time>2020-07-26T08:16:55.808Z</time>
      </trkpt>
      <trkpt lat="60.94787" lon="5.13622">
        <ele>105.850868</ele>
        <time>2020-07-26T08:17:00.836Z</time>
      </trkpt>
      <trkpt lat="60.94796" lon="5.13632">
        <ele>106.208019</ele>
        <time>2020-07-26T08:17:06.812Z</time>
      </trkpt>
      <trkpt lat="60.94805" lon="5.13643">
        <ele>106.569946</ele>
        <time>2020-07-26T08:17:12.823Z</time>
      </trkpt>
      <trkpt lat="60.94812" lon="5.13656">
        <ele>106.911328</ele>
        <time>2020-07-26T08:17:18.794Z</time>
      </trkpt>
      <trkpt lat="60.94821" lon="5.13666">
        <ele>107.266965</ele>
        <time>2020-07-26T08:17:23.830Z</time>
      </trkpt>
      <trkpt lat="60.9483" lon="5.13677">
        <ele>107.626259</ele>
        <time>2020-07-26T08:17:28.836Z</time>
      </trkpt>
      <trkpt lat="60.94837" lon="5.13689">
        <ele>107.946478</ele>
        <time>2020-07-26T08:17:32.814Z</time>
      </trkpt>
      <trkpt lat="60.94843" lon="5.13703">
        <ele>108.263265</ele>
        <time>2020-07-26T08:17:37.795Z</time>
      </trkpt>
      <trkpt lat="60.94849" lon="5.13717">
        <ele>108.584237</ele>
        <time>2020-07-26T08:17:41.812Z</time>
      </trkpt>
      <trkpt lat="60.94855" lon="5.13734">
        <ele>108.949946</ele>
        <time>2020-07-26T08:17:46.798Z</time>
      </trkpt>
      <trkpt lat="60.94862" lon="5.13752">
        <ele>109.327371</ele>
        <time>2020-07-26T08:17:51.811Z</time>
      </trkpt>
      <trkpt lat="60.94868" lon="5.13769">
        <ele>109.696298</ele>
        <time>2020-07-26T08:17:56.818Z</time>
      </trkpt>
      <trkpt lat="60.94874" lon="5.13785">
        <ele>110.046328</ele>
        <time>2020-07-26T08:18:01.803Z</time>
      </trkpt>
      <trkpt lat="60.94879" lon="5.13802">
        <ele>110.380352</ele>
        <time>2020-07-26T08:18:06.796Z</time>
      </trkpt>
      <trkpt lat="60.94884" lon="5.1382">
        <ele>110.738031</ele>
        <time>2020-07-26T08:18:11.798Z</time>
      </trkpt>
      <trkpt lat="60.94889" lon="5.13839">
        <ele>111.097798</ele>
        <time>2020-07-26T08:18:16.824Z</time>
      </trkpt>
      <trkpt lat="60.94893" lon="5.13858">
        <ele>111.459644</ele>
        <time>2020-07-26T08:18:21.801Z</time>
      </trkpt>
      <trkpt lat="60.94898" lon="5.13876">
        <ele>111.802044</ele>
        <time>2020-07-26T08:18:25.800Z</time>
      </trkpt>
      <trkpt lat="60.94902" lon="5.13894">
        <ele>112.142728</ele>
        <time>2020-07-26T08:18:29.813Z</time>
      </trkpt>
      <trkpt lat="60.94906" lon="5.13915">
        <ele>112.517637</ele>
        <time>2020-07-26T08:18:34.825Z</time>
      </trkpt>
      <trkpt lat="60.9491" lon="5.13933">
        <ele>112.866351</ele>
        <time>2020-07-26T08:18:39.794Z</time>
      </trkpt>
      <trkpt lat="60.94916" lon="5.13952">
        <ele>113.253451</ele>
        <time>2020-07-26T08:18:44.823Z</time>
      </trkpt>
      <trkpt lat="60.94921" lon="5.1397">
        <ele>113.600026</ele>
        <time>2020-07-26T08:18:49.807Z</time>
      </trkpt>
      <trkpt lat="60.94927" lon="5.13986">
        <ele>113.948041</ele>
        <time>2020-07-26T08:18:54.795Z</time>
      </trkpt>
      <trkpt lat="60.94932" lon="5.14002">
        <ele>114.264571</ele>
        <time>2020-07-26T08:18:58.792Z</time>
      </trkpt>
      <trkpt lat="60.94938" lon="5.1402">
        <ele>114.633912</ele>
        <time>2020-07-26T08:19:03.793Z</time>
      </trkpt>
      <trkpt lat="60.94943" lon="5.14035">
        <ele>114.948548</ele>
        <time>2020-07-26T08:19:07.828Z</time>
      </trkpt>
      <trkpt lat="60.9495" lon="5.14053">
        <ele>115.337495</ele>
        <time>2020-07-26T08:19:12.781Z</time>
      </trkpt>
      <trkpt lat="60.94956" lon="5.14071">
        <ele>115.706675</ele>
        <time>2020-07-26T08:19:17.777Z</time>
      </trkpt>
      <trkpt lat="60.94962" lon="5.14091">
        <ele>116.095492</ele>
        <time>2020-07-26T08:19:22.784Z</time>
      </trkpt>
      <trkpt lat="60.94966" lon="5.14107">
        <ele>116.023281</ele>
        <time>2020-07-26T08:19:25.806Z</time>
      </trkpt>
      <trkpt lat="60.94971" lon="5.14124">
        <ele>115.612641</ele>
        <time>2020-07-26T08:19:28.807Z</time>
      </trkpt>
      <trkpt lat="60.94978" lon="5.14144">
        <ele>115.120285</ele>
        <time>2020-07-26T08:19:31.827Z</time>
      </trkpt>
      <trkpt lat="60.94984" lon="5.14167">
        <ele>114.592132</ele>
        <time>2020-07-26T08:19:34.792Z</time>
      </trkpt>
      <trkpt lat="60.94989" lon="5.14186">
        <ele>114.149772</ele>
        <time>2020-07-26T08:19:36.798Z</time>
      </trkpt>
      <trkpt lat="60.94995" lon="5.14211">
        <ele>113.58031</ele>
        <time>2020-07-26T08:19:38.793Z</time>
      </trkpt>
      <trkpt lat="60.94999" lon="5.14241">
        <ele>112.925501</ele>
        <time>2020-07-26T08:19:40.797Z</time>
      </trkpt>
      <trkpt lat="60.95002" lon="5.14275">
        <ele>112.216415</ele>
        <time>2020-07-26T08:19:42.804Z</time>
      </trkpt>
      <trkpt lat="60.95003" lon="5.14294">
        <ele>111.834573</ele>
        <time>2020-07-26T08:19:43.787Z</time>
      </trkpt>
      <trkpt lat="60.95003" lon="5.14313">
        <ele>111.442965</ele>
        <time>2020-07-26T08:19:44.811Z</time>
      </trkpt>
      <trkpt lat="60.95003" lon="5.14333">
        <ele>111.035334</ele>
        <time>2020-07-26T08:19:45.821Z</time>
      </trkpt>
      <trkpt lat="60.95003" lon="5.14353">
        <ele>110.621364</ele>
        <time>2020-07-26T08:19:46.787Z</time>
      </trkpt>
      <trkpt lat="60.95002" lon="5.14374">
        <ele>110.192232</ele>
        <time>2020-07-26T08:19:47.802Z</time>
      </trkpt>
      <trkpt lat="60.95001" lon="5.14395">
        <ele>109.758033</ele>
        <time>2020-07-26T08:19:48.789Z</time>
      </trkpt>
      <trkpt lat="60.94999" lon="5.14417">
        <ele>109.312485</ele>
        <time>2020-07-26T08:19:49.800Z</time>
      </trkpt>
      <trkpt lat="60.94997" lon="5.14438">
        <ele>108.860814</ele>
        <time>2020-07-26T08:19:50.787Z</time>
      </trkpt>
      <trkpt lat="60.94995" lon="5.1446">
        <ele>108.30974</ele>
        <time>2020-07-26T08:19:51.788Z</time>
      </trkpt>
      <trkpt lat="60.94993" lon="5.14483">
        <ele>107.683717</ele>
        <time>2020-07-26T08:19:52.790Z</time>
      </trkpt>
      <trkpt lat="60.94991" lon="5.14505">
        <ele>107.069597</ele>
        <time>2020-07-26T08:19:53.812Z</time>
      </trkpt>
      <trkpt lat="60.94988" lon="5.14528">
        <ele>106.42119</ele>
        <time>2020-07-26T08:19:54.805Z</time>
      </trkpt>
      <trkpt lat="60.94985" lon="5.14551">
        <ele>105.75818</ele>
        <time>2020-07-26T08:19:55.809Z</time>
      </trkpt>
      <trkpt lat="60.94983" lon="5.14576">
        <ele>105.060392</ele>
        <time>2020-07-26T08:19:56.816Z</time>
      </trkpt>
      <trkpt lat="60.9498" lon="5.146">
        <ele>104.371984</ele>
        <time>2020-07-26T08:19:57.829Z</time>
      </trkpt>
      <trkpt lat="60.94977" lon="5.14625">
        <ele>103.679551</ele>
        <time>2020-07-26T08:19:58.805Z</time>
      </trkpt>
      <trkpt lat="60.94974" lon="5.1465">
        <ele>102.968285</ele>
        <time>2020-07-26T08:19:59.800Z</time>
      </trkpt>
      <trkpt lat="60.9497" lon="5.14675">
        <ele>102.246095</ele>
        <time>2020-07-26T08:20:00.791Z</time>
      </trkpt>
      <trkpt lat="60.94967" lon="5.147">
        <ele>101.521252</ele>
        <time>2020-07-26T08:20:01.811Z</time>
      </trkpt>
      <trkpt lat="60.94964" lon="5.14725">
        <ele>100.833655</ele>
        <time>2020-07-26T08:20:02.800Z</time>
      </trkpt>
      <trkpt lat="60.94963" lon="5.14748">
        <ele>100.188174</ele>
        <time>2020-07-26T08:20:03.787Z</time>
      </trkpt>
      <trkpt lat="60.94962" lon="5.14769">
        <ele>99.597697</ele>
        <time>2020-07-26T08:20:04.793Z</time>
      </trkpt>
      <trkpt lat="60.94962" lon="5.14789">
        <ele>99.063713</ele>
        <time>2020-07-26T08:20:05.812Z</time>
      </trkpt>
      <trkpt lat="60.94962" lon="5.14823">
        <ele>98.540101</ele>
        <time>2020-07-26T08:20:07.789Z</time>
      </trkpt>
      <trkpt lat="60.94964" lon="5.14848">
        <ele>98.707145</ele>
        <time>2020-07-26T08:20:09.791Z</time>
      </trkpt>
      <trkpt lat="60.94966" lon="5.14867">
        <ele>98.829957</ele>
        <time>2020-07-26T08:20:11.808Z</time>
      </trkpt>
      <trkpt lat="60.94967" lon="5.14889">
        <ele>98.981246</ele>
        <time>2020-07-26T08:20:14.789Z</time>
      </trkpt>
      <trkpt lat="60.94969" lon="5.14911">
        <ele>99.123589</ele>
        <time>2020-07-26T08:20:17.793Z</time>
      </trkpt>
      <trkpt lat="60.94971" lon="5.14933">
        <ele>99.27186</ele>
        <time>2020-07-26T08:20:21.790Z</time>
      </trkpt>
      <trkpt lat="60.94974" lon="5.14952">
        <ele>99.401424</ele>
        <time>2020-07-26T08:20:25.817Z</time>
      </trkpt>
      <trkpt lat="60.9498" lon="5.14967">
        <ele>99.529342</ele>
        <time>2020-07-26T08:20:29.799Z</time>
      </trkpt>
      <trkpt lat="60.94986" lon="5.14982">
        <ele>99.65726</ele>
        <time>2020-07-26T08:20:33.783Z</time>
      </trkpt>
      <trkpt lat="60.94991" lon="5.14999">
        <ele>99.784215</ele>
        <time>2020-07-26T08:20:37.791Z</time>
      </trkpt>
      <trkpt lat="60.94998" lon="5.15012">
        <ele>99.909153</ele>
        <time>2020-07-26T08:20:41.808Z</time>
      </trkpt>
      <trkpt lat="60.95004" lon="5.15027">
        <ele>100.037031</ele>
        <time>2020-07-26T08:20:45.832Z</time>
      </trkpt>
      <trkpt lat="60.9501" lon="5.15041">
        <ele>100.163877</ele>
        <time>2020-07-26T08:20:49.801Z</time>
      </trkpt>
      <trkpt lat="60.95018" lon="5.15058">
        <ele>100.311851</ele>
        <time>2020-07-26T08:20:54.789Z</time>
      </trkpt>
      <trkpt lat="60.95026" lon="5.15074">
        <ele>100.461709</ele>
        <time>2020-07-26T08:20:59.824Z</time>
      </trkpt>
      <trkpt lat="60.95033" lon="5.1509">
        <ele>100.60453</ele>
        <time>2020-07-26T08:21:04.796Z</time>
      </trkpt>
      <trkpt lat="60.9504" lon="5.15104">
        <ele>100.731813</ele>
        <time>2020-07-26T08:21:09.809Z</time>
      </trkpt>
      <trkpt lat="60.95047" lon="5.15117">
        <ele>100.868863</ele>
        <time>2020-07-26T08:21:15.785Z</time>
      </trkpt>
      <trkpt lat="60.95054" lon="5.15135">
        <ele>101.421269</ele>
        <time>2020-07-26T08:21:21.801Z</time>
      </trkpt>
      <trkpt lat="60.95061" lon="5.15147">
        <ele>101.928603</ele>
        <time>2020-07-26T08:21:26.800Z</time>
      </trkpt>
      <trkpt lat="60.95069" lon="5.15157">
        <ele>102.469332</ele>
        <time>2020-07-26T08:21:31.812Z</time>
      </trkpt>
      <trkpt lat="60.95077" lon="5.15168">
        <ele>103.012199</ele>
        <time>2020-07-26T08:21:36.810Z</time>
      </trkpt>
      <trkpt lat="60.95085" lon="5.15178">
        <ele>103.526818</ele>
        <time>2020-07-26T08:21:41.785Z</time>
      </trkpt>
      <trkpt lat="60.95092" lon="5.15188">
        <ele>104.035213</ele>
        <time>2020-07-26T08:21:46.785Z</time>
      </trkpt>
      <trkpt lat="60.95101" lon="5.15197">
        <ele>104.575242</ele>
        <time>2020-07-26T08:21:51.794Z</time>
      </trkpt>
      <trkpt lat="60.95108" lon="5.15208">
        <ele>105.094202</ele>
        <time>2020-07-26T08:21:56.798Z</time>
      </trkpt>
      <trkpt lat="60.95116" lon="5.1522">
        <ele>105.663598</ele>
        <time>2020-07-26T08:22:01.811Z</time>
      </trkpt>
      <trkpt lat="60.95126" lon="5.15229">
        <ele>106.25677</ele>
        <time>2020-07-26T08:22:06.808Z</time>
      </trkpt>
      <trkpt lat="60.95134" lon="5.15241">
        <ele>106.830007</ele>
        <time>2020-07-26T08:22:11.787Z</time>
      </trkpt>
      <trkpt lat="60.95143" lon="5.15252">
        <ele>107.400686</ele>
        <time>2020-07-26T08:22:16.789Z</time>
      </trkpt>
      <trkpt lat="60.95151" lon="5.15263">
        <ele>107.930513</ele>
        <time>2020-07-26T08:22:21.790Z</time>
      </trkpt>
      <trkpt lat="60.95159" lon="5.15273">
        <ele>108.463808</ele>
        <time>2020-07-26T08:22:26.820Z</time>
      </trkpt>
      <trkpt lat="60.95167" lon="5.15282">
        <ele>108.974063</ele>
        <time>2020-07-26T08:22:31.788Z</time>
      </trkpt>
      <trkpt lat="60.95174" lon="5.15293">
        <ele>109.488377</ele>
        <time>2020-07-26T08:22:36.810Z</time>
      </trkpt>
      <trkpt lat="60.95182" lon="5.15305">
        <ele>110.032698</ele>
        <time>2020-07-26T08:22:42.829Z</time>
      </trkpt>
      <trkpt lat="60.9519" lon="5.15315">
        <ele>110.542949</ele>
        <time>2020-07-26T08:22:47.816Z</time>
      </trkpt>
      <trkpt lat="60.95198" lon="5.15326">
        <ele>111.10059</ele>
        <time>2020-07-26T08:22:52.804Z</time>
      </trkpt>
      <trkpt lat="60.95207" lon="5.15337">
        <ele>111.86913</ele>
        <time>2020-07-26T08:22:58.786Z</time>
      </trkpt>
      <trkpt lat="60.95215" lon="5.15347">
        <ele>112.55993</ele>
        <time>2020-07-26T08:23:03.807Z</time>
      </trkpt>
      <trkpt lat="60.95223" lon="5.15357">
        <ele>113.223907</ele>
        <time>2020-07-26T08:23:08.786Z</time>
      </trkpt>
      <trkpt lat="60.95231" lon="5.15367">
        <ele>113.898263</ele>
        <time>2020-07-26T08:23:13.815Z</time>
      </trkpt>
      <trkpt lat="60.95238" lon="5.1538">
        <ele>114.606708</ele>
        <time>2020-07-26T08:23:19.802Z</time>
      </trkpt>
      <trkpt lat="60.95246" lon="5.15392">
        <ele>115.284156</ele>
        <time>2020-07-26T08:23:25.792Z</time>
      </trkpt>
      <trkpt lat="60.95254" lon="5.15401">
        <ele>115.971512</ele>
        <time>2020-07-26T08:23:31.788Z</time>
      </trkpt>
      <trkpt lat="60.95263" lon="5.15411">
        <ele>116.738978</ele>
        <time>2020-07-26T08:23:37.820Z</time>
      </trkpt>
      <trkpt lat="60.95272" lon="5.15423">
        <ele>117.494975</ele>
        <time>2020-07-26T08:23:43.791Z</time>
      </trkpt>
      <trkpt lat="60.9528" lon="5.15434">
        <ele>118.171312</ele>
        <time>2020-07-26T08:23:48.791Z</time>
      </trkpt>
      <trkpt lat="60.95286" lon="5.15448">
        <ele>118.839618</ele>
        <time>2020-07-26T08:23:54.819Z</time>
      </trkpt>
      <trkpt lat="60.95294" lon="5.15462">
        <ele>119.586044</ele>
        <time>2020-07-26T08:24:00.829Z</time>
      </trkpt>
      <trkpt lat="60.95303" lon="5.15472">
        <ele>120.333793</ele>
        <time>2020-07-26T08:24:06.832Z</time>
      </trkpt>
      <trkpt lat="60.95311" lon="5.15483">
        <ele>121.018085</ele>
        <time>2020-07-26T08:24:12.792Z</time>
      </trkpt>
      <trkpt lat="60.95319" lon="5.15494">
        <ele>121.729358</ele>
        <time>2020-07-26T08:24:19.795Z</time>
      </trkpt>
      <trkpt lat="60.95328" lon="5.15504">
        <ele>122.454008</ele>
        <time>2020-07-26T08:24:25.823Z</time>
      </trkpt>
      <trkpt lat="60.95337" lon="5.15508">
        <ele>123.137687</ele>
        <time>2020-07-26T08:24:30.785Z</time>
      </trkpt>
      <trkpt lat="60.95344" lon="5.1552">
        <ele>123.795888</ele>
        <time>2020-07-26T08:24:35.797Z</time>
      </trkpt>
      <trkpt lat="60.95353" lon="5.15532">
        <ele>124.457938</ele>
        <time>2020-07-26T08:24:41.829Z</time>
      </trkpt>
      <trkpt lat="60.95359" lon="5.15547">
        <ele>125.06874</ele>
        <time>2020-07-26T08:24:48.804Z</time>
      </trkpt>
      <trkpt lat="60.95366" lon="5.15559">
        <ele>125.62317</ele>
        <time>2020-07-26T08:24:54.802Z</time>
      </trkpt>
      <trkpt lat="60.95373" lon="5.15572">
        <ele>126.194504</ele>
        <time>2020-07-26T08:25:00.813Z</time>
      </trkpt>
      <trkpt lat="60.95381" lon="5.15584">
        <ele>126.762282</ele>
        <time>2020-07-26T08:25:06.787Z</time>
      </trkpt>
      <trkpt lat="60.95389" lon="5.15598">
        <ele>127.393487</ele>
        <time>2020-07-26T08:25:13.781Z</time>
      </trkpt>
      <trkpt lat="60.95394" lon="5.15613">
        <ele>127.937727</ele>
        <time>2020-07-26T08:25:18.793Z</time>
      </trkpt>
      <trkpt lat="60.95401" lon="5.15627">
        <ele>128.557782</ele>
        <time>2020-07-26T08:25:24.794Z</time>
      </trkpt>
      <trkpt lat="60.95409" lon="5.1564">
        <ele>129.1253</ele>
        <time>2020-07-26T08:25:30.787Z</time>
      </trkpt>
      <trkpt lat="60.95416" lon="5.15651">
        <ele>129.712453</ele>
        <time>2020-07-26T08:25:36.821Z</time>
      </trkpt>
      <trkpt lat="60.95424" lon="5.15662">
        <ele>130.264398</ele>
        <time>2020-07-26T08:25:42.819Z</time>
      </trkpt>
      <trkpt lat="60.95432" lon="5.15675">
        <ele>130.877869</ele>
        <time>2020-07-26T08:25:48.779Z</time>
      </trkpt>
      <trkpt lat="60.9544" lon="5.15688">
        <ele>131.487679</ele>
        <time>2020-07-26T08:25:54.793Z</time>
      </trkpt>
      <trkpt lat="60.95449" lon="5.15699">
        <ele>132.136043</ele>
        <time>2020-07-26T08:26:00.816Z</time>
      </trkpt>
      <trkpt lat="60.95458" lon="5.15707">
        <ele>132.764635</ele>
        <time>2020-07-26T08:26:06.810Z</time>
      </trkpt>
      <trkpt lat="60.95468" lon="5.15715">
        <ele>133.375176</ele>
        <time>2020-07-26T08:26:12.780Z</time>
      </trkpt>
      <trkpt lat="60.95477" lon="5.15724">
        <ele>134.023782</ele>
        <time>2020-07-26T08:26:19.806Z</time>
      </trkpt>
      <trkpt lat="60.95486" lon="5.15734">
        <ele>134.613332</ele>
        <time>2020-07-26T08:26:25.825Z</time>
      </trkpt>
      <trkpt lat="60.95495" lon="5.15744">
        <ele>135.226758</ele>
        <time>2020-07-26T08:26:31.801Z</time>
      </trkpt>
      <trkpt lat="60.95504" lon="5.15755">
        <ele>135.844968</ele>
        <time>2020-07-26T08:26:37.790Z</time>
      </trkpt>
      <trkpt lat="60.95512" lon="5.15766">
        <ele>136.413711</ele>
        <time>2020-07-26T08:26:43.787Z</time>
      </trkpt>
      <trkpt lat="60.9552" lon="5.15775">
        <ele>136.99641</ele>
        <time>2020-07-26T08:26:49.792Z</time>
      </trkpt>
      <trkpt lat="60.95528" lon="5.15786">
        <ele>137.589896</ele>
        <time>2020-07-26T08:26:55.835Z</time>
      </trkpt>
      <trkpt lat="60.95536" lon="5.158">
        <ele>138.199213</ele>
        <time>2020-07-26T08:27:02.788Z</time>
      </trkpt>
      <trkpt lat="60.95543" lon="5.15813">
        <ele>138.772988</ele>
        <time>2020-07-26T08:27:08.822Z</time>
      </trkpt>
      <trkpt lat="60.9555" lon="5.15829">
        <ele>139.37979</ele>
        <time>2020-07-26T08:27:14.821Z</time>
      </trkpt>
      <trkpt lat="60.95555" lon="5.15845">
        <ele>139.92665</ele>
        <time>2020-07-26T08:27:20.805Z</time>
      </trkpt>
      <trkpt lat="60.95561" lon="5.15859">
        <ele>140.466185</ele>
        <time>2020-07-26T08:27:25.785Z</time>
      </trkpt>
      <trkpt lat="60.95566" lon="5.15874">
        <ele>141.015967</ele>
        <time>2020-07-26T08:27:30.779Z</time>
      </trkpt>
      <trkpt lat="60.95571" lon="5.15893">
        <ele>141.627185</ele>
        <time>2020-07-26T08:27:36.820Z</time>
      </trkpt>
      <trkpt lat="60.95574" lon="5.15912">
        <ele>142.240236</ele>
        <time>2020-07-26T08:27:43.801Z</time>
      </trkpt>
      <trkpt lat="60.95578" lon="5.15931">
        <ele>142.831538</ele>
        <time>2020-07-26T08:27:49.791Z</time>
      </trkpt>
      <trkpt lat="60.95581" lon="5.15951">
        <ele>143.450714</ele>
        <time>2020-07-26T08:27:55.829Z</time>
      </trkpt>
      <trkpt lat="60.95585" lon="5.15969">
        <ele>144.01142</ele>
        <time>2020-07-26T08:28:01.788Z</time>
      </trkpt>
      <trkpt lat="60.9559" lon="5.15984">
        <ele>144.550486</ele>
        <time>2020-07-26T08:28:07.784Z</time>
      </trkpt>
      <trkpt lat="60.95595" lon="5.16001">
        <ele>145.130026</ele>
        <time>2020-07-26T08:28:13.794Z</time>
      </trkpt>
      <trkpt lat="60.95601" lon="5.16015">
        <ele>145.685984</ele>
        <time>2020-07-26T08:28:18.825Z</time>
      </trkpt>
      <trkpt lat="60.95607" lon="5.16032">
        <ele>146.255077</ele>
        <time>2020-07-26T08:28:24.792Z</time>
      </trkpt>
      <trkpt lat="60.95613" lon="5.16047">
        <ele>146.825122</ele>
        <time>2020-07-26T08:28:30.797Z</time>
      </trkpt>
      <trkpt lat="60.95619" lon="5.16062">
        <ele>147.403486</ele>
        <time>2020-07-26T08:28:36.796Z</time>
      </trkpt>
      <trkpt lat="60.95626" lon="5.16074">
        <ele>147.954299</ele>
        <time>2020-07-26T08:28:42.783Z</time>
      </trkpt>
      <trkpt lat="60.95633" lon="5.16088">
        <ele>148.55283</ele>
        <time>2020-07-26T08:28:48.800Z</time>
      </trkpt>
      <trkpt lat="60.95641" lon="5.16102">
        <ele>149.142913</ele>
        <time>2020-07-26T08:28:55.798Z</time>
      </trkpt>
      <trkpt lat="60.95648" lon="5.16115">
        <ele>149.748951</ele>
        <time>2020-07-26T08:29:03.804Z</time>
      </trkpt>
      <trkpt lat="60.95656" lon="5.16127">
        <ele>150.312307</ele>
        <time>2020-07-26T08:29:10.794Z</time>
      </trkpt>
      <trkpt lat="60.95664" lon="5.16137">
        <ele>150.88352</ele>
        <time>2020-07-26T08:29:17.795Z</time>
      </trkpt>
      <trkpt lat="60.95672" lon="5.16147">
        <ele>151.451194</ele>
        <time>2020-07-26T08:29:23.820Z</time>
      </trkpt>
      <trkpt lat="60.9568" lon="5.1616">
        <ele>152.047203</ele>
        <time>2020-07-26T08:29:28.854Z</time>
      </trkpt>
      <trkpt lat="60.95689" lon="5.16171">
        <ele>152.713611</ele>
        <time>2020-07-26T08:29:33.809Z</time>
      </trkpt>
      <trkpt lat="60.95698" lon="5.1618">
        <ele>153.261784</ele>
        <time>2020-07-26T08:29:37.786Z</time>
      </trkpt>
      <trkpt lat="60.95706" lon="5.1619">
        <ele>153.862086</ele>
        <time>2020-07-26T08:29:42.787Z</time>
      </trkpt>
      <trkpt lat="60.95716" lon="5.16199">
        <ele>154.490276</ele>
        <time>2020-07-26T08:29:47.791Z</time>
      </trkpt>
      <trkpt lat="60.95725" lon="5.16208">
        <ele>155.105142</ele>
        <time>2020-07-26T08:29:52.787Z</time>
      </trkpt>
      <trkpt lat="60.95734" lon="5.16217">
        <ele>155.694669</ele>
        <time>2020-07-26T08:29:57.790Z</time>
      </trkpt>
      <trkpt lat="60.95743" lon="5.16226">
        <ele>156.281675</ele>
        <time>2020-07-26T08:30:02.792Z</time>
      </trkpt>
      <trkpt lat="60.95751" lon="5.16235">
        <ele>156.465491</ele>
        <time>2020-07-26T08:30:07.780Z</time>
      </trkpt>
      <trkpt lat="60.9576" lon="5.16243">
        <ele>156.342134</ele>
        <time>2020-07-26T08:30:11.806Z</time>
      </trkpt>
      <trkpt lat="60.95769" lon="5.16253">
        <ele>156.203061</ele>
        <time>2020-07-26T08:30:16.807Z</time>
      </trkpt>
      <trkpt lat="60.95778" lon="5.16264">
        <ele>156.067398</ele>
        <time>2020-07-26T08:30:21.810Z</time>
      </trkpt>
      <trkpt lat="60.95785" lon="5.16276">
        <ele>155.9391</ele>
        <time>2020-07-26T08:30:27.824Z</time>
      </trkpt>
      <trkpt lat="60.95803" lon="5.16293">
        <ele>155.685554</ele>
        <time>2020-07-26T08:32:43.807Z</time>
      </trkpt>
      <trkpt lat="60.9581" lon="5.16304">
        <ele>155.566335</ele>
        <time>2020-07-26T08:32:48.803Z</time>
      </trkpt>
      <trkpt lat="60.95818" lon="5.16318">
        <ele>155.432456</ele>
        <time>2020-07-26T08:32:53.821Z</time>
      </trkpt>
      <trkpt lat="60.95825" lon="5.1633">
        <ele>155.310485</ele>
        <time>2020-07-26T08:32:58.804Z</time>
      </trkpt>
      <trkpt lat="60.95832" lon="5.16345">
        <ele>155.175662</ele>
        <time>2020-07-26T08:33:03.800Z</time>
      </trkpt>
      <trkpt lat="60.95837" lon="5.1636">
        <ele>155.056521</ele>
        <time>2020-07-26T08:33:07.786Z</time>
      </trkpt>
      <trkpt lat="60.95842" lon="5.1638">
        <ele>154.909052</ele>
        <time>2020-07-26T08:33:12.795Z</time>
      </trkpt>
      <trkpt lat="60.95848" lon="5.16398">
        <ele>154.773266</ele>
        <time>2020-07-26T08:33:17.786Z</time>
      </trkpt>
      <trkpt lat="60.95851" lon="5.16415">
        <ele>154.653988</ele>
        <time>2020-07-26T08:33:21.897Z</time>
      </trkpt>
      <trkpt lat="60.95853" lon="5.16434">
        <ele>154.533902</ele>
        <time>2020-07-26T08:33:25.812Z</time>
      </trkpt>
      <trkpt lat="60.95855" lon="5.16456">
        <ele>154.388794</ele>
        <time>2020-07-26T08:33:30.810Z</time>
      </trkpt>
      <trkpt lat="60.95858" lon="5.16476">
        <ele>154.253713</ele>
        <time>2020-07-26T08:33:35.790Z</time>
      </trkpt>
      <trkpt lat="60.9586" lon="5.16496">
        <ele>154.218592</ele>
        <time>2020-07-26T08:33:40.798Z</time>
      </trkpt>
      <trkpt lat="60.95861" lon="5.16516">
        <ele>154.498441</ele>
        <time>2020-07-26T08:33:45.803Z</time>
      </trkpt>
      <trkpt lat="60.95863" lon="5.16534">
        <ele>154.760759</ele>
        <time>2020-07-26T08:33:50.788Z</time>
      </trkpt>
      <trkpt lat="60.95865" lon="5.16552">
        <ele>155.020469</ele>
        <time>2020-07-26T08:33:55.812Z</time>
      </trkpt>
      <trkpt lat="60.95872" lon="5.16569">
        <ele>155.313919</ele>
        <time>2020-07-26T08:34:01.797Z</time>
      </trkpt>
      <trkpt lat="60.95878" lon="5.16583">
        <ele>155.569463</ele>
        <time>2020-07-26T08:34:06.800Z</time>
      </trkpt>
      <trkpt lat="60.95886" lon="5.16596">
        <ele>155.869613</ele>
        <time>2020-07-26T08:34:11.854Z</time>
      </trkpt>
      <trkpt lat="60.95896" lon="5.16608">
        <ele>156.186947</ele>
        <time>2020-07-26T08:34:16.808Z</time>
      </trkpt>
      <trkpt lat="60.95905" lon="5.1662">
        <ele>156.492643</ele>
        <time>2020-07-26T08:34:21.857Z</time>
      </trkpt>
      <trkpt lat="60.95913" lon="5.1663">
        <ele>156.753104</ele>
        <time>2020-07-26T08:34:25.830Z</time>
      </trkpt>
      <trkpt lat="60.95923" lon="5.16636">
        <ele>157.069482</ele>
        <time>2020-07-26T08:34:30.777Z</time>
      </trkpt>
      <trkpt lat="60.95932" lon="5.16638">
        <ele>157.326984</ele>
        <time>2020-07-26T08:34:34.799Z</time>
      </trkpt>
      <trkpt lat="60.95943" lon="5.16639">
        <ele>157.622809</ele>
        <time>2020-07-26T08:34:39.795Z</time>
      </trkpt>
      <trkpt lat="60.95952" lon="5.16642">
        <ele>157.890866</ele>
        <time>2020-07-26T08:34:44.795Z</time>
      </trkpt>
      <trkpt lat="60.95962" lon="5.16648">
        <ele>158.196819</ele>
        <time>2020-07-26T08:34:50.792Z</time>
      </trkpt>
      <trkpt lat="60.95972" lon="5.16653">
        <ele>158.468405</ele>
        <time>2020-07-26T08:34:55.797Z</time>
      </trkpt>
      <trkpt lat="60.95981" lon="5.16657">
        <ele>158.75141</ele>
        <time>2020-07-26T08:35:00.774Z</time>
      </trkpt>
      <trkpt lat="60.95992" lon="5.1666">
        <ele>159.062225</ele>
        <time>2020-07-26T08:35:05.785Z</time>
      </trkpt>
      <trkpt lat="60.96001" lon="5.16668">
        <ele>159.255569</ele>
        <time>2020-07-26T08:35:10.791Z</time>
      </trkpt>
      <trkpt lat="60.96009" lon="5.16678">
        <ele>159.199363</ele>
        <time>2020-07-26T08:35:15.785Z</time>
      </trkpt>
      <trkpt lat="60.96018" lon="5.16683">
        <ele>159.143597</ele>
        <time>2020-07-26T08:35:20.773Z</time>
      </trkpt>
      <trkpt lat="60.96028" lon="5.16689">
        <ele>159.080746</ele>
        <time>2020-07-26T08:35:26.777Z</time>
      </trkpt>
      <trkpt lat="60.96037" lon="5.16696">
        <ele>159.025849</ele>
        <time>2020-07-26T08:35:31.788Z</time>
      </trkpt>
      <trkpt lat="60.96046" lon="5.16704">
        <ele>158.966684</ele>
        <time>2020-07-26T08:35:36.776Z</time>
      </trkpt>
      <trkpt lat="60.96056" lon="5.1671">
        <ele>158.908967</ele>
        <time>2020-07-26T08:35:41.804Z</time>
      </trkpt>
      <trkpt lat="60.96598" lon="5.17199">
        <ele>140.351806</ele>
        <time>2020-07-26T08:37:26.885Z</time>
      </trkpt>
      <trkpt lat="60.96585" lon="5.17195">
        <ele>138.486794</ele>
        <time>2020-07-26T08:37:28.807Z</time>
      </trkpt>
      <trkpt lat="60.96597" lon="5.17214">
        <ele>136.374024</ele>
        <time>2020-07-26T08:37:30.786Z</time>
      </trkpt>
      <trkpt lat="60.96608" lon="5.17231">
        <ele>134.420602</ele>
        <time>2020-07-26T08:37:32.838Z</time>
      </trkpt>
      <trkpt lat="60.96618" lon="5.17251">
        <ele>132.522282</ele>
        <time>2020-07-26T08:37:34.780Z</time>
      </trkpt>
      <trkpt lat="60.96628" lon="5.17277">
        <ele>130.687717</ele>
        <time>2020-07-26T08:37:36.791Z</time>
      </trkpt>
      <trkpt lat="60.96636" lon="5.17305">
        <ele>129.436242</ele>
        <time>2020-07-26T08:37:38.792Z</time>
      </trkpt>
      <trkpt lat="60.96644" lon="5.17338">
        <ele>128.039963</ele>
        <time>2020-07-26T08:37:40.827Z</time>
      </trkpt>
      <trkpt lat="60.96653" lon="5.17369">
        <ele>126.703771</ele>
        <time>2020-07-26T08:37:42.793Z</time>
      </trkpt>
      <trkpt lat="60.9666" lon="5.17401">
        <ele>125.385309</ele>
        <time>2020-07-26T08:37:44.811Z</time>
      </trkpt>
      <trkpt lat="60.96664" lon="5.17436">
        <ele>124.017783</ele>
        <time>2020-07-26T08:37:46.795Z</time>
      </trkpt>
      <trkpt lat="60.96665" lon="5.17456">
        <ele>123.286192</ele>
        <time>2020-07-26T08:37:47.791Z</time>
      </trkpt>
      <trkpt lat="60.96666" lon="5.17476">
        <ele>122.51867</ele>
        <time>2020-07-26T08:37:48.811Z</time>
      </trkpt>
      <trkpt lat="60.96668" lon="5.17497">
        <ele>121.735952</ele>
        <time>2020-07-26T08:37:49.791Z</time>
      </trkpt>
      <trkpt lat="60.96668" lon="5.17517">
        <ele>120.959424</ele>
        <time>2020-07-26T08:37:50.829Z</time>
      </trkpt>
      <trkpt lat="60.96669" lon="5.17538">
        <ele>120.185332</ele>
        <time>2020-07-26T08:37:51.828Z</time>
      </trkpt>
      <trkpt lat="60.96668" lon="5.17559">
        <ele>119.388582</ele>
        <time>2020-07-26T08:37:52.792Z</time>
      </trkpt>
      <trkpt lat="60.96668" lon="5.17581">
        <ele>118.570846</ele>
        <time>2020-07-26T08:37:53.800Z</time>
      </trkpt>
      <trkpt lat="60.96666" lon="5.17603">
        <ele>117.720309</ele>
        <time>2020-07-26T08:37:54.853Z</time>
      </trkpt>
      <trkpt lat="60.96665" lon="5.17626">
        <ele>116.885421</ele>
        <time>2020-07-26T08:37:55.801Z</time>
      </trkpt>
      <trkpt lat="60.96664" lon="5.17649">
        <ele>116.059342</ele>
        <time>2020-07-26T08:37:56.828Z</time>
      </trkpt>
      <trkpt lat="60.96663" lon="5.17672">
        <ele>115.24582</ele>
        <time>2020-07-26T08:37:57.792Z</time>
      </trkpt>
      <trkpt lat="60.96662" lon="5.17695">
        <ele>114.441455</ele>
        <time>2020-07-26T08:37:58.793Z</time>
      </trkpt>
      <trkpt lat="60.96662" lon="5.17718">
        <ele>113.622707</ele>
        <time>2020-07-26T08:37:59.793Z</time>
      </trkpt>
      <trkpt lat="60.96662" lon="5.17741">
        <ele>112.804733</ele>
        <time>2020-07-26T08:38:00.793Z</time>
      </trkpt>
      <trkpt lat="60.96662" lon="5.17764">
        <ele>111.997335</ele>
        <time>2020-07-26T08:38:01.803Z</time>
      </trkpt>
      <trkpt lat="60.96662" lon="5.17787">
        <ele>111.19297</ele>
        <time>2020-07-26T08:38:02.817Z</time>
      </trkpt>
      <trkpt lat="60.96662" lon="5.1781">
        <ele>110.378425</ele>
        <time>2020-07-26T08:38:03.811Z</time>
      </trkpt>
      <trkpt lat="60.96663" lon="5.17833">
        <ele>109.567404</ele>
        <time>2020-07-26T08:38:04.789Z</time>
      </trkpt>
      <trkpt lat="60.96663" lon="5.17856">
        <ele>108.772945</ele>
        <time>2020-07-26T08:38:05.812Z</time>
      </trkpt>
      <trkpt lat="60.96664" lon="5.17878">
        <ele>107.996766</ele>
        <time>2020-07-26T08:38:06.811Z</time>
      </trkpt>
      <trkpt lat="60.96664" lon="5.17899">
        <ele>107.224623</ele>
        <time>2020-07-26T08:38:07.792Z</time>
      </trkpt>
      <trkpt lat="60.96664" lon="5.17922">
        <ele>106.43811</ele>
        <time>2020-07-26T08:38:08.791Z</time>
      </trkpt>
      <trkpt lat="60.96664" lon="5.17944">
        <ele>105.63727</ele>
        <time>2020-07-26T08:38:09.804Z</time>
      </trkpt>
      <trkpt lat="60.96665" lon="5.17966">
        <ele>104.85997</ele>
        <time>2020-07-26T08:38:10.810Z</time>
      </trkpt>
      <trkpt lat="60.96666" lon="5.17988">
        <ele>104.099275</ele>
        <time>2020-07-26T08:38:11.788Z</time>
      </trkpt>
      <trkpt lat="60.96668" lon="5.18008">
        <ele>103.135032</ele>
        <time>2020-07-26T08:38:12.790Z</time>
      </trkpt>
      <trkpt lat="60.96671" lon="5.18027">
        <ele>102.152849</ele>
        <time>2020-07-26T08:38:13.824Z</time>
      </trkpt>
      <trkpt lat="60.96674" lon="5.18047">
        <ele>101.168074</ele>
        <time>2020-07-26T08:38:14.844Z</time>
      </trkpt>
      <trkpt lat="60.96678" lon="5.18065">
        <ele>100.239189</ele>
        <time>2020-07-26T08:38:15.781Z</time>
      </trkpt>
      <trkpt lat="60.96685" lon="5.18099">
        <ele>98.511394</ele>
        <time>2020-07-26T08:38:17.799Z</time>
      </trkpt>
      <trkpt lat="60.96693" lon="5.18128">
        <ele>96.897048</ele>
        <time>2020-07-26T08:38:19.801Z</time>
      </trkpt>
      <trkpt lat="60.96703" lon="5.18157">
        <ele>95.181924</ele>
        <time>2020-07-26T08:38:21.812Z</time>
      </trkpt>
      <trkpt lat="60.96709" lon="5.18172">
        <ele>94.299399</ele>
        <time>2020-07-26T08:38:22.783Z</time>
      </trkpt>
      <trkpt lat="60.96715" lon="5.18186">
        <ele>93.40753</ele>
        <time>2020-07-26T08:38:23.805Z</time>
      </trkpt>
      <trkpt lat="60.96726" lon="5.18212">
        <ele>91.740076</ele>
        <time>2020-07-26T08:38:25.782Z</time>
      </trkpt>
      <trkpt lat="60.96735" lon="5.18239">
        <ele>90.206212</ele>
        <time>2020-07-26T08:38:27.796Z</time>
      </trkpt>
      <trkpt lat="60.96741" lon="5.1827">
        <ele>88.621211</ele>
        <time>2020-07-26T08:38:29.813Z</time>
      </trkpt>
      <trkpt lat="60.96745" lon="5.18304">
        <ele>86.997234</ele>
        <time>2020-07-26T08:38:31.781Z</time>
      </trkpt>
      <trkpt lat="60.96745" lon="5.18338">
        <ele>85.451558</ele>
        <time>2020-07-26T08:38:33.801Z</time>
      </trkpt>
      <trkpt lat="60.96742" lon="5.18372">
        <ele>83.937805</ele>
        <time>2020-07-26T08:38:35.806Z</time>
      </trkpt>
      <trkpt lat="60.96736" lon="5.18406">
        <ele>82.31266</ele>
        <time>2020-07-26T08:38:37.828Z</time>
      </trkpt>
      <trkpt lat="60.96732" lon="5.18423">
        <ele>81.483926</ele>
        <time>2020-07-26T08:38:38.829Z</time>
      </trkpt>
      <trkpt lat="60.96728" lon="5.1844">
        <ele>80.654903</ele>
        <time>2020-07-26T08:38:39.812Z</time>
      </trkpt>
      <trkpt lat="60.96724" lon="5.18457">
        <ele>79.81841</ele>
        <time>2020-07-26T08:38:40.787Z</time>
      </trkpt>
      <trkpt lat="60.9672" lon="5.18474">
        <ele>78.977837</ele>
        <time>2020-07-26T08:38:41.796Z</time>
      </trkpt>
      <trkpt lat="60.96716" lon="5.18491">
        <ele>78.144804</ele>
        <time>2020-07-26T08:38:42.799Z</time>
      </trkpt>
      <trkpt lat="60.96708" lon="5.18521">
        <ele>76.662154</ele>
        <time>2020-07-26T08:38:44.785Z</time>
      </trkpt>
      <trkpt lat="60.96702" lon="5.1855">
        <ele>75.250578</ele>
        <time>2020-07-26T08:38:46.842Z</time>
      </trkpt>
      <trkpt lat="60.96695" lon="5.18579">
        <ele>73.839</ele>
        <time>2020-07-26T08:38:48.794Z</time>
      </trkpt>
      <trkpt lat="60.96691" lon="5.18607">
        <ele>72.558879</ele>
        <time>2020-07-26T08:38:50.820Z</time>
      </trkpt>
      <trkpt lat="60.96689" lon="5.18634">
        <ele>71.378488</ele>
        <time>2020-07-26T08:38:52.789Z</time>
      </trkpt>
      <trkpt lat="60.96689" lon="5.18654">
        <ele>70.457132</ele>
        <time>2020-07-26T08:38:54.800Z</time>
      </trkpt>
      <trkpt lat="60.96689" lon="5.18675">
        <ele>69.928428</ele>
        <time>2020-07-26T08:38:57.815Z</time>
      </trkpt>
      <trkpt lat="60.96692" lon="5.18696">
        <ele>69.506322</ele>
        <time>2020-07-26T08:39:00.786Z</time>
      </trkpt>
      <trkpt lat="60.96694" lon="5.18721">
        <ele>69.017546</ele>
        <time>2020-07-26T08:39:03.829Z</time>
      </trkpt>
      <trkpt lat="60.96696" lon="5.18746">
        <ele>68.523632</ele>
        <time>2020-07-26T08:39:06.797Z</time>
      </trkpt>
      <trkpt lat="60.96697" lon="5.18773">
        <ele>67.989257</ele>
        <time>2020-07-26T08:39:09.789Z</time>
      </trkpt>
      <trkpt lat="60.96697" lon="5.18793">
        <ele>67.598366</ele>
        <time>2020-07-26T08:39:11.800Z</time>
      </trkpt>
      <trkpt lat="60.96698" lon="5.18815">
        <ele>67.181918</ele>
        <time>2020-07-26T08:39:13.789Z</time>
      </trkpt>
      <trkpt lat="60.96699" lon="5.18836">
        <ele>66.774657</ele>
        <time>2020-07-26T08:39:15.788Z</time>
      </trkpt>
      <trkpt lat="60.96699" lon="5.18863">
        <ele>66.241055</ele>
        <time>2020-07-26T08:39:18.792Z</time>
      </trkpt>
      <trkpt lat="60.96701" lon="5.1889">
        <ele>65.714933</ele>
        <time>2020-07-26T08:39:21.799Z</time>
      </trkpt>
      <trkpt lat="60.96703" lon="5.18915">
        <ele>65.206896</ele>
        <time>2020-07-26T08:39:24.789Z</time>
      </trkpt>
      <trkpt lat="60.96706" lon="5.18936">
        <ele>64.791985</ele>
        <time>2020-07-26T08:39:27.790Z</time>
      </trkpt>
      <trkpt lat="60.96712" lon="5.18956">
        <ele>64.325954</ele>
        <time>2020-07-26T08:39:30.835Z</time>
      </trkpt>
      <trkpt lat="60.96717" lon="5.18971">
        <ele>63.958275</ele>
        <time>2020-07-26T08:39:32.784Z</time>
      </trkpt>
      <trkpt lat="60.96723" lon="5.18987">
        <ele>63.553573</ele>
        <time>2020-07-26T08:39:34.785Z</time>
      </trkpt>
      <trkpt lat="60.96731" lon="5.19004">
        <ele>63.113171</ele>
        <time>2020-07-26T08:39:36.808Z</time>
      </trkpt>
      <trkpt lat="60.96738" lon="5.19021">
        <ele>62.745381</ele>
        <time>2020-07-26T08:39:38.779Z</time>
      </trkpt>
      <trkpt lat="60.96745" lon="5.19038">
        <ele>62.397036</ele>
        <time>2020-07-26T08:39:40.793Z</time>
      </trkpt>
      <trkpt lat="60.96752" lon="5.19055">
        <ele>62.044274</ele>
        <time>2020-07-26T08:39:42.797Z</time>
      </trkpt>
      <trkpt lat="60.9676" lon="5.19073">
        <ele>61.672676</ele>
        <time>2020-07-26T08:39:44.794Z</time>
      </trkpt>
      <trkpt lat="60.96768" lon="5.19092">
        <ele>61.281081</ele>
        <time>2020-07-26T08:39:46.785Z</time>
      </trkpt>
      <trkpt lat="60.96776" lon="5.19111">
        <ele>60.896551</ele>
        <time>2020-07-26T08:39:48.775Z</time>
      </trkpt>
      <trkpt lat="60.96783" lon="5.19131">
        <ele>60.514839</ele>
        <time>2020-07-26T08:39:50.810Z</time>
      </trkpt>
      <trkpt lat="60.9679" lon="5.19153">
        <ele>60.113031</ele>
        <time>2020-07-26T08:39:52.810Z</time>
      </trkpt>
      <trkpt lat="60.96797" lon="5.19176">
        <ele>59.695443</ele>
        <time>2020-07-26T08:39:54.777Z</time>
      </trkpt>
      <trkpt lat="60.96801" lon="5.19201">
        <ele>59.281234</ele>
        <time>2020-07-26T08:39:56.791Z</time>
      </trkpt>
      <trkpt lat="60.96806" lon="5.19227">
        <ele>58.853777</ele>
        <time>2020-07-26T08:39:58.784Z</time>
      </trkpt>
      <trkpt lat="60.96811" lon="5.19254">
        <ele>58.411145</ele>
        <time>2020-07-26T08:40:00.828Z</time>
      </trkpt>
      <trkpt lat="60.96816" lon="5.1928">
        <ele>57.975341</ele>
        <time>2020-07-26T08:40:02.799Z</time>
      </trkpt>
      <trkpt lat="60.96821" lon="5.19305">
        <ele>57.56075</ele>
        <time>2020-07-26T08:40:04.780Z</time>
      </trkpt>
      <trkpt lat="60.96827" lon="5.19329">
        <ele>57.34626</ele>
        <time>2020-07-26T08:40:06.792Z</time>
      </trkpt>
      <trkpt lat="60.96833" lon="5.1935">
        <ele>57.527143</ele>
        <time>2020-07-26T08:40:08.792Z</time>
      </trkpt>
      <trkpt lat="60.96841" lon="5.19369">
        <ele>57.705568</ele>
        <time>2020-07-26T08:40:10.789Z</time>
      </trkpt>
      <trkpt lat="60.96852" lon="5.19383">
        <ele>57.894474</ele>
        <time>2020-07-26T08:40:12.794Z</time>
      </trkpt>
      <trkpt lat="60.96865" lon="5.19394">
        <ele>58.093203</ele>
        <time>2020-07-26T08:40:14.798Z</time>
      </trkpt>
      <trkpt lat="60.96878" lon="5.19398">
        <ele>58.290493</ele>
        <time>2020-07-26T08:40:16.804Z</time>
      </trkpt>
      <trkpt lat="60.9689" lon="5.19393">
        <ele>58.473736</ele>
        <time>2020-07-26T08:40:18.828Z</time>
      </trkpt>
      <trkpt lat="60.96901" lon="5.19386">
        <ele>58.644762</ele>
        <time>2020-07-26T08:40:20.790Z</time>
      </trkpt>
      <trkpt lat="60.96911" lon="5.19378">
        <ele>58.799225</ele>
        <time>2020-07-26T08:40:22.783Z</time>
      </trkpt>
      <trkpt lat="60.96919" lon="5.19364">
        <ele>58.957117</ele>
        <time>2020-07-26T08:40:25.780Z</time>
      </trkpt>
      <trkpt lat="60.96926" lon="5.19347">
        <ele>59.119051</ele>
        <time>2020-07-26T08:40:29.786Z</time>
      </trkpt>
      <trkpt lat="60.96931" lon="5.19327">
        <ele>59.274778</ele>
        <time>2020-07-26T08:40:34.808Z</time>
      </trkpt>
      <trkpt lat="60.96933" lon="5.19308">
        <ele>59.413781</ele>
        <time>2020-07-26T08:40:39.774Z</time>
      </trkpt>
      <trkpt lat="60.96935" lon="5.19288">
        <ele>59.558376</ele>
        <time>2020-07-26T08:40:45.774Z</time>
      </trkpt>
      <trkpt lat="60.96935" lon="5.19269">
        <ele>59.697061</ele>
        <time>2020-07-26T08:40:51.789Z</time>
      </trkpt>
      <trkpt lat="60.96934" lon="5.1925">
        <ele>59.833396</ele>
        <time>2020-07-26T08:40:57.807Z</time>
      </trkpt>
      <trkpt lat="60.96932" lon="5.1923">
        <ele>60.136409</ele>
        <time>2020-07-26T08:41:03.789Z</time>
      </trkpt>
      <trkpt lat="60.9693" lon="5.19211">
        <ele>60.728326</ele>
        <time>2020-07-26T08:41:09.807Z</time>
      </trkpt>
      <trkpt lat="60.96929" lon="5.19192">
        <ele>61.339789</ele>
        <time>2020-07-26T08:41:15.820Z</time>
      </trkpt>
      <trkpt lat="60.96929" lon="5.19173">
        <ele>61.916782</ele>
        <time>2020-07-26T08:41:21.784Z</time>
      </trkpt>
      <trkpt lat="60.96928" lon="5.19152">
        <ele>62.553958</ele>
        <time>2020-07-26T08:41:28.809Z</time>
      </trkpt>
      <trkpt lat="60.96928" lon="5.19132">
        <ele>63.158104</ele>
        <time>2020-07-26T08:41:34.806Z</time>
      </trkpt>
      <trkpt lat="60.96929" lon="5.19111">
        <ele>63.818775</ele>
        <time>2020-07-26T08:41:41.811Z</time>
      </trkpt>
      <trkpt lat="60.96932" lon="5.19091">
        <ele>64.431089</ele>
        <time>2020-07-26T08:41:47.830Z</time>
      </trkpt>
      <trkpt lat="60.96935" lon="5.19072">
        <ele>65.04945</ele>
        <time>2020-07-26T08:41:53.845Z</time>
      </trkpt>
      <trkpt lat="60.96937" lon="5.19053">
        <ele>65.646575</ele>
        <time>2020-07-26T08:41:59.832Z</time>
      </trkpt>
      <trkpt lat="60.96942" lon="5.19034">
        <ele>66.28349</ele>
        <time>2020-07-26T08:42:05.793Z</time>
      </trkpt>
      <trkpt lat="60.96946" lon="5.19016">
        <ele>66.9075</ele>
        <time>2020-07-26T08:42:11.793Z</time>
      </trkpt>
      <trkpt lat="60.96952" lon="5.19">
        <ele>67.507176</ele>
        <time>2020-07-26T08:42:16.820Z</time>
      </trkpt>
      <trkpt lat="60.96957" lon="5.18982">
        <ele>68.146981</ele>
        <time>2020-07-26T08:42:21.803Z</time>
      </trkpt>
      <trkpt lat="60.96962" lon="5.18965">
        <ele>68.748311</ele>
        <time>2020-07-26T08:42:26.814Z</time>
      </trkpt>
      <trkpt lat="60.96968" lon="5.18949">
        <ele>69.367683</ele>
        <time>2020-07-26T08:42:31.825Z</time>
      </trkpt>
      <trkpt lat="60.96974" lon="5.1893">
        <ele>70.052576</ele>
        <time>2020-07-26T08:42:36.826Z</time>
      </trkpt>
      <trkpt lat="60.9698" lon="5.18912">
        <ele>70.722335</ele>
        <time>2020-07-26T08:42:41.794Z</time>
      </trkpt>
      <trkpt lat="60.96986" lon="5.18898">
        <ele>71.2695</ele>
        <time>2020-07-26T08:42:45.787Z</time>
      </trkpt>
      <trkpt lat="60.96993" lon="5.1888">
        <ele>71.543461</ele>
        <time>2020-07-26T08:42:50.789Z</time>
      </trkpt>
      <trkpt lat="60.97" lon="5.18866">
        <ele>71.795138</ele>
        <time>2020-07-26T08:42:54.776Z</time>
      </trkpt>
      <trkpt lat="60.97009" lon="5.18852">
        <ele>72.063392</ele>
        <time>2020-07-26T08:42:58.790Z</time>
      </trkpt>
      <trkpt lat="60.97017" lon="5.18839">
        <ele>72.325419</ele>
        <time>2020-07-26T08:43:02.807Z</time>
      </trkpt>
      <trkpt lat="60.97025" lon="5.18827">
        <ele>72.580105</ele>
        <time>2020-07-26T08:43:06.797Z</time>
      </trkpt>
      <trkpt lat="60.97033" lon="5.18814">
        <ele>72.841898</ele>
        <time>2020-07-26T08:43:10.809Z</time>
      </trkpt>
      <trkpt lat="60.97042" lon="5.18803">
        <ele>73.099199</ele>
        <time>2020-07-26T08:43:13.792Z</time>
      </trkpt>
      <trkpt lat="60.97051" lon="5.18791">
        <ele>73.366515</ele>
        <time>2020-07-26T08:43:16.804Z</time>
      </trkpt>
      <trkpt lat="60.97059" lon="5.18778">
        <ele>73.632786</ele>
        <time>2020-07-26T08:43:19.830Z</time>
      </trkpt>
      <trkpt lat="60.97069" lon="5.1876">
        <ele>73.951577</ele>
        <time>2020-07-26T08:43:22.809Z</time>
      </trkpt>
      <trkpt lat="60.97078" lon="5.1874">
        <ele>74.285889</ele>
        <time>2020-07-26T08:43:25.812Z</time>
      </trkpt>
      <trkpt lat="60.97085" lon="5.18721">
        <ele>74.582087</ele>
        <time>2020-07-26T08:43:28.795Z</time>
      </trkpt>
      <trkpt lat="60.97094" lon="5.18705">
        <ele>74.875159</ele>
        <time>2020-07-26T08:43:31.791Z</time>
      </trkpt>
      <trkpt lat="60.971" lon="5.18688">
        <ele>75.138757</ele>
        <time>2020-07-26T08:43:34.809Z</time>
      </trkpt>
      <trkpt lat="60.97105" lon="5.18667">
        <ele>75.431195</ele>
        <time>2020-07-26T08:43:38.797Z</time>
      </trkpt>
      <trkpt lat="60.9711" lon="5.18646">
        <ele>75.704236</ele>
        <time>2020-07-26T08:43:42.786Z</time>
      </trkpt>
      <trkpt lat="60.97114" lon="5.18628">
        <ele>76.161823</ele>
        <time>2020-07-26T08:43:46.834Z</time>
      </trkpt>
      <trkpt lat="60.97119" lon="5.18609">
        <ele>76.7183</ele>
        <time>2020-07-26T08:43:51.816Z</time>
      </trkpt>
      <trkpt lat="60.97125" lon="5.18594">
        <ele>77.203038</ele>
        <time>2020-07-26T08:43:56.805Z</time>
      </trkpt>
      <trkpt lat="60.97131" lon="5.18579">
        <ele>77.739297</ele>
        <time>2020-07-26T08:44:01.817Z</time>
      </trkpt>
      <trkpt lat="60.97138" lon="5.18565">
        <ele>78.242442</ele>
        <time>2020-07-26T08:44:06.798Z</time>
      </trkpt>
      <trkpt lat="60.97146" lon="5.18554">
        <ele>78.745426</ele>
        <time>2020-07-26T08:44:11.805Z</time>
      </trkpt>
      <trkpt lat="60.97155" lon="5.18548">
        <ele>79.222487</ele>
        <time>2020-07-26T08:44:15.814Z</time>
      </trkpt>
      <trkpt lat="60.97163" lon="5.18542">
        <ele>79.711314</ele>
        <time>2020-07-26T08:44:19.814Z</time>
      </trkpt>
      <trkpt lat="60.97172" lon="5.18534">
        <ele>80.212273</ele>
        <time>2020-07-26T08:44:24.823Z</time>
      </trkpt>
      <trkpt lat="60.97183" lon="5.18528">
        <ele>80.79088</ele>
        <time>2020-07-26T08:44:30.790Z</time>
      </trkpt>
      <trkpt lat="60.97193" lon="5.18523">
        <ele>81.352604</ele>
        <time>2020-07-26T08:44:35.819Z</time>
      </trkpt>
      <trkpt lat="60.97202" lon="5.18522">
        <ele>81.830336</ele>
        <time>2020-07-26T08:44:39.792Z</time>
      </trkpt>
      <trkpt lat="60.97212" lon="5.18523">
        <ele>82.355545</ele>
        <time>2020-07-26T08:44:43.790Z</time>
      </trkpt>
      <trkpt lat="60.97222" lon="5.18525">
        <ele>82.891307</ele>
        <time>2020-07-26T08:44:47.801Z</time>
      </trkpt>
      <trkpt lat="60.97231" lon="5.18529">
        <ele>83.381298</ele>
        <time>2020-07-26T08:44:50.800Z</time>
      </trkpt>
      <trkpt lat="60.97242" lon="5.18536">
        <ele>83.970781</ele>
        <time>2020-07-26T08:44:54.789Z</time>
      </trkpt>
      <trkpt lat="60.97252" lon="5.18544">
        <ele>84.534345</ele>
        <time>2020-07-26T08:44:58.793Z</time>
      </trkpt>
      <trkpt lat="60.97261" lon="5.18551">
        <ele>85.061796</ele>
        <time>2020-07-26T08:45:02.819Z</time>
      </trkpt>
      <trkpt lat="60.9727" lon="5.18558">
        <ele>85.486965</ele>
        <time>2020-07-26T08:45:06.800Z</time>
      </trkpt>
      <trkpt lat="60.9728" lon="5.18564">
        <ele>85.8776</ele>
        <time>2020-07-26T08:45:10.814Z</time>
      </trkpt>
      <trkpt lat="60.97291" lon="5.18571">
        <ele>86.28164</ele>
        <time>2020-07-26T08:45:14.791Z</time>
      </trkpt>
      <trkpt lat="60.973" lon="5.18579">
        <ele>86.635268</ele>
        <time>2020-07-26T08:45:18.794Z</time>
      </trkpt>
      <trkpt lat="60.97309" lon="5.18586">
        <ele>86.969544</ele>
        <time>2020-07-26T08:45:22.830Z</time>
      </trkpt>
      <trkpt lat="60.97318" lon="5.18594">
        <ele>87.331238</ele>
        <time>2020-07-26T08:45:26.808Z</time>
      </trkpt>
      <trkpt lat="60.97327" lon="5.18603">
        <ele>87.689208</ele>
        <time>2020-07-26T08:45:30.840Z</time>
      </trkpt>
      <trkpt lat="60.97336" lon="5.18611">
        <ele>88.058387</ele>
        <time>2020-07-26T08:45:34.826Z</time>
      </trkpt>
      <trkpt lat="60.97344" lon="5.18619">
        <ele>88.393042</ele>
        <time>2020-07-26T08:45:38.811Z</time>
      </trkpt>
      <trkpt lat="60.97353" lon="5.18627">
        <ele>88.75541</ele>
        <time>2020-07-26T08:45:42.820Z</time>
      </trkpt>
      <trkpt lat="60.97364" lon="5.18633">
        <ele>89.164711</ele>
        <time>2020-07-26T08:45:46.812Z</time>
      </trkpt>
      <trkpt lat="60.97374" lon="5.18643">
        <ele>89.562254</ele>
        <time>2020-07-26T08:45:50.874Z</time>
      </trkpt>
      <trkpt lat="60.97383" lon="5.18648">
        <ele>89.908185</ele>
        <time>2020-07-26T08:45:55.788Z</time>
      </trkpt>
      <trkpt lat="60.9742" lon="5.18674">
        <ele>91.32154</ele>
        <time>2020-07-26T08:46:09.893Z</time>
      </trkpt>
      <trkpt lat="60.97431" lon="5.18675">
        <ele>91.707728</ele>
        <time>2020-07-26T08:46:11.808Z</time>
      </trkpt>
      <trkpt lat="60.97439" lon="5.18683">
        <ele>91.838141</ele>
        <time>2020-07-26T08:46:15.806Z</time>
      </trkpt>
      <trkpt lat="60.97448" lon="5.18693">
        <ele>91.864788</ele>
        <time>2020-07-26T08:46:20.800Z</time>
      </trkpt>
      <trkpt lat="60.97457" lon="5.18702">
        <ele>91.891299</ele>
        <time>2020-07-26T08:46:25.821Z</time>
      </trkpt>
      <trkpt lat="60.97466" lon="5.1871">
        <ele>91.917247</ele>
        <time>2020-07-26T08:46:29.793Z</time>
      </trkpt>
      <trkpt lat="60.97476" lon="5.18716">
        <ele>91.946759</ele>
        <time>2020-07-26T08:46:33.806Z</time>
      </trkpt>
      <trkpt lat="60.97484" lon="5.18723">
        <ele>91.971066</ele>
        <time>2020-07-26T08:46:36.785Z</time>
      </trkpt>
      <trkpt lat="60.97494" lon="5.1873">
        <ele>91.999576</ele>
        <time>2020-07-26T08:46:39.818Z</time>
      </trkpt>
      <trkpt lat="60.97505" lon="5.18738">
        <ele>92.030416</ele>
        <time>2020-07-26T08:46:42.788Z</time>
      </trkpt>
      <trkpt lat="60.97517" lon="5.18749">
        <ele>92.066445</ele>
        <time>2020-07-26T08:46:45.786Z</time>
      </trkpt>
      <trkpt lat="60.97527" lon="5.18756">
        <ele>92.093241</ele>
        <time>2020-07-26T08:46:47.788Z</time>
      </trkpt>
      <trkpt lat="60.97537" lon="5.18764">
        <ele>92.121914</ele>
        <time>2020-07-26T08:46:49.804Z</time>
      </trkpt>
      <trkpt lat="60.97546" lon="5.18773">
        <ele>92.150815</ele>
        <time>2020-07-26T08:46:51.789Z</time>
      </trkpt>
      <trkpt lat="60.97557" lon="5.18782">
        <ele>92.182753</ele>
        <time>2020-07-26T08:46:53.794Z</time>
      </trkpt>
      <trkpt lat="60.9757" lon="5.18792">
        <ele>92.218844</ele>
        <time>2020-07-26T08:46:55.799Z</time>
      </trkpt>
      <trkpt lat="60.97584" lon="5.18802">
        <ele>92.257856</ele>
        <time>2020-07-26T08:46:57.794Z</time>
      </trkpt>
      <trkpt lat="60.97598" lon="5.18812">
        <ele>92.299458</ele>
        <time>2020-07-26T08:46:59.828Z</time>
      </trkpt>
      <trkpt lat="60.97613" lon="5.18822">
        <ele>92.097763</ele>
        <time>2020-07-26T08:47:01.807Z</time>
      </trkpt>
      <trkpt lat="60.97628" lon="5.1883">
        <ele>91.855909</ele>
        <time>2020-07-26T08:47:03.818Z</time>
      </trkpt>
      <trkpt lat="60.97644" lon="5.18835">
        <ele>91.613999</ele>
        <time>2020-07-26T08:47:05.809Z</time>
      </trkpt>
      <trkpt lat="60.9766" lon="5.18837">
        <ele>91.357153</ele>
        <time>2020-07-26T08:47:07.790Z</time>
      </trkpt>
      <trkpt lat="60.97675" lon="5.18839">
        <ele>91.125245</ele>
        <time>2020-07-26T08:47:09.796Z</time>
      </trkpt>
      <trkpt lat="60.97688" lon="5.18842">
        <ele>90.919387</ele>
        <time>2020-07-26T08:47:11.789Z</time>
      </trkpt>
      <trkpt lat="60.977" lon="5.18843">
        <ele>90.73459</ele>
        <time>2020-07-26T08:47:13.843Z</time>
      </trkpt>
      <trkpt lat="60.9771" lon="5.18843">
        <ele>90.585461</ele>
        <time>2020-07-26T08:47:15.816Z</time>
      </trkpt>
      <trkpt lat="60.97722" lon="5.18844">
        <ele>90.391381</ele>
        <time>2020-07-26T08:47:18.797Z</time>
      </trkpt>
      <trkpt lat="60.97733" lon="5.18845">
        <ele>90.225159</ele>
        <time>2020-07-26T08:47:21.826Z</time>
      </trkpt>
      <trkpt lat="60.97743" lon="5.18846">
        <ele>90.075894</ele>
        <time>2020-07-26T08:47:24.801Z</time>
      </trkpt>
      <trkpt lat="60.97752" lon="5.18847">
        <ele>89.927856</ele>
        <time>2020-07-26T08:47:27.791Z</time>
      </trkpt>
      <trkpt lat="60.97762" lon="5.18849">
        <ele>89.769203</ele>
        <time>2020-07-26T08:47:30.806Z</time>
      </trkpt>
      <trkpt lat="60.97774" lon="5.18852">
        <ele>89.595406</ele>
        <time>2020-07-26T08:47:33.818Z</time>
      </trkpt>
      <trkpt lat="60.97784" lon="5.18858">
        <ele>89.321838</ele>
        <time>2020-07-26T08:47:36.799Z</time>
      </trkpt>
      <trkpt lat="60.97794" lon="5.18865">
        <ele>88.953313</ele>
        <time>2020-07-26T08:47:39.786Z</time>
      </trkpt>
      <trkpt lat="60.97806" lon="5.18871">
        <ele>88.546716</ele>
        <time>2020-07-26T08:47:42.788Z</time>
      </trkpt>
      <trkpt lat="60.97815" lon="5.18876">
        <ele>88.238292</ele>
        <time>2020-07-26T08:47:44.792Z</time>
      </trkpt>
      <trkpt lat="60.97824" lon="5.18882">
        <ele>87.91568</ele>
        <time>2020-07-26T08:47:46.787Z</time>
      </trkpt>
      <trkpt lat="60.97836" lon="5.18891">
        <ele>87.467666</ele>
        <time>2020-07-26T08:47:49.808Z</time>
      </trkpt>
      <trkpt lat="60.97845" lon="5.18896">
        <ele>87.159705</ele>
        <time>2020-07-26T08:47:51.792Z</time>
      </trkpt>
      <trkpt lat="60.97855" lon="5.18899">
        <ele>86.808687</ele>
        <time>2020-07-26T08:47:53.784Z</time>
      </trkpt>
      <trkpt lat="60.97865" lon="5.18898">
        <ele>86.461663</ele>
        <time>2020-07-26T08:47:55.821Z</time>
      </trkpt>
      <trkpt lat="60.97878" lon="5.18897">
        <ele>86.032151</ele>
        <time>2020-07-26T08:47:58.819Z</time>
      </trkpt>
      <trkpt lat="60.9789" lon="5.18894">
        <ele>85.622105</ele>
        <time>2020-07-26T08:48:01.790Z</time>
      </trkpt>
      <trkpt lat="60.979" lon="5.18894">
        <ele>85.292326</ele>
        <time>2020-07-26T08:48:04.834Z</time>
      </trkpt>
      <trkpt lat="60.9791" lon="5.18892">
        <ele>84.934122</ele>
        <time>2020-07-26T08:48:07.806Z</time>
      </trkpt>
      <trkpt lat="60.97919" lon="5.18889">
        <ele>84.62055</ele>
        <time>2020-07-26T08:48:10.792Z</time>
      </trkpt>
      <trkpt lat="60.97929" lon="5.18884">
        <ele>84.271851</ele>
        <time>2020-07-26T08:48:14.797Z</time>
      </trkpt>
      <trkpt lat="60.97939" lon="5.1888">
        <ele>83.939315</ele>
        <time>2020-07-26T08:48:19.788Z</time>
      </trkpt>
      <trkpt lat="60.97948" lon="5.18876">
        <ele>83.613001</ele>
        <time>2020-07-26T08:48:25.804Z</time>
      </trkpt>
      <trkpt lat="60.97957" lon="5.18872">
        <ele>83.488252</ele>
        <time>2020-07-26T08:48:31.805Z</time>
      </trkpt>
      <trkpt lat="60.97967" lon="5.18867">
        <ele>83.771239</ele>
        <time>2020-07-26T08:48:37.790Z</time>
      </trkpt>
      <trkpt lat="60.97977" lon="5.18863">
        <ele>84.055469</ele>
        <time>2020-07-26T08:48:42.814Z</time>
      </trkpt>
      <trkpt lat="60.97986" lon="5.18859">
        <ele>84.310173</ele>
        <time>2020-07-26T08:48:45.805Z</time>
      </trkpt>
      <trkpt lat="60.97996" lon="5.18851">
        <ele>84.611173</ele>
        <time>2020-07-26T08:48:49.812Z</time>
      </trkpt>
      <trkpt lat="60.98006" lon="5.18846">
        <ele>84.899192</ele>
        <time>2020-07-26T08:48:53.797Z</time>
      </trkpt>
      <trkpt lat="60.98017" lon="5.18836">
        <ele>85.217588</ele>
        <time>2020-07-26T08:48:57.797Z</time>
      </trkpt>
      <trkpt lat="60.98025" lon="5.18825">
        <ele>85.492042</ele>
        <time>2020-07-26T08:49:00.788Z</time>
      </trkpt>
      <trkpt lat="60.98036" lon="5.18815">
        <ele>85.832915</ele>
        <time>2020-07-26T08:49:03.799Z</time>
      </trkpt>
      <trkpt lat="60.98045" lon="5.18808">
        <ele>86.083257</ele>
        <time>2020-07-26T08:49:05.802Z</time>
      </trkpt>
      <trkpt lat="60.98056" lon="5.18801">
        <ele>86.401392</ele>
        <time>2020-07-26T08:49:08.780Z</time>
      </trkpt>
      <trkpt lat="60.98069" lon="5.18796">
        <ele>86.770973</ele>
        <time>2020-07-26T08:49:11.791Z</time>
      </trkpt>
      <trkpt lat="60.98079" lon="5.18792">
        <ele>87.046464</ele>
        <time>2020-07-26T08:49:13.809Z</time>
      </trkpt>
      <trkpt lat="60.98091" lon="5.18785">
        <ele>87.399728</ele>
        <time>2020-07-26T08:49:16.807Z</time>
      </trkpt>
      <trkpt lat="60.98101" lon="5.18781">
        <ele>87.701375</ele>
        <time>2020-07-26T08:49:19.817Z</time>
      </trkpt>
      <trkpt lat="60.98111" lon="5.18775">
        <ele>87.969204</ele>
        <time>2020-07-26T08:49:22.812Z</time>
      </trkpt>
      <trkpt lat="60.98123" lon="5.1877">
        <ele>88.306063</ele>
        <time>2020-07-26T08:49:25.807Z</time>
      </trkpt>
      <trkpt lat="60.98132" lon="5.18763">
        <ele>88.812805</ele>
        <time>2020-07-26T08:49:28.818Z</time>
      </trkpt>
      <trkpt lat="60.98141" lon="5.18755">
        <ele>89.421325</ele>
        <time>2020-07-26T08:49:32.807Z</time>
      </trkpt>
      <trkpt lat="60.98149" lon="5.18747">
        <ele>89.983677</ele>
        <time>2020-07-26T08:49:36.788Z</time>
      </trkpt>
      <trkpt lat="60.9816" lon="5.1874">
        <ele>90.681755</ele>
        <time>2020-07-26T08:49:41.790Z</time>
      </trkpt>
      <trkpt lat="60.98168" lon="5.18732">
        <ele>91.285801</ele>
        <time>2020-07-26T08:49:46.786Z</time>
      </trkpt>
      <trkpt lat="60.98178" lon="5.18727">
        <ele>91.882484</ele>
        <time>2020-07-26T08:49:52.796Z</time>
      </trkpt>
      <trkpt lat="60.98187" lon="5.18722">
        <ele>92.482884</ele>
        <time>2020-07-26T08:49:57.794Z</time>
      </trkpt>
      <trkpt lat="60.98196" lon="5.18716">
        <ele>93.105252</ele>
        <time>2020-07-26T08:50:02.825Z</time>
      </trkpt>
      <trkpt lat="60.98207" lon="5.1871">
        <ele>93.800361</ele>
        <time>2020-07-26T08:50:07.806Z</time>
      </trkpt>
      <trkpt lat="60.98217" lon="5.18704">
        <ele>94.426445</ele>
        <time>2020-07-26T08:50:12.836Z</time>
      </trkpt>
      <trkpt lat="60.98225" lon="5.18696">
        <ele>94.993879</ele>
        <time>2020-07-26T08:50:17.819Z</time>
      </trkpt>
      <trkpt lat="60.98235" lon="5.18688">
        <ele>95.642692</ele>
        <time>2020-07-26T08:50:23.814Z</time>
      </trkpt>
      <trkpt lat="60.98243" lon="5.18682">
        <ele>96.211875</ele>
        <time>2020-07-26T08:50:28.822Z</time>
      </trkpt>
      <trkpt lat="60.98253" lon="5.18677">
        <ele>96.820632</ele>
        <time>2020-07-26T08:50:33.786Z</time>
      </trkpt>
      <trkpt lat="60.98262" lon="5.1867">
        <ele>97.448653</ele>
        <time>2020-07-26T08:50:39.807Z</time>
      </trkpt>
      <trkpt lat="60.98271" lon="5.18664">
        <ele>98.040255</ele>
        <time>2020-07-26T08:50:44.817Z</time>
      </trkpt>
      <trkpt lat="60.98282" lon="5.18658">
        <ele>98.739095</ele>
        <time>2020-07-26T08:50:49.819Z</time>
      </trkpt>
      <trkpt lat="60.98291" lon="5.18653">
        <ele>99.357691</ele>
        <time>2020-07-26T08:50:53.805Z</time>
      </trkpt>
      <trkpt lat="60.98302" lon="5.18648">
        <ele>99.550159</ele>
        <time>2020-07-26T08:50:57.802Z</time>
      </trkpt>
      <trkpt lat="60.98314" lon="5.18642">
        <ele>99.353536</ele>
        <time>2020-07-26T08:51:01.794Z</time>
      </trkpt>
      <trkpt lat="60.98323" lon="5.18636">
        <ele>99.194697</ele>
        <time>2020-07-26T08:51:04.826Z</time>
      </trkpt>
      <trkpt lat="60.98334" lon="5.18629">
        <ele>99.011204</ele>
        <time>2020-07-26T08:51:07.799Z</time>
      </trkpt>
      <trkpt lat="60.98345" lon="5.18622">
        <ele>98.814308</ele>
        <time>2020-07-26T08:51:10.797Z</time>
      </trkpt>
      <trkpt lat="60.98357" lon="5.18614">
        <ele>98.616433</ele>
        <time>2020-07-26T08:51:13.812Z</time>
      </trkpt>
      <trkpt lat="60.98368" lon="5.18605">
        <ele>98.409518</ele>
        <time>2020-07-26T08:51:16.802Z</time>
      </trkpt>
      <trkpt lat="60.9838" lon="5.18596">
        <ele>98.211082</ele>
        <time>2020-07-26T08:51:19.800Z</time>
      </trkpt>
      <trkpt lat="60.98391" lon="5.18587">
        <ele>98.016663</ele>
        <time>2020-07-26T08:51:22.808Z</time>
      </trkpt>
      <trkpt lat="60.98402" lon="5.1858">
        <ele>97.824431</ele>
        <time>2020-07-26T08:51:25.806Z</time>
      </trkpt>
      <trkpt lat="60.98413" lon="5.18572">
        <ele>97.638897</ele>
        <time>2020-07-26T08:51:28.838Z</time>
      </trkpt>
      <trkpt lat="60.98424" lon="5.18564">
        <ele>97.449759</ele>
        <time>2020-07-26T08:51:31.811Z</time>
      </trkpt>
      <trkpt lat="60.98434" lon="5.18559">
        <ele>97.281405</ele>
        <time>2020-07-26T08:51:34.839Z</time>
      </trkpt>
      <trkpt lat="60.98445" lon="5.18554">
        <ele>97.101055</ele>
        <time>2020-07-26T08:51:38.830Z</time>
      </trkpt>
      <trkpt lat="60.98454" lon="5.18549">
        <ele>96.946331</ele>
        <time>2020-07-26T08:51:41.804Z</time>
      </trkpt>
      <trkpt lat="60.98463" lon="5.18545">
        <ele>96.790571</ele>
        <time>2020-07-26T08:51:44.828Z</time>
      </trkpt>
      <trkpt lat="60.98473" lon="5.18541">
        <ele>96.695799</ele>
        <time>2020-07-26T08:51:47.792Z</time>
      </trkpt>
      <trkpt lat="60.98484" lon="5.18538">
        <ele>96.665923</ele>
        <time>2020-07-26T08:51:50.811Z</time>
      </trkpt>
      <trkpt lat="60.98495" lon="5.18536">
        <ele>96.631659</ele>
        <time>2020-07-26T08:51:53.801Z</time>
      </trkpt>
      <trkpt lat="60.98509" lon="5.18535">
        <ele>96.592708</ele>
        <time>2020-07-26T08:51:56.798Z</time>
      </trkpt>
      <trkpt lat="60.98518" lon="5.18533">
        <ele>96.565703</ele>
        <time>2020-07-26T08:51:58.799Z</time>
      </trkpt>
      <trkpt lat="60.9853" lon="5.18532">
        <ele>96.529395</ele>
        <time>2020-07-26T08:52:01.780Z</time>
      </trkpt>
      <trkpt lat="60.98539" lon="5.1853">
        <ele>96.502654</ele>
        <time>2020-07-26T08:52:03.783Z</time>
      </trkpt>
      <trkpt lat="60.9855" lon="5.18529">
        <ele>96.472507</ele>
        <time>2020-07-26T08:52:05.816Z</time>
      </trkpt>
      <trkpt lat="60.9856" lon="5.18526">
        <ele>96.44104</ele>
        <time>2020-07-26T08:52:07.794Z</time>
      </trkpt>
      <trkpt lat="60.98571" lon="5.18521">
        <ele>96.409684</ele>
        <time>2020-07-26T08:52:09.798Z</time>
      </trkpt>
      <trkpt lat="60.9858" lon="5.18515">
        <ele>96.382437</ele>
        <time>2020-07-26T08:52:11.804Z</time>
      </trkpt>
      <trkpt lat="60.98588" lon="5.1851">
        <ele>96.355914</ele>
        <time>2020-07-26T08:52:13.791Z</time>
      </trkpt>
      <trkpt lat="60.98599" lon="5.18501">
        <ele>96.320822</ele>
        <time>2020-07-26T08:52:16.818Z</time>
      </trkpt>
      <trkpt lat="60.98609" lon="5.18493">
        <ele>96.289738</ele>
        <time>2020-07-26T08:52:19.793Z</time>
      </trkpt>
      <trkpt lat="60.98619" lon="5.18486">
        <ele>96.260469</ele>
        <time>2020-07-26T08:52:22.785Z</time>
      </trkpt>
      <trkpt lat="60.98627" lon="5.18478">
        <ele>96.233818</ele>
        <time>2020-07-26T08:52:25.795Z</time>
      </trkpt>
      <trkpt lat="60.98637" lon="5.18469">
        <ele>96.200562</ele>
        <time>2020-07-26T08:52:29.783Z</time>
      </trkpt>
      <trkpt lat="60.98647" lon="5.1846">
        <ele>96.561028</ele>
        <time>2020-07-26T08:52:33.804Z</time>
      </trkpt>
      <trkpt lat="60.98656" lon="5.18452">
        <ele>97.260193</ele>
        <time>2020-07-26T08:52:37.813Z</time>
      </trkpt>
      <trkpt lat="60.98666" lon="5.18446">
        <ele>97.964291</ele>
        <time>2020-07-26T08:52:41.801Z</time>
      </trkpt>
      <trkpt lat="60.98675" lon="5.18436">
        <ele>98.658594</ele>
        <time>2020-07-26T08:52:45.794Z</time>
      </trkpt>
      <trkpt lat="60.98685" lon="5.18428">
        <ele>99.370651</ele>
        <time>2020-07-26T08:52:50.833Z</time>
      </trkpt>
      <trkpt lat="60.98694" lon="5.18418">
        <ele>100.118654</ele>
        <time>2020-07-26T08:52:55.806Z</time>
      </trkpt>
      <trkpt lat="60.98703" lon="5.18409">
        <ele>100.767331</ele>
        <time>2020-07-26T08:53:00.795Z</time>
      </trkpt>
      <trkpt lat="60.98712" lon="5.18396">
        <ele>101.520069</ele>
        <time>2020-07-26T08:53:06.787Z</time>
      </trkpt>
      <trkpt lat="60.98721" lon="5.18385">
        <ele>102.269693</ele>
        <time>2020-07-26T08:53:11.781Z</time>
      </trkpt>
      <trkpt lat="60.9873" lon="5.18375">
        <ele>102.970106</ele>
        <time>2020-07-26T08:53:16.815Z</time>
      </trkpt>
      <trkpt lat="60.98739" lon="5.18365">
        <ele>103.677508</ele>
        <time>2020-07-26T08:53:20.827Z</time>
      </trkpt>
      <trkpt lat="60.98748" lon="5.18355">
        <ele>104.328422</ele>
        <time>2020-07-26T08:53:24.786Z</time>
      </trkpt>
      <trkpt lat="60.98756" lon="5.18344">
        <ele>104.993161</ele>
        <time>2020-07-26T08:53:29.796Z</time>
      </trkpt>
      <trkpt lat="60.98764" lon="5.18334">
        <ele>105.631658</ele>
        <time>2020-07-26T08:53:34.813Z</time>
      </trkpt>
      <trkpt lat="60.98772" lon="5.18321">
        <ele>106.358031</ele>
        <time>2020-07-26T08:53:40.794Z</time>
      </trkpt>
      <trkpt lat="60.98782" lon="5.18315">
        <ele>107.019008</ele>
        <time>2020-07-26T08:53:44.799Z</time>
      </trkpt>
      <trkpt lat="60.98791" lon="5.18309">
        <ele>107.715645</ele>
        <time>2020-07-26T08:53:49.808Z</time>
      </trkpt>
      <trkpt lat="60.98801" lon="5.18305">
        <ele>108.365741</ele>
        <time>2020-07-26T08:53:54.790Z</time>
      </trkpt>
      <trkpt lat="60.98811" lon="5.18301">
        <ele>108.72389</ele>
        <time>2020-07-26T08:54:00.835Z</time>
      </trkpt>
      <trkpt lat="60.98822" lon="5.18303">
        <ele>108.987589</ele>
        <time>2020-07-26T08:54:05.790Z</time>
      </trkpt>
      <trkpt lat="60.98832" lon="5.18309">
        <ele>109.242875</ele>
        <time>2020-07-26T08:54:09.798Z</time>
      </trkpt>
      <trkpt lat="60.98843" lon="5.18317">
        <ele>109.539621</ele>
        <time>2020-07-26T08:54:13.810Z</time>
      </trkpt>
      <trkpt lat="60.98852" lon="5.18331">
        <ele>109.813129</ele>
        <time>2020-07-26T08:54:16.806Z</time>
      </trkpt>
      <trkpt lat="60.98862" lon="5.1835">
        <ele>110.143673</ele>
        <time>2020-07-26T08:54:19.804Z</time>
      </trkpt>
      <trkpt lat="60.9887" lon="5.18366">
        <ele>110.415046</ele>
        <time>2020-07-26T08:54:21.799Z</time>
      </trkpt>
      <trkpt lat="60.98879" lon="5.18385">
        <ele>110.719723</ele>
        <time>2020-07-26T08:54:23.791Z</time>
      </trkpt>
      <trkpt lat="60.9889" lon="5.18404">
        <ele>111.081346</ele>
        <time>2020-07-26T08:54:25.835Z</time>
      </trkpt>
      <trkpt lat="60.98902" lon="5.18427">
        <ele>111.479717</ele>
        <time>2020-07-26T08:54:27.796Z</time>
      </trkpt>
      <trkpt lat="60.98914" lon="5.18451">
        <ele>111.904399</ele>
        <time>2020-07-26T08:54:29.834Z</time>
      </trkpt>
      <trkpt lat="60.98921" lon="5.18464">
        <ele>112.126125</ele>
        <time>2020-07-26T08:54:30.796Z</time>
      </trkpt>
      <trkpt lat="60.98928" lon="5.18476">
        <ele>112.351559</ele>
        <time>2020-07-26T08:54:31.819Z</time>
      </trkpt>
      <trkpt lat="60.98935" lon="5.18488">
        <ele>112.574343</ele>
        <time>2020-07-26T08:54:32.796Z</time>
      </trkpt>
      <trkpt lat="60.9895" lon="5.18508">
        <ele>112.747666</ele>
        <time>2020-07-26T08:54:34.811Z</time>
      </trkpt>
      <trkpt lat="60.98966" lon="5.18526">
        <ele>111.916058</ele>
        <time>2020-07-26T08:54:36.818Z</time>
      </trkpt>
      <trkpt lat="60.98973" lon="5.18536">
        <ele>111.499442</ele>
        <time>2020-07-26T08:54:37.808Z</time>
      </trkpt>
      <trkpt lat="60.98988" lon="5.18555">
        <ele>110.704528</ele>
        <time>2020-07-26T08:54:39.828Z</time>
      </trkpt>
      <trkpt lat="60.99003" lon="5.18577">
        <ele>109.865675</ele>
        <time>2020-07-26T08:54:41.816Z</time>
      </trkpt>
      <trkpt lat="60.99012" lon="5.18587">
        <ele>109.409412</ele>
        <time>2020-07-26T08:54:42.826Z</time>
      </trkpt>
      <trkpt lat="60.99021" lon="5.18597">
        <ele>108.925828</ele>
        <time>2020-07-26T08:54:43.811Z</time>
      </trkpt>
      <trkpt lat="60.9903" lon="5.18608">
        <ele>108.432037</ele>
        <time>2020-07-26T08:54:44.799Z</time>
      </trkpt>
      <trkpt lat="60.9904" lon="5.18619">
        <ele>107.929878</ele>
        <time>2020-07-26T08:54:45.796Z</time>
      </trkpt>
      <trkpt lat="60.99049" lon="5.18631">
        <ele>107.411272</ele>
        <time>2020-07-26T08:54:46.820Z</time>
      </trkpt>
      <trkpt lat="60.99059" lon="5.18644">
        <ele>106.880149</ele>
        <time>2020-07-26T08:54:47.833Z</time>
      </trkpt>
      <trkpt lat="60.99069" lon="5.18657">
        <ele>106.33727</ele>
        <time>2020-07-26T08:54:48.805Z</time>
      </trkpt>
      <trkpt lat="60.99079" lon="5.18669">
        <ele>105.796097</ele>
        <time>2020-07-26T08:54:49.832Z</time>
      </trkpt>
      <trkpt lat="60.9909" lon="5.18681">
        <ele>105.249111</ele>
        <time>2020-07-26T08:54:50.808Z</time>
      </trkpt>
      <trkpt lat="60.991" lon="5.18693">
        <ele>104.694846</ele>
        <time>2020-07-26T08:54:51.790Z</time>
      </trkpt>
      <trkpt lat="60.99111" lon="5.18704">
        <ele>103.789773</ele>
        <time>2020-07-26T08:54:52.799Z</time>
      </trkpt>
      <trkpt lat="60.99121" lon="5.18714">
        <ele>102.863307</ele>
        <time>2020-07-26T08:54:53.790Z</time>
      </trkpt>
      <trkpt lat="60.99131" lon="5.18724">
        <ele>101.968383</ele>
        <time>2020-07-26T08:54:54.806Z</time>
      </trkpt>
      <trkpt lat="60.99141" lon="5.18734">
        <ele>101.064686</ele>
        <time>2020-07-26T08:54:55.815Z</time>
      </trkpt>
      <trkpt lat="60.99151" lon="5.18746">
        <ele>100.179614</ele>
        <time>2020-07-26T08:54:56.789Z</time>
      </trkpt>
      <trkpt lat="60.9916" lon="5.18758">
        <ele>99.274729</ele>
        <time>2020-07-26T08:54:57.798Z</time>
      </trkpt>
      <trkpt lat="60.9917" lon="5.18769">
        <ele>98.376786</ele>
        <time>2020-07-26T08:54:58.797Z</time>
      </trkpt>
      <trkpt lat="60.9918" lon="5.18781">
        <ele>97.452085</ele>
        <time>2020-07-26T08:54:59.839Z</time>
      </trkpt>
      <trkpt lat="60.9919" lon="5.18794">
        <ele>96.521393</ele>
        <time>2020-07-26T08:55:00.835Z</time>
      </trkpt>
      <trkpt lat="60.992" lon="5.18806">
        <ele>95.575788</ele>
        <time>2020-07-26T08:55:01.821Z</time>
      </trkpt>
      <trkpt lat="60.9921" lon="5.18818">
        <ele>94.610387</ele>
        <time>2020-07-26T08:55:02.800Z</time>
      </trkpt>
      <trkpt lat="60.99221" lon="5.1883">
        <ele>93.646041</ele>
        <time>2020-07-26T08:55:03.820Z</time>
      </trkpt>
      <trkpt lat="60.99231" lon="5.18842">
        <ele>92.704284</ele>
        <time>2020-07-26T08:55:04.808Z</time>
      </trkpt>
      <trkpt lat="60.99241" lon="5.18853">
        <ele>91.754163</ele>
        <time>2020-07-26T08:55:05.838Z</time>
      </trkpt>
      <trkpt lat="60.99252" lon="5.18864">
        <ele>90.7804</ele>
        <time>2020-07-26T08:55:06.837Z</time>
      </trkpt>
      <trkpt lat="60.99263" lon="5.18874">
        <ele>89.864552</ele>
        <time>2020-07-26T08:55:07.796Z</time>
      </trkpt>
      <trkpt lat="60.99275" lon="5.18881">
        <ele>89.009371</ele>
        <time>2020-07-26T08:55:08.790Z</time>
      </trkpt>
      <trkpt lat="60.99287" lon="5.18887">
        <ele>88.13335</ele>
        <time>2020-07-26T08:55:09.800Z</time>
      </trkpt>
      <trkpt lat="60.99299" lon="5.1889">
        <ele>87.268179</ele>
        <time>2020-07-26T08:55:10.791Z</time>
      </trkpt>
      <trkpt lat="60.99312" lon="5.18891">
        <ele>86.388488</ele>
        <time>2020-07-26T08:55:11.818Z</time>
      </trkpt>
      <trkpt lat="60.99324" lon="5.18891">
        <ele>85.530926</ele>
        <time>2020-07-26T08:55:12.816Z</time>
      </trkpt>
      <trkpt lat="60.99336" lon="5.1889">
        <ele>84.686548</ele>
        <time>2020-07-26T08:55:13.790Z</time>
      </trkpt>
      <trkpt lat="60.99348" lon="5.18888">
        <ele>83.867492</ele>
        <time>2020-07-26T08:55:14.810Z</time>
      </trkpt>
      <trkpt lat="60.9936" lon="5.18885">
        <ele>83.045114</ele>
        <time>2020-07-26T08:55:15.829Z</time>
      </trkpt>
      <trkpt lat="60.99372" lon="5.18882">
        <ele>82.216649</ele>
        <time>2020-07-26T08:55:16.793Z</time>
      </trkpt>
      <trkpt lat="60.99383" lon="5.1888">
        <ele>81.413524</ele>
        <time>2020-07-26T08:55:17.852Z</time>
      </trkpt>
      <trkpt lat="60.99395" lon="5.1888">
        <ele>80.597788</ele>
        <time>2020-07-26T08:55:18.830Z</time>
      </trkpt>
      <trkpt lat="60.99406" lon="5.18881">
        <ele>79.79571</ele>
        <time>2020-07-26T08:55:19.809Z</time>
      </trkpt>
      <trkpt lat="60.99418" lon="5.18882">
        <ele>79.014536</ele>
        <time>2020-07-26T08:55:20.804Z</time>
      </trkpt>
      <trkpt lat="60.99429" lon="5.18883">
        <ele>78.224895</ele>
        <time>2020-07-26T08:55:21.815Z</time>
      </trkpt>
      <trkpt lat="60.99441" lon="5.18885">
        <ele>77.490729</ele>
        <time>2020-07-26T08:55:22.809Z</time>
      </trkpt>
      <trkpt lat="60.99452" lon="5.18887">
        <ele>77.006653</ele>
        <time>2020-07-26T08:55:23.787Z</time>
      </trkpt>
      <trkpt lat="60.99464" lon="5.18889">
        <ele>76.523422</ele>
        <time>2020-07-26T08:55:24.824Z</time>
      </trkpt>
      <trkpt lat="60.99475" lon="5.18889">
        <ele>76.066204</ele>
        <time>2020-07-26T08:55:25.811Z</time>
      </trkpt>
      <trkpt lat="60.99486" lon="5.18889">
        <ele>75.625428</ele>
        <time>2020-07-26T08:55:26.816Z</time>
      </trkpt>
      <trkpt lat="60.99496" lon="5.18886">
        <ele>75.195799</ele>
        <time>2020-07-26T08:55:27.790Z</time>
      </trkpt>
      <trkpt lat="60.99506" lon="5.18877">
        <ele>74.744169</ele>
        <time>2020-07-26T08:55:28.803Z</time>
      </trkpt>
      <trkpt lat="60.99517" lon="5.18866">
        <ele>74.257283</ele>
        <time>2020-07-26T08:55:29.824Z</time>
      </trkpt>
      <trkpt lat="60.99526" lon="5.18852">
        <ele>73.791771</ele>
        <time>2020-07-26T08:55:30.806Z</time>
      </trkpt>
      <trkpt lat="60.99533" lon="5.18835">
        <ele>73.334369</ele>
        <time>2020-07-26T08:55:31.785Z</time>
      </trkpt>
      <trkpt lat="60.9954" lon="5.18818">
        <ele>72.908793</ele>
        <time>2020-07-26T08:55:32.822Z</time>
      </trkpt>
      <trkpt lat="60.99544" lon="5.188">
        <ele>72.498749</ele>
        <time>2020-07-26T08:55:33.798Z</time>
      </trkpt>
      <trkpt lat="60.99547" lon="5.18781">
        <ele>72.100836</ele>
        <time>2020-07-26T08:55:34.815Z</time>
      </trkpt>
      <trkpt lat="60.9955" lon="5.18763">
        <ele>71.730116</ele>
        <time>2020-07-26T08:55:35.840Z</time>
      </trkpt>
      <trkpt lat="60.99553" lon="5.18728">
        <ele>71.015584</ele>
        <time>2020-07-26T08:55:37.813Z</time>
      </trkpt>
      <trkpt lat="60.99556" lon="5.18699">
        <ele>70.430541</ele>
        <time>2020-07-26T08:55:39.793Z</time>
      </trkpt>
      <trkpt lat="60.99558" lon="5.18675">
        <ele>70.567984</ele>
        <time>2020-07-26T08:55:41.794Z</time>
      </trkpt>
      <trkpt lat="60.9956" lon="5.18657">
        <ele>71.058556</ele>
        <time>2020-07-26T08:55:43.815Z</time>
      </trkpt>
      <trkpt lat="60.99563" lon="5.18636">
        <ele>71.629645</ele>
        <time>2020-07-26T08:55:46.801Z</time>
      </trkpt>
      <trkpt lat="60.99566" lon="5.18617">
        <ele>72.162054</ele>
        <time>2020-07-26T08:55:49.800Z</time>
      </trkpt>
      <trkpt lat="60.9957" lon="5.18597">
        <ele>72.722869</ele>
        <time>2020-07-26T08:55:53.805Z</time>
      </trkpt>
      <trkpt lat="60.99574" lon="5.18579">
        <ele>73.211362</ele>
        <time>2020-07-26T08:55:57.837Z</time>
      </trkpt>
      <trkpt lat="60.9958" lon="5.18562">
        <ele>73.77793</ele>
        <time>2020-07-26T08:56:02.802Z</time>
      </trkpt>
      <trkpt lat="60.99584" lon="5.18542">
        <ele>74.327088</ele>
        <time>2020-07-26T08:56:08.790Z</time>
      </trkpt>
      <trkpt lat="60.99591" lon="5.18526">
        <ele>74.884154</ele>
        <time>2020-07-26T08:56:13.802Z</time>
      </trkpt>
      <trkpt lat="60.99598" lon="5.18513">
        <ele>75.389567</ele>
        <time>2020-07-26T08:56:18.807Z</time>
      </trkpt>
      <trkpt lat="60.99605" lon="5.18503">
        <ele>75.877475</ele>
        <time>2020-07-26T08:56:22.810Z</time>
      </trkpt>
      <trkpt lat="60.99614" lon="5.18492">
        <ele>76.413696</ele>
        <time>2020-07-26T08:56:26.808Z</time>
      </trkpt>
      <trkpt lat="60.99624" lon="5.18486">
        <ele>77.004863</ele>
        <time>2020-07-26T08:56:30.812Z</time>
      </trkpt>
      <trkpt lat="60.99634" lon="5.18481">
        <ele>77.552997</ele>
        <time>2020-07-26T08:56:34.820Z</time>
      </trkpt>
      <trkpt lat="60.99643" lon="5.18478">
        <ele>78.044906</ele>
        <time>2020-07-26T08:56:38.795Z</time>
      </trkpt>
      <trkpt lat="60.99652" lon="5.18477">
        <ele>78.524721</ele>
        <time>2020-07-26T08:56:41.808Z</time>
      </trkpt>
      <trkpt lat="60.99665" lon="5.18476">
        <ele>79.195648</ele>
        <time>2020-07-26T08:56:44.800Z</time>
      </trkpt>
      <trkpt lat="60.99676" lon="5.18478">
        <ele>79.82</ele>
        <time>2020-07-26T08:56:47.791Z</time>
      </trkpt>
      <trkpt lat="60.99687" lon="5.1848">
        <ele>79.352314</ele>
        <time>2020-07-26T08:56:50.808Z</time>
      </trkpt>
      <trkpt lat="60.997" lon="5.18485">
        <ele>78.688059</ele>
        <time>2020-07-26T08:56:53.837Z</time>
      </trkpt>
      <trkpt lat="60.9971" lon="5.18489">
        <ele>78.181486</ele>
        <time>2020-07-26T08:56:55.811Z</time>
      </trkpt>
      <trkpt lat="60.99721" lon="5.18494">
        <ele>77.643362</ele>
        <time>2020-07-26T08:56:57.787Z</time>
      </trkpt>
      <trkpt lat="60.99732" lon="5.18501">
        <ele>77.05955</ele>
        <time>2020-07-26T08:56:59.790Z</time>
      </trkpt>
      <trkpt lat="60.99744" lon="5.18512">
        <ele>76.363571</ele>
        <time>2020-07-26T08:57:01.794Z</time>
      </trkpt>
      <trkpt lat="60.99757" lon="5.18525">
        <ele>75.660312</ele>
        <time>2020-07-26T08:57:03.839Z</time>
      </trkpt>
      <trkpt lat="60.99769" lon="5.1854">
        <ele>74.9314</ele>
        <time>2020-07-26T08:57:05.792Z</time>
      </trkpt>
      <trkpt lat="60.99781" lon="5.18559">
        <ele>74.172399</ele>
        <time>2020-07-26T08:57:07.788Z</time>
      </trkpt>
      <trkpt lat="60.99795" lon="5.1858">
        <ele>73.328346</ele>
        <time>2020-07-26T08:57:09.799Z</time>
      </trkpt>
      <trkpt lat="60.99808" lon="5.18602">
        <ele>72.452176</ele>
        <time>2020-07-26T08:57:11.784Z</time>
      </trkpt>
      <trkpt lat="60.99815" lon="5.18614">
        <ele>71.988062</ele>
        <time>2020-07-26T08:57:12.809Z</time>
      </trkpt>
      <trkpt lat="60.99822" lon="5.18627">
        <ele>71.516951</ele>
        <time>2020-07-26T08:57:13.812Z</time>
      </trkpt>
      <trkpt lat="60.9983" lon="5.18639">
        <ele>71.035706</ele>
        <time>2020-07-26T08:57:14.801Z</time>
      </trkpt>
      <trkpt lat="60.99837" lon="5.18653">
        <ele>70.513681</ele>
        <time>2020-07-26T08:57:15.821Z</time>
      </trkpt>
      <trkpt lat="60.99845" lon="5.18667">
        <ele>69.965704</ele>
        <time>2020-07-26T08:57:16.812Z</time>
      </trkpt>
      <trkpt lat="60.99853" lon="5.18681">
        <ele>69.406212</ele>
        <time>2020-07-26T08:57:17.823Z</time>
      </trkpt>
      <trkpt lat="60.99861" lon="5.18695">
        <ele>68.843365</ele>
        <time>2020-07-26T08:57:18.840Z</time>
      </trkpt>
      <trkpt lat="60.99869" lon="5.18709">
        <ele>68.276442</ele>
        <time>2020-07-26T08:57:19.794Z</time>
      </trkpt>
      <trkpt lat="60.99877" lon="5.18723">
        <ele>67.705088</ele>
        <time>2020-07-26T08:57:20.791Z</time>
      </trkpt>
      <trkpt lat="60.99885" lon="5.18739">
        <ele>67.12723</ele>
        <time>2020-07-26T08:57:21.802Z</time>
      </trkpt>
      <trkpt lat="60.99893" lon="5.18754">
        <ele>66.537538</ele>
        <time>2020-07-26T08:57:22.799Z</time>
      </trkpt>
      <trkpt lat="60.99901" lon="5.18769">
        <ele>65.955291</ele>
        <time>2020-07-26T08:57:23.812Z</time>
      </trkpt>
      <trkpt lat="60.9991" lon="5.18783">
        <ele>65.371826</ele>
        <time>2020-07-26T08:57:24.800Z</time>
      </trkpt>
      <trkpt lat="60.99918" lon="5.18797">
        <ele>64.794837</ele>
        <time>2020-07-26T08:57:25.784Z</time>
      </trkpt>
      <trkpt lat="60.99927" lon="5.1881">
        <ele>64.221854</ele>
        <time>2020-07-26T08:57:26.831Z</time>
      </trkpt>
      <trkpt lat="60.99936" lon="5.18821">
        <ele>63.667403</ele>
        <time>2020-07-26T08:57:27.789Z</time>
      </trkpt>
      <trkpt lat="60.99945" lon="5.1883">
        <ele>63.125343</ele>
        <time>2020-07-26T08:57:28.805Z</time>
      </trkpt>
      <trkpt lat="60.99954" lon="5.18837">
        <ele>62.608072</ele>
        <time>2020-07-26T08:57:29.796Z</time>
      </trkpt>
      <trkpt lat="60.99963" lon="5.18843">
        <ele>62.114004</ele>
        <time>2020-07-26T08:57:30.788Z</time>
      </trkpt>
      <trkpt lat="60.9998" lon="5.18848">
        <ele>61.193599</ele>
        <time>2020-07-26T08:57:32.791Z</time>
      </trkpt>
      <trkpt lat="60.99995" lon="5.1885">
        <ele>62.427962</ele>
        <time>2020-07-26T08:57:34.807Z</time>
      </trkpt>
      <trkpt lat="61.00008" lon="5.18848">
        <ele>63.460129</ele>
        <time>2020-07-26T08:57:36.809Z</time>
      </trkpt>
      <trkpt lat="61.00018" lon="5.18845">
        <ele>64.310645</ele>
        <time>2020-07-26T08:57:38.803Z</time>
      </trkpt>
      <trkpt lat="61.00027" lon="5.18842">
        <ele>65.071011</ele>
        <time>2020-07-26T08:57:40.811Z</time>
      </trkpt>
      <trkpt lat="61.00039" lon="5.18832">
        <ele>66.058225</ele>
        <time>2020-07-26T08:57:43.837Z</time>
      </trkpt>
      <trkpt lat="61.00047" lon="5.18821">
        <ele>66.914809</ele>
        <time>2020-07-26T08:57:46.794Z</time>
      </trkpt>
      <trkpt lat="61.00055" lon="5.18808">
        <ele>67.722076</ele>
        <time>2020-07-26T08:57:49.844Z</time>
      </trkpt>
      <trkpt lat="61.00062" lon="5.18797">
        <ele>68.463259</ele>
        <time>2020-07-26T08:57:52.794Z</time>
      </trkpt>
      <trkpt lat="61.00074" lon="5.18793">
        <ele>69.391964</ele>
        <time>2020-07-26T08:57:56.802Z</time>
      </trkpt>
      <trkpt lat="61.00082" lon="5.18804">
        <ele>70.164695</ele>
        <time>2020-07-26T08:58:01.825Z</time>
      </trkpt>
      <trkpt lat="61.00087" lon="5.18819">
        <ele>70.908878</ele>
        <time>2020-07-26T08:58:07.799Z</time>
      </trkpt>
      <trkpt lat="61.00094" lon="5.18832">
        <ele>71.699127</ele>
        <time>2020-07-26T08:58:13.791Z</time>
      </trkpt>
      <trkpt lat="61.00101" lon="5.18847">
        <ele>72.51025</ele>
        <time>2020-07-26T08:58:21.812Z</time>
      </trkpt>
      <trkpt lat="61.00109" lon="5.18861">
        <ele>73.354751</ele>
        <time>2020-07-26T08:58:29.807Z</time>
      </trkpt>
      <trkpt lat="61.00115" lon="5.18877">
        <ele>74.15158</ele>
        <time>2020-07-26T08:58:36.807Z</time>
      </trkpt>
      <trkpt lat="61.00121" lon="5.1889">
        <ele>74.900028</ele>
        <time>2020-07-26T08:58:43.825Z</time>
      </trkpt>
      <trkpt lat="61.00127" lon="5.18907">
        <ele>75.670163</ele>
        <time>2020-07-26T08:58:51.812Z</time>
      </trkpt>
      <trkpt lat="61.00133" lon="5.18921">
        <ele>76.45361</ele>
        <time>2020-07-26T08:58:58.787Z</time>
      </trkpt>
      <trkpt lat="61.00141" lon="5.18934">
        <ele>77.290779</ele>
        <time>2020-07-26T08:59:06.814Z</time>
      </trkpt>
      <trkpt lat="61.00149" lon="5.18947">
        <ele>78.082754</ele>
        <time>2020-07-26T08:59:14.804Z</time>
      </trkpt>
      <trkpt lat="61.00156" lon="5.18959">
        <ele>78.822256</ele>
        <time>2020-07-26T08:59:22.792Z</time>
      </trkpt>
      <trkpt lat="61.00165" lon="5.18964">
        <ele>79.630957</ele>
        <time>2020-07-26T08:59:30.810Z</time>
      </trkpt>
      <trkpt lat="61.00175" lon="5.18966">
        <ele>80.41569</ele>
        <time>2020-07-26T08:59:38.804Z</time>
      </trkpt>
      <trkpt lat="61.00184" lon="5.18965">
        <ele>81.165793</ele>
        <time>2020-07-26T08:59:45.793Z</time>
      </trkpt>
      <trkpt lat="61.00193" lon="5.18966">
        <ele>81.923904</ele>
        <time>2020-07-26T08:59:53.805Z</time>
      </trkpt>
      <trkpt lat="61.00203" lon="5.18963">
        <ele>82.715012</ele>
        <time>2020-07-26T09:00:01.837Z</time>
      </trkpt>
      <trkpt lat="61.00213" lon="5.1896">
        <ele>83.518643</ele>
        <time>2020-07-26T09:00:09.799Z</time>
      </trkpt>
      <trkpt lat="61.00222" lon="5.1896">
        <ele>84.300987</ele>
        <time>2020-07-26T09:00:17.834Z</time>
      </trkpt>
      <trkpt lat="61.00232" lon="5.18955">
        <ele>85.079294</ele>
        <time>2020-07-26T09:00:26.837Z</time>
      </trkpt>
      <trkpt lat="61.00241" lon="5.18954">
        <ele>85.814674</ele>
        <time>2020-07-26T09:00:34.831Z</time>
      </trkpt>
      <trkpt lat="61.0025" lon="5.18952">
        <ele>86.570237</ele>
        <time>2020-07-26T09:00:41.816Z</time>
      </trkpt>
      <trkpt lat="61.00259" lon="5.18956">
        <ele>87.363543</ele>
        <time>2020-07-26T09:00:48.810Z</time>
      </trkpt>
      <trkpt lat="61.00266" lon="5.18968">
        <ele>88.097825</ele>
        <time>2020-07-26T09:00:55.793Z</time>
      </trkpt>
      <trkpt lat="61.00275" lon="5.1898">
        <ele>88.934855</ele>
        <time>2020-07-26T09:01:01.816Z</time>
      </trkpt>
      <trkpt lat="61.00283" lon="5.18994">
        <ele>89.791179</ele>
        <time>2020-07-26T09:01:07.820Z</time>
      </trkpt>
      <trkpt lat="61.00293" lon="5.19001">
        <ele>90.428139</ele>
        <time>2020-07-26T09:01:12.791Z</time>
      </trkpt>
      <trkpt lat="61.00302" lon="5.19007">
        <ele>89.579267</ele>
        <time>2020-07-26T09:01:17.796Z</time>
      </trkpt>
      <trkpt lat="61.00312" lon="5.19012">
        <ele>88.708758</ele>
        <time>2020-07-26T09:01:22.808Z</time>
      </trkpt>
      <trkpt lat="61.00321" lon="5.19018">
        <ele>87.881064</ele>
        <time>2020-07-26T09:01:26.833Z</time>
      </trkpt>
      <trkpt lat="61.00329" lon="5.19025">
        <ele>87.08298</ele>
        <time>2020-07-26T09:01:30.804Z</time>
      </trkpt>
      <trkpt lat="61.00338" lon="5.19031">
        <ele>86.259163</ele>
        <time>2020-07-26T09:01:33.809Z</time>
      </trkpt>
      <trkpt lat="61.0035" lon="5.19037">
        <ele>85.203735</ele>
        <time>2020-07-26T09:01:36.795Z</time>
      </trkpt>
      <trkpt lat="61.0036" lon="5.19046">
        <ele>84.240792</ele>
        <time>2020-07-26T09:01:39.821Z</time>
      </trkpt>
      <trkpt lat="61.00368" lon="5.19057">
        <ele>83.398132</ele>
        <time>2020-07-26T09:01:44.793Z</time>
      </trkpt>
      <trkpt lat="61.00374" lon="5.19073">
        <ele>82.550321</ele>
        <time>2020-07-26T09:01:49.812Z</time>
      </trkpt>
      <trkpt lat="61.00381" lon="5.19092">
        <ele>81.530905</ele>
        <time>2020-07-26T09:01:53.825Z</time>
      </trkpt>
      <trkpt lat="61.00386" lon="5.19109">
        <ele>80.70203</ele>
        <time>2020-07-26T09:01:58.808Z</time>
      </trkpt>
      <trkpt lat="61.0039" lon="5.19132">
        <ele>79.674464</ele>
        <time>2020-07-26T09:02:02.813Z</time>
      </trkpt>
      <trkpt lat="61.00395" lon="5.19156">
        <ele>78.564942</ele>
        <time>2020-07-26T09:02:05.809Z</time>
      </trkpt>
      <trkpt lat="61.004" lon="5.19181">
        <ele>77.41457</ele>
        <time>2020-07-26T09:02:08.830Z</time>
      </trkpt>
      <trkpt lat="61.00405" lon="5.19206">
        <ele>76.274418</ele>
        <time>2020-07-26T09:02:11.824Z</time>
      </trkpt>
      <trkpt lat="61.00408" lon="5.19226">
        <ele>75.391654</ele>
        <time>2020-07-26T09:02:13.807Z</time>
      </trkpt>
      <trkpt lat="61.0041" lon="5.19246">
        <ele>74.561069</ele>
        <time>2020-07-26T09:02:15.784Z</time>
      </trkpt>
      <trkpt lat="61.00412" lon="5.19264">
        <ele>73.809217</ele>
        <time>2020-07-26T09:02:17.826Z</time>
      </trkpt>
      <trkpt lat="61.00423" lon="5.19272">
        <ele>72.886317</ele>
        <time>2020-07-26T09:02:20.820Z</time>
      </trkpt>
      <trkpt lat="61.00433" lon="5.19257">
        <ele>71.931988</ele>
        <time>2020-07-26T09:02:22.832Z</time>
      </trkpt>
      <trkpt lat="61.00441" lon="5.19236">
        <ele>70.873196</ele>
        <time>2020-07-26T09:02:24.799Z</time>
      </trkpt>
      <trkpt lat="61.00449" lon="5.19217">
        <ele>69.933735</ele>
        <time>2020-07-26T09:02:26.799Z</time>
      </trkpt>
      <trkpt lat="61.00456" lon="5.19203">
        <ele>69.131076</ele>
        <time>2020-07-26T09:02:28.796Z</time>
      </trkpt>
      <trkpt lat="61.00465" lon="5.1919">
        <ele>68.267814</ele>
        <time>2020-07-26T09:02:30.798Z</time>
      </trkpt>
      <trkpt lat="61.00475" lon="5.19181">
        <ele>67.407306</ele>
        <time>2020-07-26T09:02:32.801Z</time>
      </trkpt>
      <trkpt lat="61.00487" lon="5.19175">
        <ele>66.404144</ele>
        <time>2020-07-26T09:02:35.805Z</time>
      </trkpt>
      <trkpt lat="61.00496" lon="5.19173">
        <ele>65.639157</ele>
        <time>2020-07-26T09:02:38.789Z</time>
      </trkpt>
      <trkpt lat="61.00508" lon="5.19179">
        <ele>64.652334</ele>
        <time>2020-07-26T09:02:41.806Z</time>
      </trkpt>
      <trkpt lat="61.00518" lon="5.19189">
        <ele>63.776714</ele>
        <time>2020-07-26T09:02:43.820Z</time>
      </trkpt>
      <trkpt lat="61.0053" lon="5.19201">
        <ele>62.755555</ele>
        <time>2020-07-26T09:02:45.819Z</time>
      </trkpt>
      <trkpt lat="61.00542" lon="5.19213">
        <ele>61.67779</ele>
        <time>2020-07-26T09:02:47.806Z</time>
      </trkpt>
      <trkpt lat="61.00554" lon="5.19225">
        <ele>60.581212</ele>
        <time>2020-07-26T09:02:49.814Z</time>
      </trkpt>
      <trkpt lat="61.00566" lon="5.19235">
        <ele>61.075631</ele>
        <time>2020-07-26T09:02:51.785Z</time>
      </trkpt>
      <trkpt lat="61.00578" lon="5.19243">
        <ele>61.722921</ele>
        <time>2020-07-26T09:02:53.817Z</time>
      </trkpt>
      <trkpt lat="61.00588" lon="5.1925">
        <ele>62.30143</ele>
        <time>2020-07-26T09:02:55.790Z</time>
      </trkpt>
      <trkpt lat="61.00598" lon="5.19255">
        <ele>62.821878</ele>
        <time>2020-07-26T09:02:57.808Z</time>
      </trkpt>
      <trkpt lat="61.00607" lon="5.19259">
        <ele>63.294532</ele>
        <time>2020-07-26T09:02:59.787Z</time>
      </trkpt>
      <trkpt lat="61.00617" lon="5.19263">
        <ele>63.848319</ele>
        <time>2020-07-26T09:03:02.806Z</time>
      </trkpt>
      <trkpt lat="61.00627" lon="5.19267">
        <ele>64.368945</ele>
        <time>2020-07-26T09:03:06.793Z</time>
      </trkpt>
      <trkpt lat="61.00637" lon="5.19272">
        <ele>64.881445</ele>
        <time>2020-07-26T09:03:10.819Z</time>
      </trkpt>
      <trkpt lat="61.00648" lon="5.19276">
        <ele>65.457199</ele>
        <time>2020-07-26T09:03:15.855Z</time>
      </trkpt>
      <trkpt lat="61.00658" lon="5.1928">
        <ele>65.985794</ele>
        <time>2020-07-26T09:03:20.787Z</time>
      </trkpt>
      <trkpt lat="61.00667" lon="5.19282">
        <ele>66.467906</ele>
        <time>2020-07-26T09:03:25.800Z</time>
      </trkpt>
      <trkpt lat="61.00676" lon="5.19285">
        <ele>66.97596</ele>
        <time>2020-07-26T09:03:31.808Z</time>
      </trkpt>
      <trkpt lat="61.00685" lon="5.1929">
        <ele>67.463639</ele>
        <time>2020-07-26T09:03:37.811Z</time>
      </trkpt>
      <trkpt lat="61.00694" lon="5.19295">
        <ele>67.938659</ele>
        <time>2020-07-26T09:03:43.825Z</time>
      </trkpt>
      <trkpt lat="61.00703" lon="5.19299">
        <ele>68.422486</ele>
        <time>2020-07-26T09:03:50.798Z</time>
      </trkpt>
      <trkpt lat="61.00712" lon="5.19304">
        <ele>68.900642</ele>
        <time>2020-07-26T09:03:57.836Z</time>
      </trkpt>
      <trkpt lat="61.00721" lon="5.19312">
        <ele>69.39301</ele>
        <time>2020-07-26T09:04:04.802Z</time>
      </trkpt>
      <trkpt lat="61.0073" lon="5.19318">
        <ele>69.91616</ele>
        <time>2020-07-26T09:04:11.795Z</time>
      </trkpt>
      <trkpt lat="61.00739" lon="5.19325">
        <ele>70.936267</ele>
        <time>2020-07-26T09:04:18.803Z</time>
      </trkpt>
      <trkpt lat="61.00748" lon="5.19336">
        <ele>71.936195</ele>
        <time>2020-07-26T09:04:27.800Z</time>
      </trkpt>
      <trkpt lat="61.00756" lon="5.19346">
        <ele>72.898943</ele>
        <time>2020-07-26T09:04:35.788Z</time>
      </trkpt>
      <trkpt lat="61.00764" lon="5.19356">
        <ele>73.86494</ele>
        <time>2020-07-26T09:04:43.839Z</time>
      </trkpt>
      <trkpt lat="61.00771" lon="5.19368">
        <ele>74.795383</ele>
        <time>2020-07-26T09:04:50.793Z</time>
      </trkpt>
      <trkpt lat="61.00779" lon="5.19377">
        <ele>75.697544</ele>
        <time>2020-07-26T09:04:57.814Z</time>
      </trkpt>
      <trkpt lat="61.00789" lon="5.19384">
        <ele>76.730341</ele>
        <time>2020-07-26T09:05:05.809Z</time>
      </trkpt>
      <trkpt lat="61.00797" lon="5.19394">
        <ele>77.649996</ele>
        <time>2020-07-26T09:05:12.796Z</time>
      </trkpt>
      <trkpt lat="61.00804" lon="5.19407">
        <ele>78.632929</ele>
        <time>2020-07-26T09:05:20.837Z</time>
      </trkpt>
      <trkpt lat="61.00812" lon="5.19419">
        <ele>79.610805</ele>
        <time>2020-07-26T09:05:29.793Z</time>
      </trkpt>
      <trkpt lat="61.0082" lon="5.19431">
        <ele>80.613529</ele>
        <time>2020-07-26T09:05:36.829Z</time>
      </trkpt>
      <trkpt lat="61.00828" lon="5.19441">
        <ele>81.572235</ele>
        <time>2020-07-26T09:05:43.790Z</time>
      </trkpt>
      <trkpt lat="61.00836" lon="5.19453">
        <ele>82.555303</ele>
        <time>2020-07-26T09:05:50.808Z</time>
      </trkpt>
      <trkpt lat="61.00844" lon="5.19464">
        <ele>83.496802</ele>
        <time>2020-07-26T09:05:57.812Z</time>
      </trkpt>
      <trkpt lat="61.00851" lon="5.19476">
        <ele>84.441787</ele>
        <time>2020-07-26T09:06:05.815Z</time>
      </trkpt>
      <trkpt lat="61.00859" lon="5.19487">
        <ele>85.416183</ele>
        <time>2020-07-26T09:06:13.806Z</time>
      </trkpt>
      <trkpt lat="61.00868" lon="5.19498">
        <ele>86.431639</ele>
        <time>2020-07-26T09:06:22.837Z</time>
      </trkpt>
      <trkpt lat="61.00876" lon="5.19508">
        <ele>87.342623</ele>
        <time>2020-07-26T09:06:29.808Z</time>
      </trkpt>
      <trkpt lat="61.00885" lon="5.19516">
        <ele>88.27072</ele>
        <time>2020-07-26T09:06:37.828Z</time>
      </trkpt>
      <trkpt lat="61.00893" lon="5.19524">
        <ele>89.072612</ele>
        <time>2020-07-26T09:06:45.848Z</time>
      </trkpt>
      <trkpt lat="61.00902" lon="5.19531">
        <ele>89.867858</ele>
        <time>2020-07-26T09:06:52.808Z</time>
      </trkpt>
      <trkpt lat="61.0091" lon="5.19539">
        <ele>90.646192</ele>
        <time>2020-07-26T09:06:59.819Z</time>
      </trkpt>
      <trkpt lat="61.00919" lon="5.19545">
        <ele>91.449474</ele>
        <time>2020-07-26T09:07:07.795Z</time>
      </trkpt>
      <trkpt lat="61.00928" lon="5.1955">
        <ele>92.311303</ele>
        <time>2020-07-26T09:07:15.833Z</time>
      </trkpt>
      <trkpt lat="61.00938" lon="5.19554">
        <ele>93.130188</ele>
        <time>2020-07-26T09:07:23.808Z</time>
      </trkpt>
      <trkpt lat="61.00947" lon="5.19555">
        <ele>93.958974</ele>
        <time>2020-07-26T09:07:30.789Z</time>
      </trkpt>
      <trkpt lat="61.00957" lon="5.1956">
        <ele>94.828175</ele>
        <time>2020-07-26T09:07:37.805Z</time>
      </trkpt>
      <trkpt lat="61.00966" lon="5.19561">
        <ele>95.633747</ele>
        <time>2020-07-26T09:07:43.795Z</time>
      </trkpt>
      <trkpt lat="61.00977" lon="5.19563">
        <ele>96.524776</ele>
        <time>2020-07-26T09:07:50.806Z</time>
      </trkpt>
      <trkpt lat="61.00986" lon="5.19564">
        <ele>97.343934</ele>
        <time>2020-07-26T09:07:58.798Z</time>
      </trkpt>
      <trkpt lat="61.00996" lon="5.19562">
        <ele>98.190707</ele>
        <time>2020-07-26T09:08:07.831Z</time>
      </trkpt>
      <trkpt lat="61.01006" lon="5.19561">
        <ele>99.030213</ele>
        <time>2020-07-26T09:08:15.814Z</time>
      </trkpt>
      <trkpt lat="61.01015" lon="5.19558">
        <ele>99.813004</ele>
        <time>2020-07-26T09:08:22.804Z</time>
      </trkpt>
      <trkpt lat="61.01024" lon="5.19555">
        <ele>100.589042</ele>
        <time>2020-07-26T09:08:29.799Z</time>
      </trkpt>
      <trkpt lat="61.01034" lon="5.19553">
        <ele>101.46693</ele>
        <time>2020-07-26T09:08:36.811Z</time>
      </trkpt>
      <trkpt lat="61.01043" lon="5.19547">
        <ele>102.296152</ele>
        <time>2020-07-26T09:08:43.787Z</time>
      </trkpt>
      <trkpt lat="61.01052" lon="5.1954">
        <ele>103.142546</ele>
        <time>2020-07-26T09:08:51.822Z</time>
      </trkpt>
      <trkpt lat="61.01061" lon="5.19531">
        <ele>104.083423</ele>
        <time>2020-07-26T09:08:59.800Z</time>
      </trkpt>
      <trkpt lat="61.01071" lon="5.19525">
        <ele>105.126589</ele>
        <time>2020-07-26T09:09:08.798Z</time>
      </trkpt>
      <trkpt lat="61.0108" lon="5.19516">
        <ele>106.136893</ele>
        <time>2020-07-26T09:09:16.791Z</time>
      </trkpt>
      <trkpt lat="61.01088" lon="5.19504">
        <ele>107.146133</ele>
        <time>2020-07-26T09:09:24.794Z</time>
      </trkpt>
      <trkpt lat="61.01095" lon="5.19492">
        <ele>108.107479</ele>
        <time>2020-07-26T09:09:31.806Z</time>
      </trkpt>
      <trkpt lat="61.01104" lon="5.19484">
        <ele>109.076194</ele>
        <time>2020-07-26T09:09:38.804Z</time>
      </trkpt>
      <trkpt lat="61.01111" lon="5.19473">
        <ele>109.995337</ele>
        <time>2020-07-26T09:09:45.839Z</time>
      </trkpt>
      <trkpt lat="61.01119" lon="5.19459">
        <ele>111.018507</ele>
        <time>2020-07-26T09:09:54.797Z</time>
      </trkpt>
      <trkpt lat="61.01127" lon="5.19447">
        <ele>112.042092</ele>
        <time>2020-07-26T09:10:02.812Z</time>
      </trkpt>
      <trkpt lat="61.01136" lon="5.19439">
        <ele>113.002911</ele>
        <time>2020-07-26T09:10:09.813Z</time>
      </trkpt>
      <trkpt lat="61.01144" lon="5.19427">
        <ele>114.01196</ele>
        <time>2020-07-26T09:10:17.807Z</time>
      </trkpt>
      <trkpt lat="61.01151" lon="5.19414">
        <ele>114.964508</ele>
        <time>2020-07-26T09:10:25.811Z</time>
      </trkpt>
      <trkpt lat="61.01158" lon="5.19401">
        <ele>115.927906</ele>
        <time>2020-07-26T09:10:33.809Z</time>
      </trkpt>
      <trkpt lat="61.01167" lon="5.19392">
        <ele>116.976476</ele>
        <time>2020-07-26T09:10:41.789Z</time>
      </trkpt>
      <trkpt lat="61.01175" lon="5.19381">
        <ele>117.896342</ele>
        <time>2020-07-26T09:10:48.797Z</time>
      </trkpt>
      <trkpt lat="61.01184" lon="5.19372">
        <ele>118.920538</ele>
        <time>2020-07-26T09:10:56.811Z</time>
      </trkpt>
      <trkpt lat="61.01193" lon="5.19361">
        <ele>119.957207</ele>
        <time>2020-07-26T09:11:04.808Z</time>
      </trkpt>
      <trkpt lat="61.01201" lon="5.19356">
        <ele>120.896309</ele>
        <time>2020-07-26T09:11:11.796Z</time>
      </trkpt>
      <trkpt lat="61.01211" lon="5.19349">
        <ele>121.863205</ele>
        <time>2020-07-26T09:11:18.839Z</time>
      </trkpt>
      <trkpt lat="61.0122" lon="5.19346">
        <ele>122.669542</ele>
        <time>2020-07-26T09:11:25.819Z</time>
      </trkpt>
      <trkpt lat="61.01229" lon="5.19342">
        <ele>123.428212</ele>
        <time>2020-07-26T09:11:34.833Z</time>
      </trkpt>
      <trkpt lat="61.01239" lon="5.19341">
        <ele>124.194483</ele>
        <time>2020-07-26T09:11:43.826Z</time>
      </trkpt>
      <trkpt lat="61.01248" lon="5.1934">
        <ele>125.01573</ele>
        <time>2020-07-26T09:11:51.810Z</time>
      </trkpt>
      <trkpt lat="61.01258" lon="5.19336">
        <ele>125.817364</ele>
        <time>2020-07-26T09:11:59.824Z</time>
      </trkpt>
      <trkpt lat="61.01267" lon="5.19337">
        <ele>126.580479</ele>
        <time>2020-07-26T09:12:06.789Z</time>
      </trkpt>
      <trkpt lat="61.01277" lon="5.19337">
        <ele>127.368245</ele>
        <time>2020-07-26T09:12:12.802Z</time>
      </trkpt>
      <trkpt lat="61.01286" lon="5.19337">
        <ele>128.180856</ele>
        <time>2020-07-26T09:12:20.805Z</time>
      </trkpt>
      <trkpt lat="61.01296" lon="5.19337">
        <ele>128.935414</ele>
        <time>2020-07-26T09:12:27.804Z</time>
      </trkpt>
      <trkpt lat="61.01306" lon="5.19337">
        <ele>129.781192</ele>
        <time>2020-07-26T09:12:35.812Z</time>
      </trkpt>
      <trkpt lat="61.01316" lon="5.19333">
        <ele>130.638574</ele>
        <time>2020-07-26T09:12:43.805Z</time>
      </trkpt>
      <trkpt lat="61.01325" lon="5.19327">
        <ele>131.454445</ele>
        <time>2020-07-26T09:12:51.804Z</time>
      </trkpt>
      <trkpt lat="61.01334" lon="5.1932">
        <ele>132.21941</ele>
        <time>2020-07-26T09:12:58.819Z</time>
      </trkpt>
      <trkpt lat="61.01342" lon="5.19306">
        <ele>133.090383</ele>
        <time>2020-07-26T09:13:05.788Z</time>
      </trkpt>
      <trkpt lat="61.01349" lon="5.19292">
        <ele>133.927764</ele>
        <time>2020-07-26T09:13:11.820Z</time>
      </trkpt>
      <trkpt lat="61.01357" lon="5.19279">
        <ele>134.719483</ele>
        <time>2020-07-26T09:13:17.807Z</time>
      </trkpt>
      <trkpt lat="61.01364" lon="5.19267">
        <ele>135.483021</ele>
        <time>2020-07-26T09:13:23.807Z</time>
      </trkpt>
      <trkpt lat="61.0137" lon="5.19253">
        <ele>136.268236</ele>
        <time>2020-07-26T09:13:29.806Z</time>
      </trkpt>
      <trkpt lat="61.01378" lon="5.19241">
        <ele>136.93245</ele>
        <time>2020-07-26T09:13:36.808Z</time>
      </trkpt>
      <trkpt lat="61.01385" lon="5.19228">
        <ele>137.450757</ele>
        <time>2020-07-26T09:13:42.796Z</time>
      </trkpt>
      <trkpt lat="61.01393" lon="5.19215">
        <ele>138.015732</ele>
        <time>2020-07-26T09:13:48.802Z</time>
      </trkpt>
      <trkpt lat="61.014" lon="5.19203">
        <ele>138.531522</ele>
        <time>2020-07-26T09:13:53.808Z</time>
      </trkpt>
      <trkpt lat="61.01408" lon="5.19191">
        <ele>139.072091</ele>
        <time>2020-07-26T09:13:59.808Z</time>
      </trkpt>
      <trkpt lat="61.01414" lon="5.19176">
        <ele>139.607504</ele>
        <time>2020-07-26T09:14:05.810Z</time>
      </trkpt>
      <trkpt lat="61.01422" lon="5.19161">
        <ele>140.201174</ele>
        <time>2020-07-26T09:14:12.802Z</time>
      </trkpt>
      <trkpt lat="61.01428" lon="5.19146">
        <ele>140.736972</ele>
        <time>2020-07-26T09:14:18.819Z</time>
      </trkpt>
      <trkpt lat="61.01436" lon="5.19133">
        <ele>141.316337</ele>
        <time>2020-07-26T09:14:24.810Z</time>
      </trkpt>
      <trkpt lat="61.01444" lon="5.19119">
        <ele>141.893745</ele>
        <time>2020-07-26T09:14:29.794Z</time>
      </trkpt>
      <trkpt lat="61.01451" lon="5.19105">
        <ele>142.431317</ele>
        <time>2020-07-26T09:14:35.816Z</time>
      </trkpt>
      <trkpt lat="61.01458" lon="5.19093">
        <ele>142.960915</ele>
        <time>2020-07-26T09:14:42.796Z</time>
      </trkpt>
      <trkpt lat="61.01466" lon="5.19081">
        <ele>143.487146</ele>
        <time>2020-07-26T09:14:48.792Z</time>
      </trkpt>
      <trkpt lat="61.01475" lon="5.19074">
        <ele>144.048726</ele>
        <time>2020-07-26T09:14:54.846Z</time>
      </trkpt>
      <trkpt lat="61.01485" lon="5.19067">
        <ele>144.622657</ele>
        <time>2020-07-26T09:15:00.797Z</time>
      </trkpt>
      <trkpt lat="61.01494" lon="5.19061">
        <ele>145.16465</ele>
        <time>2020-07-26T09:15:05.793Z</time>
      </trkpt>
      <trkpt lat="61.01503" lon="5.19056">
        <ele>145.70201</ele>
        <time>2020-07-26T09:15:10.848Z</time>
      </trkpt>
      <trkpt lat="61.01513" lon="5.19049">
        <ele>146.245981</ele>
        <time>2020-07-26T09:15:15.800Z</time>
      </trkpt>
      <trkpt lat="61.01521" lon="5.19043">
        <ele>146.810748</ele>
        <time>2020-07-26T09:15:20.794Z</time>
      </trkpt>
      <trkpt lat="61.01531" lon="5.19036">
        <ele>147.583727</ele>
        <time>2020-07-26T09:15:25.827Z</time>
      </trkpt>
      <trkpt lat="61.01541" lon="5.19029">
        <ele>148.412843</ele>
        <time>2020-07-26T09:15:30.832Z</time>
      </trkpt>
      <trkpt lat="61.01552" lon="5.19024">
        <ele>149.309186</ele>
        <time>2020-07-26T09:15:34.803Z</time>
      </trkpt>
      <trkpt lat="61.01563" lon="5.19019">
        <ele>150.127634</ele>
        <time>2020-07-26T09:15:38.832Z</time>
      </trkpt>
      <trkpt lat="61.01574" lon="5.19014">
        <ele>151.024711</ele>
        <time>2020-07-26T09:15:42.817Z</time>
      </trkpt>
      <trkpt lat="61.01584" lon="5.19011">
        <ele>151.772506</ele>
        <time>2020-07-26T09:15:45.819Z</time>
      </trkpt>
      <trkpt lat="61.01594" lon="5.19008">
        <ele>152.562892</ele>
        <time>2020-07-26T09:15:49.796Z</time>
      </trkpt>
      <trkpt lat="61.01604" lon="5.19009">
        <ele>153.352936</ele>
        <time>2020-07-26T09:15:53.807Z</time>
      </trkpt>
      <trkpt lat="61.01615" lon="5.19009">
        <ele>154.196457</ele>
        <time>2020-07-26T09:15:58.795Z</time>
      </trkpt>
      <trkpt lat="61.01626" lon="5.19012">
        <ele>155.105546</ele>
        <time>2020-07-26T09:16:02.818Z</time>
      </trkpt>
      <trkpt lat="61.01635" lon="5.19014">
        <ele>155.807482</ele>
        <time>2020-07-26T09:16:05.819Z</time>
      </trkpt>
      <trkpt lat="61.01646" lon="5.19014">
        <ele>156.619664</ele>
        <time>2020-07-26T09:16:08.796Z</time>
      </trkpt>
      <trkpt lat="61.01658" lon="5.19013">
        <ele>157.564231</ele>
        <time>2020-07-26T09:16:11.826Z</time>
      </trkpt>
      <trkpt lat="61.01668" lon="5.19012">
        <ele>158.346551</ele>
        <time>2020-07-26T09:16:14.803Z</time>
      </trkpt>
      <trkpt lat="61.01681" lon="5.1901">
        <ele>159.301204</ele>
        <time>2020-07-26T09:16:18.838Z</time>
      </trkpt>
      <trkpt lat="61.0169" lon="5.19012">
        <ele>160.071001</ele>
        <time>2020-07-26T09:16:21.820Z</time>
      </trkpt>
      <trkpt lat="61.01701" lon="5.19015">
        <ele>160.604866</ele>
        <time>2020-07-26T09:16:25.812Z</time>
      </trkpt>
      <trkpt lat="61.0171" lon="5.19017">
        <ele>160.681368</ele>
        <time>2020-07-26T09:16:29.815Z</time>
      </trkpt>
      <trkpt lat="61.01721" lon="5.19019">
        <ele>160.768739</ele>
        <time>2020-07-26T09:16:34.813Z</time>
      </trkpt>
      <trkpt lat="61.01731" lon="5.1902">
        <ele>160.856796</ele>
        <time>2020-07-26T09:16:39.828Z</time>
      </trkpt>
      <trkpt lat="61.0174" lon="5.19025">
        <ele>160.935293</ele>
        <time>2020-07-26T09:16:43.797Z</time>
      </trkpt>
      <trkpt lat="61.01751" lon="5.19028">
        <ele>161.025548</ele>
        <time>2020-07-26T09:16:48.808Z</time>
      </trkpt>
      <trkpt lat="61.01763" lon="5.19031">
        <ele>161.120498</ele>
        <time>2020-07-26T09:16:53.815Z</time>
      </trkpt>
      <trkpt lat="61.01773" lon="5.1903">
        <ele>161.206642</ele>
        <time>2020-07-26T09:16:57.789Z</time>
      </trkpt>
      <trkpt lat="61.01784" lon="5.19031">
        <ele>161.301129</ele>
        <time>2020-07-26T09:17:02.811Z</time>
      </trkpt>
      <trkpt lat="61.01795" lon="5.19033">
        <ele>161.389325</ele>
        <time>2020-07-26T09:17:06.799Z</time>
      </trkpt>
      <trkpt lat="61.01805" lon="5.19036">
        <ele>161.471211</ele>
        <time>2020-07-26T09:17:10.798Z</time>
      </trkpt>
      <trkpt lat="61.01815" lon="5.19038">
        <ele>161.555108</ele>
        <time>2020-07-26T09:17:14.819Z</time>
      </trkpt>
      <trkpt lat="61.01825" lon="5.1904">
        <ele>161.638444</ele>
        <time>2020-07-26T09:17:18.808Z</time>
      </trkpt>
      <trkpt lat="61.01835" lon="5.19043">
        <ele>161.721566</ele>
        <time>2020-07-26T09:17:22.828Z</time>
      </trkpt>
      <trkpt lat="61.01844" lon="5.19047">
        <ele>161.802171</ele>
        <time>2020-07-26T09:17:26.819Z</time>
      </trkpt>
      <trkpt lat="61.01854" lon="5.19048">
        <ele>161.881973</ele>
        <time>2020-07-26T09:17:30.808Z</time>
      </trkpt>
      <trkpt lat="61.01865" lon="5.19047">
        <ele>161.970888</ele>
        <time>2020-07-26T09:17:35.798Z</time>
      </trkpt>
      <trkpt lat="61.01876" lon="5.19045">
        <ele>162.059857</ele>
        <time>2020-07-26T09:17:40.789Z</time>
      </trkpt>
      <trkpt lat="61.01886" lon="5.19046">
        <ele>161.64265</ele>
        <time>2020-07-26T09:17:44.836Z</time>
      </trkpt>
      <trkpt lat="61.01898" lon="5.19045">
        <ele>161.197971</ele>
        <time>2020-07-26T09:17:48.824Z</time>
      </trkpt>
      <trkpt lat="61.01907" lon="5.19044">
        <ele>160.842199</ele>
        <time>2020-07-26T09:17:51.804Z</time>
      </trkpt>
      <trkpt lat="61.01918" lon="5.19044">
        <ele>160.405454</ele>
        <time>2020-07-26T09:17:55.811Z</time>
      </trkpt>
      <trkpt lat="61.01928" lon="5.19045">
        <ele>160.007494</ele>
        <time>2020-07-26T09:17:59.806Z</time>
      </trkpt>
      <trkpt lat="61.0194" lon="5.19047">
        <ele>159.558647</ele>
        <time>2020-07-26T09:18:03.810Z</time>
      </trkpt>
      <trkpt lat="61.01951" lon="5.1905">
        <ele>159.106417</ele>
        <time>2020-07-26T09:18:07.816Z</time>
      </trkpt>
      <trkpt lat="61.0196" lon="5.19052">
        <ele>158.745024</ele>
        <time>2020-07-26T09:18:10.825Z</time>
      </trkpt>
      <trkpt lat="61.0197" lon="5.19057">
        <ele>158.362186</ele>
        <time>2020-07-26T09:18:13.808Z</time>
      </trkpt>
      <trkpt lat="61.01982" lon="5.19062">
        <ele>157.887346</ele>
        <time>2020-07-26T09:18:16.799Z</time>
      </trkpt>
      <trkpt lat="61.01995" lon="5.19071">
        <ele>157.355326</ele>
        <time>2020-07-26T09:18:19.808Z</time>
      </trkpt>
      <trkpt lat="61.02004" lon="5.19076">
        <ele>156.984711</ele>
        <time>2020-07-26T09:18:21.815Z</time>
      </trkpt>
      <trkpt lat="61.02013" lon="5.19081">
        <ele>156.62426</ele>
        <time>2020-07-26T09:18:23.798Z</time>
      </trkpt>
      <trkpt lat="61.02022" lon="5.19084">
        <ele>156.272816</ele>
        <time>2020-07-26T09:18:25.810Z</time>
      </trkpt>
      <trkpt lat="61.02031" lon="5.19087">
        <ele>155.894423</ele>
        <time>2020-07-26T09:18:27.797Z</time>
      </trkpt>
      <trkpt lat="61.02042" lon="5.19088">
        <ele>155.46492</ele>
        <time>2020-07-26T09:18:29.824Z</time>
      </trkpt>
      <trkpt lat="61.02053" lon="5.19087">
        <ele>155.058981</ele>
        <time>2020-07-26T09:18:31.817Z</time>
      </trkpt>
      <trkpt lat="61.02064" lon="5.19085">
        <ele>154.491392</ele>
        <time>2020-07-26T09:18:33.808Z</time>
      </trkpt>
      <trkpt lat="61.02076" lon="5.19082">
        <ele>153.851927</ele>
        <time>2020-07-26T09:18:35.799Z</time>
      </trkpt>
      <trkpt lat="61.0209" lon="5.19077">
        <ele>153.102605</ele>
        <time>2020-07-26T09:18:37.811Z</time>
      </trkpt>
      <trkpt lat="61.02103" lon="5.19072">
        <ele>152.377975</ele>
        <time>2020-07-26T09:18:39.797Z</time>
      </trkpt>
      <trkpt lat="61.02117" lon="5.19067">
        <ele>151.661887</ele>
        <time>2020-07-26T09:18:41.811Z</time>
      </trkpt>
      <trkpt lat="61.0213" lon="5.19063">
        <ele>150.985978</ele>
        <time>2020-07-26T09:18:43.794Z</time>
      </trkpt>
      <trkpt lat="61.02141" lon="5.19058">
        <ele>150.35847</ele>
        <time>2020-07-26T09:18:45.815Z</time>
      </trkpt>
      <trkpt lat="61.02153" lon="5.19052">
        <ele>149.720214</ele>
        <time>2020-07-26T09:18:47.811Z</time>
      </trkpt>
      <trkpt lat="61.02164" lon="5.19046">
        <ele>149.134757</ele>
        <time>2020-07-26T09:18:49.821Z</time>
      </trkpt>
      <trkpt lat="61.02173" lon="5.1904">
        <ele>148.628035</ele>
        <time>2020-07-26T09:18:51.792Z</time>
      </trkpt>
      <trkpt lat="61.02182" lon="5.19034">
        <ele>148.13471</ele>
        <time>2020-07-26T09:18:53.820Z</time>
      </trkpt>
      <trkpt lat="61.02194" lon="5.19025">
        <ele>147.472245</ele>
        <time>2020-07-26T09:18:56.838Z</time>
      </trkpt>
      <trkpt lat="61.02206" lon="5.19015">
        <ele>146.796333</ele>
        <time>2020-07-26T09:18:59.820Z</time>
      </trkpt>
      <trkpt lat="61.02214" lon="5.19008">
        <ele>146.309836</ele>
        <time>2020-07-26T09:19:01.793Z</time>
      </trkpt>
      <trkpt lat="61.02227" lon="5.18998">
        <ele>145.610259</ele>
        <time>2020-07-26T09:19:04.809Z</time>
      </trkpt>
      <trkpt lat="61.02239" lon="5.18987">
        <ele>145.951454</ele>
        <time>2020-07-26T09:19:07.829Z</time>
      </trkpt>
      <trkpt lat="61.02248" lon="5.1898">
        <ele>146.200345</ele>
        <time>2020-07-26T09:19:09.800Z</time>
      </trkpt>
      <trkpt lat="61.02256" lon="5.18971">
        <ele>146.435639</ele>
        <time>2020-07-26T09:19:11.820Z</time>
      </trkpt>
      <trkpt lat="61.02265" lon="5.18963">
        <ele>146.686968</ele>
        <time>2020-07-26T09:19:13.860Z</time>
      </trkpt>
      <trkpt lat="61.02275" lon="5.18954">
        <ele>146.979917</ele>
        <time>2020-07-26T09:19:16.813Z</time>
      </trkpt>
      <trkpt lat="61.02285" lon="5.18945">
        <ele>147.244047</ele>
        <time>2020-07-26T09:19:19.804Z</time>
      </trkpt>
      <trkpt lat="61.02295" lon="5.18942">
        <ele>147.527602</ele>
        <time>2020-07-26T09:19:22.795Z</time>
      </trkpt>
      <trkpt lat="61.02306" lon="5.1894">
        <ele>147.792998</ele>
        <time>2020-07-26T09:19:25.795Z</time>
      </trkpt>
      <trkpt lat="61.02317" lon="5.1894">
        <ele>148.095921</ele>
        <time>2020-07-26T09:19:28.828Z</time>
      </trkpt>
      <trkpt lat="61.02328" lon="5.18944">
        <ele>148.384277</ele>
        <time>2020-07-26T09:19:31.819Z</time>
      </trkpt>
      <trkpt lat="61.02338" lon="5.18945">
        <ele>148.638452</ele>
        <time>2020-07-26T09:19:33.834Z</time>
      </trkpt>
      <trkpt lat="61.02351" lon="5.18951">
        <ele>148.971007</ele>
        <time>2020-07-26T09:19:36.800Z</time>
      </trkpt>
      <trkpt lat="61.0236" lon="5.1896">
        <ele>149.235681</ele>
        <time>2020-07-26T09:19:38.826Z</time>
      </trkpt>
      <trkpt lat="61.02369" lon="5.18968">
        <ele>149.489978</ele>
        <time>2020-07-26T09:19:40.809Z</time>
      </trkpt>
      <trkpt lat="61.02378" lon="5.18973">
        <ele>149.739034</ele>
        <time>2020-07-26T09:19:42.792Z</time>
      </trkpt>
      <trkpt lat="61.0239" lon="5.18981">
        <ele>150.06686</ele>
        <time>2020-07-26T09:19:45.818Z</time>
      </trkpt>
      <trkpt lat="61.02402" lon="5.18984">
        <ele>150.359736</ele>
        <time>2020-07-26T09:19:48.803Z</time>
      </trkpt>
      <trkpt lat="61.02413" lon="5.18988">
        <ele>150.602828</ele>
        <time>2020-07-26T09:19:51.804Z</time>
      </trkpt>
      <trkpt lat="61.02425" lon="5.18992">
        <ele>150.853742</ele>
        <time>2020-07-26T09:19:54.823Z</time>
      </trkpt>
      <trkpt lat="61.02435" lon="5.18994">
        <ele>151.084776</ele>
        <time>2020-07-26T09:19:57.812Z</time>
      </trkpt>
      <trkpt lat="61.02446" lon="5.18994">
        <ele>151.32535</ele>
        <time>2020-07-26T09:20:00.795Z</time>
      </trkpt>
      <trkpt lat="61.02456" lon="5.18993">
        <ele>151.55304</ele>
        <time>2020-07-26T09:20:03.804Z</time>
      </trkpt>
      <trkpt lat="61.02467" lon="5.18993">
        <ele>151.780523</ele>
        <time>2020-07-26T09:20:06.821Z</time>
      </trkpt>
      <trkpt lat="61.02476" lon="5.18993">
        <ele>151.990537</ele>
        <time>2020-07-26T09:20:09.819Z</time>
      </trkpt>
      <trkpt lat="61.02486" lon="5.18993">
        <ele>152.200485</ele>
        <time>2020-07-26T09:20:12.805Z</time>
      </trkpt>
      <trkpt lat="61.02497" lon="5.18996">
        <ele>152.43189</ele>
        <time>2020-07-26T09:20:15.800Z</time>
      </trkpt>
      <trkpt lat="61.02508" lon="5.18998">
        <ele>152.688639</ele>
        <time>2020-07-26T09:20:18.804Z</time>
      </trkpt>
      <trkpt lat="61.02521" lon="5.19001">
        <ele>152.975779</ele>
        <time>2020-07-26T09:20:21.825Z</time>
      </trkpt>
      <trkpt lat="61.0253" lon="5.19006">
        <ele>153.179335</ele>
        <time>2020-07-26T09:20:23.838Z</time>
      </trkpt>
      <trkpt lat="61.02539" lon="5.19012">
        <ele>153.380415</ele>
        <time>2020-07-26T09:20:25.795Z</time>
      </trkpt>
      <trkpt lat="61.02548" lon="5.19018">
        <ele>153.578285</ele>
        <time>2020-07-26T09:20:27.848Z</time>
      </trkpt>
      <trkpt lat="61.02558" lon="5.19024">
        <ele>153.806938</ele>
        <time>2020-07-26T09:20:29.843Z</time>
      </trkpt>
      <trkpt lat="61.02568" lon="5.19031">
        <ele>154.039477</ele>
        <time>2020-07-26T09:20:31.789Z</time>
      </trkpt>
      <trkpt lat="61.02578" lon="5.19037">
        <ele>154.178733</ele>
        <time>2020-07-26T09:20:33.878Z</time>
      </trkpt>
      <trkpt lat="61.02588" lon="5.19044">
        <ele>154.129193</ele>
        <time>2020-07-26T09:20:35.791Z</time>
      </trkpt>
      <trkpt lat="61.02597" lon="5.19051">
        <ele>154.079803</ele>
        <time>2020-07-26T09:20:37.799Z</time>
      </trkpt>
      <trkpt lat="61.02606" lon="5.19058">
        <ele>154.033921</ele>
        <time>2020-07-26T09:20:39.798Z</time>
      </trkpt>
      <trkpt lat="61.02618" lon="5.19067">
        <ele>153.971628</ele>
        <time>2020-07-26T09:20:42.798Z</time>
      </trkpt>
      <trkpt lat="61.02629" lon="5.19075">
        <ele>153.91672</ele>
        <time>2020-07-26T09:20:45.810Z</time>
      </trkpt>
      <trkpt lat="61.02638" lon="5.19082">
        <ele>153.867458</ele>
        <time>2020-07-26T09:20:48.811Z</time>
      </trkpt>
      <trkpt lat="61.02649" lon="5.1909">
        <ele>153.811885</ele>
        <time>2020-07-26T09:20:52.787Z</time>
      </trkpt>
      <trkpt lat="61.02659" lon="5.19097">
        <ele>153.762803</ele>
        <time>2020-07-26T09:20:56.812Z</time>
      </trkpt>
      <trkpt lat="61.02668" lon="5.19102">
        <ele>153.717991</ele>
        <time>2020-07-26T09:21:00.805Z</time>
      </trkpt>
      <trkpt lat="61.02677" lon="5.1911">
        <ele>153.671326</ele>
        <time>2020-07-26T09:21:05.795Z</time>
      </trkpt>
      <trkpt lat="61.02685" lon="5.19115">
        <ele>153.627587</ele>
        <time>2020-07-26T09:21:10.829Z</time>
      </trkpt>
      <trkpt lat="61.02695" lon="5.19118">
        <ele>153.581759</ele>
        <time>2020-07-26T09:21:16.827Z</time>
      </trkpt>
      <trkpt lat="61.02704" lon="5.19119">
        <ele>153.538146</ele>
        <time>2020-07-26T09:21:23.816Z</time>
      </trkpt>
      <trkpt lat="61.02713" lon="5.1912">
        <ele>153.493042</ele>
        <time>2020-07-26T09:21:29.799Z</time>
      </trkpt>
      <trkpt lat="61.02723" lon="5.19122">
        <ele>153.443746</ele>
        <time>2020-07-26T09:21:34.813Z</time>
      </trkpt>
      <trkpt lat="61.02733" lon="5.19126">
        <ele>153.395316</ele>
        <time>2020-07-26T09:21:39.830Z</time>
      </trkpt>
      <trkpt lat="61.02743" lon="5.19126">
        <ele>153.346874</ele>
        <time>2020-07-26T09:21:45.808Z</time>
      </trkpt>
      <trkpt lat="61.02753" lon="5.19126">
        <ele>153.796072</ele>
        <time>2020-07-26T09:21:51.804Z</time>
      </trkpt>
      <trkpt lat="61.02763" lon="5.19125">
        <ele>154.624228</ele>
        <time>2020-07-26T09:21:57.808Z</time>
      </trkpt>
      <trkpt lat="61.02773" lon="5.19124">
        <ele>155.476452</ele>
        <time>2020-07-26T09:22:03.841Z</time>
      </trkpt>
      <trkpt lat="61.02783" lon="5.19121">
        <ele>156.374875</ele>
        <time>2020-07-26T09:22:09.802Z</time>
      </trkpt>
      <trkpt lat="61.02793" lon="5.19115">
        <ele>157.235929</ele>
        <time>2020-07-26T09:22:15.796Z</time>
      </trkpt>
      <trkpt lat="61.02802" lon="5.19111">
        <ele>158.068222</ele>
        <time>2020-07-26T09:22:22.795Z</time>
      </trkpt>
      <trkpt lat="61.02811" lon="5.19105">
        <ele>158.841628</ele>
        <time>2020-07-26T09:22:29.800Z</time>
      </trkpt>
      <trkpt lat="61.0282" lon="5.19095">
        <ele>159.706892</ele>
        <time>2020-07-26T09:22:36.799Z</time>
      </trkpt>
      <trkpt lat="61.02828" lon="5.19086">
        <ele>160.507561</ele>
        <time>2020-07-26T09:22:43.796Z</time>
      </trkpt>
      <trkpt lat="61.02835" lon="5.19074">
        <ele>161.28821</ele>
        <time>2020-07-26T09:22:50.794Z</time>
      </trkpt>
      <trkpt lat="61.02844" lon="5.19063">
        <ele>162.135697</ele>
        <time>2020-07-26T09:22:57.813Z</time>
      </trkpt>
      <trkpt lat="61.02852" lon="5.1905">
        <ele>162.996357</ele>
        <time>2020-07-26T09:23:03.805Z</time>
      </trkpt>
      <trkpt lat="61.02858" lon="5.19033">
        <ele>163.874035</ele>
        <time>2020-07-26T09:23:10.818Z</time>
      </trkpt>
      <trkpt lat="61.02862" lon="5.19015">
        <ele>164.717633</ele>
        <time>2020-07-26T09:23:18.787Z</time>
      </trkpt>
      <trkpt lat="61.02864" lon="5.18996">
        <ele>165.495836</ele>
        <time>2020-07-26T09:23:25.802Z</time>
      </trkpt>
      <trkpt lat="61.02865" lon="5.18975">
        <ele>166.379983</ele>
        <time>2020-07-26T09:23:32.801Z</time>
      </trkpt>
      <trkpt lat="61.02866" lon="5.18955">
        <ele>167.202933</ele>
        <time>2020-07-26T09:23:39.812Z</time>
      </trkpt>
      <trkpt lat="61.02868" lon="5.18936">
        <ele>167.989721</ele>
        <time>2020-07-26T09:23:45.803Z</time>
      </trkpt>
      <trkpt lat="61.02869" lon="5.18917">
        <ele>168.852205</ele>
        <time>2020-07-26T09:23:52.802Z</time>
      </trkpt>
      <trkpt lat="61.02869" lon="5.18897">
        <ele>169.993403</ele>
        <time>2020-07-26T09:23:59.814Z</time>
      </trkpt>
      <trkpt lat="61.0287" lon="5.18878">
        <ele>171.093896</ele>
        <time>2020-07-26T09:24:06.796Z</time>
      </trkpt>
      <trkpt lat="61.02872" lon="5.18859">
        <ele>172.185097</ele>
        <time>2020-07-26T09:24:15.808Z</time>
      </trkpt>
      <trkpt lat="61.0287" lon="5.1884">
        <ele>173.286451</ele>
        <time>2020-07-26T09:24:22.802Z</time>
      </trkpt>
      <trkpt lat="61.02867" lon="5.18822">
        <ele>174.354279</ele>
        <time>2020-07-26T09:24:30.795Z</time>
      </trkpt>
      <trkpt lat="61.02864" lon="5.18805">
        <ele>175.422875</ele>
        <time>2020-07-26T09:24:38.812Z</time>
      </trkpt>
      <trkpt lat="61.02859" lon="5.18788">
        <ele>176.528237</ele>
        <time>2020-07-26T09:24:47.826Z</time>
      </trkpt>
      <trkpt lat="61.02857" lon="5.1877">
        <ele>177.608227</ele>
        <time>2020-07-26T09:24:56.811Z</time>
      </trkpt>
      <trkpt lat="61.02857" lon="5.1875">
        <ele>178.715385</ele>
        <time>2020-07-26T09:25:03.792Z</time>
      </trkpt>
      <trkpt lat="61.02853" lon="5.18731">
        <ele>179.886983</ele>
        <time>2020-07-26T09:25:11.805Z</time>
      </trkpt>
      <trkpt lat="61.02847" lon="5.18717">
        <ele>180.991431</ele>
        <time>2020-07-26T09:25:18.808Z</time>
      </trkpt>
      <trkpt lat="61.02843" lon="5.18698">
        <ele>182.133432</ele>
        <time>2020-07-26T09:25:26.803Z</time>
      </trkpt>
      <trkpt lat="61.0284" lon="5.18681">
        <ele>183.219864</ele>
        <time>2020-07-26T09:25:34.828Z</time>
      </trkpt>
      <trkpt lat="61.02838" lon="5.1866">
        <ele>184.434688</ele>
        <time>2020-07-26T09:25:41.815Z</time>
      </trkpt>
      <trkpt lat="61.02836" lon="5.18639">
        <ele>185.627856</ele>
        <time>2020-07-26T09:25:48.810Z</time>
      </trkpt>
      <trkpt lat="61.02834" lon="5.1862">
        <ele>186.755554</ele>
        <time>2020-07-26T09:25:55.828Z</time>
      </trkpt>
      <trkpt lat="61.02831" lon="5.186">
        <ele>187.934091</ele>
        <time>2020-07-26T09:26:02.818Z</time>
      </trkpt>
      <trkpt lat="61.02828" lon="5.18581">
        <ele>189.075036</ele>
        <time>2020-07-26T09:26:09.808Z</time>
      </trkpt>
      <trkpt lat="61.02827" lon="5.18562">
        <ele>189.869753</ele>
        <time>2020-07-26T09:26:17.797Z</time>
      </trkpt>
      <trkpt lat="61.02827" lon="5.18542">
        <ele>189.979698</ele>
        <time>2020-07-26T09:26:24.813Z</time>
      </trkpt>
      <trkpt lat="61.02828" lon="5.18522">
        <ele>190.091472</ele>
        <time>2020-07-26T09:26:32.820Z</time>
      </trkpt>
      <trkpt lat="61.02829" lon="5.18501">
        <ele>190.205291</ele>
        <time>2020-07-26T09:26:40.796Z</time>
      </trkpt>
      <trkpt lat="61.0283" lon="5.18481">
        <ele>190.317846</ele>
        <time>2020-07-26T09:26:48.815Z</time>
      </trkpt>
      <trkpt lat="61.02832" lon="5.18462">
        <ele>190.422093</ele>
        <time>2020-07-26T09:26:56.818Z</time>
      </trkpt>
      <trkpt lat="61.02837" lon="5.18444">
        <ele>190.539381</ele>
        <time>2020-07-26T09:27:04.830Z</time>
      </trkpt>
      <trkpt lat="61.02842" lon="5.18427">
        <ele>190.647054</ele>
        <time>2020-07-26T09:27:11.803Z</time>
      </trkpt>
      <trkpt lat="61.02847" lon="5.18411">
        <ele>190.750628</ele>
        <time>2020-07-26T09:27:17.786Z</time>
      </trkpt>
      <trkpt lat="61.02853" lon="5.18393">
        <ele>190.870916</ele>
        <time>2020-07-26T09:27:24.809Z</time>
      </trkpt>
      <trkpt lat="61.0286" lon="5.18379">
        <ele>190.982391</ele>
        <time>2020-07-26T09:27:29.809Z</time>
      </trkpt>
      <trkpt lat="61.02867" lon="5.18365">
        <ele>191.088577</ele>
        <time>2020-07-26T09:27:34.812Z</time>
      </trkpt>
      <trkpt lat="61.02874" lon="5.1835">
        <ele>191.207575</ele>
        <time>2020-07-26T09:27:39.798Z</time>
      </trkpt>
      <trkpt lat="61.02882" lon="5.18338">
        <ele>191.320755</ele>
        <time>2020-07-26T09:27:43.833Z</time>
      </trkpt>
      <trkpt lat="61.0289" lon="5.18328">
        <ele>191.428817</ele>
        <time>2020-07-26T09:27:47.806Z</time>
      </trkpt>
      <trkpt lat="61.029" lon="5.18321">
        <ele>191.539792</ele>
        <time>2020-07-26T09:27:51.809Z</time>
      </trkpt>
      <trkpt lat="61.0291" lon="5.18315">
        <ele>191.664908</ele>
        <time>2020-07-26T09:27:55.820Z</time>
      </trkpt>
      <trkpt lat="61.02921" lon="5.18312">
        <ele>191.790734</ele>
        <time>2020-07-26T09:27:59.825Z</time>
      </trkpt>
      <trkpt lat="61.02932" lon="5.18307">
        <ele>191.841232</ele>
        <time>2020-07-26T09:28:03.820Z</time>
      </trkpt>
      <trkpt lat="61.02942" lon="5.18309">
        <ele>191.747802</ele>
        <time>2020-07-26T09:28:07.810Z</time>
      </trkpt>
      <trkpt lat="61.02952" lon="5.1831">
        <ele>191.652535</ele>
        <time>2020-07-26T09:28:11.813Z</time>
      </trkpt>
      <trkpt lat="61.02961" lon="5.18311">
        <ele>191.564723</ele>
        <time>2020-07-26T09:28:15.807Z</time>
      </trkpt>
      <trkpt lat="61.02972" lon="5.1831">
        <ele>191.448942</ele>
        <time>2020-07-26T09:28:19.808Z</time>
      </trkpt>
      <trkpt lat="61.02982" lon="5.18306">
        <ele>191.355226</ele>
        <time>2020-07-26T09:28:21.838Z</time>
      </trkpt>
      <trkpt lat="61.02993" lon="5.18304">
        <ele>191.24872</ele>
        <time>2020-07-26T09:28:23.818Z</time>
      </trkpt>
      <trkpt lat="61.03004" lon="5.18302">
        <ele>191.141662</ele>
        <time>2020-07-26T09:28:25.802Z</time>
      </trkpt>
      <trkpt lat="61.03014" lon="5.18299">
        <ele>191.037413</ele>
        <time>2020-07-26T09:28:27.804Z</time>
      </trkpt>
      <trkpt lat="61.03025" lon="5.18297">
        <ele>190.930252</ele>
        <time>2020-07-26T09:28:29.804Z</time>
      </trkpt>
      <trkpt lat="61.03036" lon="5.18296">
        <ele>190.827156</ele>
        <time>2020-07-26T09:28:31.803Z</time>
      </trkpt>
      <trkpt lat="61.03049" lon="5.18293">
        <ele>190.696358</ele>
        <time>2020-07-26T09:28:34.795Z</time>
      </trkpt>
      <trkpt lat="61.03062" lon="5.1829">
        <ele>190.575166</ele>
        <time>2020-07-26T09:28:37.829Z</time>
      </trkpt>
      <trkpt lat="61.03075" lon="5.18286">
        <ele>190.448484</ele>
        <time>2020-07-26T09:28:40.810Z</time>
      </trkpt>
      <trkpt lat="61.03085" lon="5.18281">
        <ele>190.34373</ele>
        <time>2020-07-26T09:28:42.812Z</time>
      </trkpt>
      <trkpt lat="61.03094" lon="5.18276">
        <ele>190.255573</ele>
        <time>2020-07-26T09:28:44.815Z</time>
      </trkpt>
      <trkpt lat="61.03105" lon="5.1827">
        <ele>190.143084</ele>
        <time>2020-07-26T09:28:47.815Z</time>
      </trkpt>
      <trkpt lat="61.03115" lon="5.18264">
        <ele>190.275613</ele>
        <time>2020-07-26T09:28:50.793Z</time>
      </trkpt>
      <trkpt lat="61.03124" lon="5.18259">
        <ele>190.420521</ele>
        <time>2020-07-26T09:28:53.807Z</time>
      </trkpt>
      <trkpt lat="61.03133" lon="5.18249">
        <ele>190.582352</ele>
        <time>2020-07-26T09:28:57.799Z</time>
      </trkpt>
      <trkpt lat="61.03142" lon="5.18237">
        <ele>190.750361</ele>
        <time>2020-07-26T09:29:02.822Z</time>
      </trkpt>
      <trkpt lat="61.0315" lon="5.18228">
        <ele>190.907949</ele>
        <time>2020-07-26T09:29:06.813Z</time>
      </trkpt>
      <trkpt lat="61.03159" lon="5.1822">
        <ele>191.063019</ele>
        <time>2020-07-26T09:29:10.793Z</time>
      </trkpt>
      <trkpt lat="61.03169" lon="5.18211">
        <ele>191.224352</ele>
        <time>2020-07-26T09:29:14.789Z</time>
      </trkpt>
      <trkpt lat="61.03177" lon="5.18201">
        <ele>191.383422</ele>
        <time>2020-07-26T09:29:18.798Z</time>
      </trkpt>
      <trkpt lat="61.03186" lon="5.1819">
        <ele>191.552872</ele>
        <time>2020-07-26T09:29:22.797Z</time>
      </trkpt>
      <trkpt lat="61.03196" lon="5.18178">
        <ele>191.737258</ele>
        <time>2020-07-26T09:29:26.815Z</time>
      </trkpt>
      <trkpt lat="61.03206" lon="5.18167">
        <ele>191.916493</ele>
        <time>2020-07-26T09:29:30.831Z</time>
      </trkpt>
      <trkpt lat="61.03216" lon="5.18159">
        <ele>192.082516</ele>
        <time>2020-07-26T09:29:33.791Z</time>
      </trkpt>
      <trkpt lat="61.03225" lon="5.18151">
        <ele>192.245556</ele>
        <time>2020-07-26T09:29:36.828Z</time>
      </trkpt>
      <trkpt lat="61.03234" lon="5.18144">
        <ele>192.399132</ele>
        <time>2020-07-26T09:29:39.823Z</time>
      </trkpt>
      <trkpt lat="61.03243" lon="5.18137">
        <ele>192.55389</ele>
        <time>2020-07-26T09:29:42.809Z</time>
      </trkpt>
      <trkpt lat="61.03252" lon="5.1813">
        <ele>192.702499</ele>
        <time>2020-07-26T09:29:45.806Z</time>
      </trkpt>
      <trkpt lat="61.03262" lon="5.18122">
        <ele>192.871716</ele>
        <time>2020-07-26T09:29:48.823Z</time>
      </trkpt>
      <trkpt lat="61.03271" lon="5.18115">
        <ele>193.036626</ele>
        <time>2020-07-26T09:29:51.800Z</time>
      </trkpt>
      <trkpt lat="61.0328" lon="5.18106">
        <ele>193.238464</ele>
        <time>2020-07-26T09:29:54.804Z</time>
      </trkpt>
      <trkpt lat="61.03288" lon="5.18097">
        <ele>193.432733</ele>
        <time>2020-07-26T09:29:57.806Z</time>
      </trkpt>
      <trkpt lat="61.03297" lon="5.18089">
        <ele>193.643275</ele>
        <time>2020-07-26T09:30:00.801Z</time>
      </trkpt>
      <trkpt lat="61.03308" lon="5.18082">
        <ele>193.872649</ele>
        <time>2020-07-26T09:30:03.823Z</time>
      </trkpt>
      <trkpt lat="61.03317" lon="5.18073">
        <ele>194.098679</ele>
        <time>2020-07-26T09:30:06.801Z</time>
      </trkpt>
      <trkpt lat="61.03327" lon="5.18066">
        <ele>194.305001</ele>
        <time>2020-07-26T09:30:09.805Z</time>
      </trkpt>
      <trkpt lat="61.03336" lon="5.18059">
        <ele>194.501653</ele>
        <time>2020-07-26T09:30:12.811Z</time>
      </trkpt>
      <trkpt lat="61.03344" lon="5.18054">
        <ele>194.694171</ele>
        <time>2020-07-26T09:30:15.820Z</time>
      </trkpt>
      <trkpt lat="61.03354" lon="5.1805">
        <ele>194.901215</ele>
        <time>2020-07-26T09:30:18.809Z</time>
      </trkpt>
      <trkpt lat="61.03363" lon="5.18045">
        <ele>195.100208</ele>
        <time>2020-07-26T09:30:21.799Z</time>
      </trkpt>
      <trkpt lat="61.03372" lon="5.18044">
        <ele>195.291732</ele>
        <time>2020-07-26T09:30:24.800Z</time>
      </trkpt>
      <trkpt lat="61.03383" lon="5.18041">
        <ele>195.513268</ele>
        <time>2020-07-26T09:30:28.805Z</time>
      </trkpt>
      <trkpt lat="61.03395" lon="5.18041">
        <ele>195.769182</ele>
        <time>2020-07-26T09:30:32.809Z</time>
      </trkpt>
      <trkpt lat="61.03406" lon="5.1804">
        <ele>196.004319</ele>
        <time>2020-07-26T09:30:35.804Z</time>
      </trkpt>
      <trkpt lat="61.03418" lon="5.1804">
        <ele>196.249751</ele>
        <time>2020-07-26T09:30:38.840Z</time>
      </trkpt>
      <trkpt lat="61.0343" lon="5.18041">
        <ele>196.501646</ele>
        <time>2020-07-26T09:30:41.813Z</time>
      </trkpt>
      <trkpt lat="61.03442" lon="5.18043">
        <ele>196.749508</ele>
        <time>2020-07-26T09:30:44.792Z</time>
      </trkpt>
      <trkpt lat="61.03453" lon="5.18044">
        <ele>196.672955</ele>
        <time>2020-07-26T09:30:47.799Z</time>
      </trkpt>
      <trkpt lat="61.03464" lon="5.18047">
        <ele>196.556995</ele>
        <time>2020-07-26T09:30:50.819Z</time>
      </trkpt>
      <trkpt lat="61.03475" lon="5.1805">
        <ele>196.433144</ele>
        <time>2020-07-26T09:30:53.836Z</time>
      </trkpt>
      <trkpt lat="61.03487" lon="5.18053">
        <ele>196.305068</ele>
        <time>2020-07-26T09:30:56.800Z</time>
      </trkpt>
      <trkpt lat="61.035" lon="5.18055">
        <ele>196.169584</ele>
        <time>2020-07-26T09:30:59.846Z</time>
      </trkpt>
      <trkpt lat="61.03509" lon="5.18057">
        <ele>196.073232</ele>
        <time>2020-07-26T09:31:01.817Z</time>
      </trkpt>
      <trkpt lat="61.03519" lon="5.1806">
        <ele>195.972585</ele>
        <time>2020-07-26T09:31:03.802Z</time>
      </trkpt>
      <trkpt lat="61.03529" lon="5.18063">
        <ele>195.868956</ele>
        <time>2020-07-26T09:31:05.809Z</time>
      </trkpt>
      <trkpt lat="61.03541" lon="5.18067">
        <ele>195.736997</ele>
        <time>2020-07-26T09:31:08.812Z</time>
      </trkpt>
      <trkpt lat="61.03553" lon="5.18071">
        <ele>195.612931</ele>
        <time>2020-07-26T09:31:11.801Z</time>
      </trkpt>
      <trkpt lat="61.03563" lon="5.18074">
        <ele>195.5044</ele>
        <time>2020-07-26T09:31:14.818Z</time>
      </trkpt>
      <trkpt lat="61.03573" lon="5.18077">
        <ele>195.397771</ele>
        <time>2020-07-26T09:31:18.801Z</time>
      </trkpt>
      <trkpt lat="61.03582" lon="5.18079">
        <ele>195.300746</ele>
        <time>2020-07-26T09:31:22.791Z</time>
      </trkpt>
      <trkpt lat="61.03592" lon="5.18081">
        <ele>195.19428</ele>
        <time>2020-07-26T09:31:26.798Z</time>
      </trkpt>
      <trkpt lat="61.03603" lon="5.18084">
        <ele>195.082962</ele>
        <time>2020-07-26T09:31:31.808Z</time>
      </trkpt>
      <trkpt lat="61.03613" lon="5.18089">
        <ele>194.975619</ele>
        <time>2020-07-26T09:31:36.801Z</time>
      </trkpt>
      <trkpt lat="61.03623" lon="5.18091">
        <ele>195.007363</ele>
        <time>2020-07-26T09:31:40.811Z</time>
      </trkpt>
      <trkpt lat="61.03633" lon="5.18095">
        <ele>195.816092</ele>
        <time>2020-07-26T09:31:44.806Z</time>
      </trkpt>
      <trkpt lat="61.03643" lon="5.18095">
        <ele>196.631216</ele>
        <time>2020-07-26T09:31:48.830Z</time>
      </trkpt>
      <trkpt lat="61.03653" lon="5.18096">
        <ele>197.462456</ele>
        <time>2020-07-26T09:31:52.796Z</time>
      </trkpt>
      <trkpt lat="61.03664" lon="5.18101">
        <ele>198.341094</ele>
        <time>2020-07-26T09:31:57.789Z</time>
      </trkpt>
      <trkpt lat="61.03674" lon="5.18106">
        <ele>199.194389</ele>
        <time>2020-07-26T09:32:03.823Z</time>
      </trkpt>
      <trkpt lat="61.03683" lon="5.18114">
        <ele>199.963833</ele>
        <time>2020-07-26T09:32:08.797Z</time>
      </trkpt>
      <trkpt lat="61.03693" lon="5.18118">
        <ele>200.823244</ele>
        <time>2020-07-26T09:32:13.798Z</time>
      </trkpt>
      <trkpt lat="61.03704" lon="5.18119">
        <ele>201.663061</ele>
        <time>2020-07-26T09:32:18.819Z</time>
      </trkpt>
      <trkpt lat="61.03713" lon="5.18121">
        <ele>202.447517</ele>
        <time>2020-07-26T09:32:23.812Z</time>
      </trkpt>
      <trkpt lat="61.03723" lon="5.18123">
        <ele>203.275428</ele>
        <time>2020-07-26T09:32:29.828Z</time>
      </trkpt>
      <trkpt lat="61.03733" lon="5.18128">
        <ele>204.075515</ele>
        <time>2020-07-26T09:32:36.811Z</time>
      </trkpt>
      <trkpt lat="61.03743" lon="5.18129">
        <ele>204.884391</ele>
        <time>2020-07-26T09:32:45.816Z</time>
      </trkpt>
      <trkpt lat="61.03752" lon="5.18131">
        <ele>205.614395</ele>
        <time>2020-07-26T09:32:52.794Z</time>
      </trkpt>
      <trkpt lat="61.03762" lon="5.1813">
        <ele>206.42146</ele>
        <time>2020-07-26T09:33:00.884Z</time>
      </trkpt>
      <trkpt lat="61.03772" lon="5.18125">
        <ele>207.212646</ele>
        <time>2020-07-26T09:33:08.837Z</time>
      </trkpt>
      <trkpt lat="61.0378" lon="5.18116">
        <ele>207.963379</ele>
        <time>2020-07-26T09:33:14.815Z</time>
      </trkpt>
      <trkpt lat="61.0379" lon="5.18108">
        <ele>208.806234</ele>
        <time>2020-07-26T09:33:22.845Z</time>
      </trkpt>
      <trkpt lat="61.03798" lon="5.18097">
        <ele>209.584358</ele>
        <time>2020-07-26T09:33:29.797Z</time>
      </trkpt>
      <trkpt lat="61.03806" lon="5.18091">
        <ele>210.219657</ele>
        <time>2020-07-26T09:33:35.807Z</time>
      </trkpt>
      <trkpt lat="61.03816" lon="5.18086">
        <ele>210.922052</ele>
        <time>2020-07-26T09:33:42.800Z</time>
      </trkpt>
      <trkpt lat="61.03824" lon="5.18073">
        <ele>211.620545</ele>
        <time>2020-07-26T09:33:50.806Z</time>
      </trkpt>
      <trkpt lat="61.03831" lon="5.18061">
        <ele>212.261581</ele>
        <time>2020-07-26T09:33:58.806Z</time>
      </trkpt>
      <trkpt lat="61.03837" lon="5.18047">
        <ele>212.907761</ele>
        <time>2020-07-26T09:34:05.814Z</time>
      </trkpt>
      <trkpt lat="61.03842" lon="5.18029">
        <ele>213.600745</ele>
        <time>2020-07-26T09:34:12.813Z</time>
      </trkpt>
      <trkpt lat="61.03847" lon="5.18013">
        <ele>214.266274</ele>
        <time>2020-07-26T09:34:20.821Z</time>
      </trkpt>
      <trkpt lat="61.03851" lon="5.17996">
        <ele>214.910078</ele>
        <time>2020-07-26T09:34:28.815Z</time>
      </trkpt>
      <trkpt lat="61.03855" lon="5.17979">
        <ele>215.554539</ele>
        <time>2020-07-26T09:34:36.813Z</time>
      </trkpt>
      <trkpt lat="61.03858" lon="5.1796">
        <ele>216.252615</ele>
        <time>2020-07-26T09:34:44.810Z</time>
      </trkpt>
      <trkpt lat="61.03862" lon="5.17942">
        <ele>216.902564</ele>
        <time>2020-07-26T09:34:53.813Z</time>
      </trkpt>
      <trkpt lat="61.03866" lon="5.17925">
        <ele>217.542201</ele>
        <time>2020-07-26T09:35:00.807Z</time>
      </trkpt>
      <trkpt lat="61.03872" lon="5.17908">
        <ele>218.242277</ele>
        <time>2020-07-26T09:35:08.808Z</time>
      </trkpt>
      <trkpt lat="61.03878" lon="5.17892">
        <ele>218.942011</ele>
        <time>2020-07-26T09:35:16.812Z</time>
      </trkpt>
      <trkpt lat="61.03884" lon="5.17879">
        <ele>219.590463</ele>
        <time>2020-07-26T09:35:23.806Z</time>
      </trkpt>
      <trkpt lat="61.0389" lon="5.17863">
        <ele>220.278706</ele>
        <time>2020-07-26T09:35:31.808Z</time>
      </trkpt>
      <trkpt lat="61.03897" lon="5.17847">
        <ele>220.998322</ele>
        <time>2020-07-26T09:35:39.789Z</time>
      </trkpt>
      <trkpt lat="61.03905" lon="5.17838">
        <ele>221.633538</ele>
        <time>2020-07-26T09:35:47.836Z</time>
      </trkpt>
      <trkpt lat="61.03914" lon="5.17829">
        <ele>222.327755</ele>
        <time>2020-07-26T09:35:54.813Z</time>
      </trkpt>
      <trkpt lat="61.03923" lon="5.17821">
        <ele>222.9518</ele>
        <time>2020-07-26T09:36:01.805Z</time>
      </trkpt>
      <trkpt lat="61.03932" lon="5.17816">
        <ele>223.55638</ele>
        <time>2020-07-26T09:36:09.811Z</time>
      </trkpt>
      <trkpt lat="61.03941" lon="5.17812">
        <ele>224.147085</ele>
        <time>2020-07-26T09:36:17.829Z</time>
      </trkpt>
      <trkpt lat="61.03951" lon="5.1781">
        <ele>224.775585</ele>
        <time>2020-07-26T09:36:27.819Z</time>
      </trkpt>
      <trkpt lat="61.03961" lon="5.1781">
        <ele>225.393554</ele>
        <time>2020-07-26T09:36:34.811Z</time>
      </trkpt>
      <trkpt lat="61.0397" lon="5.1781">
        <ele>226.031199</ele>
        <time>2020-07-26T09:36:41.799Z</time>
      </trkpt>
      <trkpt lat="61.0398" lon="5.17808">
        <ele>226.677086</ele>
        <time>2020-07-26T09:36:49.828Z</time>
      </trkpt>
      <trkpt lat="61.0399" lon="5.17805">
        <ele>227.290853</ele>
        <time>2020-07-26T09:36:58.793Z</time>
      </trkpt>
      <trkpt lat="61.03999" lon="5.17804">
        <ele>227.896453</ele>
        <time>2020-07-26T09:37:05.800Z</time>
      </trkpt>
      <trkpt lat="61.04009" lon="5.17802">
        <ele>228.511809</ele>
        <time>2020-07-26T09:37:13.815Z</time>
      </trkpt>
      <trkpt lat="61.04018" lon="5.17797">
        <ele>229.15109</ele>
        <time>2020-07-26T09:37:21.802Z</time>
      </trkpt>
      <trkpt lat="61.04028" lon="5.17796">
        <ele>229.758229</ele>
        <time>2020-07-26T09:37:31.809Z</time>
      </trkpt>
      <trkpt lat="61.04038" lon="5.17793">
        <ele>230.387092</ele>
        <time>2020-07-26T09:37:38.813Z</time>
      </trkpt>
      <trkpt lat="61.04047" lon="5.17794">
        <ele>230.993149</ele>
        <time>2020-07-26T09:37:45.815Z</time>
      </trkpt>
      <trkpt lat="61.04057" lon="5.17795">
        <ele>231.61206</ele>
        <time>2020-07-26T09:37:54.788Z</time>
      </trkpt>
      <trkpt lat="61.04066" lon="5.17799">
        <ele>232.207344</ele>
        <time>2020-07-26T09:38:03.786Z</time>
      </trkpt>
      <trkpt lat="61.04075" lon="5.17802">
        <ele>232.799584</ele>
        <time>2020-07-26T09:38:10.809Z</time>
      </trkpt>
      <trkpt lat="61.04084" lon="5.17807">
        <ele>233.411958</ele>
        <time>2020-07-26T09:38:15.794Z</time>
      </trkpt>
      <trkpt lat="61.04094" lon="5.17812">
        <ele>234.20588</ele>
        <time>2020-07-26T09:38:21.816Z</time>
      </trkpt>
      <trkpt lat="61.04102" lon="5.17819">
        <ele>234.957436</ele>
        <time>2020-07-26T09:38:28.798Z</time>
      </trkpt>
      <trkpt lat="61.04112" lon="5.17817">
        <ele>235.742694</ele>
        <time>2020-07-26T09:38:36.810Z</time>
      </trkpt>
      <trkpt lat="61.04121" lon="5.17822">
        <ele>236.498161</ele>
        <time>2020-07-26T09:38:44.816Z</time>
      </trkpt>
      <trkpt lat="61.04131" lon="5.17823">
        <ele>237.315811</ele>
        <time>2020-07-26T09:38:53.800Z</time>
      </trkpt>
      <trkpt lat="61.0414" lon="5.17826">
        <ele>238.114099</ele>
        <time>2020-07-26T09:39:01.796Z</time>
      </trkpt>
      <trkpt lat="61.0415" lon="5.1783">
        <ele>238.926633</ele>
        <time>2020-07-26T09:39:09.788Z</time>
      </trkpt>
      <trkpt lat="61.0416" lon="5.17831">
        <ele>239.760144</ele>
        <time>2020-07-26T09:39:16.822Z</time>
      </trkpt>
      <trkpt lat="61.0417" lon="5.17834">
        <ele>240.559509</ele>
        <time>2020-07-26T09:39:23.825Z</time>
      </trkpt>
      <trkpt lat="61.04179" lon="5.17836">
        <ele>241.336841</ele>
        <time>2020-07-26T09:39:30.792Z</time>
      </trkpt>
      <trkpt lat="61.04188" lon="5.17838">
        <ele>242.087859</ele>
        <time>2020-07-26T09:39:39.831Z</time>
      </trkpt>
      <trkpt lat="61.04197" lon="5.1784">
        <ele>242.866205</ele>
        <time>2020-07-26T09:39:47.816Z</time>
      </trkpt>
      <trkpt lat="61.04207" lon="5.17845">
        <ele>243.68348</ele>
        <time>2020-07-26T09:39:55.817Z</time>
      </trkpt>
      <trkpt lat="61.04217" lon="5.1785">
        <ele>244.487082</ele>
        <time>2020-07-26T09:40:02.806Z</time>
      </trkpt>
      <trkpt lat="61.04227" lon="5.17848">
        <ele>245.340837</ele>
        <time>2020-07-26T09:40:08.803Z</time>
      </trkpt>
      <trkpt lat="61.04237" lon="5.1785">
        <ele>246.205055</ele>
        <time>2020-07-26T09:40:15.811Z</time>
      </trkpt>
      <trkpt lat="61.04247" lon="5.17853">
        <ele>246.977794</ele>
        <time>2020-07-26T09:40:21.807Z</time>
      </trkpt>
      <trkpt lat="61.04255" lon="5.17857">
        <ele>247.732319</ele>
        <time>2020-07-26T09:40:27.846Z</time>
      </trkpt>
      <trkpt lat="61.04265" lon="5.17862">
        <ele>248.543709</ele>
        <time>2020-07-26T09:40:33.793Z</time>
      </trkpt>
      <trkpt lat="61.04275" lon="5.17867">
        <ele>249.870451</ele>
        <time>2020-07-26T09:40:40.825Z</time>
      </trkpt>
      <trkpt lat="61.04283" lon="5.17874">
        <ele>251.101168</ele>
        <time>2020-07-26T09:40:46.821Z</time>
      </trkpt>
      <trkpt lat="61.04292" lon="5.17881">
        <ele>252.329673</ele>
        <time>2020-07-26T09:40:52.814Z</time>
      </trkpt>
      <trkpt lat="61.04302" lon="5.17889">
        <ele>253.633999</ele>
        <time>2020-07-26T09:40:59.817Z</time>
      </trkpt>
      <trkpt lat="61.0431" lon="5.17896">
        <ele>254.826284</ele>
        <time>2020-07-26T09:41:05.827Z</time>
      </trkpt>
      <trkpt lat="61.04319" lon="5.17907">
        <ele>256.130226</ele>
        <time>2020-07-26T09:41:12.815Z</time>
      </trkpt>
      <trkpt lat="61.04328" lon="5.17911">
        <ele>257.383163</ele>
        <time>2020-07-26T09:41:19.817Z</time>
      </trkpt>
      <trkpt lat="61.04338" lon="5.17917">
        <ele>258.705878</ele>
        <time>2020-07-26T09:41:26.808Z</time>
      </trkpt>
      <trkpt lat="61.04347" lon="5.17924">
        <ele>259.912474</ele>
        <time>2020-07-26T09:41:33.828Z</time>
      </trkpt>
      <trkpt lat="61.04355" lon="5.17934">
        <ele>261.200326</ele>
        <time>2020-07-26T09:41:42.832Z</time>
      </trkpt>
      <trkpt lat="61.04364" lon="5.17944">
        <ele>262.489357</ele>
        <time>2020-07-26T09:41:50.800Z</time>
      </trkpt>
      <trkpt lat="61.04373" lon="5.17952">
        <ele>263.729353</ele>
        <time>2020-07-26T09:41:57.835Z</time>
      </trkpt>
      <trkpt lat="61.04382" lon="5.17958">
        <ele>264.957402</ele>
        <time>2020-07-26T09:42:04.840Z</time>
      </trkpt>
      <trkpt lat="61.0439" lon="5.17971">
        <ele>266.228631</ele>
        <time>2020-07-26T09:42:11.796Z</time>
      </trkpt>
      <trkpt lat="61.04398" lon="5.17978">
        <ele>267.415869</ele>
        <time>2020-07-26T09:42:18.805Z</time>
      </trkpt>
      <trkpt lat="61.04407" lon="5.17984">
        <ele>268.591653</ele>
        <time>2020-07-26T09:42:25.794Z</time>
      </trkpt>
      <trkpt lat="61.04415" lon="5.17993">
        <ele>269.757131</ele>
        <time>2020-07-26T09:42:32.801Z</time>
      </trkpt>
      <trkpt lat="61.04423" lon="5.18001">
        <ele>270.943436</ele>
        <time>2020-07-26T09:42:39.821Z</time>
      </trkpt>
      <trkpt lat="61.04432" lon="5.18008">
        <ele>271.763511</ele>
        <time>2020-07-26T09:42:47.792Z</time>
      </trkpt>
      <trkpt lat="61.04441" lon="5.18016">
        <ele>271.921857</ele>
        <time>2020-07-26T09:42:55.798Z</time>
      </trkpt>
      <trkpt lat="61.04448" lon="5.18029">
        <ele>272.074036</ele>
        <time>2020-07-26T09:43:04.812Z</time>
      </trkpt>
      <trkpt lat="61.04457" lon="5.18036">
        <ele>272.231808</ele>
        <time>2020-07-26T09:43:14.807Z</time>
      </trkpt>
      <trkpt lat="61.04465" lon="5.18044">
        <ele>272.379321</ele>
        <time>2020-07-26T09:43:22.832Z</time>
      </trkpt>
      <trkpt lat="61.04474" lon="5.18052">
        <ele>272.528984</ele>
        <time>2020-07-26T09:43:30.794Z</time>
      </trkpt>
      <trkpt lat="61.04482" lon="5.1806">
        <ele>272.677413</ele>
        <time>2020-07-26T09:43:37.818Z</time>
      </trkpt>
      <trkpt lat="61.0449" lon="5.18069">
        <ele>272.835296</ele>
        <time>2020-07-26T09:43:44.808Z</time>
      </trkpt>
      <trkpt lat="61.04499" lon="5.18078">
        <ele>273.000099</ele>
        <time>2020-07-26T09:43:51.805Z</time>
      </trkpt>
      <trkpt lat="61.04508" lon="5.18087">
        <ele>273.165473</ele>
        <time>2020-07-26T09:43:59.813Z</time>
      </trkpt>
      <trkpt lat="61.04517" lon="5.18097">
        <ele>273.329479</ele>
        <time>2020-07-26T09:44:07.812Z</time>
      </trkpt>
      <trkpt lat="61.04525" lon="5.1811">
        <ele>273.493183</ele>
        <time>2020-07-26T09:44:15.827Z</time>
      </trkpt>
      <trkpt lat="61.04533" lon="5.18122">
        <ele>273.657352</ele>
        <time>2020-07-26T09:44:22.814Z</time>
      </trkpt>
      <trkpt lat="61.0454" lon="5.18134">
        <ele>273.804147</ele>
        <time>2020-07-26T09:44:28.805Z</time>
      </trkpt>
      <trkpt lat="61.04548" lon="5.18146">
        <ele>273.966468</ele>
        <time>2020-07-26T09:44:34.800Z</time>
      </trkpt>
      <trkpt lat="61.04555" lon="5.18158">
        <ele>274.117484</ele>
        <time>2020-07-26T09:44:39.820Z</time>
      </trkpt>
      <trkpt lat="61.04563" lon="5.18176">
        <ele>274.303871</ele>
        <time>2020-07-26T09:44:44.804Z</time>
      </trkpt>
      <trkpt lat="61.04569" lon="5.1819">
        <ele>274.46224</ele>
        <time>2020-07-26T09:44:48.821Z</time>
      </trkpt>
      <trkpt lat="61.04576" lon="5.18206">
        <ele>274.629765</ele>
        <time>2020-07-26T09:44:53.836Z</time>
      </trkpt>
      <trkpt lat="61.04583" lon="5.18219">
        <ele>274.28963</ele>
        <time>2020-07-26T09:44:58.800Z</time>
      </trkpt>
      <trkpt lat="61.0459" lon="5.18233">
        <ele>273.891612</ele>
        <time>2020-07-26T09:45:02.803Z</time>
      </trkpt>
      <trkpt lat="61.04597" lon="5.1825">
        <ele>273.44525</ele>
        <time>2020-07-26T09:45:06.827Z</time>
      </trkpt>
      <trkpt lat="61.04603" lon="5.18266">
        <ele>273.032392</ele>
        <time>2020-07-26T09:45:10.797Z</time>
      </trkpt>
      <trkpt lat="61.0461" lon="5.18283">
        <ele>272.589071</ele>
        <time>2020-07-26T09:45:14.819Z</time>
      </trkpt>
      <trkpt lat="61.04617" lon="5.18299">
        <ele>272.14575</ele>
        <time>2020-07-26T09:45:18.810Z</time>
      </trkpt>
      <trkpt lat="61.04625" lon="5.18317">
        <ele>271.668702</ele>
        <time>2020-07-26T09:45:22.796Z</time>
      </trkpt>
      <trkpt lat="61.04632" lon="5.18334">
        <ele>271.214191</ele>
        <time>2020-07-26T09:45:26.833Z</time>
      </trkpt>
      <trkpt lat="61.0464" lon="5.18352">
        <ele>270.722677</ele>
        <time>2020-07-26T09:45:30.820Z</time>
      </trkpt>
      <trkpt lat="61.04647" lon="5.18368">
        <ele>270.304469</ele>
        <time>2020-07-26T09:45:33.808Z</time>
      </trkpt>
      <trkpt lat="61.04656" lon="5.1839">
        <ele>269.743076</ele>
        <time>2020-07-26T09:45:36.826Z</time>
      </trkpt>
      <trkpt lat="61.04663" lon="5.18407">
        <ele>269.27011</ele>
        <time>2020-07-26T09:45:38.808Z</time>
      </trkpt>
      <trkpt lat="61.04673" lon="5.18426">
        <ele>268.716469</ele>
        <time>2020-07-26T09:45:40.796Z</time>
      </trkpt>
      <trkpt lat="61.04685" lon="5.18446">
        <ele>268.096063</ele>
        <time>2020-07-26T09:45:42.836Z</time>
      </trkpt>
      <trkpt lat="61.04698" lon="5.18467">
        <ele>267.399078</ele>
        <time>2020-07-26T09:45:44.801Z</time>
      </trkpt>
      <trkpt lat="61.04713" lon="5.18489">
        <ele>266.44327</ele>
        <time>2020-07-26T09:45:46.799Z</time>
      </trkpt>
      <trkpt lat="61.04727" lon="5.18508">
        <ele>265.489877</ele>
        <time>2020-07-26T09:45:48.816Z</time>
      </trkpt>
      <trkpt lat="61.04743" lon="5.18528">
        <ele>264.440401</ele>
        <time>2020-07-26T09:45:50.816Z</time>
      </trkpt>
      <trkpt lat="61.04751" lon="5.18539">
        <ele>263.904335</ele>
        <time>2020-07-26T09:45:51.812Z</time>
      </trkpt>
      <trkpt lat="61.04759" lon="5.18549">
        <ele>263.364937</ele>
        <time>2020-07-26T09:45:52.831Z</time>
      </trkpt>
      <trkpt lat="61.04767" lon="5.18559">
        <ele>262.834663</ele>
        <time>2020-07-26T09:45:53.816Z</time>
      </trkpt>
      <trkpt lat="61.04775" lon="5.18569">
        <ele>262.316282</ele>
        <time>2020-07-26T09:45:54.837Z</time>
      </trkpt>
      <trkpt lat="61.04783" lon="5.18579">
        <ele>261.789476</ele>
        <time>2020-07-26T09:45:55.805Z</time>
      </trkpt>
      <trkpt lat="61.04791" lon="5.18588">
        <ele>261.246744</ele>
        <time>2020-07-26T09:45:56.796Z</time>
      </trkpt>
      <trkpt lat="61.048" lon="5.18596">
        <ele>260.704751</ele>
        <time>2020-07-26T09:45:57.809Z</time>
      </trkpt>
      <trkpt lat="61.04809" lon="5.18603">
        <ele>260.167385</ele>
        <time>2020-07-26T09:45:58.831Z</time>
      </trkpt>
      <trkpt lat="61.04818" lon="5.18611">
        <ele>259.62251</ele>
        <time>2020-07-26T09:45:59.813Z</time>
      </trkpt>
      <trkpt lat="61.04827" lon="5.18618">
        <ele>259.066089</ele>
        <time>2020-07-26T09:46:00.818Z</time>
      </trkpt>
      <trkpt lat="61.04836" lon="5.18624">
        <ele>258.516165</ele>
        <time>2020-07-26T09:46:01.799Z</time>
      </trkpt>
      <trkpt lat="61.04846" lon="5.1863">
        <ele>257.953508</ele>
        <time>2020-07-26T09:46:02.800Z</time>
      </trkpt>
      <trkpt lat="61.04856" lon="5.18635">
        <ele>257.367351</ele>
        <time>2020-07-26T09:46:03.807Z</time>
      </trkpt>
      <trkpt lat="61.04866" lon="5.18639">
        <ele>256.744112</ele>
        <time>2020-07-26T09:46:04.829Z</time>
      </trkpt>
      <trkpt lat="61.04876" lon="5.18643">
        <ele>256.032907</ele>
        <time>2020-07-26T09:46:05.816Z</time>
      </trkpt>
      <trkpt lat="61.04887" lon="5.18646">
        <ele>255.292417</ele>
        <time>2020-07-26T09:46:06.806Z</time>
      </trkpt>
      <trkpt lat="61.04898" lon="5.18647">
        <ele>254.550467</ele>
        <time>2020-07-26T09:46:07.801Z</time>
      </trkpt>
      <trkpt lat="61.04909" lon="5.18647">
        <ele>253.802816</ele>
        <time>2020-07-26T09:46:08.809Z</time>
      </trkpt>
      <trkpt lat="61.0492" lon="5.18644">
        <ele>253.035618</ele>
        <time>2020-07-26T09:46:09.794Z</time>
      </trkpt>
      <trkpt lat="61.04931" lon="5.18639">
        <ele>252.271945</ele>
        <time>2020-07-26T09:46:10.807Z</time>
      </trkpt>
      <trkpt lat="61.04942" lon="5.18633">
        <ele>251.50239</ele>
        <time>2020-07-26T09:46:11.807Z</time>
      </trkpt>
      <trkpt lat="61.04953" lon="5.18625">
        <ele>250.742446</ele>
        <time>2020-07-26T09:46:12.805Z</time>
      </trkpt>
      <trkpt lat="61.04964" lon="5.18615">
        <ele>249.960424</ele>
        <time>2020-07-26T09:46:13.826Z</time>
      </trkpt>
      <trkpt lat="61.04974" lon="5.18603">
        <ele>249.17201</ele>
        <time>2020-07-26T09:46:14.805Z</time>
      </trkpt>
      <trkpt lat="61.04984" lon="5.1859">
        <ele>248.365459</ele>
        <time>2020-07-26T09:46:15.834Z</time>
      </trkpt>
      <trkpt lat="61.04994" lon="5.18575">
        <ele>247.555361</ele>
        <time>2020-07-26T09:46:16.850Z</time>
      </trkpt>
      <trkpt lat="61.05003" lon="5.1856">
        <ele>246.744823</ele>
        <time>2020-07-26T09:46:17.837Z</time>
      </trkpt>
      <trkpt lat="61.05013" lon="5.18545">
        <ele>245.94299</ele>
        <time>2020-07-26T09:46:18.800Z</time>
      </trkpt>
      <trkpt lat="61.05022" lon="5.1853">
        <ele>245.150475</ele>
        <time>2020-07-26T09:46:19.809Z</time>
      </trkpt>
      <trkpt lat="61.05031" lon="5.18516">
        <ele>244.338465</ele>
        <time>2020-07-26T09:46:20.813Z</time>
      </trkpt>
      <trkpt lat="61.05041" lon="5.18502">
        <ele>243.543064</ele>
        <time>2020-07-26T09:46:21.810Z</time>
      </trkpt>
      <trkpt lat="61.0505" lon="5.1849">
        <ele>242.750975</ele>
        <time>2020-07-26T09:46:22.824Z</time>
      </trkpt>
      <trkpt lat="61.0506" lon="5.18478">
        <ele>241.956782</ele>
        <time>2020-07-26T09:46:23.805Z</time>
      </trkpt>
      <trkpt lat="61.05071" lon="5.18468">
        <ele>241.154727</ele>
        <time>2020-07-26T09:46:24.854Z</time>
      </trkpt>
      <trkpt lat="61.05081" lon="5.18458">
        <ele>240.338604</ele>
        <time>2020-07-26T09:46:25.799Z</time>
      </trkpt>
      <trkpt lat="61.05092" lon="5.18449">
        <ele>239.539353</ele>
        <time>2020-07-26T09:46:26.833Z</time>
      </trkpt>
      <trkpt lat="61.05102" lon="5.18441">
        <ele>238.736119</ele>
        <time>2020-07-26T09:46:27.810Z</time>
      </trkpt>
      <trkpt lat="61.05114" lon="5.18433">
        <ele>237.906796</ele>
        <time>2020-07-26T09:46:28.809Z</time>
      </trkpt>
      <trkpt lat="61.05126" lon="5.18427">
        <ele>237.05154</ele>
        <time>2020-07-26T09:46:29.821Z</time>
      </trkpt>
      <trkpt lat="61.05138" lon="5.18421">
        <ele>236.181756</ele>
        <time>2020-07-26T09:46:30.799Z</time>
      </trkpt>
      <trkpt lat="61.0515" lon="5.18417">
        <ele>235.318076</ele>
        <time>2020-07-26T09:46:31.824Z</time>
      </trkpt>
      <trkpt lat="61.05162" lon="5.18415">
        <ele>234.45606</ele>
        <time>2020-07-26T09:46:32.813Z</time>
      </trkpt>
      <trkpt lat="61.05174" lon="5.18416">
        <ele>233.602107</ele>
        <time>2020-07-26T09:46:33.800Z</time>
      </trkpt>
      <trkpt lat="61.05187" lon="5.18419">
        <ele>232.728665</ele>
        <time>2020-07-26T09:46:34.830Z</time>
      </trkpt>
      <trkpt lat="61.05199" lon="5.18423">
        <ele>231.783192</ele>
        <time>2020-07-26T09:46:35.816Z</time>
      </trkpt>
      <trkpt lat="61.05211" lon="5.18427">
        <ele>230.791902</ele>
        <time>2020-07-26T09:46:36.809Z</time>
      </trkpt>
      <trkpt lat="61.05223" lon="5.18431">
        <ele>229.824196</ele>
        <time>2020-07-26T09:46:37.856Z</time>
      </trkpt>
      <trkpt lat="61.05234" lon="5.18435">
        <ele>228.854531</ele>
        <time>2020-07-26T09:46:38.832Z</time>
      </trkpt>
      <trkpt lat="61.05246" lon="5.1844">
        <ele>227.871746</ele>
        <time>2020-07-26T09:46:39.798Z</time>
      </trkpt>
      <trkpt lat="61.05258" lon="5.18445">
        <ele>226.878568</ele>
        <time>2020-07-26T09:46:40.800Z</time>
      </trkpt>
      <trkpt lat="61.05271" lon="5.1845">
        <ele>225.823636</ele>
        <time>2020-07-26T09:46:41.794Z</time>
      </trkpt>
      <trkpt lat="61.05284" lon="5.18454">
        <ele>224.740553</ele>
        <time>2020-07-26T09:46:42.796Z</time>
      </trkpt>
      <trkpt lat="61.05297" lon="5.18457">
        <ele>223.680565</ele>
        <time>2020-07-26T09:46:43.802Z</time>
      </trkpt>
      <trkpt lat="61.0531" lon="5.1846">
        <ele>222.631099</ele>
        <time>2020-07-26T09:46:44.804Z</time>
      </trkpt>
      <trkpt lat="61.05323" lon="5.18461">
        <ele>221.528196</ele>
        <time>2020-07-26T09:46:45.822Z</time>
      </trkpt>
      <trkpt lat="61.05337" lon="5.18459">
        <ele>220.398319</ele>
        <time>2020-07-26T09:46:46.804Z</time>
      </trkpt>
      <trkpt lat="61.05351" lon="5.18453">
        <ele>219.217153</ele>
        <time>2020-07-26T09:46:47.800Z</time>
      </trkpt>
      <trkpt lat="61.05365" lon="5.18443">
        <ele>218.026906</ele>
        <time>2020-07-26T09:46:48.805Z</time>
      </trkpt>
      <trkpt lat="61.05378" lon="5.1843">
        <ele>216.811075</ele>
        <time>2020-07-26T09:46:49.830Z</time>
      </trkpt>
      <trkpt lat="61.05392" lon="5.18415">
        <ele>215.573679</ele>
        <time>2020-07-26T09:46:50.801Z</time>
      </trkpt>
      <trkpt lat="61.05405" lon="5.184">
        <ele>214.361924</ele>
        <time>2020-07-26T09:46:51.818Z</time>
      </trkpt>
      <trkpt lat="61.05417" lon="5.18385">
        <ele>213.193962</ele>
        <time>2020-07-26T09:46:52.807Z</time>
      </trkpt>
      <trkpt lat="61.0543" lon="5.18372">
        <ele>212.03941</ele>
        <time>2020-07-26T09:46:53.805Z</time>
      </trkpt>
      <trkpt lat="61.05443" lon="5.18362">
        <ele>210.9017</ele>
        <time>2020-07-26T09:46:54.814Z</time>
      </trkpt>
      <trkpt lat="61.05456" lon="5.18354">
        <ele>209.785065</ele>
        <time>2020-07-26T09:46:55.832Z</time>
      </trkpt>
      <trkpt lat="61.0547" lon="5.1835">
        <ele>208.65984</ele>
        <time>2020-07-26T09:46:56.838Z</time>
      </trkpt>
      <trkpt lat="61.05484" lon="5.18347">
        <ele>207.543765</ele>
        <time>2020-07-26T09:46:57.808Z</time>
      </trkpt>
      <trkpt lat="61.05497" lon="5.18345">
        <ele>206.464331</ele>
        <time>2020-07-26T09:46:58.823Z</time>
      </trkpt>
      <trkpt lat="61.0551" lon="5.18346">
        <ele>205.394182</ele>
        <time>2020-07-26T09:46:59.837Z</time>
      </trkpt>
      <trkpt lat="61.05524" lon="5.18347">
        <ele>204.313644</ele>
        <time>2020-07-26T09:47:00.798Z</time>
      </trkpt>
      <trkpt lat="61.05537" lon="5.1835">
        <ele>203.253613</ele>
        <time>2020-07-26T09:47:01.813Z</time>
      </trkpt>
      <trkpt lat="61.05549" lon="5.18354">
        <ele>201.98235</ele>
        <time>2020-07-26T09:47:02.805Z</time>
      </trkpt>
      <trkpt lat="61.05562" lon="5.18358">
        <ele>200.664448</ele>
        <time>2020-07-26T09:47:03.810Z</time>
      </trkpt>
      <trkpt lat="61.05575" lon="5.18362">
        <ele>199.357331</ele>
        <time>2020-07-26T09:47:04.799Z</time>
      </trkpt>
      <trkpt lat="61.05587" lon="5.18364">
        <ele>198.12602</ele>
        <time>2020-07-26T09:47:05.812Z</time>
      </trkpt>
      <trkpt lat="61.05598" lon="5.18366">
        <ele>196.972011</ele>
        <time>2020-07-26T09:47:06.817Z</time>
      </trkpt>
      <trkpt lat="61.0561" lon="5.18365">
        <ele>195.820112</ele>
        <time>2020-07-26T09:47:07.833Z</time>
      </trkpt>
      <trkpt lat="61.05621" lon="5.18362">
        <ele>194.656332</ele>
        <time>2020-07-26T09:47:08.817Z</time>
      </trkpt>
      <trkpt lat="61.05632" lon="5.18355">
        <ele>193.508527</ele>
        <time>2020-07-26T09:47:09.820Z</time>
      </trkpt>
      <trkpt lat="61.05642" lon="5.18346">
        <ele>192.352871</ele>
        <time>2020-07-26T09:47:10.819Z</time>
      </trkpt>
      <trkpt lat="61.05652" lon="5.18333">
        <ele>191.179914</ele>
        <time>2020-07-26T09:47:11.810Z</time>
      </trkpt>
      <trkpt lat="61.0566" lon="5.18317">
        <ele>190.018941</ele>
        <time>2020-07-26T09:47:12.811Z</time>
      </trkpt>
      <trkpt lat="61.05668" lon="5.18299">
        <ele>188.819907</ele>
        <time>2020-07-26T09:47:13.817Z</time>
      </trkpt>
      <trkpt lat="61.05676" lon="5.1828">
        <ele>187.59259</ele>
        <time>2020-07-26T09:47:14.813Z</time>
      </trkpt>
      <trkpt lat="61.05684" lon="5.18261">
        <ele>186.316679</ele>
        <time>2020-07-26T09:47:15.797Z</time>
      </trkpt>
      <trkpt lat="61.05694" lon="5.18244">
        <ele>185.04562</ele>
        <time>2020-07-26T09:47:16.803Z</time>
      </trkpt>
      <trkpt lat="61.05704" lon="5.18229">
        <ele>183.872536</ele>
        <time>2020-07-26T09:47:17.816Z</time>
      </trkpt>
      <trkpt lat="61.05716" lon="5.18218">
        <ele>182.704313</ele>
        <time>2020-07-26T09:47:18.845Z</time>
      </trkpt>
      <trkpt lat="61.05728" lon="5.18209">
        <ele>181.528742</ele>
        <time>2020-07-26T09:47:19.839Z</time>
      </trkpt>
      <trkpt lat="61.05741" lon="5.18204">
        <ele>180.365952</ele>
        <time>2020-07-26T09:47:20.797Z</time>
      </trkpt>
      <trkpt lat="61.05755" lon="5.18202">
        <ele>179.123937</ele>
        <time>2020-07-26T09:47:21.816Z</time>
      </trkpt>
      <trkpt lat="61.05768" lon="5.18204">
        <ele>177.891518</ele>
        <time>2020-07-26T09:47:22.801Z</time>
      </trkpt>
      <trkpt lat="61.05782" lon="5.18206">
        <ele>176.654198</ele>
        <time>2020-07-26T09:47:23.838Z</time>
      </trkpt>
      <trkpt lat="61.05796" lon="5.18209">
        <ele>175.417703</ele>
        <time>2020-07-26T09:47:24.792Z</time>
      </trkpt>
      <trkpt lat="61.0581" lon="5.18212">
        <ele>174.144601</ele>
        <time>2020-07-26T09:47:25.805Z</time>
      </trkpt>
      <trkpt lat="61.05824" lon="5.18216">
        <ele>172.848217</ele>
        <time>2020-07-26T09:47:26.826Z</time>
      </trkpt>
      <trkpt lat="61.05839" lon="5.1822">
        <ele>171.538618</ele>
        <time>2020-07-26T09:47:27.807Z</time>
      </trkpt>
      <trkpt lat="61.05853" lon="5.18224">
        <ele>170.235971</ele>
        <time>2020-07-26T09:47:28.795Z</time>
      </trkpt>
      <trkpt lat="61.05868" lon="5.18226">
        <ele>168.911321</ele>
        <time>2020-07-26T09:47:29.807Z</time>
      </trkpt>
      <trkpt lat="61.05883" lon="5.18229">
        <ele>167.916913</ele>
        <time>2020-07-26T09:47:30.809Z</time>
      </trkpt>
      <trkpt lat="61.05898" lon="5.18232">
        <ele>167.02529</ele>
        <time>2020-07-26T09:47:31.825Z</time>
      </trkpt>
      <trkpt lat="61.05913" lon="5.18236">
        <ele>166.120764</ele>
        <time>2020-07-26T09:47:32.808Z</time>
      </trkpt>
      <trkpt lat="61.05928" lon="5.18241">
        <ele>165.222924</ele>
        <time>2020-07-26T09:47:33.808Z</time>
      </trkpt>
      <trkpt lat="61.05943" lon="5.18246">
        <ele>164.33963</ele>
        <time>2020-07-26T09:47:34.791Z</time>
      </trkpt>
      <trkpt lat="61.05957" lon="5.18252">
        <ele>163.47263</ele>
        <time>2020-07-26T09:47:35.802Z</time>
      </trkpt>
      <trkpt lat="61.05972" lon="5.18258">
        <ele>162.626444</ele>
        <time>2020-07-26T09:47:36.815Z</time>
      </trkpt>
      <trkpt lat="61.05985" lon="5.18265">
        <ele>161.804533</ele>
        <time>2020-07-26T09:47:37.863Z</time>
      </trkpt>
      <trkpt lat="61.05998" lon="5.18272">
        <ele>161.001145</ele>
        <time>2020-07-26T09:47:38.816Z</time>
      </trkpt>
      <trkpt lat="61.06011" lon="5.1828">
        <ele>160.208329</ele>
        <time>2020-07-26T09:47:39.797Z</time>
      </trkpt>
      <trkpt lat="61.06024" lon="5.18287">
        <ele>159.419611</ele>
        <time>2020-07-26T09:47:40.846Z</time>
      </trkpt>
      <trkpt lat="61.06037" lon="5.18295">
        <ele>158.633217</ele>
        <time>2020-07-26T09:47:41.834Z</time>
      </trkpt>
      <trkpt lat="61.0605" lon="5.18302">
        <ele>157.833843</ele>
        <time>2020-07-26T09:47:42.810Z</time>
      </trkpt>
      <trkpt lat="61.06063" lon="5.18308">
        <ele>157.051688</ele>
        <time>2020-07-26T09:47:43.806Z</time>
      </trkpt>
      <trkpt lat="61.06076" lon="5.18315">
        <ele>156.275196</ele>
        <time>2020-07-26T09:47:44.813Z</time>
      </trkpt>
      <trkpt lat="61.06089" lon="5.18321">
        <ele>155.495048</ele>
        <time>2020-07-26T09:47:45.802Z</time>
      </trkpt>
      <trkpt lat="61.06102" lon="5.18328">
        <ele>154.71619</ele>
        <time>2020-07-26T09:47:46.818Z</time>
      </trkpt>
      <trkpt lat="61.06115" lon="5.18334">
        <ele>153.931008</ele>
        <time>2020-07-26T09:47:47.811Z</time>
      </trkpt>
      <trkpt lat="61.06128" lon="5.1834">
        <ele>153.157193</ele>
        <time>2020-07-26T09:47:48.840Z</time>
      </trkpt>
      <trkpt lat="61.06141" lon="5.18345">
        <ele>152.414459</ele>
        <time>2020-07-26T09:47:49.813Z</time>
      </trkpt>
      <trkpt lat="61.06153" lon="5.18349">
        <ele>151.718543</ele>
        <time>2020-07-26T09:47:50.801Z</time>
      </trkpt>
      <trkpt lat="61.06163" lon="5.18352">
        <ele>151.082393</ele>
        <time>2020-07-26T09:47:51.808Z</time>
      </trkpt>
      <trkpt lat="61.06173" lon="5.18354">
        <ele>150.488221</ele>
        <time>2020-07-26T09:47:52.813Z</time>
      </trkpt>
      <trkpt lat="61.06183" lon="5.18356">
        <ele>149.931557</ele>
        <time>2020-07-26T09:47:53.801Z</time>
      </trkpt>
      <trkpt lat="61.062" lon="5.18358">
        <ele>148.925359</ele>
        <time>2020-07-26T09:47:55.791Z</time>
      </trkpt>
      <trkpt lat="61.06216" lon="5.1836">
        <ele>148.001429</ele>
        <time>2020-07-26T09:47:57.824Z</time>
      </trkpt>
      <trkpt lat="61.06231" lon="5.18363">
        <ele>146.913743</ele>
        <time>2020-07-26T09:47:59.797Z</time>
      </trkpt>
      <trkpt lat="61.06247" lon="5.18368">
        <ele>145.467943</ele>
        <time>2020-07-26T09:48:01.807Z</time>
      </trkpt>
      <trkpt lat="61.06265" lon="5.18374">
        <ele>143.910804</ele>
        <time>2020-07-26T09:48:03.796Z</time>
      </trkpt>
      <trkpt lat="61.06282" lon="5.18379">
        <ele>142.345211</ele>
        <time>2020-07-26T09:48:05.805Z</time>
      </trkpt>
      <trkpt lat="61.06291" lon="5.18383">
        <ele>141.524736</ele>
        <time>2020-07-26T09:48:06.814Z</time>
      </trkpt>
      <trkpt lat="61.063" lon="5.18388">
        <ele>140.709126</ele>
        <time>2020-07-26T09:48:07.806Z</time>
      </trkpt>
      <trkpt lat="61.06309" lon="5.18392">
        <ele>139.879811</ele>
        <time>2020-07-26T09:48:08.821Z</time>
      </trkpt>
      <trkpt lat="61.06326" lon="5.18401">
        <ele>138.337339</ele>
        <time>2020-07-26T09:48:10.810Z</time>
      </trkpt>
      <trkpt lat="61.06343" lon="5.1841">
        <ele>136.830188</ele>
        <time>2020-07-26T09:48:12.808Z</time>
      </trkpt>
      <trkpt lat="61.06358" lon="5.18419">
        <ele>135.431877</ele>
        <time>2020-07-26T09:48:14.796Z</time>
      </trkpt>
      <trkpt lat="61.06373" lon="5.18426">
        <ele>134.111594</ele>
        <time>2020-07-26T09:48:16.828Z</time>
      </trkpt>
      <trkpt lat="61.06387" lon="5.18436">
        <ele>132.792059</ele>
        <time>2020-07-26T09:48:18.811Z</time>
      </trkpt>
      <trkpt lat="61.06402" lon="5.18447">
        <ele>131.336817</ele>
        <time>2020-07-26T09:48:20.849Z</time>
      </trkpt>
      <trkpt lat="61.06418" lon="5.18461">
        <ele>129.657807</ele>
        <time>2020-07-26T09:48:22.802Z</time>
      </trkpt>
      <trkpt lat="61.06434" lon="5.18476">
        <ele>127.936697</ele>
        <time>2020-07-26T09:48:24.810Z</time>
      </trkpt>
      <trkpt lat="61.06443" lon="5.18484">
        <ele>127.00287</ele>
        <time>2020-07-26T09:48:25.801Z</time>
      </trkpt>
      <trkpt lat="61.06452" lon="5.18493">
        <ele>126.040632</ele>
        <time>2020-07-26T09:48:26.883Z</time>
      </trkpt>
      <trkpt lat="61.06462" lon="5.18501">
        <ele>125.062508</ele>
        <time>2020-07-26T09:48:27.796Z</time>
      </trkpt>
      <trkpt lat="61.06471" lon="5.18509">
        <ele>124.055828</ele>
        <time>2020-07-26T09:48:28.839Z</time>
      </trkpt>
      <trkpt lat="61.06481" lon="5.18517">
        <ele>123.07061</ele>
        <time>2020-07-26T09:48:29.815Z</time>
      </trkpt>
      <trkpt lat="61.0649" lon="5.18525">
        <ele>122.085392</ele>
        <time>2020-07-26T09:48:30.797Z</time>
      </trkpt>
      <trkpt lat="61.06499" lon="5.18533">
        <ele>121.119829</ele>
        <time>2020-07-26T09:48:31.814Z</time>
      </trkpt>
      <trkpt lat="61.06509" lon="5.18541">
        <ele>120.147131</ele>
        <time>2020-07-26T09:48:32.848Z</time>
      </trkpt>
      <trkpt lat="61.06517" lon="5.18549">
        <ele>119.217115</ele>
        <time>2020-07-26T09:48:33.810Z</time>
      </trkpt>
      <trkpt lat="61.06526" lon="5.18557">
        <ele>118.313591</ele>
        <time>2020-07-26T09:48:34.806Z</time>
      </trkpt>
      <trkpt lat="61.06542" lon="5.18574">
        <ele>116.605288</ele>
        <time>2020-07-26T09:48:36.798Z</time>
      </trkpt>
      <trkpt lat="61.06557" lon="5.18592">
        <ele>114.922645</ele>
        <time>2020-07-26T09:48:38.797Z</time>
      </trkpt>
      <trkpt lat="61.06571" lon="5.18612">
        <ele>113.83346</ele>
        <time>2020-07-26T09:48:40.810Z</time>
      </trkpt>
      <trkpt lat="61.06582" lon="5.18628">
        <ele>113.263275</ele>
        <time>2020-07-26T09:48:42.824Z</time>
      </trkpt>
      <trkpt lat="61.0659" lon="5.18638">
        <ele>112.874414</ele>
        <time>2020-07-26T09:48:44.806Z</time>
      </trkpt>
      <trkpt lat="61.06612" lon="5.18674">
        <ele>111.708986</ele>
        <time>2020-07-26T09:49:56.801Z</time>
      </trkpt>
      <trkpt lat="61.0662" lon="5.18687">
        <ele>111.310545</ele>
        <time>2020-07-26T09:49:58.799Z</time>
      </trkpt>
      <trkpt lat="61.06628" lon="5.18705">
        <ele>110.817574</ele>
        <time>2020-07-26T09:50:00.817Z</time>
      </trkpt>
      <trkpt lat="61.06638" lon="5.18723">
        <ele>110.27526</ele>
        <time>2020-07-26T09:50:02.798Z</time>
      </trkpt>
      <trkpt lat="61.06647" lon="5.18744">
        <ele>109.70905</ele>
        <time>2020-07-26T09:50:04.812Z</time>
      </trkpt>
      <trkpt lat="61.06659" lon="5.18762">
        <ele>109.094725</ele>
        <time>2020-07-26T09:50:06.809Z</time>
      </trkpt>
      <trkpt lat="61.06673" lon="5.18778">
        <ele>108.435387</ele>
        <time>2020-07-26T09:50:08.826Z</time>
      </trkpt>
      <trkpt lat="61.06689" lon="5.18794">
        <ele>107.719528</ele>
        <time>2020-07-26T09:50:10.811Z</time>
      </trkpt>
      <trkpt lat="61.06697" lon="5.18802">
        <ele>107.340375</ele>
        <time>2020-07-26T09:50:11.824Z</time>
      </trkpt>
      <trkpt lat="61.06705" lon="5.18811">
        <ele>106.954998</ele>
        <time>2020-07-26T09:50:12.811Z</time>
      </trkpt>
      <trkpt lat="61.06714" lon="5.18821">
        <ele>106.417499</ele>
        <time>2020-07-26T09:50:13.810Z</time>
      </trkpt>
      <trkpt lat="61.06728" lon="5.18837">
        <ele>105.418755</ele>
        <time>2020-07-26T09:50:15.804Z</time>
      </trkpt>
      <trkpt lat="61.0674" lon="5.18849">
        <ele>104.607534</ele>
        <time>2020-07-26T09:50:17.840Z</time>
      </trkpt>
      <trkpt lat="61.06753" lon="5.18859">
        <ele>103.80122</ele>
        <time>2020-07-26T09:50:19.809Z</time>
      </trkpt>
      <trkpt lat="61.06768" lon="5.18867">
        <ele>102.858265</ele>
        <time>2020-07-26T09:50:21.798Z</time>
      </trkpt>
      <trkpt lat="61.06784" lon="5.18872">
        <ele>101.828851</ele>
        <time>2020-07-26T09:50:23.814Z</time>
      </trkpt>
      <trkpt lat="61.06802" lon="5.18872">
        <ele>100.742926</ele>
        <time>2020-07-26T09:50:25.802Z</time>
      </trkpt>
      <trkpt lat="61.06819" lon="5.1887">
        <ele>99.686349</ele>
        <time>2020-07-26T09:50:27.829Z</time>
      </trkpt>
      <trkpt lat="61.06837" lon="5.18867">
        <ele>98.627733</ele>
        <time>2020-07-26T09:50:29.800Z</time>
      </trkpt>
      <trkpt lat="61.06853" lon="5.18865">
        <ele>97.600795</ele>
        <time>2020-07-26T09:50:31.794Z</time>
      </trkpt>
      <trkpt lat="61.06871" lon="5.18867">
        <ele>96.519552</ele>
        <time>2020-07-26T09:50:33.789Z</time>
      </trkpt>
      <trkpt lat="61.0688" lon="5.18867">
        <ele>95.952198</ele>
        <time>2020-07-26T09:50:34.806Z</time>
      </trkpt>
      <trkpt lat="61.0689" lon="5.18866">
        <ele>94.844966</ele>
        <time>2020-07-26T09:50:35.809Z</time>
      </trkpt>
      <trkpt lat="61.069" lon="5.18868">
        <ele>93.542456</ele>
        <time>2020-07-26T09:50:36.837Z</time>
      </trkpt>
      <trkpt lat="61.0691" lon="5.1887">
        <ele>92.188726</ele>
        <time>2020-07-26T09:50:37.799Z</time>
      </trkpt>
      <trkpt lat="61.0692" lon="5.1887">
        <ele>90.86427</ele>
        <time>2020-07-26T09:50:38.811Z</time>
      </trkpt>
      <trkpt lat="61.0693" lon="5.18871">
        <ele>89.540178</ele>
        <time>2020-07-26T09:50:39.807Z</time>
      </trkpt>
      <trkpt lat="61.0694" lon="5.1887">
        <ele>88.242291</ele>
        <time>2020-07-26T09:50:40.833Z</time>
      </trkpt>
      <trkpt lat="61.06949" lon="5.18869">
        <ele>87.009277</ele>
        <time>2020-07-26T09:50:41.803Z</time>
      </trkpt>
      <trkpt lat="61.06967" lon="5.18867">
        <ele>84.721422</ele>
        <time>2020-07-26T09:50:43.846Z</time>
      </trkpt>
      <trkpt lat="61.06983" lon="5.18866">
        <ele>82.584532</ele>
        <time>2020-07-26T09:50:45.795Z</time>
      </trkpt>
      <trkpt lat="61.07" lon="5.18868">
        <ele>80.419023</ele>
        <time>2020-07-26T09:50:47.808Z</time>
      </trkpt>
      <trkpt lat="61.07016" lon="5.18871">
        <ele>78.284277</ele>
        <time>2020-07-26T09:50:49.820Z</time>
      </trkpt>
      <trkpt lat="61.07032" lon="5.18875">
        <ele>76.123459</ele>
        <time>2020-07-26T09:50:51.825Z</time>
      </trkpt>
      <trkpt lat="61.07049" lon="5.1888">
        <ele>73.881255</ele>
        <time>2020-07-26T09:50:53.833Z</time>
      </trkpt>
      <trkpt lat="61.07066" lon="5.18887">
        <ele>71.759388</ele>
        <time>2020-07-26T09:50:55.838Z</time>
      </trkpt>
      <trkpt lat="61.07083" lon="5.18893">
        <ele>70.040931</ele>
        <time>2020-07-26T09:50:57.812Z</time>
      </trkpt>
      <trkpt lat="61.07101" lon="5.18898">
        <ele>68.26308</ele>
        <time>2020-07-26T09:50:59.805Z</time>
      </trkpt>
      <trkpt lat="61.0711" lon="5.18899">
        <ele>67.362922</ele>
        <time>2020-07-26T09:51:00.816Z</time>
      </trkpt>
      <trkpt lat="61.07127" lon="5.189">
        <ele>65.726338</ele>
        <time>2020-07-26T09:51:02.795Z</time>
      </trkpt>
      <trkpt lat="61.07142" lon="5.18896">
        <ele>64.263695</ele>
        <time>2020-07-26T09:51:04.830Z</time>
      </trkpt>
      <trkpt lat="61.07156" lon="5.18885">
        <ele>62.724446</ele>
        <time>2020-07-26T09:51:06.798Z</time>
      </trkpt>
      <trkpt lat="61.07171" lon="5.18871">
        <ele>61.173844</ele>
        <time>2020-07-26T09:51:08.801Z</time>
      </trkpt>
      <trkpt lat="61.07185" lon="5.18853">
        <ele>59.49337</ele>
        <time>2020-07-26T09:51:10.797Z</time>
      </trkpt>
      <trkpt lat="61.072" lon="5.18835">
        <ele>57.806402</ele>
        <time>2020-07-26T09:51:12.804Z</time>
      </trkpt>
      <trkpt lat="61.07214" lon="5.18813">
        <ele>56.101064</ele>
        <time>2020-07-26T09:51:14.796Z</time>
      </trkpt>
      <trkpt lat="61.07221" lon="5.18802">
        <ele>55.197133</ele>
        <time>2020-07-26T09:51:15.810Z</time>
      </trkpt>
      <trkpt lat="61.07229" lon="5.18792">
        <ele>54.462113</ele>
        <time>2020-07-26T09:51:16.818Z</time>
      </trkpt>
      <trkpt lat="61.07238" lon="5.18786">
        <ele>54.145125</ele>
        <time>2020-07-26T09:51:17.800Z</time>
      </trkpt>
      <trkpt lat="61.07247" lon="5.18782">
        <ele>53.819849</ele>
        <time>2020-07-26T09:51:18.794Z</time>
      </trkpt>
      <trkpt lat="61.07257" lon="5.18781">
        <ele>53.499428</ele>
        <time>2020-07-26T09:51:19.831Z</time>
      </trkpt>
      <trkpt lat="61.07274" lon="5.18788">
        <ele>52.900219</ele>
        <time>2020-07-26T09:51:21.811Z</time>
      </trkpt>
      <trkpt lat="61.07288" lon="5.18799">
        <ele>52.367605</ele>
        <time>2020-07-26T09:51:23.797Z</time>
      </trkpt>
      <trkpt lat="61.07301" lon="5.18813">
        <ele>51.871047</ele>
        <time>2020-07-26T09:51:25.800Z</time>
      </trkpt>
      <trkpt lat="61.07311" lon="5.18826">
        <ele>51.45856</ele>
        <time>2020-07-26T09:51:27.838Z</time>
      </trkpt>
      <trkpt lat="61.0732" lon="5.18837">
        <ele>51.103468</ele>
        <time>2020-07-26T09:51:29.807Z</time>
      </trkpt>
      <trkpt lat="61.07328" lon="5.18847">
        <ele>50.761389</ele>
        <time>2020-07-26T09:51:31.869Z</time>
      </trkpt>
      <trkpt lat="61.07336" lon="5.18857">
        <ele>50.444422</ele>
        <time>2020-07-26T09:51:33.815Z</time>
      </trkpt>
      <trkpt lat="61.07347" lon="5.1887">
        <ele>50.010961</ele>
        <time>2020-07-26T09:51:36.798Z</time>
      </trkpt>
      <trkpt lat="61.07357" lon="5.18881">
        <ele>49.619801</ele>
        <time>2020-07-26T09:51:39.843Z</time>
      </trkpt>
      <trkpt lat="61.07365" lon="5.18891">
        <ele>49.307685</ele>
        <time>2020-07-26T09:51:42.808Z</time>
      </trkpt>
      <trkpt lat="61.07373" lon="5.18904">
        <ele>48.94169</ele>
        <time>2020-07-26T09:51:46.809Z</time>
      </trkpt>
      <trkpt lat="61.07383" lon="5.18914">
        <ele>48.559049</ele>
        <time>2020-07-26T09:51:50.803Z</time>
      </trkpt>
      <trkpt lat="61.07392" lon="5.18928">
        <ele>48.737997</ele>
        <time>2020-07-26T09:51:54.815Z</time>
      </trkpt>
      <trkpt lat="61.07398" lon="5.18942">
        <ele>49.411877</ele>
        <time>2020-07-26T09:51:58.815Z</time>
      </trkpt>
      <trkpt lat="61.07404" lon="5.18959">
        <ele>50.147079</ele>
        <time>2020-07-26T09:52:04.807Z</time>
      </trkpt>
      <trkpt lat="61.07405" lon="5.18939">
        <ele>50.865168</ele>
        <time>2020-07-26T09:52:59.825Z</time>
      </trkpt>
      <trkpt lat="61.07652" lon="5.18957">
        <ele>65.886675</ele>
        <time>2020-07-26T10:30:23.399Z</time>
      </trkpt>
      <trkpt lat="61.07667" lon="5.18959">
        <ele>66.54049</ele>
        <time>2020-07-26T10:30:25.429Z</time>
      </trkpt>
      <trkpt lat="61.07676" lon="5.18973">
        <ele>67.032461</ele>
        <time>2020-07-26T10:30:30.325Z</time>
      </trkpt>
      <trkpt lat="61.07684" lon="5.18988">
        <ele>67.510667</ele>
        <time>2020-07-26T10:30:33.334Z</time>
      </trkpt>
      <trkpt lat="61.07692" lon="5.19003">
        <ele>67.987017</ele>
        <time>2020-07-26T10:30:36.322Z</time>
      </trkpt>
      <trkpt lat="61.07698" lon="5.19017">
        <ele>68.411914</ele>
        <time>2020-07-26T10:30:39.341Z</time>
      </trkpt>
      <trkpt lat="61.07705" lon="5.19031">
        <ele>68.82442</ele>
        <time>2020-07-26T10:30:42.317Z</time>
      </trkpt>
      <trkpt lat="61.07713" lon="5.19044">
        <ele>69.263656</ele>
        <time>2020-07-26T10:30:45.338Z</time>
      </trkpt>
      <trkpt lat="61.07721" lon="5.19058">
        <ele>69.364222</ele>
        <time>2020-07-26T10:30:48.330Z</time>
      </trkpt>
      <trkpt lat="61.0773" lon="5.19076">
        <ele>69.431016</ele>
        <time>2020-07-26T10:30:51.330Z</time>
      </trkpt>
      <trkpt lat="61.07737" lon="5.19093">
        <ele>69.49012</ele>
        <time>2020-07-26T10:30:54.329Z</time>
      </trkpt>
      <trkpt lat="61.07745" lon="5.19105">
        <ele>69.542047</ele>
        <time>2020-07-26T10:30:57.334Z</time>
      </trkpt>
      <trkpt lat="61.07751" lon="5.19119">
        <ele>69.59139</ele>
        <time>2020-07-26T10:31:00.335Z</time>
      </trkpt>
      <trkpt lat="61.07757" lon="5.19135">
        <ele>69.64379</ele>
        <time>2020-07-26T10:31:03.343Z</time>
      </trkpt>
      <trkpt lat="61.07764" lon="5.19152">
        <ele>69.703683</ele>
        <time>2020-07-26T10:31:06.337Z</time>
      </trkpt>
      <trkpt lat="61.07771" lon="5.19172">
        <ele>69.768545</ele>
        <time>2020-07-26T10:31:09.334Z</time>
      </trkpt>
      <trkpt lat="61.07778" lon="5.19191">
        <ele>69.828653</ele>
        <time>2020-07-26T10:31:12.341Z</time>
      </trkpt>
      <trkpt lat="61.07787" lon="5.19209">
        <ele>69.897147</ele>
        <time>2020-07-26T10:31:15.321Z</time>
      </trkpt>
      <trkpt lat="61.07796" lon="5.19228">
        <ele>69.966586</ele>
        <time>2020-07-26T10:31:18.340Z</time>
      </trkpt>
      <trkpt lat="61.07803" lon="5.19248">
        <ele>70.032025</ele>
        <time>2020-07-26T10:31:21.334Z</time>
      </trkpt>
      <trkpt lat="61.0781" lon="5.19268">
        <ele>70.095056</ele>
        <time>2020-07-26T10:31:24.347Z</time>
      </trkpt>
      <trkpt lat="61.07816" lon="5.19287">
        <ele>70.155453</ele>
        <time>2020-07-26T10:31:27.325Z</time>
      </trkpt>
      <trkpt lat="61.07822" lon="5.19306">
        <ele>70.215772</ele>
        <time>2020-07-26T10:31:30.334Z</time>
      </trkpt>
      <trkpt lat="61.07829" lon="5.19324">
        <ele>70.275593</ele>
        <time>2020-07-26T10:31:33.343Z</time>
      </trkpt>
      <trkpt lat="61.07836" lon="5.1934">
        <ele>70.111147</ele>
        <time>2020-07-26T10:31:36.328Z</time>
      </trkpt>
      <trkpt lat="61.07845" lon="5.19356">
        <ele>69.894401</ele>
        <time>2020-07-26T10:31:39.322Z</time>
      </trkpt>
      <trkpt lat="61.07853" lon="5.19375">
        <ele>69.670678</ele>
        <time>2020-07-26T10:31:42.333Z</time>
      </trkpt>
      <trkpt lat="61.07861" lon="5.19395">
        <ele>69.435781</ele>
        <time>2020-07-26T10:31:45.338Z</time>
      </trkpt>
      <trkpt lat="61.07868" lon="5.19416">
        <ele>69.200064</ele>
        <time>2020-07-26T10:31:48.338Z</time>
      </trkpt>
      <trkpt lat="61.07873" lon="5.19432">
        <ele>69.030977</ele>
        <time>2020-07-26T10:31:50.335Z</time>
      </trkpt>
      <trkpt lat="61.07881" lon="5.19453">
        <ele>68.783939</ele>
        <time>2020-07-26T10:31:53.360Z</time>
      </trkpt>
      <trkpt lat="61.07889" lon="5.19474">
        <ele>68.541503</ele>
        <time>2020-07-26T10:31:56.355Z</time>
      </trkpt>
      <trkpt lat="61.07897" lon="5.19493">
        <ele>68.313262</ele>
        <time>2020-07-26T10:31:59.328Z</time>
      </trkpt>
      <trkpt lat="61.07906" lon="5.19511">
        <ele>68.085691</ele>
        <time>2020-07-26T10:32:02.335Z</time>
      </trkpt>
      <trkpt lat="61.07914" lon="5.19528">
        <ele>67.865849</ele>
        <time>2020-07-26T10:32:05.349Z</time>
      </trkpt>
      <trkpt lat="61.07922" lon="5.19547">
        <ele>67.638278</ele>
        <time>2020-07-26T10:32:08.344Z</time>
      </trkpt>
      <trkpt lat="61.0793" lon="5.19567">
        <ele>67.406871</ele>
        <time>2020-07-26T10:32:11.342Z</time>
      </trkpt>
      <trkpt lat="61.07937" lon="5.19586">
        <ele>67.194617</ele>
        <time>2020-07-26T10:32:14.328Z</time>
      </trkpt>
      <trkpt lat="61.07943" lon="5.19604">
        <ele>66.992223</ele>
        <time>2020-07-26T10:32:17.331Z</time>
      </trkpt>
      <trkpt lat="61.07951" lon="5.19622">
        <ele>67.245079</ele>
        <time>2020-07-26T10:32:20.321Z</time>
      </trkpt>
      <trkpt lat="61.07959" lon="5.1964">
        <ele>67.781649</ele>
        <time>2020-07-26T10:32:23.356Z</time>
      </trkpt>
      <trkpt lat="61.07967" lon="5.19661">
        <ele>68.351952</ele>
        <time>2020-07-26T10:32:26.335Z</time>
      </trkpt>
      <trkpt lat="61.07976" lon="5.19681">
        <ele>68.907274</ele>
        <time>2020-07-26T10:32:29.342Z</time>
      </trkpt>
      <trkpt lat="61.07983" lon="5.197">
        <ele>69.436511</ele>
        <time>2020-07-26T10:32:32.343Z</time>
      </trkpt>
      <trkpt lat="61.07991" lon="5.19719">
        <ele>69.961223</ele>
        <time>2020-07-26T10:32:35.339Z</time>
      </trkpt>
      <trkpt lat="61.07999" lon="5.19738">
        <ele>70.48882</ele>
        <time>2020-07-26T10:32:38.337Z</time>
      </trkpt>
      <trkpt lat="61.08007" lon="5.19756">
        <ele>71.025386</ele>
        <time>2020-07-26T10:32:41.331Z</time>
      </trkpt>
      <trkpt lat="61.08014" lon="5.19776">
        <ele>71.544572</ele>
        <time>2020-07-26T10:32:44.341Z</time>
      </trkpt>
      <trkpt lat="61.08022" lon="5.19797">
        <ele>72.098493</ele>
        <time>2020-07-26T10:32:47.335Z</time>
      </trkpt>
      <trkpt lat="61.0803" lon="5.19817">
        <ele>72.635993</ele>
        <time>2020-07-26T10:32:50.348Z</time>
      </trkpt>
      <trkpt lat="61.08037" lon="5.19836">
        <ele>73.153161</ele>
        <time>2020-07-26T10:32:53.340Z</time>
      </trkpt>
      <trkpt lat="61.08045" lon="5.19855">
        <ele>73.690715</ele>
        <time>2020-07-26T10:32:56.341Z</time>
      </trkpt>
      <trkpt lat="61.08053" lon="5.19875">
        <ele>74.237134</ele>
        <time>2020-07-26T10:32:59.350Z</time>
      </trkpt>
      <trkpt lat="61.08062" lon="5.19895">
        <ele>74.782057</ele>
        <time>2020-07-26T10:33:02.345Z</time>
      </trkpt>
      <trkpt lat="61.0807" lon="5.19915">
        <ele>74.894934</ele>
        <time>2020-07-26T10:33:05.346Z</time>
      </trkpt>
      <trkpt lat="61.08078" lon="5.19937">
        <ele>75.00918</ele>
        <time>2020-07-26T10:33:08.334Z</time>
      </trkpt>
      <trkpt lat="61.08085" lon="5.19961">
        <ele>75.12793</ele>
        <time>2020-07-26T10:33:11.358Z</time>
      </trkpt>
      <trkpt lat="61.08091" lon="5.19976">
        <ele>75.206026</ele>
        <time>2020-07-26T10:33:13.333Z</time>
      </trkpt>
      <trkpt lat="61.08096" lon="5.19991">
        <ele>75.28634</ele>
        <time>2020-07-26T10:33:15.324Z</time>
      </trkpt>
      <trkpt lat="61.08104" lon="5.20012">
        <ele>75.400926</ele>
        <time>2020-07-26T10:33:18.340Z</time>
      </trkpt>
      <trkpt lat="61.0811" lon="5.20027">
        <ele>75.479102</ele>
        <time>2020-07-26T10:33:20.342Z</time>
      </trkpt>
      <trkpt lat="61.08116" lon="5.20042">
        <ele>75.560341</ele>
        <time>2020-07-26T10:33:22.331Z</time>
      </trkpt>
      <trkpt lat="61.08121" lon="5.20057">
        <ele>75.639309</ele>
        <time>2020-07-26T10:33:24.338Z</time>
      </trkpt>
      <trkpt lat="61.0813" lon="5.20078">
        <ele>75.755097</ele>
        <time>2020-07-26T10:33:27.343Z</time>
      </trkpt>
      <trkpt lat="61.08136" lon="5.20102">
        <ele>75.868613</ele>
        <time>2020-07-26T10:33:30.321Z</time>
      </trkpt>
      <trkpt lat="61.08141" lon="5.20117">
        <ele>75.94841</ele>
        <time>2020-07-26T10:33:32.325Z</time>
      </trkpt>
      <trkpt lat="61.08149" lon="5.20138">
        <ele>76.056681</ele>
        <time>2020-07-26T10:33:35.321Z</time>
      </trkpt>
      <trkpt lat="61.08156" lon="5.20156">
        <ele>76.158189</ele>
        <time>2020-07-26T10:33:38.342Z</time>
      </trkpt>
      <trkpt lat="61.08164" lon="5.20172">
        <ele>76.253025</ele>
        <time>2020-07-26T10:33:41.347Z</time>
      </trkpt>
      <trkpt lat="61.08172" lon="5.20188">
        <ele>76.336445</ele>
        <time>2020-07-26T10:33:44.333Z</time>
      </trkpt>
      <trkpt lat="61.0818" lon="5.20203">
        <ele>76.125362</ele>
        <time>2020-07-26T10:33:47.341Z</time>
      </trkpt>
      <trkpt lat="61.08187" lon="5.20222">
        <ele>75.897566</ele>
        <time>2020-07-26T10:33:50.328Z</time>
      </trkpt>
      <trkpt lat="61.08194" lon="5.20242">
        <ele>75.675375</ele>
        <time>2020-07-26T10:33:53.331Z</time>
      </trkpt>
      <trkpt lat="61.082" lon="5.20262">
        <ele>75.447791</ele>
        <time>2020-07-26T10:33:56.388Z</time>
      </trkpt>
      <trkpt lat="61.08207" lon="5.20283">
        <ele>75.208452</ele>
        <time>2020-07-26T10:33:59.332Z</time>
      </trkpt>
      <trkpt lat="61.08214" lon="5.20305">
        <ele>74.967521</ele>
        <time>2020-07-26T10:34:02.325Z</time>
      </trkpt>
      <trkpt lat="61.08221" lon="5.20327">
        <ele>74.715381</ele>
        <time>2020-07-26T10:34:05.352Z</time>
      </trkpt>
      <trkpt lat="61.08229" lon="5.20349">
        <ele>74.460594</ele>
        <time>2020-07-26T10:34:08.349Z</time>
      </trkpt>
      <trkpt lat="61.08234" lon="5.20364">
        <ele>74.28392</ele>
        <time>2020-07-26T10:34:10.324Z</time>
      </trkpt>
      <trkpt lat="61.08242" lon="5.20386">
        <ele>74.036353</ele>
        <time>2020-07-26T10:34:13.305Z</time>
      </trkpt>
      <trkpt lat="61.08249" lon="5.20408">
        <ele>73.794637</ele>
        <time>2020-07-26T10:34:16.330Z</time>
      </trkpt>
      <trkpt lat="61.08254" lon="5.20431">
        <ele>73.545018</ele>
        <time>2020-07-26T10:34:19.333Z</time>
      </trkpt>
      <trkpt lat="61.08259" lon="5.20448">
        <ele>73.369339</ele>
        <time>2020-07-26T10:34:21.313Z</time>
      </trkpt>
      <trkpt lat="61.08266" lon="5.20471">
        <ele>73.117395</ele>
        <time>2020-07-26T10:34:24.319Z</time>
      </trkpt>
      <trkpt lat="61.08273" lon="5.20493">
        <ele>72.865997</ele>
        <time>2020-07-26T10:34:27.323Z</time>
      </trkpt>
      <trkpt lat="61.0828" lon="5.20516">
        <ele>73.085431</ele>
        <time>2020-07-26T10:34:30.344Z</time>
      </trkpt>
      <trkpt lat="61.08288" lon="5.20538">
        <ele>73.300491</ele>
        <time>2020-07-26T10:34:33.334Z</time>
      </trkpt>
      <trkpt lat="61.08295" lon="5.20558">
        <ele>73.501782</ele>
        <time>2020-07-26T10:34:36.324Z</time>
      </trkpt>
      <trkpt lat="61.08302" lon="5.2058">
        <ele>73.719481</ele>
        <time>2020-07-26T10:34:39.331Z</time>
      </trkpt>
      <trkpt lat="61.0831" lon="5.20601">
        <ele>73.935319</ele>
        <time>2020-07-26T10:34:42.333Z</time>
      </trkpt>
      <trkpt lat="61.08318" lon="5.20622">
        <ele>74.150918</ele>
        <time>2020-07-26T10:34:45.335Z</time>
      </trkpt>
      <trkpt lat="61.08326" lon="5.20642">
        <ele>74.369685</ele>
        <time>2020-07-26T10:34:48.332Z</time>
      </trkpt>
      <trkpt lat="61.08335" lon="5.20663">
        <ele>74.584442</ele>
        <time>2020-07-26T10:34:51.329Z</time>
      </trkpt>
      <trkpt lat="61.08342" lon="5.20684">
        <ele>74.797862</ele>
        <time>2020-07-26T10:34:54.330Z</time>
      </trkpt>
      <trkpt lat="61.08349" lon="5.20706">
        <ele>75.01058</ele>
        <time>2020-07-26T10:34:57.301Z</time>
      </trkpt>
      <trkpt lat="61.08356" lon="5.20728">
        <ele>75.219907</ele>
        <time>2020-07-26T10:35:00.335Z</time>
      </trkpt>
      <trkpt lat="61.08363" lon="5.20748">
        <ele>75.426659</ele>
        <time>2020-07-26T10:35:03.344Z</time>
      </trkpt>
      <trkpt lat="61.08371" lon="5.20768">
        <ele>75.634281</ele>
        <time>2020-07-26T10:35:06.345Z</time>
      </trkpt>
      <trkpt lat="61.08379" lon="5.20789">
        <ele>75.849665</ele>
        <time>2020-07-26T10:35:09.347Z</time>
      </trkpt>
      <trkpt lat="61.08387" lon="5.2081">
        <ele>75.379265</ele>
        <time>2020-07-26T10:35:12.343Z</time>
      </trkpt>
      <trkpt lat="61.08393" lon="5.2083">
        <ele>74.855147</ele>
        <time>2020-07-26T10:35:15.323Z</time>
      </trkpt>
      <trkpt lat="61.08401" lon="5.20851">
        <ele>74.278168</ele>
        <time>2020-07-26T10:35:18.330Z</time>
      </trkpt>
      <trkpt lat="61.08409" lon="5.20871">
        <ele>73.731544</ele>
        <time>2020-07-26T10:35:21.328Z</time>
      </trkpt>
      <trkpt lat="61.08416" lon="5.2089">
        <ele>73.199455</ele>
        <time>2020-07-26T10:35:24.333Z</time>
      </trkpt>
      <trkpt lat="61.08424" lon="5.2091">
        <ele>72.662904</ele>
        <time>2020-07-26T10:35:27.363Z</time>
      </trkpt>
      <trkpt lat="61.08431" lon="5.2093">
        <ele>72.101667</ele>
        <time>2020-07-26T10:35:30.332Z</time>
      </trkpt>
      <trkpt lat="61.08439" lon="5.2095">
        <ele>71.543205</ele>
        <time>2020-07-26T10:35:33.346Z</time>
      </trkpt>
      <trkpt lat="61.08446" lon="5.20971">
        <ele>70.996528</ele>
        <time>2020-07-26T10:35:36.332Z</time>
      </trkpt>
      <trkpt lat="61.08453" lon="5.2099">
        <ele>70.476771</ele>
        <time>2020-07-26T10:35:39.333Z</time>
      </trkpt>
      <trkpt lat="61.08461" lon="5.21009">
        <ele>69.944699</ele>
        <time>2020-07-26T10:35:42.333Z</time>
      </trkpt>
      <trkpt lat="61.08469" lon="5.21029">
        <ele>69.38067</ele>
        <time>2020-07-26T10:35:45.312Z</time>
      </trkpt>
      <trkpt lat="61.08477" lon="5.2105">
        <ele>68.792853</ele>
        <time>2020-07-26T10:35:48.316Z</time>
      </trkpt>
      <trkpt lat="61.08486" lon="5.2107">
        <ele>68.201116</ele>
        <time>2020-07-26T10:35:51.320Z</time>
      </trkpt>
      <trkpt lat="61.08494" lon="5.21091">
        <ele>67.651071</ele>
        <time>2020-07-26T10:35:54.340Z</time>
      </trkpt>
      <trkpt lat="61.08503" lon="5.21112">
        <ele>67.153468</ele>
        <time>2020-07-26T10:35:57.319Z</time>
      </trkpt>
      <trkpt lat="61.08508" lon="5.21127">
        <ele>66.817289</ele>
        <time>2020-07-26T10:35:59.322Z</time>
      </trkpt>
      <trkpt lat="61.08516" lon="5.21147">
        <ele>66.339631</ele>
        <time>2020-07-26T10:36:02.353Z</time>
      </trkpt>
      <trkpt lat="61.08523" lon="5.21168">
        <ele>65.890368</ele>
        <time>2020-07-26T10:36:05.336Z</time>
      </trkpt>
      <trkpt lat="61.0853" lon="5.21188">
        <ele>65.438713</ele>
        <time>2020-07-26T10:36:08.325Z</time>
      </trkpt>
      <trkpt lat="61.08537" lon="5.2121">
        <ele>64.968137</ele>
        <time>2020-07-26T10:36:11.326Z</time>
      </trkpt>
      <trkpt lat="61.08545" lon="5.2123">
        <ele>64.507792</ele>
        <time>2020-07-26T10:36:14.319Z</time>
      </trkpt>
      <trkpt lat="61.08552" lon="5.2125">
        <ele>64.06004</ele>
        <time>2020-07-26T10:36:17.320Z</time>
      </trkpt>
      <trkpt lat="61.08558" lon="5.21269">
        <ele>63.626299</ele>
        <time>2020-07-26T10:36:20.326Z</time>
      </trkpt>
      <trkpt lat="61.08566" lon="5.21288">
        <ele>63.190909</ele>
        <time>2020-07-26T10:36:23.322Z</time>
      </trkpt>
      <trkpt lat="61.08573" lon="5.21308">
        <ele>62.749101</ele>
        <time>2020-07-26T10:36:26.332Z</time>
      </trkpt>
      <trkpt lat="61.08579" lon="5.21328">
        <ele>62.309155</ele>
        <time>2020-07-26T10:36:29.327Z</time>
      </trkpt>
      <trkpt lat="61.08586" lon="5.21347">
        <ele>61.873951</ele>
        <time>2020-07-26T10:36:32.315Z</time>
      </trkpt>
      <trkpt lat="61.08593" lon="5.21367">
        <ele>61.415044</ele>
        <time>2020-07-26T10:36:35.358Z</time>
      </trkpt>
      <trkpt lat="61.08601" lon="5.21387">
        <ele>61.069775</ele>
        <time>2020-07-26T10:36:38.320Z</time>
      </trkpt>
      <trkpt lat="61.08609" lon="5.21407">
        <ele>61.019254</ele>
        <time>2020-07-26T10:36:41.334Z</time>
      </trkpt>
      <trkpt lat="61.08616" lon="5.21427">
        <ele>60.968308</ele>
        <time>2020-07-26T10:36:44.316Z</time>
      </trkpt>
      <trkpt lat="61.08624" lon="5.21447">
        <ele>60.918954</ele>
        <time>2020-07-26T10:36:47.323Z</time>
      </trkpt>
      <trkpt lat="61.08631" lon="5.21466">
        <ele>60.870276</ele>
        <time>2020-07-26T10:36:50.342Z</time>
      </trkpt>
      <trkpt lat="61.08638" lon="5.21486">
        <ele>60.82245</ele>
        <time>2020-07-26T10:36:53.322Z</time>
      </trkpt>
      <trkpt lat="61.08646" lon="5.21503">
        <ele>60.775765</ele>
        <time>2020-07-26T10:36:56.325Z</time>
      </trkpt>
      <trkpt lat="61.08654" lon="5.21521">
        <ele>60.726849</ele>
        <time>2020-07-26T10:36:59.323Z</time>
      </trkpt>
      <trkpt lat="61.08662" lon="5.21541">
        <ele>60.676222</ele>
        <time>2020-07-26T10:37:02.328Z</time>
      </trkpt>
      <trkpt lat="61.08669" lon="5.2156">
        <ele>60.627851</ele>
        <time>2020-07-26T10:37:05.297Z</time>
      </trkpt>
      <trkpt lat="61.08677" lon="5.2158">
        <ele>60.577023</ele>
        <time>2020-07-26T10:37:08.327Z</time>
      </trkpt>
      <trkpt lat="61.08684" lon="5.21601">
        <ele>60.527833</ele>
        <time>2020-07-26T10:37:11.333Z</time>
      </trkpt>
      <trkpt lat="61.08691" lon="5.21621">
        <ele>60.479376</ele>
        <time>2020-07-26T10:37:14.342Z</time>
      </trkpt>
      <trkpt lat="61.08699" lon="5.2164">
        <ele>60.42992</ele>
        <time>2020-07-26T10:37:17.330Z</time>
      </trkpt>
      <trkpt lat="61.08707" lon="5.21658">
        <ele>60.381715</ele>
        <time>2020-07-26T10:37:20.346Z</time>
      </trkpt>
      <trkpt lat="61.08715" lon="5.21676">
        <ele>60.525602</ele>
        <time>2020-07-26T10:37:23.333Z</time>
      </trkpt>
      <trkpt lat="61.08724" lon="5.21694">
        <ele>61.005873</ele>
        <time>2020-07-26T10:37:26.342Z</time>
      </trkpt>
      <trkpt lat="61.08732" lon="5.21712">
        <ele>61.480636</ele>
        <time>2020-07-26T10:37:29.328Z</time>
      </trkpt>
      <trkpt lat="61.0874" lon="5.2173">
        <ele>61.938242</ele>
        <time>2020-07-26T10:37:32.329Z</time>
      </trkpt>
      <trkpt lat="61.08747" lon="5.21749">
        <ele>62.403178</ele>
        <time>2020-07-26T10:37:35.325Z</time>
      </trkpt>
      <trkpt lat="61.08754" lon="5.21767">
        <ele>62.838375</ele>
        <time>2020-07-26T10:37:38.315Z</time>
      </trkpt>
      <trkpt lat="61.08761" lon="5.21785">
        <ele>63.294873</ele>
        <time>2020-07-26T10:37:41.334Z</time>
      </trkpt>
      <trkpt lat="61.08768" lon="5.21802">
        <ele>63.726457</ele>
        <time>2020-07-26T10:37:44.325Z</time>
      </trkpt>
      <trkpt lat="61.08776" lon="5.2182">
        <ele>64.179267</ele>
        <time>2020-07-26T10:37:47.355Z</time>
      </trkpt>
      <trkpt lat="61.08784" lon="5.21838">
        <ele>64.639201</ele>
        <time>2020-07-26T10:37:50.326Z</time>
      </trkpt>
      <trkpt lat="61.08791" lon="5.21857">
        <ele>65.107554</ele>
        <time>2020-07-26T10:37:53.330Z</time>
      </trkpt>
      <trkpt lat="61.08798" lon="5.21876">
        <ele>65.584019</ele>
        <time>2020-07-26T10:37:56.323Z</time>
      </trkpt>
      <trkpt lat="61.08805" lon="5.21893">
        <ele>65.99765</ele>
        <time>2020-07-26T10:37:59.329Z</time>
      </trkpt>
      <trkpt lat="61.08812" lon="5.2191">
        <ele>66.430049</ele>
        <time>2020-07-26T10:38:02.336Z</time>
      </trkpt>
      <trkpt lat="61.0882" lon="5.21927">
        <ele>66.87325</ele>
        <time>2020-07-26T10:38:05.333Z</time>
      </trkpt>
      <trkpt lat="61.08827" lon="5.21945">
        <ele>67.326159</ele>
        <time>2020-07-26T10:38:08.332Z</time>
      </trkpt>
      <trkpt lat="61.08835" lon="5.21962">
        <ele>67.336073</ele>
        <time>2020-07-26T10:38:11.330Z</time>
      </trkpt>
      <trkpt lat="61.08843" lon="5.2198">
        <ele>67.080804</ele>
        <time>2020-07-26T10:38:14.324Z</time>
      </trkpt>
      <trkpt lat="61.0885" lon="5.21997">
        <ele>66.835633</ele>
        <time>2020-07-26T10:38:17.312Z</time>
      </trkpt>
      <trkpt lat="61.08856" lon="5.22015">
        <ele>66.596537</ele>
        <time>2020-07-26T10:38:20.343Z</time>
      </trkpt>
      <trkpt lat="61.08863" lon="5.22033">
        <ele>66.349729</ele>
        <time>2020-07-26T10:38:23.334Z</time>
      </trkpt>
      <trkpt lat="61.08871" lon="5.22051">
        <ele>66.105369</ele>
        <time>2020-07-26T10:38:26.328Z</time>
      </trkpt>
      <trkpt lat="61.08877" lon="5.22068">
        <ele>65.866848</ele>
        <time>2020-07-26T10:38:29.323Z</time>
      </trkpt>
      <trkpt lat="61.08884" lon="5.22086">
        <ele>65.629366</ele>
        <time>2020-07-26T10:38:32.331Z</time>
      </trkpt>
      <trkpt lat="61.08892" lon="5.22103">
        <ele>65.38599</ele>
        <time>2020-07-26T10:38:35.312Z</time>
      </trkpt>
      <trkpt lat="61.08899" lon="5.22121">
        <ele>65.132527</ele>
        <time>2020-07-26T10:38:38.327Z</time>
      </trkpt>
      <trkpt lat="61.08906" lon="5.22139">
        <ele>64.890158</ele>
        <time>2020-07-26T10:38:41.321Z</time>
      </trkpt>
      <trkpt lat="61.08913" lon="5.22156">
        <ele>64.658776</ele>
        <time>2020-07-26T10:38:44.329Z</time>
      </trkpt>
      <trkpt lat="61.08919" lon="5.22173">
        <ele>64.426209</ele>
        <time>2020-07-26T10:38:47.338Z</time>
      </trkpt>
      <trkpt lat="61.08926" lon="5.22192">
        <ele>64.17917</ele>
        <time>2020-07-26T10:38:50.354Z</time>
      </trkpt>
      <trkpt lat="61.08934" lon="5.22211">
        <ele>63.910674</ele>
        <time>2020-07-26T10:38:53.349Z</time>
      </trkpt>
      <trkpt lat="61.08941" lon="5.2223">
        <ele>63.652083</ele>
        <time>2020-07-26T10:38:56.335Z</time>
      </trkpt>
      <trkpt lat="61.08948" lon="5.22248">
        <ele>63.548176</ele>
        <time>2020-07-26T10:38:59.310Z</time>
      </trkpt>
      <trkpt lat="61.08954" lon="5.22265">
        <ele>63.549383</ele>
        <time>2020-07-26T10:39:02.320Z</time>
      </trkpt>
      <trkpt lat="61.08961" lon="5.22283">
        <ele>63.550659</ele>
        <time>2020-07-26T10:39:05.333Z</time>
      </trkpt>
      <trkpt lat="61.08968" lon="5.223">
        <ele>63.551932</ele>
        <time>2020-07-26T10:39:08.331Z</time>
      </trkpt>
      <trkpt lat="61.08976" lon="5.22317">
        <ele>63.553242</ele>
        <time>2020-07-26T10:39:11.322Z</time>
      </trkpt>
      <trkpt lat="61.08983" lon="5.22333">
        <ele>63.554511</ele>
        <time>2020-07-26T10:39:14.344Z</time>
      </trkpt>
      <trkpt lat="61.0899" lon="5.22349">
        <ele>63.555735</ele>
        <time>2020-07-26T10:39:17.330Z</time>
      </trkpt>
      <trkpt lat="61.08996" lon="5.22367">
        <ele>63.556988</ele>
        <time>2020-07-26T10:39:20.323Z</time>
      </trkpt>
      <trkpt lat="61.09004" lon="5.22383">
        <ele>63.558208</ele>
        <time>2020-07-26T10:39:23.327Z</time>
      </trkpt>
      <trkpt lat="61.09011" lon="5.22399">
        <ele>63.559488</ele>
        <time>2020-07-26T10:39:26.328Z</time>
      </trkpt>
      <trkpt lat="61.09018" lon="5.22415">
        <ele>63.560714</ele>
        <time>2020-07-26T10:39:29.348Z</time>
      </trkpt>
      <trkpt lat="61.09027" lon="5.22433">
        <ele>63.562117</ele>
        <time>2020-07-26T10:39:32.328Z</time>
      </trkpt>
      <trkpt lat="61.09035" lon="5.22451">
        <ele>63.563548</ele>
        <time>2020-07-26T10:39:35.325Z</time>
      </trkpt>
      <trkpt lat="61.09043" lon="5.22469">
        <ele>63.564895</ele>
        <time>2020-07-26T10:39:38.336Z</time>
      </trkpt>
      <trkpt lat="61.0905" lon="5.22486">
        <ele>63.566177</ele>
        <time>2020-07-26T10:39:41.323Z</time>
      </trkpt>
      <trkpt lat="61.09057" lon="5.22501">
        <ele>63.567352</ele>
        <time>2020-07-26T10:39:44.336Z</time>
      </trkpt>
      <trkpt lat="61.09064" lon="5.22518">
        <ele>63.57956</ele>
        <time>2020-07-26T10:39:47.340Z</time>
      </trkpt>
      <trkpt lat="61.09071" lon="5.22534">
        <ele>63.734959</ele>
        <time>2020-07-26T10:39:50.330Z</time>
      </trkpt>
      <trkpt lat="61.09079" lon="5.22551">
        <ele>63.895884</ele>
        <time>2020-07-26T10:39:53.332Z</time>
      </trkpt>
      <trkpt lat="61.09086" lon="5.22569">
        <ele>64.058005</ele>
        <time>2020-07-26T10:39:56.327Z</time>
      </trkpt>
      <trkpt lat="61.09094" lon="5.22586">
        <ele>64.221066</ele>
        <time>2020-07-26T10:39:59.321Z</time>
      </trkpt>
      <trkpt lat="61.09102" lon="5.22604">
        <ele>64.38644</ele>
        <time>2020-07-26T10:40:02.353Z</time>
      </trkpt>
      <trkpt lat="61.0911" lon="5.22621">
        <ele>64.549805</ele>
        <time>2020-07-26T10:40:05.334Z</time>
      </trkpt>
      <trkpt lat="61.09117" lon="5.22638">
        <ele>64.713694</ele>
        <time>2020-07-26T10:40:08.336Z</time>
      </trkpt>
      <trkpt lat="61.09125" lon="5.22656">
        <ele>64.880052</ele>
        <time>2020-07-26T10:40:11.337Z</time>
      </trkpt>
      <trkpt lat="61.09133" lon="5.22673">
        <ele>65.039662</ele>
        <time>2020-07-26T10:40:14.350Z</time>
      </trkpt>
      <trkpt lat="61.09139" lon="5.2269">
        <ele>65.191079</ele>
        <time>2020-07-26T10:40:17.312Z</time>
      </trkpt>
      <trkpt lat="61.09146" lon="5.22706">
        <ele>65.336019</ele>
        <time>2020-07-26T10:40:20.336Z</time>
      </trkpt>
      <trkpt lat="61.09153" lon="5.22723">
        <ele>65.491134</ele>
        <time>2020-07-26T10:40:23.317Z</time>
      </trkpt>
      <trkpt lat="61.0916" lon="5.22741">
        <ele>65.650099</ele>
        <time>2020-07-26T10:40:26.355Z</time>
      </trkpt>
      <trkpt lat="61.09168" lon="5.22759">
        <ele>65.821542</ele>
        <time>2020-07-26T10:40:29.344Z</time>
      </trkpt>
      <trkpt lat="61.09176" lon="5.22776">
        <ele>65.985406</ele>
        <time>2020-07-26T10:40:32.333Z</time>
      </trkpt>
      <trkpt lat="61.09183" lon="5.22793">
        <ele>66.142505</ele>
        <time>2020-07-26T10:40:35.372Z</time>
      </trkpt>
      <trkpt lat="61.09188" lon="5.22811">
        <ele>66.007143</ele>
        <time>2020-07-26T10:40:38.329Z</time>
      </trkpt>
      <trkpt lat="61.09194" lon="5.22829">
        <ele>65.863481</ele>
        <time>2020-07-26T10:40:41.337Z</time>
      </trkpt>
      <trkpt lat="61.09199" lon="5.22848">
        <ele>65.722651</ele>
        <time>2020-07-26T10:40:44.341Z</time>
      </trkpt>
      <trkpt lat="61.09206" lon="5.22865">
        <ele>65.567749</ele>
        <time>2020-07-26T10:40:47.354Z</time>
      </trkpt>
      <trkpt lat="61.09214" lon="5.22884">
        <ele>65.399542</ele>
        <time>2020-07-26T10:40:50.344Z</time>
      </trkpt>
      <trkpt lat="61.09222" lon="5.22902">
        <ele>65.230236</ele>
        <time>2020-07-26T10:40:53.338Z</time>
      </trkpt>
      <trkpt lat="61.09231" lon="5.2292">
        <ele>65.062887</ele>
        <time>2020-07-26T10:40:56.349Z</time>
      </trkpt>
      <trkpt lat="61.09239" lon="5.22938">
        <ele>64.895044</ele>
        <time>2020-07-26T10:40:59.331Z</time>
      </trkpt>
      <trkpt lat="61.09248" lon="5.22955">
        <ele>64.721111</ele>
        <time>2020-07-26T10:41:02.335Z</time>
      </trkpt>
      <trkpt lat="61.09257" lon="5.22975">
        <ele>64.542643</ele>
        <time>2020-07-26T10:41:05.325Z</time>
      </trkpt>
      <trkpt lat="61.09266" lon="5.22993">
        <ele>64.370452</ele>
        <time>2020-07-26T10:41:08.339Z</time>
      </trkpt>
      <trkpt lat="61.09274" lon="5.2301">
        <ele>64.204559</ele>
        <time>2020-07-26T10:41:11.359Z</time>
      </trkpt>
      <trkpt lat="61.09282" lon="5.23028">
        <ele>64.043019</ele>
        <time>2020-07-26T10:41:14.345Z</time>
      </trkpt>
      <trkpt lat="61.09291" lon="5.23045">
        <ele>63.874437</ele>
        <time>2020-07-26T10:41:17.338Z</time>
      </trkpt>
      <trkpt lat="61.093" lon="5.2306">
        <ele>63.71526</ele>
        <time>2020-07-26T10:41:20.349Z</time>
      </trkpt>
      <trkpt lat="61.09307" lon="5.23077">
        <ele>63.794627</ele>
        <time>2020-07-26T10:41:23.357Z</time>
      </trkpt>
      <trkpt lat="61.09313" lon="5.23094">
        <ele>64.098186</ele>
        <time>2020-07-26T10:41:26.339Z</time>
      </trkpt>
      <trkpt lat="61.09321" lon="5.23111">
        <ele>64.415836</ele>
        <time>2020-07-26T10:41:29.353Z</time>
      </trkpt>
      <trkpt lat="61.09329" lon="5.23129">
        <ele>64.74625</ele>
        <time>2020-07-26T10:41:32.331Z</time>
      </trkpt>
      <trkpt lat="61.09337" lon="5.23147">
        <ele>65.10034</ele>
        <time>2020-07-26T10:41:35.328Z</time>
      </trkpt>
      <trkpt lat="61.09346" lon="5.23168">
        <ele>65.469001</ele>
        <time>2020-07-26T10:41:38.329Z</time>
      </trkpt>
      <trkpt lat="61.09354" lon="5.23186">
        <ele>65.812387</ele>
        <time>2020-07-26T10:41:41.324Z</time>
      </trkpt>
      <trkpt lat="61.09362" lon="5.23204">
        <ele>66.151635</ele>
        <time>2020-07-26T10:41:44.313Z</time>
      </trkpt>
      <trkpt lat="61.0937" lon="5.2322">
        <ele>66.477092</ele>
        <time>2020-07-26T10:41:47.312Z</time>
      </trkpt>
      <trkpt lat="61.0938" lon="5.23235">
        <ele>66.812703</ele>
        <time>2020-07-26T10:41:50.319Z</time>
      </trkpt>
      <trkpt lat="61.09388" lon="5.23251">
        <ele>67.128818</ele>
        <time>2020-07-26T10:41:53.316Z</time>
      </trkpt>
      <trkpt lat="61.09395" lon="5.23265">
        <ele>67.421193</ele>
        <time>2020-07-26T10:41:56.320Z</time>
      </trkpt>
      <trkpt lat="61.09403" lon="5.23282">
        <ele>67.734784</ele>
        <time>2020-07-26T10:41:59.306Z</time>
      </trkpt>
      <trkpt lat="61.0941" lon="5.23299">
        <ele>68.038869</ele>
        <time>2020-07-26T10:42:02.324Z</time>
      </trkpt>
      <trkpt lat="61.09417" lon="5.23316">
        <ele>68.340975</ele>
        <time>2020-07-26T10:42:05.317Z</time>
      </trkpt>
      <trkpt lat="61.09422" lon="5.23333">
        <ele>68.625827</ele>
        <time>2020-07-26T10:42:08.316Z</time>
      </trkpt>
      <trkpt lat="61.0943" lon="5.23352">
        <ele>68.896006</ele>
        <time>2020-07-26T10:42:11.301Z</time>
      </trkpt>
      <trkpt lat="61.09438" lon="5.23371">
        <ele>69.135105</ele>
        <time>2020-07-26T10:42:14.299Z</time>
      </trkpt>
      <trkpt lat="61.09446" lon="5.23389">
        <ele>69.369826</ele>
        <time>2020-07-26T10:42:17.317Z</time>
      </trkpt>
      <trkpt lat="61.09455" lon="5.23406">
        <ele>69.604546</ele>
        <time>2020-07-26T10:42:20.294Z</time>
      </trkpt>
      <trkpt lat="61.09464" lon="5.23424">
        <ele>69.840483</ele>
        <time>2020-07-26T10:42:23.358Z</time>
      </trkpt>
      <trkpt lat="61.0947" lon="5.23437">
        <ele>70.014044</ele>
        <time>2020-07-26T10:42:25.318Z</time>
      </trkpt>
      <trkpt lat="61.09479" lon="5.23457">
        <ele>70.255515</ele>
        <time>2020-07-26T10:42:28.308Z</time>
      </trkpt>
      <trkpt lat="61.09485" lon="5.23474">
        <ele>70.464562</ele>
        <time>2020-07-26T10:42:31.309Z</time>
      </trkpt>
      <trkpt lat="61.09494" lon="5.23489">
        <ele>70.674803</ele>
        <time>2020-07-26T10:42:34.321Z</time>
      </trkpt>
      <trkpt lat="61.09501" lon="5.23503">
        <ele>70.868343</ele>
        <time>2020-07-26T10:42:37.312Z</time>
      </trkpt>
      <trkpt lat="61.09508" lon="5.23515">
        <ele>71.043967</ele>
        <time>2020-07-26T10:42:40.351Z</time>
      </trkpt>
      <trkpt lat="61.09515" lon="5.23533">
        <ele>71.265461</ele>
        <time>2020-07-26T10:42:43.316Z</time>
      </trkpt>
      <trkpt lat="61.09524" lon="5.23552">
        <ele>71.508125</ele>
        <time>2020-07-26T10:42:46.334Z</time>
      </trkpt>
      <trkpt lat="61.09531" lon="5.2357">
        <ele>71.725884</ele>
        <time>2020-07-26T10:42:49.341Z</time>
      </trkpt>
      <trkpt lat="61.09537" lon="5.23587">
        <ele>71.920234</ele>
        <time>2020-07-26T10:42:52.323Z</time>
      </trkpt>
      <trkpt lat="61.09544" lon="5.23602">
        <ele>72.11094</ele>
        <time>2020-07-26T10:42:55.326Z</time>
      </trkpt>
      <trkpt lat="61.09551" lon="5.2362">
        <ele>72.268886</ele>
        <time>2020-07-26T10:42:58.355Z</time>
      </trkpt>
      <trkpt lat="61.09558" lon="5.23639">
        <ele>72.357461</ele>
        <time>2020-07-26T10:43:01.345Z</time>
      </trkpt>
      <trkpt lat="61.09567" lon="5.23657">
        <ele>72.453907</ele>
        <time>2020-07-26T10:43:04.320Z</time>
      </trkpt>
      <trkpt lat="61.09575" lon="5.23677">
        <ele>72.555006</ele>
        <time>2020-07-26T10:43:07.348Z</time>
      </trkpt>
      <trkpt lat="61.09584" lon="5.23695">
        <ele>72.651452</ele>
        <time>2020-07-26T10:43:10.339Z</time>
      </trkpt>
      <trkpt lat="61.09592" lon="5.23712">
        <ele>72.741141</ele>
        <time>2020-07-26T10:43:13.328Z</time>
      </trkpt>
      <trkpt lat="61.09599" lon="5.23728">
        <ele>72.823029</ele>
        <time>2020-07-26T10:43:16.362Z</time>
      </trkpt>
      <trkpt lat="61.09606" lon="5.23743">
        <ele>72.9003</ele>
        <time>2020-07-26T10:43:19.327Z</time>
      </trkpt>
      <trkpt lat="61.09614" lon="5.23759">
        <ele>72.986239</ele>
        <time>2020-07-26T10:43:22.335Z</time>
      </trkpt>
      <trkpt lat="61.09622" lon="5.23778">
        <ele>73.077871</ele>
        <time>2020-07-26T10:43:25.348Z</time>
      </trkpt>
      <trkpt lat="61.09631" lon="5.23793">
        <ele>73.168661</ele>
        <time>2020-07-26T10:43:28.359Z</time>
      </trkpt>
      <trkpt lat="61.09639" lon="5.23809">
        <ele>73.260154</ele>
        <time>2020-07-26T10:43:31.374Z</time>
      </trkpt>
      <trkpt lat="61.09648" lon="5.23827">
        <ele>73.354164</ele>
        <time>2020-07-26T10:43:34.325Z</time>
      </trkpt>
      <trkpt lat="61.09656" lon="5.23846">
        <ele>73.448558</ele>
        <time>2020-07-26T10:43:37.346Z</time>
      </trkpt>
      <trkpt lat="61.09664" lon="5.23866">
        <ele>73.547741</ele>
        <time>2020-07-26T10:43:40.334Z</time>
      </trkpt>
      <trkpt lat="61.09672" lon="5.23885">
        <ele>73.663864</ele>
        <time>2020-07-26T10:43:43.313Z</time>
      </trkpt>
      <trkpt lat="61.09679" lon="5.23904">
        <ele>73.899751</ele>
        <time>2020-07-26T10:43:46.333Z</time>
      </trkpt>
      <trkpt lat="61.09686" lon="5.23924">
        <ele>74.135574</ele>
        <time>2020-07-26T10:43:49.313Z</time>
      </trkpt>
      <trkpt lat="61.09693" lon="5.23944">
        <ele>74.379316</ele>
        <time>2020-07-26T10:43:52.340Z</time>
      </trkpt>
      <trkpt lat="61.097" lon="5.23962">
        <ele>74.605809</ele>
        <time>2020-07-26T10:43:55.356Z</time>
      </trkpt>
      <trkpt lat="61.09708" lon="5.23978">
        <ele>74.815629</ele>
        <time>2020-07-26T10:43:58.328Z</time>
      </trkpt>
      <trkpt lat="61.09716" lon="5.23994">
        <ele>75.041555</ele>
        <time>2020-07-26T10:44:01.351Z</time>
      </trkpt>
      <trkpt lat="61.09724" lon="5.24011">
        <ele>75.270226</ele>
        <time>2020-07-26T10:44:04.320Z</time>
      </trkpt>
      <trkpt lat="61.09731" lon="5.24028">
        <ele>75.492725</ele>
        <time>2020-07-26T10:44:07.328Z</time>
      </trkpt>
      <trkpt lat="61.09739" lon="5.24045">
        <ele>75.717224</ele>
        <time>2020-07-26T10:44:10.333Z</time>
      </trkpt>
      <trkpt lat="61.09747" lon="5.24063">
        <ele>75.957121</ele>
        <time>2020-07-26T10:44:13.363Z</time>
      </trkpt>
      <trkpt lat="61.09755" lon="5.24081">
        <ele>76.201159</ele>
        <time>2020-07-26T10:44:16.398Z</time>
      </trkpt>
      <trkpt lat="61.09763" lon="5.24101">
        <ele>76.447868</ele>
        <time>2020-07-26T10:44:19.336Z</time>
      </trkpt>
      <trkpt lat="61.0977" lon="5.2412">
        <ele>76.681782</ele>
        <time>2020-07-26T10:44:22.332Z</time>
      </trkpt>
      <trkpt lat="61.09776" lon="5.24138">
        <ele>76.895951</ele>
        <time>2020-07-26T10:44:25.322Z</time>
      </trkpt>
      <trkpt lat="61.09783" lon="5.24156">
        <ele>77.117859</ele>
        <time>2020-07-26T10:44:28.340Z</time>
      </trkpt>
      <trkpt lat="61.0979" lon="5.24174">
        <ele>77.226597</ele>
        <time>2020-07-26T10:44:31.342Z</time>
      </trkpt>
      <trkpt lat="61.09797" lon="5.24192">
        <ele>77.175439</ele>
        <time>2020-07-26T10:44:34.343Z</time>
      </trkpt>
      <trkpt lat="61.09806" lon="5.24208">
        <ele>77.12351</ele>
        <time>2020-07-26T10:44:37.339Z</time>
      </trkpt>
      <trkpt lat="61.09814" lon="5.24224">
        <ele>77.071167</ele>
        <time>2020-07-26T10:44:40.338Z</time>
      </trkpt>
      <trkpt lat="61.09822" lon="5.24242">
        <ele>77.020077</ele>
        <time>2020-07-26T10:44:43.355Z</time>
      </trkpt>
      <trkpt lat="61.09829" lon="5.24258">
        <ele>76.973151</ele>
        <time>2020-07-26T10:44:46.376Z</time>
      </trkpt>
      <trkpt lat="61.09836" lon="5.24275">
        <ele>76.925165</ele>
        <time>2020-07-26T10:44:49.390Z</time>
      </trkpt>
      <trkpt lat="61.09843" lon="5.24293">
        <ele>76.875326</ele>
        <time>2020-07-26T10:44:52.348Z</time>
      </trkpt>
      <trkpt lat="61.09851" lon="5.24312">
        <ele>76.820333</ele>
        <time>2020-07-26T10:44:55.350Z</time>
      </trkpt>
      <trkpt lat="61.09859" lon="5.24334">
        <ele>76.762797</ele>
        <time>2020-07-26T10:44:58.382Z</time>
      </trkpt>
      <trkpt lat="61.09865" lon="5.24348">
        <ele>76.722318</ele>
        <time>2020-07-26T10:45:00.333Z</time>
      </trkpt>
      <trkpt lat="61.0987" lon="5.24363">
        <ele>76.681621</ele>
        <time>2020-07-26T10:45:02.318Z</time>
      </trkpt>
      <trkpt lat="61.09877" lon="5.24384">
        <ele>76.627142</ele>
        <time>2020-07-26T10:45:05.315Z</time>
      </trkpt>
      <trkpt lat="61.09884" lon="5.24403">
        <ele>76.576088</ele>
        <time>2020-07-26T10:45:08.322Z</time>
      </trkpt>
      <trkpt lat="61.0989" lon="5.24422">
        <ele>76.526077</ele>
        <time>2020-07-26T10:45:11.356Z</time>
      </trkpt>
      <trkpt lat="61.09897" lon="5.2444">
        <ele>76.475511</ele>
        <time>2020-07-26T10:45:14.336Z</time>
      </trkpt>
      <trkpt lat="61.09904" lon="5.24459">
        <ele>76.278467</ele>
        <time>2020-07-26T10:45:17.328Z</time>
      </trkpt>
      <trkpt lat="61.09911" lon="5.24479">
        <ele>75.81457</ele>
        <time>2020-07-26T10:45:20.334Z</time>
      </trkpt>
      <trkpt lat="61.09918" lon="5.24498">
        <ele>75.364293</ele>
        <time>2020-07-26T10:45:23.333Z</time>
      </trkpt>
      <trkpt lat="61.09925" lon="5.24516">
        <ele>74.941927</ele>
        <time>2020-07-26T10:45:26.356Z</time>
      </trkpt>
      <trkpt lat="61.09932" lon="5.24534">
        <ele>74.519732</ele>
        <time>2020-07-26T10:45:29.327Z</time>
      </trkpt>
      <trkpt lat="61.09939" lon="5.24551">
        <ele>74.088683</ele>
        <time>2020-07-26T10:45:32.333Z</time>
      </trkpt>
      <trkpt lat="61.09945" lon="5.24571">
        <ele>73.644511</ele>
        <time>2020-07-26T10:45:35.401Z</time>
      </trkpt>
      <trkpt lat="61.09952" lon="5.24589">
        <ele>73.203819</ele>
        <time>2020-07-26T10:45:38.367Z</time>
      </trkpt>
      <trkpt lat="61.0996" lon="5.24604">
        <ele>72.812175</ele>
        <time>2020-07-26T10:45:41.326Z</time>
      </trkpt>
      <trkpt lat="61.09967" lon="5.24618">
        <ele>72.422063</ele>
        <time>2020-07-26T10:45:44.335Z</time>
      </trkpt>
      <trkpt lat="61.09975" lon="5.24635">
        <ele>71.990532</ele>
        <time>2020-07-26T10:45:47.345Z</time>
      </trkpt>
      <trkpt lat="61.09981" lon="5.24653">
        <ele>71.562974</ele>
        <time>2020-07-26T10:45:50.330Z</time>
      </trkpt>
      <trkpt lat="61.09987" lon="5.24672">
        <ele>71.140805</ele>
        <time>2020-07-26T10:45:53.381Z</time>
      </trkpt>
      <trkpt lat="61.09993" lon="5.2469">
        <ele>70.723076</ele>
        <time>2020-07-26T10:45:56.351Z</time>
      </trkpt>
      <trkpt lat="61.10001" lon="5.24707">
        <ele>70.304911</ele>
        <time>2020-07-26T10:45:59.358Z</time>
      </trkpt>
      <trkpt lat="61.10008" lon="5.24724">
        <ele>69.878408</ele>
        <time>2020-07-26T10:46:02.360Z</time>
      </trkpt>
      <trkpt lat="61.10015" lon="5.24742">
        <ele>69.521775</ele>
        <time>2020-07-26T10:46:05.315Z</time>
      </trkpt>
      <trkpt lat="61.10023" lon="5.24761">
        <ele>69.857291</ele>
        <time>2020-07-26T10:46:08.315Z</time>
      </trkpt>
      <trkpt lat="61.10032" lon="5.24782">
        <ele>70.213653</ele>
        <time>2020-07-26T10:46:11.335Z</time>
      </trkpt>
      <trkpt lat="61.10039" lon="5.24801">
        <ele>70.544561</ele>
        <time>2020-07-26T10:46:14.309Z</time>
      </trkpt>
      <trkpt lat="61.10047" lon="5.24818">
        <ele>70.856826</ele>
        <time>2020-07-26T10:46:17.338Z</time>
      </trkpt>
      <trkpt lat="61.10054" lon="5.24838">
        <ele>71.182918</ele>
        <time>2020-07-26T10:46:20.294Z</time>
      </trkpt>
      <trkpt lat="61.10061" lon="5.24859">
        <ele>71.519917</ele>
        <time>2020-07-26T10:46:23.346Z</time>
      </trkpt>
      <trkpt lat="61.10068" lon="5.24878">
        <ele>71.85002</ele>
        <time>2020-07-26T10:46:26.343Z</time>
      </trkpt>
      <trkpt lat="61.10075" lon="5.24897">
        <ele>72.162847</ele>
        <time>2020-07-26T10:46:29.383Z</time>
      </trkpt>
      <trkpt lat="61.10082" lon="5.24915">
        <ele>72.469109</ele>
        <time>2020-07-26T10:46:32.288Z</time>
      </trkpt>
      <trkpt lat="61.10089" lon="5.24933">
        <ele>72.777758</ele>
        <time>2020-07-26T10:46:35.312Z</time>
      </trkpt>
      <trkpt lat="61.10097" lon="5.24951">
        <ele>73.100506</ele>
        <time>2020-07-26T10:46:38.310Z</time>
      </trkpt>
      <trkpt lat="61.10104" lon="5.24969">
        <ele>73.416757</ele>
        <time>2020-07-26T10:46:41.300Z</time>
      </trkpt>
      <trkpt lat="61.1011" lon="5.24988">
        <ele>73.720057</ele>
        <time>2020-07-26T10:46:44.299Z</time>
      </trkpt>
      <trkpt lat="61.10119" lon="5.25006">
        <ele>74.065819</ele>
        <time>2020-07-26T10:46:47.342Z</time>
      </trkpt>
      <trkpt lat="61.10125" lon="5.25027">
        <ele>74.389751</ele>
        <time>2020-07-26T10:46:51.336Z</time>
      </trkpt>
      <trkpt lat="61.10132" lon="5.25041">
        <ele>74.302858</ele>
        <time>2020-07-26T10:46:54.314Z</time>
      </trkpt>
      <trkpt lat="61.10138" lon="5.25058">
        <ele>74.125199</ele>
        <time>2020-07-26T10:46:57.312Z</time>
      </trkpt>
      <trkpt lat="61.10145" lon="5.25076">
        <ele>73.934379</ele>
        <time>2020-07-26T10:47:00.306Z</time>
      </trkpt>
      <trkpt lat="61.10151" lon="5.25095">
        <ele>73.738419</ele>
        <time>2020-07-26T10:47:03.299Z</time>
      </trkpt>
      <trkpt lat="61.10158" lon="5.25116">
        <ele>73.52166</ele>
        <time>2020-07-26T10:47:06.298Z</time>
      </trkpt>
      <trkpt lat="61.10166" lon="5.25137">
        <ele>73.29475</ele>
        <time>2020-07-26T10:47:09.313Z</time>
      </trkpt>
      <trkpt lat="61.10172" lon="5.25152">
        <ele>73.131799</ele>
        <time>2020-07-26T10:47:11.328Z</time>
      </trkpt>
      <trkpt lat="61.1018" lon="5.25172">
        <ele>72.897197</ele>
        <time>2020-07-26T10:47:14.314Z</time>
      </trkpt>
      <trkpt lat="61.10188" lon="5.25193">
        <ele>72.677996</ele>
        <time>2020-07-26T10:47:17.287Z</time>
      </trkpt>
      <trkpt lat="61.10195" lon="5.25213">
        <ele>72.462641</ele>
        <time>2020-07-26T10:47:20.351Z</time>
      </trkpt>
      <trkpt lat="61.10202" lon="5.25234">
        <ele>72.243499</ele>
        <time>2020-07-26T10:47:23.342Z</time>
      </trkpt>
      <trkpt lat="61.1021" lon="5.25255">
        <ele>72.015338</ele>
        <time>2020-07-26T10:47:26.333Z</time>
      </trkpt>
      <trkpt lat="61.10217" lon="5.25276">
        <ele>71.792034</ele>
        <time>2020-07-26T10:47:29.352Z</time>
      </trkpt>
      <trkpt lat="61.10225" lon="5.25296">
        <ele>71.577534</ele>
        <time>2020-07-26T10:47:32.320Z</time>
      </trkpt>
      <trkpt lat="61.10232" lon="5.25315">
        <ele>71.37397</ele>
        <time>2020-07-26T10:47:35.313Z</time>
      </trkpt>
      <trkpt lat="61.1024" lon="5.25335">
        <ele>71.015669</ele>
        <time>2020-07-26T10:47:38.338Z</time>
      </trkpt>
      <trkpt lat="61.10247" lon="5.25354">
        <ele>70.550688</ele>
        <time>2020-07-26T10:47:41.356Z</time>
      </trkpt>
      <trkpt lat="61.10254" lon="5.25373">
        <ele>70.075337</ele>
        <time>2020-07-26T10:47:44.331Z</time>
      </trkpt>
      <trkpt lat="61.10262" lon="5.25392">
        <ele>69.589599</ele>
        <time>2020-07-26T10:47:47.363Z</time>
      </trkpt>
      <trkpt lat="61.10271" lon="5.25413">
        <ele>69.064772</ele>
        <time>2020-07-26T10:47:50.337Z</time>
      </trkpt>
      <trkpt lat="61.10278" lon="5.25433">
        <ele>68.589692</ele>
        <time>2020-07-26T10:47:53.343Z</time>
      </trkpt>
      <trkpt lat="61.10284" lon="5.25452">
        <ele>68.140355</ele>
        <time>2020-07-26T10:47:56.326Z</time>
      </trkpt>
      <trkpt lat="61.10291" lon="5.25471">
        <ele>67.687144</ele>
        <time>2020-07-26T10:47:59.341Z</time>
      </trkpt>
      <trkpt lat="61.10298" lon="5.2549">
        <ele>67.217525</ele>
        <time>2020-07-26T10:48:02.351Z</time>
      </trkpt>
      <trkpt lat="61.10305" lon="5.2551">
        <ele>66.727687</ele>
        <time>2020-07-26T10:48:05.341Z</time>
      </trkpt>
      <trkpt lat="61.10313" lon="5.2553">
        <ele>66.22128</ele>
        <time>2020-07-26T10:48:08.350Z</time>
      </trkpt>
      <trkpt lat="61.10321" lon="5.2555">
        <ele>65.737432</ele>
        <time>2020-07-26T10:48:11.336Z</time>
      </trkpt>
      <trkpt lat="61.10328" lon="5.25571">
        <ele>65.246098</ele>
        <time>2020-07-26T10:48:14.337Z</time>
      </trkpt>
      <trkpt lat="61.10334" lon="5.25593">
        <ele>64.752973</ele>
        <time>2020-07-26T10:48:17.332Z</time>
      </trkpt>
      <trkpt lat="61.1034" lon="5.25613">
        <ele>64.295398</ele>
        <time>2020-07-26T10:48:20.336Z</time>
      </trkpt>
      <trkpt lat="61.10345" lon="5.25633">
        <ele>64.034976</ele>
        <time>2020-07-26T10:48:23.328Z</time>
      </trkpt>
      <trkpt lat="61.10352" lon="5.25655">
        <ele>63.965876</ele>
        <time>2020-07-26T10:48:26.319Z</time>
      </trkpt>
      <trkpt lat="61.10359" lon="5.25676">
        <ele>63.893847</ele>
        <time>2020-07-26T10:48:29.335Z</time>
      </trkpt>
      <trkpt lat="61.10366" lon="5.25698">
        <ele>63.822182</ele>
        <time>2020-07-26T10:48:32.387Z</time>
      </trkpt>
      <trkpt lat="61.10374" lon="5.25718">
        <ele>63.750301</ele>
        <time>2020-07-26T10:48:35.356Z</time>
      </trkpt>
      <trkpt lat="61.10383" lon="5.25738">
        <ele>63.678101</ele>
        <time>2020-07-26T10:48:38.329Z</time>
      </trkpt>
      <trkpt lat="61.10391" lon="5.25757">
        <ele>63.608149</ele>
        <time>2020-07-26T10:48:41.325Z</time>
      </trkpt>
      <trkpt lat="61.10399" lon="5.25777">
        <ele>63.540485</ele>
        <time>2020-07-26T10:48:44.332Z</time>
      </trkpt>
      <trkpt lat="61.10406" lon="5.25795">
        <ele>63.473695</ele>
        <time>2020-07-26T10:48:47.320Z</time>
      </trkpt>
      <trkpt lat="61.10415" lon="5.25814">
        <ele>63.4048</ele>
        <time>2020-07-26T10:48:50.349Z</time>
      </trkpt>
      <trkpt lat="61.10422" lon="5.25831">
        <ele>63.341197</ele>
        <time>2020-07-26T10:48:53.323Z</time>
      </trkpt>
      <trkpt lat="61.1043" lon="5.25851">
        <ele>63.27239</ele>
        <time>2020-07-26T10:48:56.319Z</time>
      </trkpt>
      <trkpt lat="61.10438" lon="5.25872">
        <ele>63.200916</ele>
        <time>2020-07-26T10:48:59.354Z</time>
      </trkpt>
      <trkpt lat="61.10445" lon="5.25892">
        <ele>63.132733</ele>
        <time>2020-07-26T10:49:02.345Z</time>
      </trkpt>
      <trkpt lat="61.10453" lon="5.25912">
        <ele>63.06218</ele>
        <time>2020-07-26T10:49:05.398Z</time>
      </trkpt>
      <trkpt lat="61.1046" lon="5.25931">
        <ele>63.182366</ele>
        <time>2020-07-26T10:49:08.344Z</time>
      </trkpt>
      <trkpt lat="61.10467" lon="5.25951">
        <ele>63.34604</ele>
        <time>2020-07-26T10:49:11.322Z</time>
      </trkpt>
      <trkpt lat="61.10475" lon="5.2597">
        <ele>63.511219</ele>
        <time>2020-07-26T10:49:14.320Z</time>
      </trkpt>
      <trkpt lat="61.10483" lon="5.2599">
        <ele>63.687371</ele>
        <time>2020-07-26T10:49:17.340Z</time>
      </trkpt>
      <trkpt lat="61.1049" lon="5.2601">
        <ele>63.853751</ele>
        <time>2020-07-26T10:49:20.331Z</time>
      </trkpt>
      <trkpt lat="61.10496" lon="5.26032">
        <ele>64.01886</ele>
        <time>2020-07-26T10:49:23.324Z</time>
      </trkpt>
      <trkpt lat="61.10502" lon="5.26055">
        <ele>64.198518</ele>
        <time>2020-07-26T10:49:26.384Z</time>
      </trkpt>
      <trkpt lat="61.10509" lon="5.26078">
        <ele>64.380709</ele>
        <time>2020-07-26T10:49:29.322Z</time>
      </trkpt>
      <trkpt lat="61.10514" lon="5.26093">
        <ele>64.505409</ele>
        <time>2020-07-26T10:49:31.338Z</time>
      </trkpt>
      <trkpt lat="61.10518" lon="5.2611">
        <ele>64.629492</ele>
        <time>2020-07-26T10:49:33.332Z</time>
      </trkpt>
      <trkpt lat="61.10526" lon="5.26132">
        <ele>64.810362</ele>
        <time>2020-07-26T10:49:36.329Z</time>
      </trkpt>
      <trkpt lat="61.10532" lon="5.26153">
        <ele>64.973368</ele>
        <time>2020-07-26T10:49:39.321Z</time>
      </trkpt>
      <trkpt lat="61.10538" lon="5.26173">
        <ele>65.132988</ele>
        <time>2020-07-26T10:49:42.314Z</time>
      </trkpt>
      <trkpt lat="61.10545" lon="5.26191">
        <ele>65.282845</ele>
        <time>2020-07-26T10:49:45.388Z</time>
      </trkpt>
      <trkpt lat="61.1055" lon="5.26211">
        <ele>65.435558</ele>
        <time>2020-07-26T10:49:48.373Z</time>
      </trkpt>
      <trkpt lat="61.10556" lon="5.26233">
        <ele>65.544571</ele>
        <time>2020-07-26T10:49:51.335Z</time>
      </trkpt>
      <trkpt lat="61.10563" lon="5.26256">
        <ele>65.561819</ele>
        <time>2020-07-26T10:49:54.328Z</time>
      </trkpt>
      <trkpt lat="61.1057" lon="5.26279">
        <ele>65.579028</ele>
        <time>2020-07-26T10:49:57.340Z</time>
      </trkpt>
      <trkpt lat="61.10578" lon="5.263">
        <ele>65.595802</ele>
        <time>2020-07-26T10:50:00.327Z</time>
      </trkpt>
      <trkpt lat="61.10586" lon="5.2632">
        <ele>65.612112</ele>
        <time>2020-07-26T10:50:03.343Z</time>
      </trkpt>
      <trkpt lat="61.10593" lon="5.2634">
        <ele>65.628654</ele>
        <time>2020-07-26T10:50:06.384Z</time>
      </trkpt>
      <trkpt lat="61.10601" lon="5.26362">
        <ele>65.645681</ele>
        <time>2020-07-26T10:50:09.350Z</time>
      </trkpt>
      <trkpt lat="61.10609" lon="5.26383">
        <ele>65.662686</ele>
        <time>2020-07-26T10:50:12.330Z</time>
      </trkpt>
      <trkpt lat="61.10617" lon="5.26404">
        <ele>65.679838</ele>
        <time>2020-07-26T10:50:15.366Z</time>
      </trkpt>
      <trkpt lat="61.10625" lon="5.26426">
        <ele>65.696991</ele>
        <time>2020-07-26T10:50:18.348Z</time>
      </trkpt>
      <trkpt lat="61.10629" lon="5.26442">
        <ele>65.70926</ele>
        <time>2020-07-26T10:50:20.356Z</time>
      </trkpt>
      <trkpt lat="61.10634" lon="5.26458">
        <ele>65.721186</ele>
        <time>2020-07-26T10:50:22.325Z</time>
      </trkpt>
      <trkpt lat="61.1064" lon="5.26472">
        <ele>65.733062</ele>
        <time>2020-07-26T10:50:24.349Z</time>
      </trkpt>
      <trkpt lat="61.10647" lon="5.26493">
        <ele>65.749443</ele>
        <time>2020-07-26T10:50:27.320Z</time>
      </trkpt>
      <trkpt lat="61.10654" lon="5.26514">
        <ele>65.76515</ele>
        <time>2020-07-26T10:50:30.369Z</time>
      </trkpt>
      <trkpt lat="61.10662" lon="5.26536">
        <ele>65.944018</ele>
        <time>2020-07-26T10:50:33.410Z</time>
      </trkpt>
      <trkpt lat="61.1067" lon="5.26557">
        <ele>66.327971</ele>
        <time>2020-07-26T10:50:36.308Z</time>
      </trkpt>
      <trkpt lat="61.10679" lon="5.26577">
        <ele>66.690379</ele>
        <time>2020-07-26T10:50:39.318Z</time>
      </trkpt>
      <trkpt lat="61.10688" lon="5.26595">
        <ele>67.047573</ele>
        <time>2020-07-26T10:50:42.310Z</time>
      </trkpt>
      <trkpt lat="61.10697" lon="5.26616">
        <ele>67.437126</ele>
        <time>2020-07-26T10:50:45.338Z</time>
      </trkpt>
      <trkpt lat="61.10702" lon="5.26631">
        <ele>67.715726</ele>
        <time>2020-07-26T10:50:47.338Z</time>
      </trkpt>
      <trkpt lat="61.10708" lon="5.26647">
        <ele>67.976708</ele>
        <time>2020-07-26T10:50:49.326Z</time>
      </trkpt>
      <trkpt lat="61.10713" lon="5.26668">
        <ele>68.315027</ele>
        <time>2020-07-26T10:50:52.334Z</time>
      </trkpt>
      <trkpt lat="61.10718" lon="5.26684">
        <ele>68.578661</ele>
        <time>2020-07-26T10:50:54.309Z</time>
      </trkpt>
      <trkpt lat="61.10724" lon="5.267">
        <ele>68.854393</ele>
        <time>2020-07-26T10:50:56.327Z</time>
      </trkpt>
      <trkpt lat="61.10732" lon="5.2672">
        <ele>69.217344</ele>
        <time>2020-07-26T10:50:59.337Z</time>
      </trkpt>
      <trkpt lat="61.10739" lon="5.2674">
        <ele>69.569278</ele>
        <time>2020-07-26T10:51:02.344Z</time>
      </trkpt>
      <trkpt lat="61.10745" lon="5.26755">
        <ele>69.835626</ele>
        <time>2020-07-26T10:51:04.325Z</time>
      </trkpt>
      <trkpt lat="61.1075" lon="5.2677">
        <ele>70.0957</ele>
        <time>2020-07-26T10:51:06.327Z</time>
      </trkpt>
      <trkpt lat="61.10756" lon="5.26785">
        <ele>70.366256</ele>
        <time>2020-07-26T10:51:08.351Z</time>
      </trkpt>
      <trkpt lat="61.10761" lon="5.26801">
        <ele>70.638548</ele>
        <time>2020-07-26T10:51:10.344Z</time>
      </trkpt>
      <trkpt lat="61.10767" lon="5.26817">
        <ele>70.90067</ele>
        <time>2020-07-26T10:51:12.330Z</time>
      </trkpt>
      <trkpt lat="61.10772" lon="5.26832">
        <ele>71.09161</ele>
        <time>2020-07-26T10:51:14.346Z</time>
      </trkpt>
      <trkpt lat="61.1078" lon="5.26853">
        <ele>71.329428</ele>
        <time>2020-07-26T10:51:17.337Z</time>
      </trkpt>
      <trkpt lat="61.10788" lon="5.26874">
        <ele>71.568622</ele>
        <time>2020-07-26T10:51:20.328Z</time>
      </trkpt>
      <trkpt lat="61.10794" lon="5.26888">
        <ele>71.741872</ele>
        <time>2020-07-26T10:51:22.325Z</time>
      </trkpt>
      <trkpt lat="61.10803" lon="5.26908">
        <ele>71.978135</ele>
        <time>2020-07-26T10:51:25.307Z</time>
      </trkpt>
      <trkpt lat="61.1081" lon="5.26928">
        <ele>72.201939</ele>
        <time>2020-07-26T10:51:28.329Z</time>
      </trkpt>
      <trkpt lat="61.10818" lon="5.26948">
        <ele>72.425484</ele>
        <time>2020-07-26T10:51:31.323Z</time>
      </trkpt>
      <trkpt lat="61.10826" lon="5.26964">
        <ele>72.633787</ele>
        <time>2020-07-26T10:51:34.326Z</time>
      </trkpt>
      <trkpt lat="61.10835" lon="5.26981">
        <ele>72.854405</ele>
        <time>2020-07-26T10:51:37.353Z</time>
      </trkpt>
      <trkpt lat="61.10843" lon="5.26999">
        <ele>73.081908</ele>
        <time>2020-07-26T10:51:40.332Z</time>
      </trkpt>
      <trkpt lat="61.10852" lon="5.27019">
        <ele>73.321659</ele>
        <time>2020-07-26T10:51:43.327Z</time>
      </trkpt>
      <trkpt lat="61.10858" lon="5.27033">
        <ele>73.489146</ele>
        <time>2020-07-26T10:51:45.315Z</time>
      </trkpt>
      <trkpt lat="61.10867" lon="5.27054">
        <ele>73.732893</ele>
        <time>2020-07-26T10:51:48.311Z</time>
      </trkpt>
      <trkpt lat="61.10875" lon="5.27076">
        <ele>73.977642</ele>
        <time>2020-07-26T10:51:51.306Z</time>
      </trkpt>
      <trkpt lat="61.10883" lon="5.27097">
        <ele>74.217216</ele>
        <time>2020-07-26T10:51:54.344Z</time>
      </trkpt>
      <trkpt lat="61.1089" lon="5.27118">
        <ele>74.184521</ele>
        <time>2020-07-26T10:51:57.322Z</time>
      </trkpt>
      <trkpt lat="61.10898" lon="5.27141">
        <ele>74.047865</ele>
        <time>2020-07-26T10:52:00.305Z</time>
      </trkpt>
      <trkpt lat="61.10907" lon="5.27162">
        <ele>73.914924</ele>
        <time>2020-07-26T10:52:03.308Z</time>
      </trkpt>
      <trkpt lat="61.10915" lon="5.27183">
        <ele>73.78462</ele>
        <time>2020-07-26T10:52:06.319Z</time>
      </trkpt>
      <trkpt lat="61.10923" lon="5.27203">
        <ele>73.657053</ele>
        <time>2020-07-26T10:52:09.331Z</time>
      </trkpt>
      <trkpt lat="61.10932" lon="5.27223">
        <ele>73.528036</ele>
        <time>2020-07-26T10:52:12.317Z</time>
      </trkpt>
      <trkpt lat="61.10941" lon="5.27241">
        <ele>73.40321</ele>
        <time>2020-07-26T10:52:15.300Z</time>
      </trkpt>
      <trkpt lat="61.10949" lon="5.2726">
        <ele>73.27908</ele>
        <time>2020-07-26T10:52:18.314Z</time>
      </trkpt>
      <trkpt lat="61.10958" lon="5.27279">
        <ele>73.150772</ele>
        <time>2020-07-26T10:52:21.305Z</time>
      </trkpt>
      <trkpt lat="61.10967" lon="5.27296">
        <ele>73.027028</ele>
        <time>2020-07-26T10:52:24.353Z</time>
      </trkpt>
      <trkpt lat="61.10978" lon="5.27313">
        <ele>72.891336</ele>
        <time>2020-07-26T10:52:27.315Z</time>
      </trkpt>
      <trkpt lat="61.10984" lon="5.27327">
        <ele>72.800917</ele>
        <time>2020-07-26T10:52:29.329Z</time>
      </trkpt>
      <trkpt lat="61.10991" lon="5.27341">
        <ele>72.706338</ele>
        <time>2020-07-26T10:52:31.323Z</time>
      </trkpt>
      <trkpt lat="61.10999" lon="5.27361">
        <ele>72.579302</ele>
        <time>2020-07-26T10:52:34.349Z</time>
      </trkpt>
      <trkpt lat="61.11006" lon="5.27381">
        <ele>72.473909</ele>
        <time>2020-07-26T10:52:37.327Z</time>
      </trkpt>
      <trkpt lat="61.11013" lon="5.27401">
        <ele>72.454067</ele>
        <time>2020-07-26T10:52:40.318Z</time>
      </trkpt>
      <trkpt lat="61.1102" lon="5.27421">
        <ele>72.433989</ele>
        <time>2020-07-26T10:52:43.317Z</time>
      </trkpt>
      <trkpt lat="61.11028" lon="5.27441">
        <ele>72.413619</ele>
        <time>2020-07-26T10:52:46.328Z</time>
      </trkpt>
      <trkpt lat="61.11036" lon="5.27461">
        <ele>72.392316</ele>
        <time>2020-07-26T10:52:49.338Z</time>
      </trkpt>
      <trkpt lat="61.11044" lon="5.27482">
        <ele>72.370695</ele>
        <time>2020-07-26T10:52:52.324Z</time>
      </trkpt>
      <trkpt lat="61.11052" lon="5.27495">
        <ele>72.35422</ele>
        <time>2020-07-26T10:52:54.315Z</time>
      </trkpt>
      <trkpt lat="61.1106" lon="5.27507">
        <ele>72.337515</ele>
        <time>2020-07-26T10:52:56.335Z</time>
      </trkpt>
      <trkpt lat="61.11067" lon="5.2752">
        <ele>72.321678</ele>
        <time>2020-07-26T10:52:58.322Z</time>
      </trkpt>
      <trkpt lat="61.11075" lon="5.27531">
        <ele>72.306002</ele>
        <time>2020-07-26T10:53:00.347Z</time>
      </trkpt>
      <trkpt lat="61.11082" lon="5.27543">
        <ele>72.290855</ele>
        <time>2020-07-26T10:53:02.324Z</time>
      </trkpt>
      <trkpt lat="61.11093" lon="5.2756">
        <ele>72.268625</ele>
        <time>2020-07-26T10:53:05.319Z</time>
      </trkpt>
      <trkpt lat="61.11103" lon="5.27577">
        <ele>72.247321</ele>
        <time>2020-07-26T10:53:08.318Z</time>
      </trkpt>
      <trkpt lat="61.11112" lon="5.27594">
        <ele>72.226629</ele>
        <time>2020-07-26T10:53:11.309Z</time>
      </trkpt>
      <trkpt lat="61.1112" lon="5.2761">
        <ele>72.208455</ele>
        <time>2020-07-26T10:53:14.318Z</time>
      </trkpt>
      <trkpt lat="61.11126" lon="5.27623">
        <ele>72.192994</ele>
        <time>2020-07-26T10:53:17.331Z</time>
      </trkpt>
      <trkpt lat="61.11135" lon="5.27639">
        <ele>72.189692</ele>
        <time>2020-07-26T10:53:20.344Z</time>
      </trkpt>
      <trkpt lat="61.11141" lon="5.27655">
        <ele>72.2486</ele>
        <time>2020-07-26T10:53:23.330Z</time>
      </trkpt>
      <trkpt lat="61.11148" lon="5.27673">
        <ele>72.31818</ele>
        <time>2020-07-26T10:53:27.348Z</time>
      </trkpt>
      <trkpt lat="61.11155" lon="5.27691">
        <ele>72.386919</ele>
        <time>2020-07-26T10:53:31.328Z</time>
      </trkpt>
      <trkpt lat="61.11161" lon="5.27708">
        <ele>72.45023</ele>
        <time>2020-07-26T10:53:35.329Z</time>
      </trkpt>
      <trkpt lat="61.11169" lon="5.27722">
        <ele>72.509398</ele>
        <time>2020-07-26T10:53:38.355Z</time>
      </trkpt>
      <trkpt lat="61.11177" lon="5.27738">
        <ele>72.580678</ele>
        <time>2020-07-26T10:53:42.314Z</time>
      </trkpt>
      <trkpt lat="61.11184" lon="5.27752">
        <ele>72.637867</ele>
        <time>2020-07-26T10:53:46.302Z</time>
      </trkpt>
      <trkpt lat="61.1119" lon="5.27766">
        <ele>72.693387</ele>
        <time>2020-07-26T10:53:50.347Z</time>
      </trkpt>
      <trkpt lat="61.11196" lon="5.27781">
        <ele>72.750677</ele>
        <time>2020-07-26T10:53:54.343Z</time>
      </trkpt>
      <trkpt lat="61.11202" lon="5.27797">
        <ele>72.810723</ele>
        <time>2020-07-26T10:53:58.329Z</time>
      </trkpt>
      <trkpt lat="61.11209" lon="5.27812">
        <ele>72.871347</ele>
        <time>2020-07-26T10:54:02.322Z</time>
      </trkpt>
      <trkpt lat="61.11216" lon="5.27828">
        <ele>72.935325</ele>
        <time>2020-07-26T10:54:06.322Z</time>
      </trkpt>
      <trkpt lat="61.1122" lon="5.27847">
        <ele>72.998966</ele>
        <time>2020-07-26T10:54:10.314Z</time>
      </trkpt>
      <trkpt lat="61.11226" lon="5.27863">
        <ele>73.054436</ele>
        <time>2020-07-26T10:54:14.335Z</time>
      </trkpt>
      <trkpt lat="61.1123" lon="5.27881">
        <ele>73.112507</ele>
        <time>2020-07-26T10:54:18.328Z</time>
      </trkpt>
      <trkpt lat="61.11233" lon="5.27902">
        <ele>73.178757</ele>
        <time>2020-07-26T10:54:23.304Z</time>
      </trkpt>
      <trkpt lat="61.11238" lon="5.27919">
        <ele>73.23695</ele>
        <time>2020-07-26T10:54:28.339Z</time>
      </trkpt>
      <trkpt lat="61.11244" lon="5.27932">
        <ele>73.214028</ele>
        <time>2020-07-26T10:54:33.318Z</time>
      </trkpt>
      <trkpt lat="61.11253" lon="5.27943">
        <ele>73.008815</ele>
        <time>2020-07-26T10:54:38.338Z</time>
      </trkpt>
      <trkpt lat="61.11261" lon="5.27953">
        <ele>72.820885</ele>
        <time>2020-07-26T10:54:43.311Z</time>
      </trkpt>
      <trkpt lat="61.11269" lon="5.27966">
        <ele>72.602289</ele>
        <time>2020-07-26T10:54:49.344Z</time>
      </trkpt>
      <trkpt lat="61.11278" lon="5.27975">
        <ele>72.405442</ele>
        <time>2020-07-26T10:54:54.343Z</time>
      </trkpt>
      <trkpt lat="61.11285" lon="5.27988">
        <ele>72.21596</ele>
        <time>2020-07-26T10:54:59.309Z</time>
      </trkpt>
      <trkpt lat="61.11291" lon="5.28003">
        <ele>72.012078</ele>
        <time>2020-07-26T10:55:05.347Z</time>
      </trkpt>
      <trkpt lat="61.11297" lon="5.28018">
        <ele>71.827347</ele>
        <time>2020-07-26T10:55:10.324Z</time>
      </trkpt>
      <trkpt lat="61.11303" lon="5.28037">
        <ele>71.611082</ele>
        <time>2020-07-26T10:55:17.311Z</time>
      </trkpt>
      <trkpt lat="61.11309" lon="5.28051">
        <ele>71.415077</ele>
        <time>2020-07-26T10:55:23.286Z</time>
      </trkpt>
      <trkpt lat="61.11316" lon="5.28065">
        <ele>71.218621</ele>
        <time>2020-07-26T10:55:28.311Z</time>
      </trkpt>
      <trkpt lat="61.11321" lon="5.28081">
        <ele>71.023069</ele>
        <time>2020-07-26T10:55:33.305Z</time>
      </trkpt>
      <trkpt lat="61.11329" lon="5.28094">
        <ele>70.825601</ele>
        <time>2020-07-26T10:55:38.315Z</time>
      </trkpt>
      <trkpt lat="61.11333" lon="5.28112">
        <ele>70.626427</ele>
        <time>2020-07-26T10:55:46.311Z</time>
      </trkpt>
      <trkpt lat="61.11338" lon="5.2813">
        <ele>70.422215</ele>
        <time>2020-07-26T10:55:53.293Z</time>
      </trkpt>
      <trkpt lat="61.11342" lon="5.28146">
        <ele>70.238088</ele>
        <time>2020-07-26T10:55:59.288Z</time>
      </trkpt>
      <trkpt lat="61.11348" lon="5.28163">
        <ele>70.037928</ele>
        <time>2020-07-26T10:56:06.301Z</time>
      </trkpt>
      <trkpt lat="61.11354" lon="5.28178">
        <ele>69.839709</ele>
        <time>2020-07-26T10:56:14.320Z</time>
      </trkpt>
      <trkpt lat="61.11362" lon="5.28188">
        <ele>69.651256</ele>
        <time>2020-07-26T10:56:27.332Z</time>
      </trkpt>
      <trkpt lat="61.11367" lon="5.28204">
        <ele>69.268943</ele>
        <time>2020-07-26T10:56:36.332Z</time>
      </trkpt>
      <trkpt lat="61.11398" lon="5.28295">
        <ele>66.592427</ele>
        <time>2020-07-26T10:59:58.316Z</time>
      </trkpt>
      <trkpt lat="61.11403" lon="5.28311">
        <ele>66.103119</ele>
        <time>2020-07-26T11:00:00.317Z</time>
      </trkpt>
      <trkpt lat="61.11406" lon="5.2833">
        <ele>65.630873</ele>
        <time>2020-07-26T11:00:03.319Z</time>
      </trkpt>
      <trkpt lat="61.11405" lon="5.28349">
        <ele>65.159338</ele>
        <time>2020-07-26T11:00:06.319Z</time>
      </trkpt>
      <trkpt lat="61.11404" lon="5.28373">
        <ele>64.59193</ele>
        <time>2020-07-26T11:00:10.309Z</time>
      </trkpt>
      <trkpt lat="61.11404" lon="5.28393">
        <ele>64.099849</ele>
        <time>2020-07-26T11:00:13.313Z</time>
      </trkpt>
      <trkpt lat="61.11403" lon="5.28414">
        <ele>63.607108</ele>
        <time>2020-07-26T11:00:16.330Z</time>
      </trkpt>
      <trkpt lat="61.11402" lon="5.28434">
        <ele>63.112978</ele>
        <time>2020-07-26T11:00:19.314Z</time>
      </trkpt>
      <trkpt lat="61.11401" lon="5.28453">
        <ele>62.64572</ele>
        <time>2020-07-26T11:00:22.318Z</time>
      </trkpt>
      <trkpt lat="61.11398" lon="5.28477">
        <ele>62.053449</ele>
        <time>2020-07-26T11:00:26.313Z</time>
      </trkpt>
      <trkpt lat="61.11395" lon="5.28498">
        <ele>61.510261</ele>
        <time>2020-07-26T11:00:30.344Z</time>
      </trkpt>
      <trkpt lat="61.1139" lon="5.28515">
        <ele>61.04821</ele>
        <time>2020-07-26T11:00:34.311Z</time>
      </trkpt>
      <trkpt lat="61.11381" lon="5.28526">
        <ele>60.724567</ele>
        <time>2020-07-26T11:00:39.330Z</time>
      </trkpt>
      <trkpt lat="61.11373" lon="5.28536">
        <ele>61.442793</ele>
        <time>2020-07-26T11:00:46.346Z</time>
      </trkpt>
      <trkpt lat="61.11365" lon="5.28541">
        <ele>62.147948</ele>
        <time>2020-07-26T11:00:52.344Z</time>
      </trkpt>
      <trkpt lat="61.11355" lon="5.28546">
        <ele>62.902031</ele>
        <time>2020-07-26T11:00:58.320Z</time>
      </trkpt>
      <trkpt lat="61.11346" lon="5.28552">
        <ele>63.623835</ele>
        <time>2020-07-26T11:01:05.319Z</time>
      </trkpt>
      <trkpt lat="61.11336" lon="5.28557">
        <ele>64.38799</ele>
        <time>2020-07-26T11:01:13.364Z</time>
      </trkpt>
      <trkpt lat="61.11327" lon="5.2856">
        <ele>65.077099</ele>
        <time>2020-07-26T11:01:19.323Z</time>
      </trkpt>
      <trkpt lat="61.11318" lon="5.28566">
        <ele>65.79649</ele>
        <time>2020-07-26T11:01:27.315Z</time>
      </trkpt>
      <trkpt lat="61.11309" lon="5.2857">
        <ele>66.53262</ele>
        <time>2020-07-26T11:01:34.320Z</time>
      </trkpt>
      <trkpt lat="61.11299" lon="5.28573">
        <ele>67.289581</ele>
        <time>2020-07-26T11:01:41.351Z</time>
      </trkpt>
      <trkpt lat="61.11289" lon="5.28577">
        <ele>68.042807</ele>
        <time>2020-07-26T11:01:47.306Z</time>
      </trkpt>
      <trkpt lat="61.11281" lon="5.28583">
        <ele>68.744163</ele>
        <time>2020-07-26T11:01:53.323Z</time>
      </trkpt>
      <trkpt lat="61.11272" lon="5.2859">
        <ele>69.437334</ele>
        <time>2020-07-26T11:01:59.331Z</time>
      </trkpt>
      <trkpt lat="61.11264" lon="5.28598">
        <ele>70.133328</ele>
        <time>2020-07-26T11:02:04.329Z</time>
      </trkpt>
      <trkpt lat="61.11257" lon="5.28612">
        <ele>70.887145</ele>
        <time>2020-07-26T11:02:10.310Z</time>
      </trkpt>
      <trkpt lat="61.11252" lon="5.28627">
        <ele>71.580197</ele>
        <time>2020-07-26T11:02:16.305Z</time>
      </trkpt>
      <trkpt lat="61.11251" lon="5.28647">
        <ele>72.321862</ele>
        <time>2020-07-26T11:02:22.358Z</time>
      </trkpt>
      <trkpt lat="61.11252" lon="5.28666">
        <ele>73.029695</ele>
        <time>2020-07-26T11:02:28.328Z</time>
      </trkpt>
      <trkpt lat="61.11257" lon="5.28685">
        <ele>73.803742</ele>
        <time>2020-07-26T11:02:35.333Z</time>
      </trkpt>
      <trkpt lat="61.11265" lon="5.28698">
        <ele>74.605528</ele>
        <time>2020-07-26T11:02:41.318Z</time>
      </trkpt>
      <trkpt lat="61.11273" lon="5.28709">
        <ele>75.524118</ele>
        <time>2020-07-26T11:02:47.345Z</time>
      </trkpt>
      <trkpt lat="61.11283" lon="5.28711">
        <ele>76.448638</ele>
        <time>2020-07-26T11:02:55.323Z</time>
      </trkpt>
      <trkpt lat="61.11293" lon="5.28711">
        <ele>77.340701</ele>
        <time>2020-07-26T11:03:02.316Z</time>
      </trkpt>
      <trkpt lat="61.11304" lon="5.28713">
        <ele>78.299786</ele>
        <time>2020-07-26T11:03:09.316Z</time>
      </trkpt>
      <trkpt lat="61.11314" lon="5.28714">
        <ele>79.194224</ele>
        <time>2020-07-26T11:03:15.329Z</time>
      </trkpt>
      <trkpt lat="61.11323" lon="5.28718">
        <ele>80.05982</ele>
        <time>2020-07-26T11:03:21.330Z</time>
      </trkpt>
      <trkpt lat="61.11332" lon="5.28725">
        <ele>80.907732</ele>
        <time>2020-07-26T11:03:27.372Z</time>
      </trkpt>
      <trkpt lat="61.1134" lon="5.28735">
        <ele>81.765288</ele>
        <time>2020-07-26T11:03:34.362Z</time>
      </trkpt>
      <trkpt lat="61.11346" lon="5.28749">
        <ele>82.598444</ele>
        <time>2020-07-26T11:03:41.317Z</time>
      </trkpt>
      <trkpt lat="61.11353" lon="5.28762">
        <ele>83.422971</ele>
        <time>2020-07-26T11:03:48.306Z</time>
      </trkpt>
      <trkpt lat="61.11359" lon="5.28777">
        <ele>84.237256</ele>
        <time>2020-07-26T11:03:55.333Z</time>
      </trkpt>
      <trkpt lat="61.11363" lon="5.28794">
        <ele>85.068445</ele>
        <time>2020-07-26T11:04:03.321Z</time>
      </trkpt>
      <trkpt lat="61.11365" lon="5.28814">
        <ele>85.95995</ele>
        <time>2020-07-26T11:04:11.329Z</time>
      </trkpt>
      <trkpt lat="61.11366" lon="5.28833">
        <ele>86.778</ele>
        <time>2020-07-26T11:04:19.324Z</time>
      </trkpt>
      <trkpt lat="61.11367" lon="5.28851">
        <ele>87.596071</ele>
        <time>2020-07-26T11:04:27.304Z</time>
      </trkpt>
      <trkpt lat="61.11369" lon="5.28872">
        <ele>88.501576</ele>
        <time>2020-07-26T11:04:35.331Z</time>
      </trkpt>
      <trkpt lat="61.11372" lon="5.2889">
        <ele>89.318066</ele>
        <time>2020-07-26T11:04:43.317Z</time>
      </trkpt>
      <trkpt lat="61.11376" lon="5.28907">
        <ele>90.16091</ele>
        <time>2020-07-26T11:04:51.311Z</time>
      </trkpt>
      <trkpt lat="61.11379" lon="5.28927">
        <ele>90.492294</ele>
        <time>2020-07-26T11:04:59.312Z</time>
      </trkpt>
      <trkpt lat="61.11384" lon="5.28944">
        <ele>90.383429</ele>
        <time>2020-07-26T11:05:07.367Z</time>
      </trkpt>
      <trkpt lat="61.1139" lon="5.28961">
        <ele>90.260508</ele>
        <time>2020-07-26T11:05:15.335Z</time>
      </trkpt>
      <trkpt lat="61.11397" lon="5.28974">
        <ele>90.150903</ele>
        <time>2020-07-26T11:05:22.307Z</time>
      </trkpt>
      <trkpt lat="61.11404" lon="5.28991">
        <ele>90.028784</ele>
        <time>2020-07-26T11:05:29.317Z</time>
      </trkpt>
      <trkpt lat="61.1141" lon="5.29006">
        <ele>89.923061</ele>
        <time>2020-07-26T11:05:36.338Z</time>
      </trkpt>
      <trkpt lat="61.11416" lon="5.2902">
        <ele>89.814371</ele>
        <time>2020-07-26T11:05:41.328Z</time>
      </trkpt>
      <trkpt lat="61.11422" lon="5.29034">
        <ele>89.705681</ele>
        <time>2020-07-26T11:05:46.310Z</time>
      </trkpt>
      <trkpt lat="61.11429" lon="5.29051">
        <ele>89.581297</ele>
        <time>2020-07-26T11:05:51.307Z</time>
      </trkpt>
      <trkpt lat="61.11435" lon="5.29072">
        <ele>89.447079</ele>
        <time>2020-07-26T11:05:56.351Z</time>
      </trkpt>
      <trkpt lat="61.11439" lon="5.29091">
        <ele>89.329642</ele>
        <time>2020-07-26T11:05:59.329Z</time>
      </trkpt>
      <trkpt lat="61.11444" lon="5.29116">
        <ele>89.178881</ele>
        <time>2020-07-26T11:06:02.340Z</time>
      </trkpt>
      <trkpt lat="61.11447" lon="5.29137">
        <ele>89.052124</ele>
        <time>2020-07-26T11:06:04.319Z</time>
      </trkpt>
      <trkpt lat="61.11451" lon="5.29162">
        <ele>88.905085</ele>
        <time>2020-07-26T11:06:06.333Z</time>
      </trkpt>
      <trkpt lat="61.11454" lon="5.29191">
        <ele>88.737498</ele>
        <time>2020-07-26T11:06:08.352Z</time>
      </trkpt>
      <trkpt lat="61.11458" lon="5.29223">
        <ele>88.554431</ele>
        <time>2020-07-26T11:06:10.312Z</time>
      </trkpt>
      <trkpt lat="61.11463" lon="5.29256">
        <ele>87.95709</ele>
        <time>2020-07-26T11:06:12.328Z</time>
      </trkpt>
      <trkpt lat="61.11466" lon="5.29292">
        <ele>86.97135</ele>
        <time>2020-07-26T11:06:14.325Z</time>
      </trkpt>
      <trkpt lat="61.11468" lon="5.29311">
        <ele>86.437635</ele>
        <time>2020-07-26T11:06:15.326Z</time>
      </trkpt>
      <trkpt lat="61.1147" lon="5.29331">
        <ele>85.908646</ele>
        <time>2020-07-26T11:06:16.333Z</time>
      </trkpt>
      <trkpt lat="61.11471" lon="5.2935">
        <ele>85.384176</ele>
        <time>2020-07-26T11:06:17.351Z</time>
      </trkpt>
      <trkpt lat="61.11473" lon="5.29369">
        <ele>84.865743</ele>
        <time>2020-07-26T11:06:18.316Z</time>
      </trkpt>
      <trkpt lat="61.11474" lon="5.29388">
        <ele>84.360691</ele>
        <time>2020-07-26T11:06:19.379Z</time>
      </trkpt>
      <trkpt lat="61.11476" lon="5.29406">
        <ele>83.857401</ele>
        <time>2020-07-26T11:06:20.319Z</time>
      </trkpt>
      <trkpt lat="61.11479" lon="5.29443">
        <ele>82.860082</ele>
        <time>2020-07-26T11:06:22.318Z</time>
      </trkpt>
      <trkpt lat="61.11481" lon="5.29462">
        <ele>82.347919</ele>
        <time>2020-07-26T11:06:23.355Z</time>
      </trkpt>
      <trkpt lat="61.11482" lon="5.2948">
        <ele>81.838382</ele>
        <time>2020-07-26T11:06:24.361Z</time>
      </trkpt>
      <trkpt lat="61.11483" lon="5.29499">
        <ele>81.322938</ele>
        <time>2020-07-26T11:06:25.331Z</time>
      </trkpt>
      <trkpt lat="61.11484" lon="5.29519">
        <ele>80.803671</ele>
        <time>2020-07-26T11:06:26.324Z</time>
      </trkpt>
      <trkpt lat="61.11485" lon="5.29538">
        <ele>80.297781</ele>
        <time>2020-07-26T11:06:27.326Z</time>
      </trkpt>
      <trkpt lat="61.11485" lon="5.29556">
        <ele>79.796779</ele>
        <time>2020-07-26T11:06:28.338Z</time>
      </trkpt>
      <trkpt lat="61.11487" lon="5.29592">
        <ele>78.83849</ele>
        <time>2020-07-26T11:06:30.311Z</time>
      </trkpt>
      <trkpt lat="61.11487" lon="5.29625">
        <ele>78.07533</ele>
        <time>2020-07-26T11:06:32.319Z</time>
      </trkpt>
      <trkpt lat="61.11487" lon="5.29655">
        <ele>77.458712</ele>
        <time>2020-07-26T11:06:34.311Z</time>
      </trkpt>
      <trkpt lat="61.11489" lon="5.29683">
        <ele>76.888874</ele>
        <time>2020-07-26T11:06:36.313Z</time>
      </trkpt>
      <trkpt lat="61.11489" lon="5.2971">
        <ele>76.359183</ele>
        <time>2020-07-26T11:06:38.322Z</time>
      </trkpt>
      <trkpt lat="61.11489" lon="5.29734">
        <ele>75.870562</ele>
        <time>2020-07-26T11:06:40.323Z</time>
      </trkpt>
      <trkpt lat="61.1149" lon="5.29756">
        <ele>75.413966</ele>
        <time>2020-07-26T11:06:42.354Z</time>
      </trkpt>
      <trkpt lat="61.1149" lon="5.29777">
        <ele>74.989768</ele>
        <time>2020-07-26T11:06:44.310Z</time>
      </trkpt>
      <trkpt lat="61.11491" lon="5.29796">
        <ele>74.610315</ele>
        <time>2020-07-26T11:06:46.341Z</time>
      </trkpt>
      <trkpt lat="61.11491" lon="5.29822">
        <ele>74.081073</ele>
        <time>2020-07-26T11:06:49.311Z</time>
      </trkpt>
      <trkpt lat="61.11492" lon="5.29845">
        <ele>73.606047</ele>
        <time>2020-07-26T11:06:52.326Z</time>
      </trkpt>
      <trkpt lat="61.11493" lon="5.29869">
        <ele>73.120959</ele>
        <time>2020-07-26T11:06:55.337Z</time>
      </trkpt>
      <trkpt lat="61.11494" lon="5.29893">
        <ele>72.639038</ele>
        <time>2020-07-26T11:06:58.320Z</time>
      </trkpt>
      <trkpt lat="61.11496" lon="5.29916">
        <ele>72.156701</ele>
        <time>2020-07-26T11:07:01.316Z</time>
      </trkpt>
      <trkpt lat="61.11498" lon="5.2994">
        <ele>71.656118</ele>
        <time>2020-07-26T11:07:04.305Z</time>
      </trkpt>
      <trkpt lat="61.11502" lon="5.29967">
        <ele>71.093805</ele>
        <time>2020-07-26T11:07:07.326Z</time>
      </trkpt>
      <trkpt lat="61.11504" lon="5.29986">
        <ele>70.772136</ele>
        <time>2020-07-26T11:07:09.331Z</time>
      </trkpt>
      <trkpt lat="61.11505" lon="5.30007">
        <ele>70.489035</ele>
        <time>2020-07-26T11:07:11.309Z</time>
      </trkpt>
      <trkpt lat="61.11506" lon="5.30029">
        <ele>70.196842</ele>
        <time>2020-07-26T11:07:13.302Z</time>
      </trkpt>
      <trkpt lat="61.11507" lon="5.30051">
        <ele>69.896424</ele>
        <time>2020-07-26T11:07:15.334Z</time>
      </trkpt>
      <trkpt lat="61.11507" lon="5.30075">
        <ele>69.577591</ele>
        <time>2020-07-26T11:07:17.297Z</time>
      </trkpt>
      <trkpt lat="61.11507" lon="5.30098">
        <ele>69.262842</ele>
        <time>2020-07-26T11:07:19.324Z</time>
      </trkpt>
      <trkpt lat="61.11507" lon="5.30123">
        <ele>68.923836</ele>
        <time>2020-07-26T11:07:21.325Z</time>
      </trkpt>
      <trkpt lat="61.11506" lon="5.3015">
        <ele>68.5682</ele>
        <time>2020-07-26T11:07:23.332Z</time>
      </trkpt>
      <trkpt lat="61.11505" lon="5.30177">
        <ele>68.200476</ele>
        <time>2020-07-26T11:07:25.324Z</time>
      </trkpt>
      <trkpt lat="61.11504" lon="5.30204">
        <ele>67.836622</ele>
        <time>2020-07-26T11:07:27.310Z</time>
      </trkpt>
      <trkpt lat="61.11504" lon="5.30232">
        <ele>67.461085</ele>
        <time>2020-07-26T11:07:29.328Z</time>
      </trkpt>
      <trkpt lat="61.11503" lon="5.30261">
        <ele>67.075748</ele>
        <time>2020-07-26T11:07:31.335Z</time>
      </trkpt>
      <trkpt lat="61.11504" lon="5.30288">
        <ele>66.7029</ele>
        <time>2020-07-26T11:07:33.318Z</time>
      </trkpt>
      <trkpt lat="61.11505" lon="5.30315">
        <ele>66.335322</ele>
        <time>2020-07-26T11:07:35.311Z</time>
      </trkpt>
      <trkpt lat="61.11507" lon="5.30343">
        <ele>65.966985</ele>
        <time>2020-07-26T11:07:37.328Z</time>
      </trkpt>
      <trkpt lat="61.1151" lon="5.30371">
        <ele>65.347102</ele>
        <time>2020-07-26T11:07:39.311Z</time>
      </trkpt>
      <trkpt lat="61.11514" lon="5.30399">
        <ele>64.684878</ele>
        <time>2020-07-26T11:07:41.317Z</time>
      </trkpt>
      <trkpt lat="61.11517" lon="5.30429">
        <ele>64.002993</ele>
        <time>2020-07-26T11:07:43.336Z</time>
      </trkpt>
      <trkpt lat="61.11521" lon="5.30458">
        <ele>63.319979</ele>
        <time>2020-07-26T11:07:45.359Z</time>
      </trkpt>
      <trkpt lat="61.11523" lon="5.30489">
        <ele>62.616415</ele>
        <time>2020-07-26T11:07:47.329Z</time>
      </trkpt>
      <trkpt lat="61.11527" lon="5.3052">
        <ele>61.903759</ele>
        <time>2020-07-26T11:07:49.327Z</time>
      </trkpt>
      <trkpt lat="61.1153" lon="5.30552">
        <ele>61.171302</ele>
        <time>2020-07-26T11:07:51.312Z</time>
      </trkpt>
      <trkpt lat="61.11534" lon="5.30584">
        <ele>60.412658</ele>
        <time>2020-07-26T11:07:53.347Z</time>
      </trkpt>
      <trkpt lat="61.11539" lon="5.30616">
        <ele>59.666844</ele>
        <time>2020-07-26T11:07:55.299Z</time>
      </trkpt>
      <trkpt lat="61.11547" lon="5.30645">
        <ele>58.901062</ele>
        <time>2020-07-26T11:07:57.312Z</time>
      </trkpt>
      <trkpt lat="61.11556" lon="5.30674">
        <ele>58.128619</ele>
        <time>2020-07-26T11:07:59.333Z</time>
      </trkpt>
      <trkpt lat="61.11566" lon="5.30702">
        <ele>57.586311</ele>
        <time>2020-07-26T11:08:01.332Z</time>
      </trkpt>
      <trkpt lat="61.11575" lon="5.30729">
        <ele>57.799726</ele>
        <time>2020-07-26T11:08:03.307Z</time>
      </trkpt>
      <trkpt lat="61.11585" lon="5.30754">
        <ele>57.999655</ele>
        <time>2020-07-26T11:08:05.311Z</time>
      </trkpt>
      <trkpt lat="61.11593" lon="5.30778">
        <ele>58.18567</ele>
        <time>2020-07-26T11:08:07.309Z</time>
      </trkpt>
      <trkpt lat="61.11599" lon="5.30801">
        <ele>58.351254</ele>
        <time>2020-07-26T11:08:09.321Z</time>
      </trkpt>
      <trkpt lat="61.11605" lon="5.30821">
        <ele>58.497254</ele>
        <time>2020-07-26T11:08:11.334Z</time>
      </trkpt>
      <trkpt lat="61.11609" lon="5.30842">
        <ele>58.638771</ele>
        <time>2020-07-26T11:08:14.330Z</time>
      </trkpt>
      <trkpt lat="61.11609" lon="5.30864">
        <ele>58.782801</ele>
        <time>2020-07-26T11:08:18.307Z</time>
      </trkpt>
      <trkpt lat="61.11611" lon="5.30884">
        <ele>58.906133</ele>
        <time>2020-07-26T11:08:22.313Z</time>
      </trkpt>
      <trkpt lat="61.11613" lon="5.30904">
        <ele>59.036002</ele>
        <time>2020-07-26T11:08:26.314Z</time>
      </trkpt>
      <trkpt lat="61.11616" lon="5.30923">
        <ele>59.158714</ele>
        <time>2020-07-26T11:08:30.329Z</time>
      </trkpt>
      <trkpt lat="61.11618" lon="5.30945">
        <ele>59.304722</ele>
        <time>2020-07-26T11:08:35.331Z</time>
      </trkpt>
      <trkpt lat="61.1162" lon="5.30964">
        <ele>59.428494</ele>
        <time>2020-07-26T11:08:39.334Z</time>
      </trkpt>
      <trkpt lat="61.11623" lon="5.30984">
        <ele>59.557113</ele>
        <time>2020-07-26T11:08:43.325Z</time>
      </trkpt>
      <trkpt lat="61.11626" lon="5.31003">
        <ele>59.687941</ele>
        <time>2020-07-26T11:08:47.328Z</time>
      </trkpt>
      <trkpt lat="61.1163" lon="5.31021">
        <ele>59.806885</ele>
        <time>2020-07-26T11:08:50.335Z</time>
      </trkpt>
      <trkpt lat="61.11635" lon="5.31043">
        <ele>59.873511</ele>
        <time>2020-07-26T11:08:54.309Z</time>
      </trkpt>
      <trkpt lat="61.11638" lon="5.31061">
        <ele>59.852856</ele>
        <time>2020-07-26T11:08:57.308Z</time>
      </trkpt>
      <trkpt lat="61.11641" lon="5.3108">
        <ele>59.831179</ele>
        <time>2020-07-26T11:09:00.304Z</time>
      </trkpt>
      <trkpt lat="61.11646" lon="5.31101">
        <ele>59.806807</ele>
        <time>2020-07-26T11:09:03.338Z</time>
      </trkpt>
      <trkpt lat="61.11652" lon="5.31123">
        <ele>59.780604</ele>
        <time>2020-07-26T11:09:06.336Z</time>
      </trkpt>
      <trkpt lat="61.11656" lon="5.31147">
        <ele>59.75372</ele>
        <time>2020-07-26T11:09:09.309Z</time>
      </trkpt>
      <trkpt lat="61.1166" lon="5.31171">
        <ele>59.725741</ele>
        <time>2020-07-26T11:09:12.327Z</time>
      </trkpt>
      <trkpt lat="61.11665" lon="5.31197">
        <ele>59.697022</ele>
        <time>2020-07-26T11:09:15.310Z</time>
      </trkpt>
      <trkpt lat="61.1167" lon="5.31222">
        <ele>59.66763</ele>
        <time>2020-07-26T11:09:18.370Z</time>
      </trkpt>
      <trkpt lat="61.11675" lon="5.31248">
        <ele>59.638696</ele>
        <time>2020-07-26T11:09:21.330Z</time>
      </trkpt>
      <trkpt lat="61.11679" lon="5.31265">
        <ele>59.618446</ele>
        <time>2020-07-26T11:09:23.360Z</time>
      </trkpt>
      <trkpt lat="61.11684" lon="5.31283">
        <ele>59.596937</ele>
        <time>2020-07-26T11:09:25.317Z</time>
      </trkpt>
      <trkpt lat="61.11688" lon="5.31301">
        <ele>59.57524</ele>
        <time>2020-07-26T11:09:27.332Z</time>
      </trkpt>
      <trkpt lat="61.11694" lon="5.31318">
        <ele>59.553113</ele>
        <time>2020-07-26T11:09:29.335Z</time>
      </trkpt>
      <trkpt lat="61.117" lon="5.31335">
        <ele>59.531231</ele>
        <time>2020-07-26T11:09:31.319Z</time>
      </trkpt>
      <trkpt lat="61.11705" lon="5.31351">
        <ele>59.510562</ele>
        <time>2020-07-26T11:09:33.322Z</time>
      </trkpt>
      <trkpt lat="61.11711" lon="5.31373">
        <ele>59.608127</ele>
        <time>2020-07-26T11:09:36.322Z</time>
      </trkpt>
      <trkpt lat="61.11719" lon="5.31395">
        <ele>60.016569</ele>
        <time>2020-07-26T11:09:39.321Z</time>
      </trkpt>
      <trkpt lat="61.11725" lon="5.31414">
        <ele>60.369682</ele>
        <time>2020-07-26T11:09:42.344Z</time>
      </trkpt>
      <trkpt lat="61.1173" lon="5.31431">
        <ele>60.694015</ele>
        <time>2020-07-26T11:09:45.340Z</time>
      </trkpt>
      <trkpt lat="61.11735" lon="5.31447">
        <ele>60.987003</ele>
        <time>2020-07-26T11:09:48.331Z</time>
      </trkpt>
      <trkpt lat="61.1174" lon="5.31465">
        <ele>61.316164</ele>
        <time>2020-07-26T11:09:52.310Z</time>
      </trkpt>
      <trkpt lat="61.11747" lon="5.31481">
        <ele>61.632809</ele>
        <time>2020-07-26T11:09:56.358Z</time>
      </trkpt>
      <trkpt lat="61.11753" lon="5.31497">
        <ele>61.945126</ele>
        <time>2020-07-26T11:10:00.315Z</time>
      </trkpt>
      <trkpt lat="61.1176" lon="5.31514">
        <ele>62.296896</ele>
        <time>2020-07-26T11:10:05.324Z</time>
      </trkpt>
      <trkpt lat="61.11765" lon="5.31529">
        <ele>62.586508</ele>
        <time>2020-07-26T11:10:09.360Z</time>
      </trkpt>
      <trkpt lat="61.11772" lon="5.31547">
        <ele>62.9356</ele>
        <time>2020-07-26T11:10:14.305Z</time>
      </trkpt>
      <trkpt lat="61.11777" lon="5.31565">
        <ele>63.26182</ele>
        <time>2020-07-26T11:10:19.314Z</time>
      </trkpt>
      <trkpt lat="61.11783" lon="5.3158">
        <ele>63.559352</ele>
        <time>2020-07-26T11:10:23.317Z</time>
      </trkpt>
      <trkpt lat="61.1179" lon="5.31595">
        <ele>63.890119</ele>
        <time>2020-07-26T11:10:27.336Z</time>
      </trkpt>
      <trkpt lat="61.11796" lon="5.3161">
        <ele>64.204086</ele>
        <time>2020-07-26T11:10:31.315Z</time>
      </trkpt>
      <trkpt lat="61.11804" lon="5.31628">
        <ele>64.577428</ele>
        <time>2020-07-26T11:10:35.345Z</time>
      </trkpt>
      <trkpt lat="61.11811" lon="5.31642">
        <ele>64.891374</ele>
        <time>2020-07-26T11:10:38.314Z</time>
      </trkpt>
      <trkpt lat="61.11818" lon="5.31659">
        <ele>65.237208</ele>
        <time>2020-07-26T11:10:41.323Z</time>
      </trkpt>
      <trkpt lat="61.11827" lon="5.31679">
        <ele>65.121509</ele>
        <time>2020-07-26T11:10:44.313Z</time>
      </trkpt>
      <trkpt lat="61.11832" lon="5.31694">
        <ele>65.002105</ele>
        <time>2020-07-26T11:10:46.313Z</time>
      </trkpt>
      <trkpt lat="61.1184" lon="5.31711">
        <ele>64.861178</ele>
        <time>2020-07-26T11:10:48.308Z</time>
      </trkpt>
      <trkpt lat="61.11847" lon="5.31728">
        <ele>64.71202</ele>
        <time>2020-07-26T11:10:50.351Z</time>
      </trkpt>
      <trkpt lat="61.11854" lon="5.31746">
        <ele>64.567288</ele>
        <time>2020-07-26T11:10:52.310Z</time>
      </trkpt>
      <trkpt lat="61.11861" lon="5.31764">
        <ele>64.430543</ele>
        <time>2020-07-26T11:10:54.320Z</time>
      </trkpt>
      <trkpt lat="61.11866" lon="5.31781">
        <ele>64.301869</ele>
        <time>2020-07-26T11:10:56.323Z</time>
      </trkpt>
      <trkpt lat="61.11872" lon="5.31803">
        <ele>64.14173</ele>
        <time>2020-07-26T11:10:59.318Z</time>
      </trkpt>
      <trkpt lat="61.11878" lon="5.31822">
        <ele>63.998136</ele>
        <time>2020-07-26T11:11:02.311Z</time>
      </trkpt>
      <trkpt lat="61.11883" lon="5.31838">
        <ele>63.874229</ele>
        <time>2020-07-26T11:11:05.302Z</time>
      </trkpt>
      <trkpt lat="61.11888" lon="5.31857">
        <ele>63.740388</ele>
        <time>2020-07-26T11:11:09.358Z</time>
      </trkpt>
      <trkpt lat="61.11891" lon="5.31876">
        <ele>63.6169</ele>
        <time>2020-07-26T11:11:13.317Z</time>
      </trkpt>
      <trkpt lat="61.11895" lon="5.31897">
        <ele>63.472667</ele>
        <time>2020-07-26T11:11:18.322Z</time>
      </trkpt>
      <trkpt lat="61.11898" lon="5.31915">
        <ele>63.354102</ele>
        <time>2020-07-26T11:11:22.322Z</time>
      </trkpt>
      <trkpt lat="61.11901" lon="5.31934">
        <ele>63.230576</ele>
        <time>2020-07-26T11:11:26.308Z</time>
      </trkpt>
      <trkpt lat="61.11904" lon="5.31953">
        <ele>63.101465</ele>
        <time>2020-07-26T11:11:30.302Z</time>
      </trkpt>
      <trkpt lat="61.11907" lon="5.31972">
        <ele>62.978734</ele>
        <time>2020-07-26T11:11:34.350Z</time>
      </trkpt>
      <trkpt lat="61.1191" lon="5.31992">
        <ele>62.85631</ele>
        <time>2020-07-26T11:11:38.309Z</time>
      </trkpt>
      <trkpt lat="61.11913" lon="5.32015">
        <ele>62.72949</ele>
        <time>2020-07-26T11:11:42.318Z</time>
      </trkpt>
      <trkpt lat="61.11917" lon="5.32034">
        <ele>62.625737</ele>
        <time>2020-07-26T11:11:45.353Z</time>
      </trkpt>
      <trkpt lat="61.1192" lon="5.32052">
        <ele>62.523688</ele>
        <time>2020-07-26T11:11:48.327Z</time>
      </trkpt>
      <trkpt lat="61.11923" lon="5.32069">
        <ele>62.42614</ele>
        <time>2020-07-26T11:11:51.323Z</time>
      </trkpt>
      <trkpt lat="61.11926" lon="5.32087">
        <ele>62.326101</ele>
        <time>2020-07-26T11:11:54.332Z</time>
      </trkpt>
      <trkpt lat="61.11929" lon="5.32106">
        <ele>62.221713</ele>
        <time>2020-07-26T11:11:57.312Z</time>
      </trkpt>
      <trkpt lat="61.11933" lon="5.32126">
        <ele>62.109893</ele>
        <time>2020-07-26T11:12:00.311Z</time>
      </trkpt>
      <trkpt lat="61.11938" lon="5.32147">
        <ele>61.98092</ele>
        <time>2020-07-26T11:12:03.378Z</time>
      </trkpt>
      <trkpt lat="61.11945" lon="5.32169">
        <ele>61.84532</ele>
        <time>2020-07-26T11:12:06.318Z</time>
      </trkpt>
      <trkpt lat="61.11952" lon="5.32193">
        <ele>61.698519</ele>
        <time>2020-07-26T11:12:09.309Z</time>
      </trkpt>
      <trkpt lat="61.11957" lon="5.32208">
        <ele>61.599495</ele>
        <time>2020-07-26T11:12:11.312Z</time>
      </trkpt>
      <trkpt lat="61.11962" lon="5.32224">
        <ele>61.49811</ele>
        <time>2020-07-26T11:12:13.363Z</time>
      </trkpt>
      <trkpt lat="61.11968" lon="5.3224">
        <ele>61.39308</ele>
        <time>2020-07-26T11:12:15.344Z</time>
      </trkpt>
      <trkpt lat="61.11974" lon="5.32256">
        <ele>61.285869</ele>
        <time>2020-07-26T11:12:17.344Z</time>
      </trkpt>
      <trkpt lat="61.11982" lon="5.32278">
        <ele>61.14047</ele>
        <time>2020-07-26T11:12:20.339Z</time>
      </trkpt>
      <trkpt lat="61.1199" lon="5.323">
        <ele>60.998676</ele>
        <time>2020-07-26T11:12:23.314Z</time>
      </trkpt>
      <trkpt lat="61.11996" lon="5.32314">
        <ele>60.863014</ele>
        <time>2020-07-26T11:12:25.342Z</time>
      </trkpt>
      <trkpt lat="61.12003" lon="5.32329">
        <ele>60.702627</ele>
        <time>2020-07-26T11:12:27.330Z</time>
      </trkpt>
      <trkpt lat="61.12009" lon="5.32343">
        <ele>60.539968</ele>
        <time>2020-07-26T11:12:29.336Z</time>
      </trkpt>
      <trkpt lat="61.12017" lon="5.32357">
        <ele>60.375962</ele>
        <time>2020-07-26T11:12:31.331Z</time>
      </trkpt>
      <trkpt lat="61.12025" lon="5.3237">
        <ele>60.208387</ele>
        <time>2020-07-26T11:12:33.310Z</time>
      </trkpt>
      <trkpt lat="61.12033" lon="5.32382">
        <ele>60.053625</ele>
        <time>2020-07-26T11:12:35.353Z</time>
      </trkpt>
      <trkpt lat="61.12041" lon="5.32392">
        <ele>59.898683</ele>
        <time>2020-07-26T11:12:37.327Z</time>
      </trkpt>
      <trkpt lat="61.12049" lon="5.324">
        <ele>59.743596</ele>
        <time>2020-07-26T11:12:39.329Z</time>
      </trkpt>
      <trkpt lat="61.12058" lon="5.32408">
        <ele>59.583548</ele>
        <time>2020-07-26T11:12:41.319Z</time>
      </trkpt>
      <trkpt lat="61.12067" lon="5.32415">
        <ele>59.431317</ele>
        <time>2020-07-26T11:12:43.359Z</time>
      </trkpt>
      <trkpt lat="61.12076" lon="5.3242">
        <ele>59.27241</ele>
        <time>2020-07-26T11:12:45.325Z</time>
      </trkpt>
      <trkpt lat="61.12089" lon="5.32425">
        <ele>59.059865</ele>
        <time>2020-07-26T11:12:48.349Z</time>
      </trkpt>
      <trkpt lat="61.12099" lon="5.3243">
        <ele>58.886747</ele>
        <time>2020-07-26T11:12:51.322Z</time>
      </trkpt>
      <trkpt lat="61.12108" lon="5.32432">
        <ele>58.734678</ele>
        <time>2020-07-26T11:12:54.322Z</time>
      </trkpt>
      <trkpt lat="61.12117" lon="5.32434">
        <ele>58.586266</ele>
        <time>2020-07-26T11:12:57.307Z</time>
      </trkpt>
      <trkpt lat="61.12128" lon="5.32436">
        <ele>58.408186</ele>
        <time>2020-07-26T11:13:01.333Z</time>
      </trkpt>
      <trkpt lat="61.12139" lon="5.32437">
        <ele>58.228595</ele>
        <time>2020-07-26T11:13:05.307Z</time>
      </trkpt>
      <trkpt lat="61.12149" lon="5.32441">
        <ele>58.06871</ele>
        <time>2020-07-26T11:13:09.315Z</time>
      </trkpt>
      <trkpt lat="61.12159" lon="5.32442">
        <ele>58.237171</ele>
        <time>2020-07-26T11:13:13.318Z</time>
      </trkpt>
      <trkpt lat="61.12169" lon="5.32443">
        <ele>58.530238</ele>
        <time>2020-07-26T11:13:17.320Z</time>
      </trkpt>
      <trkpt lat="61.12178" lon="5.32445">
        <ele>58.830043</ele>
        <time>2020-07-26T11:13:21.316Z</time>
      </trkpt>
      <trkpt lat="61.12187" lon="5.32447">
        <ele>59.113372</ele>
        <time>2020-07-26T11:13:25.333Z</time>
      </trkpt>
      <trkpt lat="61.12198" lon="5.3245">
        <ele>59.458877</ele>
        <time>2020-07-26T11:13:30.328Z</time>
      </trkpt>
      <trkpt lat="61.12208" lon="5.32451">
        <ele>59.783271</ele>
        <time>2020-07-26T11:13:36.322Z</time>
      </trkpt>
      <trkpt lat="61.12218" lon="5.32452">
        <ele>60.101429</ele>
        <time>2020-07-26T11:13:41.328Z</time>
      </trkpt>
      <trkpt lat="61.12228" lon="5.32454">
        <ele>60.410572</ele>
        <time>2020-07-26T11:13:46.324Z</time>
      </trkpt>
      <trkpt lat="61.12237" lon="5.32453">
        <ele>60.713009</ele>
        <time>2020-07-26T11:13:50.337Z</time>
      </trkpt>
      <trkpt lat="61.12246" lon="5.32452">
        <ele>61.008258</ele>
        <time>2020-07-26T11:13:53.319Z</time>
      </trkpt>
      <trkpt lat="61.12257" lon="5.32451">
        <ele>61.357706</ele>
        <time>2020-07-26T11:13:56.332Z</time>
      </trkpt>
      <trkpt lat="61.1227" lon="5.32451">
        <ele>61.754687</ele>
        <time>2020-07-26T11:13:59.306Z</time>
      </trkpt>
      <trkpt lat="61.1228" lon="5.32451">
        <ele>62.084874</ele>
        <time>2020-07-26T11:14:01.331Z</time>
      </trkpt>
      <trkpt lat="61.12292" lon="5.32453">
        <ele>62.448044</ele>
        <time>2020-07-26T11:14:03.316Z</time>
      </trkpt>
      <trkpt lat="61.12304" lon="5.32458">
        <ele>62.84685</ele>
        <time>2020-07-26T11:14:05.310Z</time>
      </trkpt>
      <trkpt lat="61.12318" lon="5.32466">
        <ele>63.294405</ele>
        <time>2020-07-26T11:14:07.328Z</time>
      </trkpt>
      <trkpt lat="61.1233" lon="5.32477">
        <ele>63.711458</ele>
        <time>2020-07-26T11:14:09.308Z</time>
      </trkpt>
      <trkpt lat="61.1234" lon="5.32486">
        <ele>63.531464</ele>
        <time>2020-07-26T11:14:11.321Z</time>
      </trkpt>
      <trkpt lat="61.12349" lon="5.32495">
        <ele>63.369171</ele>
        <time>2020-07-26T11:14:13.350Z</time>
      </trkpt>
      <trkpt lat="61.1236" lon="5.32506">
        <ele>63.163608</ele>
        <time>2020-07-26T11:14:16.307Z</time>
      </trkpt>
      <trkpt lat="61.12369" lon="5.32513">
        <ele>63.004857</ele>
        <time>2020-07-26T11:14:19.329Z</time>
      </trkpt>
      <trkpt lat="61.12378" lon="5.3252">
        <ele>62.846883</ele>
        <time>2020-07-26T11:14:22.323Z</time>
      </trkpt>
      <trkpt lat="61.12388" lon="5.32524">
        <ele>62.692226</ele>
        <time>2020-07-26T11:14:25.308Z</time>
      </trkpt>
      <trkpt lat="61.12399" lon="5.32529">
        <ele>62.495063</ele>
        <time>2020-07-26T11:14:29.332Z</time>
      </trkpt>
      <trkpt lat="61.1241" lon="5.32533">
        <ele>62.318184</ele>
        <time>2020-07-26T11:14:32.337Z</time>
      </trkpt>
      <trkpt lat="61.12422" lon="5.32535">
        <ele>62.115942</ele>
        <time>2020-07-26T11:14:35.340Z</time>
      </trkpt>
      <trkpt lat="61.12431" lon="5.32537">
        <ele>61.96887</ele>
        <time>2020-07-26T11:14:37.323Z</time>
      </trkpt>
      <trkpt lat="61.1244" lon="5.32538">
        <ele>61.816627</ele>
        <time>2020-07-26T11:14:39.312Z</time>
      </trkpt>
      <trkpt lat="61.1245" lon="5.3254">
        <ele>61.655959</ele>
        <time>2020-07-26T11:14:41.351Z</time>
      </trkpt>
      <trkpt lat="61.1246" lon="5.32543">
        <ele>61.489449</ele>
        <time>2020-07-26T11:14:43.303Z</time>
      </trkpt>
      <trkpt lat="61.1247" lon="5.32546">
        <ele>61.321617</ele>
        <time>2020-07-26T11:14:45.305Z</time>
      </trkpt>
      <trkpt lat="61.12481" lon="5.32548">
        <ele>61.145405</ele>
        <time>2020-07-26T11:14:47.346Z</time>
      </trkpt>
      <trkpt lat="61.12491" lon="5.32551">
        <ele>60.972933</ele>
        <time>2020-07-26T11:14:49.321Z</time>
      </trkpt>
      <trkpt lat="61.12501" lon="5.32552">
        <ele>60.80277</ele>
        <time>2020-07-26T11:14:51.329Z</time>
      </trkpt>
      <trkpt lat="61.12511" lon="5.32553">
        <ele>60.508535</ele>
        <time>2020-07-26T11:14:53.321Z</time>
      </trkpt>
      <trkpt lat="61.12523" lon="5.32552">
        <ele>60.025704</ele>
        <time>2020-07-26T11:14:56.311Z</time>
      </trkpt>
      <trkpt lat="61.12535" lon="5.32549">
        <ele>59.574784</ele>
        <time>2020-07-26T11:14:59.351Z</time>
      </trkpt>
      <trkpt lat="61.12547" lon="5.32542">
        <ele>59.083684</ele>
        <time>2020-07-26T11:15:02.312Z</time>
      </trkpt>
      <trkpt lat="61.12559" lon="5.32532">
        <ele>58.591787</ele>
        <time>2020-07-26T11:15:05.330Z</time>
      </trkpt>
      <trkpt lat="61.12569" lon="5.32522">
        <ele>58.192532</ele>
        <time>2020-07-26T11:15:07.336Z</time>
      </trkpt>
      <trkpt lat="61.12579" lon="5.32512">
        <ele>57.76028</ele>
        <time>2020-07-26T11:15:09.338Z</time>
      </trkpt>
      <trkpt lat="61.12589" lon="5.32503">
        <ele>57.324208</ele>
        <time>2020-07-26T11:15:11.310Z</time>
      </trkpt>
      <trkpt lat="61.126" lon="5.32495">
        <ele>56.886609</ele>
        <time>2020-07-26T11:15:13.353Z</time>
      </trkpt>
      <trkpt lat="61.12611" lon="5.3249">
        <ele>56.446774</ele>
        <time>2020-07-26T11:15:15.317Z</time>
      </trkpt>
      <trkpt lat="61.12622" lon="5.32486">
        <ele>56.039082</ele>
        <time>2020-07-26T11:15:17.333Z</time>
      </trkpt>
      <trkpt lat="61.12633" lon="5.32484">
        <ele>55.600616</ele>
        <time>2020-07-26T11:15:19.353Z</time>
      </trkpt>
      <trkpt lat="61.12644" lon="5.32481">
        <ele>55.200574</ele>
        <time>2020-07-26T11:15:21.325Z</time>
      </trkpt>
      <trkpt lat="61.12656" lon="5.32478">
        <ele>54.718367</ele>
        <time>2020-07-26T11:15:24.340Z</time>
      </trkpt>
      <trkpt lat="61.12667" lon="5.32473">
        <ele>54.307488</ele>
        <time>2020-07-26T11:15:27.300Z</time>
      </trkpt>
      <trkpt lat="61.12679" lon="5.3247">
        <ele>53.869072</ele>
        <time>2020-07-26T11:15:30.329Z</time>
      </trkpt>
      <trkpt lat="61.12688" lon="5.32471">
        <ele>53.809272</ele>
        <time>2020-07-26T11:15:32.324Z</time>
      </trkpt>
      <trkpt lat="61.12697" lon="5.32473">
        <ele>53.750525</ele>
        <time>2020-07-26T11:15:34.333Z</time>
      </trkpt>
      <trkpt lat="61.12706" lon="5.32475">
        <ele>53.69362</ele>
        <time>2020-07-26T11:15:36.314Z</time>
      </trkpt>
      <trkpt lat="61.12715" lon="5.32479">
        <ele>53.636193</ele>
        <time>2020-07-26T11:15:38.325Z</time>
      </trkpt>
      <trkpt lat="61.12728" lon="5.32485">
        <ele>53.556435</ele>
        <time>2020-07-26T11:15:41.333Z</time>
      </trkpt>
      <trkpt lat="61.12739" lon="5.32492">
        <ele>53.481639</ele>
        <time>2020-07-26T11:15:44.331Z</time>
      </trkpt>
      <trkpt lat="61.1275" lon="5.32501">
        <ele>53.40749</ele>
        <time>2020-07-26T11:15:47.340Z</time>
      </trkpt>
      <trkpt lat="61.12762" lon="5.32506">
        <ele>53.332041</ele>
        <time>2020-07-26T11:15:50.319Z</time>
      </trkpt>
      <trkpt lat="61.12775" lon="5.3251">
        <ele>53.250796</ele>
        <time>2020-07-26T11:15:53.312Z</time>
      </trkpt>
      <trkpt lat="61.12787" lon="5.32513">
        <ele>53.169859</ele>
        <time>2020-07-26T11:15:56.313Z</time>
      </trkpt>
      <trkpt lat="61.12797" lon="5.32513">
        <ele>53.112042</ele>
        <time>2020-07-26T11:15:58.330Z</time>
      </trkpt>
      <trkpt lat="61.12806" lon="5.3251">
        <ele>53.055435</ele>
        <time>2020-07-26T11:16:00.355Z</time>
      </trkpt>
      <trkpt lat="61.12818" lon="5.32501">
        <ele>52.972979</ele>
        <time>2020-07-26T11:16:03.363Z</time>
      </trkpt>
      <trkpt lat="61.12829" lon="5.32488">
        <ele>52.891316</ele>
        <time>2020-07-26T11:16:06.330Z</time>
      </trkpt>
      <trkpt lat="61.12836" lon="5.32476">
        <ele>52.834372</ele>
        <time>2020-07-26T11:16:08.318Z</time>
      </trkpt>
      <trkpt lat="61.12843" lon="5.32463">
        <ele>52.775875</ele>
        <time>2020-07-26T11:16:10.308Z</time>
      </trkpt>
      <trkpt lat="61.12848" lon="5.32446">
        <ele>53.000233</ele>
        <time>2020-07-26T11:16:12.313Z</time>
      </trkpt>
      <trkpt lat="61.12853" lon="5.32428">
        <ele>53.580962</ele>
        <time>2020-07-26T11:16:14.334Z</time>
      </trkpt>
      <trkpt lat="61.12858" lon="5.32411">
        <ele>54.149174</ele>
        <time>2020-07-26T11:16:16.324Z</time>
      </trkpt>
      <trkpt lat="61.12864" lon="5.32388">
        <ele>54.905211</ele>
        <time>2020-07-26T11:16:19.311Z</time>
      </trkpt>
      <trkpt lat="61.12871" lon="5.32371">
        <ele>55.538585</ele>
        <time>2020-07-26T11:16:22.326Z</time>
      </trkpt>
      <trkpt lat="61.12878" lon="5.32357">
        <ele>56.127006</ele>
        <time>2020-07-26T11:16:25.387Z</time>
      </trkpt>
      <trkpt lat="61.12887" lon="5.32344">
        <ele>56.771155</ele>
        <time>2020-07-26T11:16:29.337Z</time>
      </trkpt>
      <trkpt lat="61.12896" lon="5.32336">
        <ele>57.373789</ele>
        <time>2020-07-26T11:16:33.359Z</time>
      </trkpt>
      <trkpt lat="61.12906" lon="5.32329">
        <ele>57.998656</ele>
        <time>2020-07-26T11:16:38.312Z</time>
      </trkpt>
      <trkpt lat="61.12917" lon="5.32326">
        <ele>58.601345</ele>
        <time>2020-07-26T11:16:43.305Z</time>
      </trkpt>
      <trkpt lat="61.12926" lon="5.32324">
        <ele>59.155354</ele>
        <time>2020-07-26T11:16:48.315Z</time>
      </trkpt>
      <trkpt lat="61.12936" lon="5.32324">
        <ele>59.754286</ele>
        <time>2020-07-26T11:16:54.318Z</time>
      </trkpt>
      <trkpt lat="61.12946" lon="5.32325">
        <ele>60.365232</ele>
        <time>2020-07-26T11:17:01.335Z</time>
      </trkpt>
      <trkpt lat="61.12955" lon="5.32325">
        <ele>60.905081</ele>
        <time>2020-07-26T11:17:07.318Z</time>
      </trkpt>
      <trkpt lat="61.12964" lon="5.32325">
        <ele>61.444626</ele>
        <time>2020-07-26T11:17:13.323Z</time>
      </trkpt>
      <trkpt lat="61.12975" lon="5.32328">
        <ele>62.061252</ele>
        <time>2020-07-26T11:17:20.328Z</time>
      </trkpt>
      <trkpt lat="61.12984" lon="5.32334">
        <ele>62.628281</ele>
        <time>2020-07-26T11:17:26.321Z</time>
      </trkpt>
      <trkpt lat="61.12993" lon="5.3234">
        <ele>63.217917</ele>
        <time>2020-07-26T11:17:32.306Z</time>
      </trkpt>
      <trkpt lat="61.13002" lon="5.32352">
        <ele>63.514551</ele>
        <time>2020-07-26T11:17:38.315Z</time>
      </trkpt>
      <trkpt lat="61.1301" lon="5.32361">
        <ele>63.651228</ele>
        <time>2020-07-26T11:17:43.310Z</time>
      </trkpt>
      <trkpt lat="61.13017" lon="5.32373">
        <ele>63.786427</ele>
        <time>2020-07-26T11:17:48.313Z</time>
      </trkpt>
      <trkpt lat="61.13025" lon="5.32388">
        <ele>63.945222</ele>
        <time>2020-07-26T11:17:53.309Z</time>
      </trkpt>
      <trkpt lat="61.13032" lon="5.324">
        <ele>64.083166</ele>
        <time>2020-07-26T11:17:57.331Z</time>
      </trkpt>
      <trkpt lat="61.13039" lon="5.32414">
        <ele>64.234726</ele>
        <time>2020-07-26T11:18:01.334Z</time>
      </trkpt>
      <trkpt lat="61.13047" lon="5.3243">
        <ele>64.402938</ele>
        <time>2020-07-26T11:18:05.353Z</time>
      </trkpt>
      <trkpt lat="61.13053" lon="5.32444">
        <ele>64.538391</ele>
        <time>2020-07-26T11:18:08.325Z</time>
      </trkpt>
      <trkpt lat="61.1306" lon="5.32459">
        <ele>64.685125</ele>
        <time>2020-07-26T11:18:11.329Z</time>
      </trkpt>
      <trkpt lat="61.13066" lon="5.32475">
        <ele>64.834963</ele>
        <time>2020-07-26T11:18:14.332Z</time>
      </trkpt>
      <trkpt lat="61.13073" lon="5.32493">
        <ele>64.995879</ele>
        <time>2020-07-26T11:18:17.357Z</time>
      </trkpt>
      <trkpt lat="61.1308" lon="5.3251">
        <ele>65.156611</ele>
        <time>2020-07-26T11:18:20.321Z</time>
      </trkpt>
      <trkpt lat="61.13087" lon="5.32526">
        <ele>65.312672</ele>
        <time>2020-07-26T11:18:23.333Z</time>
      </trkpt>
      <trkpt lat="61.13094" lon="5.32543">
        <ele>65.476837</ele>
        <time>2020-07-26T11:18:26.312Z</time>
      </trkpt>
      <trkpt lat="61.13101" lon="5.32561">
        <ele>65.650391</ele>
        <time>2020-07-26T11:18:29.312Z</time>
      </trkpt>
      <trkpt lat="61.13109" lon="5.3258">
        <ele>65.829744</ele>
        <time>2020-07-26T11:18:32.316Z</time>
      </trkpt>
      <trkpt lat="61.13116" lon="5.32601">
        <ele>66.0107</ele>
        <time>2020-07-26T11:18:35.326Z</time>
      </trkpt>
      <trkpt lat="61.13123" lon="5.3262">
        <ele>66.174786</ele>
        <time>2020-07-26T11:18:38.340Z</time>
      </trkpt>
      <trkpt lat="61.13131" lon="5.32641">
        <ele>66.330421</ele>
        <time>2020-07-26T11:18:41.350Z</time>
      </trkpt>
      <trkpt lat="61.13138" lon="5.32661">
        <ele>66.48047</ele>
        <time>2020-07-26T11:18:44.309Z</time>
      </trkpt>
      <trkpt lat="61.13145" lon="5.32681">
        <ele>66.627283</ele>
        <time>2020-07-26T11:18:47.303Z</time>
      </trkpt>
      <trkpt lat="61.13152" lon="5.327">
        <ele>66.775802</ele>
        <time>2020-07-26T11:18:50.352Z</time>
      </trkpt>
      <trkpt lat="61.1316" lon="5.3272">
        <ele>66.932468</ele>
        <time>2020-07-26T11:18:53.321Z</time>
      </trkpt>
      <trkpt lat="61.13167" lon="5.32741">
        <ele>67.089588</ele>
        <time>2020-07-26T11:18:56.317Z</time>
      </trkpt>
      <trkpt lat="61.13173" lon="5.32763">
        <ele>67.239884</ele>
        <time>2020-07-26T11:18:59.316Z</time>
      </trkpt>
      <trkpt lat="61.13179" lon="5.32784">
        <ele>67.392692</ele>
        <time>2020-07-26T11:19:02.302Z</time>
      </trkpt>
      <trkpt lat="61.13185" lon="5.32806">
        <ele>67.541926</ele>
        <time>2020-07-26T11:19:05.391Z</time>
      </trkpt>
      <trkpt lat="61.13188" lon="5.32826">
        <ele>67.672177</ele>
        <time>2020-07-26T11:19:08.329Z</time>
      </trkpt>
      <trkpt lat="61.13188" lon="5.32847">
        <ele>67.799932</ele>
        <time>2020-07-26T11:19:11.317Z</time>
      </trkpt>
      <trkpt lat="61.13187" lon="5.32868">
        <ele>67.932215</ele>
        <time>2020-07-26T11:19:14.312Z</time>
      </trkpt>
      <trkpt lat="61.13183" lon="5.32889">
        <ele>68.060526</ele>
        <time>2020-07-26T11:19:17.323Z</time>
      </trkpt>
      <trkpt lat="61.1318" lon="5.32907">
        <ele>68.18133</ele>
        <time>2020-07-26T11:19:20.320Z</time>
      </trkpt>
      <trkpt lat="61.13177" lon="5.3293">
        <ele>68.324314</ele>
        <time>2020-07-26T11:19:24.320Z</time>
      </trkpt>
      <trkpt lat="61.13173" lon="5.32951">
        <ele>68.625328</ele>
        <time>2020-07-26T11:19:28.348Z</time>
      </trkpt>
      <trkpt lat="61.1317" lon="5.3297">
        <ele>68.965655</ele>
        <time>2020-07-26T11:19:32.334Z</time>
      </trkpt>
      <trkpt lat="61.13167" lon="5.3299">
        <ele>69.303359</ele>
        <time>2020-07-26T11:19:36.320Z</time>
      </trkpt>
      <trkpt lat="61.13164" lon="5.33008">
        <ele>69.618525</ele>
        <time>2020-07-26T11:19:40.328Z</time>
      </trkpt>
      <trkpt lat="61.13161" lon="5.33027">
        <ele>69.950461</ele>
        <time>2020-07-26T11:19:44.305Z</time>
      </trkpt>
      <trkpt lat="61.13159" lon="5.33047">
        <ele>70.288475</ele>
        <time>2020-07-26T11:19:48.315Z</time>
      </trkpt>
      <trkpt lat="61.13157" lon="5.33065">
        <ele>70.604066</ele>
        <time>2020-07-26T11:19:52.314Z</time>
      </trkpt>
      <trkpt lat="61.13157" lon="5.33087">
        <ele>70.961827</ele>
        <time>2020-07-26T11:19:57.313Z</time>
      </trkpt>
      <trkpt lat="61.13156" lon="5.33109">
        <ele>71.329399</ele>
        <time>2020-07-26T11:20:02.314Z</time>
      </trkpt>
      <trkpt lat="61.13156" lon="5.33131">
        <ele>71.688699</ele>
        <time>2020-07-26T11:20:07.320Z</time>
      </trkpt>
      <trkpt lat="61.13156" lon="5.33153">
        <ele>72.057925</ele>
        <time>2020-07-26T11:20:12.333Z</time>
      </trkpt>
      <trkpt lat="61.13154" lon="5.33175">
        <ele>72.421776</ele>
        <time>2020-07-26T11:20:17.319Z</time>
      </trkpt>
      <trkpt lat="61.13152" lon="5.33195">
        <ele>72.75914</ele>
        <time>2020-07-26T11:20:22.312Z</time>
      </trkpt>
      <trkpt lat="61.13149" lon="5.33214">
        <ele>73.100015</ele>
        <time>2020-07-26T11:20:27.333Z</time>
      </trkpt>
      <trkpt lat="61.13147" lon="5.33235">
        <ele>73.453519</ele>
        <time>2020-07-26T11:20:32.317Z</time>
      </trkpt>
      <trkpt lat="61.13147" lon="5.33258">
        <ele>73.831128</ele>
        <time>2020-07-26T11:20:37.376Z</time>
      </trkpt>
      <trkpt lat="61.13147" lon="5.33277">
        <ele>74.146061</ele>
        <time>2020-07-26T11:20:41.296Z</time>
      </trkpt>
      <trkpt lat="61.13149" lon="5.33299">
        <ele>74.503954</ele>
        <time>2020-07-26T11:20:45.317Z</time>
      </trkpt>
      <trkpt lat="61.13151" lon="5.33322">
        <ele>74.59082</ele>
        <time>2020-07-26T11:20:49.328Z</time>
      </trkpt>
      <trkpt lat="61.13153" lon="5.3334">
        <ele>74.642362</ele>
        <time>2020-07-26T11:20:52.340Z</time>
      </trkpt>
      <trkpt lat="61.13156" lon="5.33362">
        <ele>74.705759</ele>
        <time>2020-07-26T11:20:55.336Z</time>
      </trkpt>
      <trkpt lat="61.1316" lon="5.33386">
        <ele>74.774326</ele>
        <time>2020-07-26T11:20:58.330Z</time>
      </trkpt>
      <trkpt lat="61.13163" lon="5.33404">
        <ele>74.825233</ele>
        <time>2020-07-26T11:21:00.329Z</time>
      </trkpt>
      <trkpt lat="61.13166" lon="5.3343">
        <ele>74.897394</ele>
        <time>2020-07-26T11:21:03.317Z</time>
      </trkpt>
      <trkpt lat="61.1317" lon="5.33455">
        <ele>74.969975</ele>
        <time>2020-07-26T11:21:06.314Z</time>
      </trkpt>
      <trkpt lat="61.13173" lon="5.33473">
        <ele>75.022074</ele>
        <time>2020-07-26T11:21:08.320Z</time>
      </trkpt>
      <trkpt lat="61.13176" lon="5.33495">
        <ele>75.083801</ele>
        <time>2020-07-26T11:21:11.312Z</time>
      </trkpt>
      <trkpt lat="61.13181" lon="5.33513">
        <ele>75.140491</ele>
        <time>2020-07-26T11:21:14.328Z</time>
      </trkpt>
      <trkpt lat="61.13186" lon="5.33531">
        <ele>75.196668</ele>
        <time>2020-07-26T11:21:17.329Z</time>
      </trkpt>
      <trkpt lat="61.13191" lon="5.33548">
        <ele>75.254172</ele>
        <time>2020-07-26T11:21:20.320Z</time>
      </trkpt>
      <trkpt lat="61.13198" lon="5.33565">
        <ele>75.315167</ele>
        <time>2020-07-26T11:21:23.327Z</time>
      </trkpt>
      <trkpt lat="61.13207" lon="5.33582">
        <ele>75.380835</ele>
        <time>2020-07-26T11:21:26.337Z</time>
      </trkpt>
      <trkpt lat="61.13216" lon="5.33598">
        <ele>75.448125</ele>
        <time>2020-07-26T11:21:29.320Z</time>
      </trkpt>
      <trkpt lat="61.13225" lon="5.33615">
        <ele>75.519323</ele>
        <time>2020-07-26T11:21:32.310Z</time>
      </trkpt>
      <trkpt lat="61.13233" lon="5.33625">
        <ele>75.460542</ele>
        <time>2020-07-26T11:21:34.322Z</time>
      </trkpt>
      <trkpt lat="61.13241" lon="5.33637">
        <ele>75.252005</ele>
        <time>2020-07-26T11:21:36.350Z</time>
      </trkpt>
      <trkpt lat="61.13249" lon="5.33649">
        <ele>75.036876</ele>
        <time>2020-07-26T11:21:38.310Z</time>
      </trkpt>
      <trkpt lat="61.13257" lon="5.33662">
        <ele>74.809875</ele>
        <time>2020-07-26T11:21:40.320Z</time>
      </trkpt>
      <trkpt lat="61.13266" lon="5.33676">
        <ele>74.568433</ele>
        <time>2020-07-26T11:21:42.315Z</time>
      </trkpt>
      <trkpt lat="61.13276" lon="5.33691">
        <ele>74.307733</ele>
        <time>2020-07-26T11:21:44.335Z</time>
      </trkpt>
      <trkpt lat="61.13286" lon="5.33707">
        <ele>74.018656</ele>
        <time>2020-07-26T11:21:46.337Z</time>
      </trkpt>
      <trkpt lat="61.13298" lon="5.33724">
        <ele>73.719565</ele>
        <time>2020-07-26T11:21:48.361Z</time>
      </trkpt>
      <trkpt lat="61.1331" lon="5.3374">
        <ele>73.409063</ele>
        <time>2020-07-26T11:21:50.309Z</time>
      </trkpt>
      <trkpt lat="61.13322" lon="5.33756">
        <ele>73.091235</ele>
        <time>2020-07-26T11:21:52.342Z</time>
      </trkpt>
      <trkpt lat="61.13335" lon="5.33772">
        <ele>72.772117</ele>
        <time>2020-07-26T11:21:54.305Z</time>
      </trkpt>
      <trkpt lat="61.13348" lon="5.33787">
        <ele>72.446145</ele>
        <time>2020-07-26T11:21:56.329Z</time>
      </trkpt>
      <trkpt lat="61.1336" lon="5.33805">
        <ele>72.112543</ele>
        <time>2020-07-26T11:21:58.310Z</time>
      </trkpt>
      <trkpt lat="61.13373" lon="5.33826">
        <ele>71.752157</ele>
        <time>2020-07-26T11:22:00.324Z</time>
      </trkpt>
      <trkpt lat="61.13386" lon="5.3385">
        <ele>71.036208</ele>
        <time>2020-07-26T11:22:02.336Z</time>
      </trkpt>
      <trkpt lat="61.134" lon="5.3387">
        <ele>70.194442</ele>
        <time>2020-07-26T11:22:04.343Z</time>
      </trkpt>
      <trkpt lat="61.13417" lon="5.33884">
        <ele>69.314024</ele>
        <time>2020-07-26T11:22:06.349Z</time>
      </trkpt>
      <trkpt lat="61.13426" lon="5.33888">
        <ele>68.845975</ele>
        <time>2020-07-26T11:22:07.330Z</time>
      </trkpt>
      <trkpt lat="61.13435" lon="5.3389">
        <ele>68.380137</ele>
        <time>2020-07-26T11:22:08.318Z</time>
      </trkpt>
      <trkpt lat="61.13445" lon="5.33891">
        <ele>67.887268</ele>
        <time>2020-07-26T11:22:09.343Z</time>
      </trkpt>
      <trkpt lat="61.13455" lon="5.3389">
        <ele>67.399557</ele>
        <time>2020-07-26T11:22:10.358Z</time>
      </trkpt>
      <trkpt lat="61.13465" lon="5.33889">
        <ele>66.916727</ele>
        <time>2020-07-26T11:22:11.328Z</time>
      </trkpt>
      <trkpt lat="61.13474" lon="5.33889">
        <ele>66.443836</ele>
        <time>2020-07-26T11:22:12.373Z</time>
      </trkpt>
      <trkpt lat="61.13484" lon="5.33886">
        <ele>65.952733</ele>
        <time>2020-07-26T11:22:13.336Z</time>
      </trkpt>
      <trkpt lat="61.13493" lon="5.33883">
        <ele>65.478935</ele>
        <time>2020-07-26T11:22:14.311Z</time>
      </trkpt>
      <trkpt lat="61.13502" lon="5.3388">
        <ele>65.020633</ele>
        <time>2020-07-26T11:22:15.308Z</time>
      </trkpt>
      <trkpt lat="61.13519" lon="5.33875">
        <ele>64.170502</ele>
        <time>2020-07-26T11:22:17.316Z</time>
      </trkpt>
      <trkpt lat="61.13535" lon="5.3387">
        <ele>63.377906</ele>
        <time>2020-07-26T11:22:19.321Z</time>
      </trkpt>
      <trkpt lat="61.1355" lon="5.33863">
        <ele>62.694786</ele>
        <time>2020-07-26T11:22:21.312Z</time>
      </trkpt>
      <trkpt lat="61.13565" lon="5.33855">
        <ele>62.682685</ele>
        <time>2020-07-26T11:22:23.356Z</time>
      </trkpt>
      <trkpt lat="61.13578" lon="5.33847">
        <ele>62.671286</ele>
        <time>2020-07-26T11:22:25.361Z</time>
      </trkpt>
      <trkpt lat="61.13591" lon="5.3384">
        <ele>62.660972</ele>
        <time>2020-07-26T11:22:27.312Z</time>
      </trkpt>
      <trkpt lat="61.13602" lon="5.33835">
        <ele>62.651378</ele>
        <time>2020-07-26T11:22:29.337Z</time>
      </trkpt>
      <trkpt lat="61.13613" lon="5.33832">
        <ele>62.642587</ele>
        <time>2020-07-26T11:22:31.309Z</time>
      </trkpt>
      <trkpt lat="61.13622" lon="5.3383">
        <ele>62.634911</ele>
        <time>2020-07-26T11:22:33.316Z</time>
      </trkpt>
      <trkpt lat="61.13634" lon="5.33827">
        <ele>62.625372</ele>
        <time>2020-07-26T11:22:36.336Z</time>
      </trkpt>
      <trkpt lat="61.13645" lon="5.33825">
        <ele>62.616336</ele>
        <time>2020-07-26T11:22:39.319Z</time>
      </trkpt>
      <trkpt lat="61.13655" lon="5.33822">
        <ele>62.608388</ele>
        <time>2020-07-26T11:22:42.309Z</time>
      </trkpt>
      <trkpt lat="61.13664" lon="5.33821">
        <ele>62.600822</ele>
        <time>2020-07-26T11:22:45.313Z</time>
      </trkpt>
      <trkpt lat="61.13674" lon="5.33817">
        <ele>62.592684</ele>
        <time>2020-07-26T11:22:48.316Z</time>
      </trkpt>
      <trkpt lat="61.13683" lon="5.33814">
        <ele>62.585303</ele>
        <time>2020-07-26T11:22:51.335Z</time>
      </trkpt>
      <trkpt lat="61.13692" lon="5.33812">
        <ele>62.577882</ele>
        <time>2020-07-26T11:22:54.328Z</time>
      </trkpt>
      <trkpt lat="61.13701" lon="5.3381">
        <ele>62.570592</ele>
        <time>2020-07-26T11:22:57.346Z</time>
      </trkpt>
      <trkpt lat="61.13712" lon="5.33808">
        <ele>62.561736</ele>
        <time>2020-07-26T11:23:01.321Z</time>
      </trkpt>
      <trkpt lat="61.13722" lon="5.33808">
        <ele>62.553948</ele>
        <time>2020-07-26T11:23:04.344Z</time>
      </trkpt>
      <trkpt lat="61.13731" lon="5.33808">
        <ele>62.600415</ele>
        <time>2020-07-26T11:23:07.327Z</time>
      </trkpt>
      <trkpt lat="61.1374" lon="5.33808">
        <ele>62.685096</ele>
        <time>2020-07-26T11:23:10.368Z</time>
      </trkpt>
      <trkpt lat="61.1375" lon="5.33811">
        <ele>62.768837</ele>
        <time>2020-07-26T11:23:13.351Z</time>
      </trkpt>
      <trkpt lat="61.13759" lon="5.33817">
        <ele>62.8595</ele>
        <time>2020-07-26T11:23:16.321Z</time>
      </trkpt>
      <trkpt lat="61.13769" lon="5.33825">
        <ele>62.956068</ele>
        <time>2020-07-26T11:23:20.331Z</time>
      </trkpt>
      <trkpt lat="61.13779" lon="5.33835">
        <ele>63.058517</ele>
        <time>2020-07-26T11:23:24.308Z</time>
      </trkpt>
      <trkpt lat="61.13787" lon="5.33845">
        <ele>63.140877</ele>
        <time>2020-07-26T11:23:27.321Z</time>
      </trkpt>
      <trkpt lat="61.13797" lon="5.33857">
        <ele>63.247077</ele>
        <time>2020-07-26T11:23:31.325Z</time>
      </trkpt>
      <trkpt lat="61.13806" lon="5.33868">
        <ele>63.346446</ele>
        <time>2020-07-26T11:23:35.318Z</time>
      </trkpt>
      <trkpt lat="61.13815" lon="5.3388">
        <ele>63.442156</ele>
        <time>2020-07-26T11:23:39.332Z</time>
      </trkpt>
      <trkpt lat="61.13824" lon="5.3389">
        <ele>63.535961</ele>
        <time>2020-07-26T11:23:43.314Z</time>
      </trkpt>
      <trkpt lat="61.13833" lon="5.33898">
        <ele>63.622076</ele>
        <time>2020-07-26T11:23:47.335Z</time>
      </trkpt>
      <trkpt lat="61.13842" lon="5.33908">
        <ele>63.715667</ele>
        <time>2020-07-26T11:23:51.312Z</time>
      </trkpt>
      <trkpt lat="61.13851" lon="5.3392">
        <ele>63.812565</ele>
        <time>2020-07-26T11:23:55.340Z</time>
      </trkpt>
      <trkpt lat="61.13859" lon="5.33934">
        <ele>63.909162</ele>
        <time>2020-07-26T11:23:59.337Z</time>
      </trkpt>
      <trkpt lat="61.13867" lon="5.3395">
        <ele>64.009369</ele>
        <time>2020-07-26T11:24:03.322Z</time>
      </trkpt>
      <trkpt lat="61.13875" lon="5.33968">
        <ele>64.114387</ele>
        <time>2020-07-26T11:24:07.318Z</time>
      </trkpt>
      <trkpt lat="61.13882" lon="5.33988">
        <ele>64.289331</ele>
        <time>2020-07-26T11:24:11.321Z</time>
      </trkpt>
      <trkpt lat="61.13887" lon="5.34004">
        <ele>64.566094</ele>
        <time>2020-07-26T11:24:14.319Z</time>
      </trkpt>
      <trkpt lat="61.13893" lon="5.34022">
        <ele>64.846211</ele>
        <time>2020-07-26T11:24:17.336Z</time>
      </trkpt>
      <trkpt lat="61.13899" lon="5.3404">
        <ele>65.138594</ele>
        <time>2020-07-26T11:24:20.334Z</time>
      </trkpt>
      <trkpt lat="61.13905" lon="5.34062">
        <ele>65.482106</ele>
        <time>2020-07-26T11:24:23.311Z</time>
      </trkpt>
      <trkpt lat="61.13911" lon="5.34086">
        <ele>65.834987</ele>
        <time>2020-07-26T11:24:26.343Z</time>
      </trkpt>
      <trkpt lat="61.13916" lon="5.34111">
        <ele>66.191069</ele>
        <time>2020-07-26T11:24:29.329Z</time>
      </trkpt>
      <trkpt lat="61.1392" lon="5.34136">
        <ele>66.558342</ele>
        <time>2020-07-26T11:24:32.306Z</time>
      </trkpt>
      <trkpt lat="61.13925" lon="5.34162">
        <ele>66.919231</ele>
        <time>2020-07-26T11:24:35.324Z</time>
      </trkpt>
      <trkpt lat="61.13929" lon="5.34186">
        <ele>67.274794</ele>
        <time>2020-07-26T11:24:38.317Z</time>
      </trkpt>
      <trkpt lat="61.13934" lon="5.3421">
        <ele>67.613677</ele>
        <time>2020-07-26T11:24:41.326Z</time>
      </trkpt>
      <trkpt lat="61.13937" lon="5.34231">
        <ele>67.908349</ele>
        <time>2020-07-26T11:24:44.323Z</time>
      </trkpt>
      <trkpt lat="61.13941" lon="5.3425">
        <ele>68.182163</ele>
        <time>2020-07-26T11:24:47.311Z</time>
      </trkpt>
      <trkpt lat="61.13945" lon="5.34268">
        <ele>68.454353</ele>
        <time>2020-07-26T11:24:50.305Z</time>
      </trkpt>
      <trkpt lat="61.13948" lon="5.34289">
        <ele>68.74044</ele>
        <time>2020-07-26T11:24:53.313Z</time>
      </trkpt>
      <trkpt lat="61.13952" lon="5.34308">
        <ele>69.018963</ele>
        <time>2020-07-26T11:24:56.355Z</time>
      </trkpt>
      <trkpt lat="61.13956" lon="5.34329">
        <ele>69.135793</ele>
        <time>2020-07-26T11:24:59.323Z</time>
      </trkpt>
      <trkpt lat="61.13961" lon="5.34347">
        <ele>69.071293</ele>
        <time>2020-07-26T11:25:02.338Z</time>
      </trkpt>
      <trkpt lat="61.13967" lon="5.34366">
        <ele>69.000583</ele>
        <time>2020-07-26T11:25:05.326Z</time>
      </trkpt>
      <trkpt lat="61.13974" lon="5.34383">
        <ele>68.930794</ele>
        <time>2020-07-26T11:25:08.364Z</time>
      </trkpt>
      <trkpt lat="61.13981" lon="5.34399">
        <ele>68.861133</ele>
        <time>2020-07-26T11:25:11.318Z</time>
      </trkpt>
      <trkpt lat="61.13989" lon="5.34414">
        <ele>68.794168</ele>
        <time>2020-07-26T11:25:14.319Z</time>
      </trkpt>
      <trkpt lat="61.13997" lon="5.34431">
        <ele>68.718187</ele>
        <time>2020-07-26T11:25:17.321Z</time>
      </trkpt>
      <trkpt lat="61.14005" lon="5.34448">
        <ele>68.644026</ele>
        <time>2020-07-26T11:25:20.310Z</time>
      </trkpt>
      <trkpt lat="61.14013" lon="5.34464">
        <ele>68.571092</ele>
        <time>2020-07-26T11:25:23.338Z</time>
      </trkpt>
      <trkpt lat="61.14021" lon="5.34478">
        <ele>68.502725</ele>
        <time>2020-07-26T11:25:26.359Z</time>
      </trkpt>
      <trkpt lat="61.14029" lon="5.34494">
        <ele>68.434866</ele>
        <time>2020-07-26T11:25:29.324Z</time>
      </trkpt>
      <trkpt lat="61.14036" lon="5.34512">
        <ele>68.362833</ele>
        <time>2020-07-26T11:25:32.320Z</time>
      </trkpt>
      <trkpt lat="61.14043" lon="5.34529">
        <ele>68.290672</ele>
        <time>2020-07-26T11:25:35.336Z</time>
      </trkpt>
      <trkpt lat="61.14051" lon="5.34545">
        <ele>68.220563</ele>
        <time>2020-07-26T11:25:38.317Z</time>
      </trkpt>
      <trkpt lat="61.14058" lon="5.34561">
        <ele>68.15022</ele>
        <time>2020-07-26T11:25:41.316Z</time>
      </trkpt>
      <trkpt lat="61.14066" lon="5.34577">
        <ele>68.081911</ele>
        <time>2020-07-26T11:25:44.361Z</time>
      </trkpt>
      <trkpt lat="61.14074" lon="5.34592">
        <ele>68.012306</ele>
        <time>2020-07-26T11:25:47.316Z</time>
      </trkpt>
      <trkpt lat="61.14081" lon="5.34607">
        <ele>67.996703</ele>
        <time>2020-07-26T11:25:50.322Z</time>
      </trkpt>
      <trkpt lat="61.14087" lon="5.34623">
        <ele>67.985156</ele>
        <time>2020-07-26T11:25:53.315Z</time>
      </trkpt>
      <trkpt lat="61.14094" lon="5.34642">
        <ele>67.972596</ele>
        <time>2020-07-26T11:25:56.321Z</time>
      </trkpt>
      <trkpt lat="61.141" lon="5.3466">
        <ele>67.961077</ele>
        <time>2020-07-26T11:25:59.320Z</time>
      </trkpt>
      <trkpt lat="61.14105" lon="5.34678">
        <ele>67.950018</ele>
        <time>2020-07-26T11:26:02.315Z</time>
      </trkpt>
      <trkpt lat="61.14108" lon="5.34699">
        <ele>67.937711</ele>
        <time>2020-07-26T11:26:05.307Z</time>
      </trkpt>
      <trkpt lat="61.14112" lon="5.3472">
        <ele>67.925777</ele>
        <time>2020-07-26T11:26:08.321Z</time>
      </trkpt>
      <trkpt lat="61.14114" lon="5.3474">
        <ele>67.914676</ele>
        <time>2020-07-26T11:26:11.325Z</time>
      </trkpt>
      <trkpt lat="61.14117" lon="5.34758">
        <ele>67.904157</ele>
        <time>2020-07-26T11:26:14.330Z</time>
      </trkpt>
      <trkpt lat="61.1412" lon="5.34776">
        <ele>67.894069</ele>
        <time>2020-07-26T11:26:17.326Z</time>
      </trkpt>
      <trkpt lat="61.14123" lon="5.348">
        <ele>67.880769</ele>
        <time>2020-07-26T11:26:21.314Z</time>
      </trkpt>
      <trkpt lat="61.14125" lon="5.34819">
        <ele>67.870458</ele>
        <time>2020-07-26T11:26:24.349Z</time>
      </trkpt>
      <trkpt lat="61.14127" lon="5.34837">
        <ele>67.859986</ele>
        <time>2020-07-26T11:26:27.304Z</time>
      </trkpt>
      <trkpt lat="61.14129" lon="5.34856">
        <ele>67.849648</ele>
        <time>2020-07-26T11:26:30.325Z</time>
      </trkpt>
      <trkpt lat="61.14129" lon="5.3488">
        <ele>67.836803</ele>
        <time>2020-07-26T11:26:34.364Z</time>
      </trkpt>
      <trkpt lat="61.14126" lon="5.349">
        <ele>67.825363</ele>
        <time>2020-07-26T11:26:38.326Z</time>
      </trkpt>
      <trkpt lat="61.1412" lon="5.3492">
        <ele>67.81267</ele>
        <time>2020-07-26T11:26:42.328Z</time>
      </trkpt>
      <trkpt lat="61.14115" lon="5.34939">
        <ele>67.87753</ele>
        <time>2020-07-26T11:26:46.315Z</time>
      </trkpt>
      <trkpt lat="61.14119" lon="5.34958">
        <ele>68.027178</ele>
        <time>2020-07-26T11:26:50.384Z</time>
      </trkpt>
      <trkpt lat="61.14125" lon="5.34973">
        <ele>68.16258</ele>
        <time>2020-07-26T11:26:53.301Z</time>
      </trkpt>
      <trkpt lat="61.14132" lon="5.34991">
        <ele>68.326894</ele>
        <time>2020-07-26T11:26:57.335Z</time>
      </trkpt>
      <trkpt lat="61.14138" lon="5.35008">
        <ele>68.470187</ele>
        <time>2020-07-26T11:27:00.306Z</time>
      </trkpt>
      <trkpt lat="61.14144" lon="5.35025">
        <ele>68.623572</ele>
        <time>2020-07-26T11:27:03.324Z</time>
      </trkpt>
      <trkpt lat="61.14151" lon="5.35044">
        <ele>68.787291</ele>
        <time>2020-07-26T11:27:06.313Z</time>
      </trkpt>
      <trkpt lat="61.14156" lon="5.35064">
        <ele>68.946324</ele>
        <time>2020-07-26T11:27:09.347Z</time>
      </trkpt>
      <trkpt lat="61.14159" lon="5.35086">
        <ele>69.107743</ele>
        <time>2020-07-26T11:27:12.334Z</time>
      </trkpt>
      <trkpt lat="61.14162" lon="5.35111">
        <ele>69.28446</ele>
        <time>2020-07-26T11:27:15.349Z</time>
      </trkpt>
      <trkpt lat="61.14166" lon="5.35135">
        <ele>69.462641</ele>
        <time>2020-07-26T11:27:18.324Z</time>
      </trkpt>
      <trkpt lat="61.14171" lon="5.3516">
        <ele>69.653235</ele>
        <time>2020-07-26T11:27:21.334Z</time>
      </trkpt>
      <trkpt lat="61.14175" lon="5.35184">
        <ele>69.833984</ele>
        <time>2020-07-26T11:27:24.319Z</time>
      </trkpt>
      <trkpt lat="61.14179" lon="5.3521">
        <ele>70.027317</ele>
        <time>2020-07-26T11:27:27.342Z</time>
      </trkpt>
      <trkpt lat="61.14182" lon="5.35229">
        <ele>70.167411</ele>
        <time>2020-07-26T11:27:29.383Z</time>
      </trkpt>
      <trkpt lat="61.14185" lon="5.35247">
        <ele>70.297691</ele>
        <time>2020-07-26T11:27:31.310Z</time>
      </trkpt>
      <trkpt lat="61.14189" lon="5.35272">
        <ele>70.465042</ele>
        <time>2020-07-26T11:27:34.333Z</time>
      </trkpt>
      <trkpt lat="61.14193" lon="5.3529">
        <ele>70.556618</ele>
        <time>2020-07-26T11:27:36.324Z</time>
      </trkpt>
      <trkpt lat="61.14198" lon="5.35306">
        <ele>70.64837</ele>
        <time>2020-07-26T11:27:38.321Z</time>
      </trkpt>
      <trkpt lat="61.14203" lon="5.35323">
        <ele>70.740287</ele>
        <time>2020-07-26T11:27:40.358Z</time>
      </trkpt>
      <trkpt lat="61.14209" lon="5.35346">
        <ele>70.867243</ele>
        <time>2020-07-26T11:27:43.317Z</time>
      </trkpt>
      <trkpt lat="61.14215" lon="5.35368">
        <ele>70.991122</ele>
        <time>2020-07-26T11:27:46.329Z</time>
      </trkpt>
      <trkpt lat="61.1422" lon="5.3539">
        <ele>71.110479</ele>
        <time>2020-07-26T11:27:49.323Z</time>
      </trkpt>
      <trkpt lat="61.14225" lon="5.35412">
        <ele>71.226793</ele>
        <time>2020-07-26T11:27:52.307Z</time>
      </trkpt>
      <trkpt lat="61.14233" lon="5.35433">
        <ele>71.354492</ele>
        <time>2020-07-26T11:27:55.306Z</time>
      </trkpt>
      <trkpt lat="61.14241" lon="5.35454">
        <ele>71.481202</ele>
        <time>2020-07-26T11:27:58.313Z</time>
      </trkpt>
      <trkpt lat="61.14249" lon="5.35472">
        <ele>71.603623</ele>
        <time>2020-07-26T11:28:01.323Z</time>
      </trkpt>
      <trkpt lat="61.14259" lon="5.35487">
        <ele>71.724555</ele>
        <time>2020-07-26T11:28:04.313Z</time>
      </trkpt>
      <trkpt lat="61.14269" lon="5.35499">
        <ele>71.839078</ele>
        <time>2020-07-26T11:28:07.303Z</time>
      </trkpt>
      <trkpt lat="61.14279" lon="5.35508">
        <ele>71.950882</ele>
        <time>2020-07-26T11:28:10.345Z</time>
      </trkpt>
      <trkpt lat="61.14292" lon="5.35514">
        <ele>72.081052</ele>
        <time>2020-07-26T11:28:13.319Z</time>
      </trkpt>
      <trkpt lat="61.14302" lon="5.35517">
        <ele>72.17953</ele>
        <time>2020-07-26T11:28:15.311Z</time>
      </trkpt>
      <trkpt lat="61.14312" lon="5.35517">
        <ele>72.248083</ele>
        <time>2020-07-26T11:28:17.312Z</time>
      </trkpt>
      <trkpt lat="61.14322" lon="5.35516">
        <ele>72.292977</ele>
        <time>2020-07-26T11:28:19.323Z</time>
      </trkpt>
      <trkpt lat="61.14334" lon="5.35507">
        <ele>72.355658</ele>
        <time>2020-07-26T11:28:22.353Z</time>
      </trkpt>
      <trkpt lat="61.14345" lon="5.35494">
        <ele>72.415757</ele>
        <time>2020-07-26T11:28:25.330Z</time>
      </trkpt>
      <trkpt lat="61.14355" lon="5.3548">
        <ele>72.478405</ele>
        <time>2020-07-26T11:28:28.323Z</time>
      </trkpt>
      <trkpt lat="61.14365" lon="5.35461">
        <ele>72.542611</ele>
        <time>2020-07-26T11:28:31.328Z</time>
      </trkpt>
      <trkpt lat="61.14371" lon="5.35448">
        <ele>72.586152</ele>
        <time>2020-07-26T11:28:33.309Z</time>
      </trkpt>
      <trkpt lat="61.14381" lon="5.35429">
        <ele>72.649414</ele>
        <time>2020-07-26T11:28:36.327Z</time>
      </trkpt>
      <trkpt lat="61.14389" lon="5.35411">
        <ele>72.707627</ele>
        <time>2020-07-26T11:28:39.321Z</time>
      </trkpt>
      <trkpt lat="61.14398" lon="5.35392">
        <ele>72.770564</ele>
        <time>2020-07-26T11:28:42.315Z</time>
      </trkpt>
      <trkpt lat="61.14407" lon="5.35372">
        <ele>72.833673</ele>
        <time>2020-07-26T11:28:45.328Z</time>
      </trkpt>
      <trkpt lat="61.14413" lon="5.35357">
        <ele>72.88044</ele>
        <time>2020-07-26T11:28:47.323Z</time>
      </trkpt>
      <trkpt lat="61.14419" lon="5.35343">
        <ele>72.925837</ele>
        <time>2020-07-26T11:28:49.321Z</time>
      </trkpt>
      <trkpt lat="61.14426" lon="5.35329">
        <ele>72.97071</ele>
        <time>2020-07-26T11:28:51.309Z</time>
      </trkpt>
      <trkpt lat="61.14432" lon="5.35315">
        <ele>73.016596</ele>
        <time>2020-07-26T11:28:53.314Z</time>
      </trkpt>
      <trkpt lat="61.14439" lon="5.35299">
        <ele>73.064245</ele>
        <time>2020-07-26T11:28:55.340Z</time>
      </trkpt>
      <trkpt lat="61.14445" lon="5.35285">
        <ele>73.08371</ele>
        <time>2020-07-26T11:28:57.335Z</time>
      </trkpt>
      <trkpt lat="61.14454" lon="5.35265">
        <ele>73.07547</ele>
        <time>2020-07-26T11:29:00.323Z</time>
      </trkpt>
      <trkpt lat="61.1446" lon="5.3525">
        <ele>73.069797</ele>
        <time>2020-07-26T11:29:02.328Z</time>
      </trkpt>
      <trkpt lat="61.14468" lon="5.3523">
        <ele>73.062109</ele>
        <time>2020-07-26T11:29:05.345Z</time>
      </trkpt>
      <trkpt lat="61.14473" lon="5.35214">
        <ele>73.056298</ele>
        <time>2020-07-26T11:29:07.324Z</time>
      </trkpt>
      <trkpt lat="61.14479" lon="5.35199">
        <ele>73.050606</ele>
        <time>2020-07-26T11:29:09.321Z</time>
      </trkpt>
      <trkpt lat="61.14486" lon="5.35176">
        <ele>73.042446</ele>
        <time>2020-07-26T11:29:12.320Z</time>
      </trkpt>
      <trkpt lat="61.14492" lon="5.35153">
        <ele>73.034636</ele>
        <time>2020-07-26T11:29:15.316Z</time>
      </trkpt>
      <trkpt lat="61.14499" lon="5.35131">
        <ele>73.026923</ele>
        <time>2020-07-26T11:29:18.314Z</time>
      </trkpt>
      <trkpt lat="61.14505" lon="5.35108">
        <ele>73.019083</ele>
        <time>2020-07-26T11:29:21.314Z</time>
      </trkpt>
      <trkpt lat="61.1451" lon="5.35092">
        <ele>73.013525</ele>
        <time>2020-07-26T11:29:23.299Z</time>
      </trkpt>
      <trkpt lat="61.14514" lon="5.35076">
        <ele>73.00791</ele>
        <time>2020-07-26T11:29:25.338Z</time>
      </trkpt>
      <trkpt lat="61.14519" lon="5.35059">
        <ele>73.00231</ele>
        <time>2020-07-26T11:29:27.323Z</time>
      </trkpt>
      <trkpt lat="61.14524" lon="5.35035">
        <ele>72.994524</ele>
        <time>2020-07-26T11:29:30.364Z</time>
      </trkpt>
      <trkpt lat="61.14529" lon="5.35011">
        <ele>72.98654</ele>
        <time>2020-07-26T11:29:33.332Z</time>
      </trkpt>
      <trkpt lat="61.14535" lon="5.34989">
        <ele>72.979231</ele>
        <time>2020-07-26T11:29:36.298Z</time>
      </trkpt>
      <trkpt lat="61.14541" lon="5.34969">
        <ele>72.979435</ele>
        <time>2020-07-26T11:29:39.349Z</time>
      </trkpt>
      <trkpt lat="61.14546" lon="5.34947">
        <ele>72.986954</ele>
        <time>2020-07-26T11:29:42.341Z</time>
      </trkpt>
      <trkpt lat="61.14552" lon="5.34924">
        <ele>72.994983</ele>
        <time>2020-07-26T11:29:45.337Z</time>
      </trkpt>
      <trkpt lat="61.14558" lon="5.34903">
        <ele>73.002378</ele>
        <time>2020-07-26T11:29:48.306Z</time>
      </trkpt>
      <trkpt lat="61.14565" lon="5.34883">
        <ele>73.009534</ele>
        <time>2020-07-26T11:29:51.303Z</time>
      </trkpt>
      <trkpt lat="61.14572" lon="5.34865">
        <ele>73.016836</ele>
        <time>2020-07-26T11:29:54.336Z</time>
      </trkpt>
      <trkpt lat="61.14579" lon="5.34845">
        <ele>73.024189</ele>
        <time>2020-07-26T11:29:57.365Z</time>
      </trkpt>
      <trkpt lat="61.14586" lon="5.34826">
        <ele>73.031555</ele>
        <time>2020-07-26T11:30:00.310Z</time>
      </trkpt>
      <trkpt lat="61.14591" lon="5.34807">
        <ele>73.038167</ele>
        <time>2020-07-26T11:30:03.333Z</time>
      </trkpt>
      <trkpt lat="61.14596" lon="5.34789">
        <ele>73.044589</ele>
        <time>2020-07-26T11:30:06.313Z</time>
      </trkpt>
      <trkpt lat="61.14602" lon="5.34773">
        <ele>73.050783</ele>
        <time>2020-07-26T11:30:09.314Z</time>
      </trkpt>
      <trkpt lat="61.1461" lon="5.3476">
        <ele>73.057346</ele>
        <time>2020-07-26T11:30:12.306Z</time>
      </trkpt>
      <trkpt lat="61.1462" lon="5.34747">
        <ele>73.064515</ele>
        <time>2020-07-26T11:30:15.316Z</time>
      </trkpt>
      <trkpt lat="61.14629" lon="5.34734">
        <ele>73.071492</ele>
        <time>2020-07-26T11:30:18.324Z</time>
      </trkpt>
      <trkpt lat="61.14638" lon="5.34721">
        <ele>73.078367</ele>
        <time>2020-07-26T11:30:21.321Z</time>
      </trkpt>
      <trkpt lat="61.14646" lon="5.34707">
        <ele>73.084899</ele>
        <time>2020-07-26T11:30:24.336Z</time>
      </trkpt>
      <trkpt lat="61.14654" lon="5.34696">
        <ele>73.108726</ele>
        <time>2020-07-26T11:30:27.337Z</time>
      </trkpt>
      <trkpt lat="61.14662" lon="5.34685">
        <ele>73.187117</ele>
        <time>2020-07-26T11:30:30.306Z</time>
      </trkpt>
      <trkpt lat="61.14671" lon="5.34675">
        <ele>73.270618</ele>
        <time>2020-07-26T11:30:33.321Z</time>
      </trkpt>
      <trkpt lat="61.1468" lon="5.34665">
        <ele>73.348657</ele>
        <time>2020-07-26T11:30:36.333Z</time>
      </trkpt>
      <trkpt lat="61.1469" lon="5.34658">
        <ele>73.432793</ele>
        <time>2020-07-26T11:30:39.316Z</time>
      </trkpt>
      <trkpt lat="61.14699" lon="5.34651">
        <ele>73.505703</ele>
        <time>2020-07-26T11:30:42.307Z</time>
      </trkpt>
      <trkpt lat="61.14707" lon="5.34644">
        <ele>73.581111</ele>
        <time>2020-07-26T11:30:45.335Z</time>
      </trkpt>
      <trkpt lat="61.14716" lon="5.34636">
        <ele>73.659599</ele>
        <time>2020-07-26T11:30:49.337Z</time>
      </trkpt>
      <trkpt lat="61.14725" lon="5.34632">
        <ele>73.731261</ele>
        <time>2020-07-26T11:30:52.328Z</time>
      </trkpt>
      <trkpt lat="61.14734" lon="5.34627">
        <ele>73.803878</ele>
        <time>2020-07-26T11:30:55.301Z</time>
      </trkpt>
      <trkpt lat="61.14745" lon="5.34624">
        <ele>73.891613</ele>
        <time>2020-07-26T11:30:58.333Z</time>
      </trkpt>
      <trkpt lat="61.14757" lon="5.3462">
        <ele>73.990017</ele>
        <time>2020-07-26T11:31:01.331Z</time>
      </trkpt>
      <trkpt lat="61.1477" lon="5.34615">
        <ele>74.095393</ele>
        <time>2020-07-26T11:31:04.318Z</time>
      </trkpt>
      <trkpt lat="61.1478" lon="5.34612">
        <ele>74.174633</ele>
        <time>2020-07-26T11:31:06.348Z</time>
      </trkpt>
      <trkpt lat="61.1479" lon="5.34609">
        <ele>74.256442</ele>
        <time>2020-07-26T11:31:08.310Z</time>
      </trkpt>
      <trkpt lat="61.14801" lon="5.34606">
        <ele>74.342863</ele>
        <time>2020-07-26T11:31:10.329Z</time>
      </trkpt>
      <trkpt lat="61.14812" lon="5.34603">
        <ele>74.427383</ele>
        <time>2020-07-26T11:31:12.335Z</time>
      </trkpt>
      <trkpt lat="61.14822" lon="5.34598">
        <ele>74.513097</ele>
        <time>2020-07-26T11:31:14.340Z</time>
      </trkpt>
      <trkpt lat="61.14834" lon="5.34594">
        <ele>74.489406</ele>
        <time>2020-07-26T11:31:16.342Z</time>
      </trkpt>
      <trkpt lat="61.14845" lon="5.34589">
        <ele>74.46088</ele>
        <time>2020-07-26T11:31:18.311Z</time>
      </trkpt>
      <trkpt lat="61.14856" lon="5.34582">
        <ele>74.432309</ele>
        <time>2020-07-26T11:31:20.317Z</time>
      </trkpt>
      <trkpt lat="61.14867" lon="5.34573">
        <ele>74.403624</ele>
        <time>2020-07-26T11:31:22.328Z</time>
      </trkpt>
      <trkpt lat="61.14877" lon="5.34564">
        <ele>74.376278</ele>
        <time>2020-07-26T11:31:24.333Z</time>
      </trkpt>
      <trkpt lat="61.14886" lon="5.34554">
        <ele>74.350318</ele>
        <time>2020-07-26T11:31:26.317Z</time>
      </trkpt>
      <trkpt lat="61.14894" lon="5.34544">
        <ele>74.325929</ele>
        <time>2020-07-26T11:31:28.313Z</time>
      </trkpt>
      <trkpt lat="61.14905" lon="5.34528">
        <ele>74.294122</ele>
        <time>2020-07-26T11:31:31.375Z</time>
      </trkpt>
      <trkpt lat="61.14914" lon="5.3451">
        <ele>74.262607</ele>
        <time>2020-07-26T11:31:34.324Z</time>
      </trkpt>
      <trkpt lat="61.14923" lon="5.34494">
        <ele>74.23224</ele>
        <time>2020-07-26T11:31:37.324Z</time>
      </trkpt>
      <trkpt lat="61.14931" lon="5.34476">
        <ele>74.203264</ele>
        <time>2020-07-26T11:31:40.317Z</time>
      </trkpt>
      <trkpt lat="61.14938" lon="5.34461">
        <ele>74.178518</ele>
        <time>2020-07-26T11:31:43.314Z</time>
      </trkpt>
      <trkpt lat="61.14946" lon="5.34445">
        <ele>74.151958</ele>
        <time>2020-07-26T11:31:47.325Z</time>
      </trkpt>
      <trkpt lat="61.14953" lon="5.34426">
        <ele>74.123507</ele>
        <time>2020-07-26T11:31:51.326Z</time>
      </trkpt>
      <trkpt lat="61.1496" lon="5.34412">
        <ele>74.0984</ele>
        <time>2020-07-26T11:31:55.317Z</time>
      </trkpt>
      <trkpt lat="61.14966" lon="5.34397">
        <ele>74.074462</ele>
        <time>2020-07-26T11:31:59.319Z</time>
      </trkpt>
      <trkpt lat="61.14973" lon="5.34383">
        <ele>74.254212</ele>
        <time>2020-07-26T11:32:03.325Z</time>
      </trkpt>
      <trkpt lat="61.1498" lon="5.34368">
        <ele>74.502742</ele>
        <time>2020-07-26T11:32:07.307Z</time>
      </trkpt>
      <trkpt lat="61.14989" lon="5.34355">
        <ele>74.768465</ele>
        <time>2020-07-26T11:32:11.313Z</time>
      </trkpt>
      <trkpt lat="61.14997" lon="5.34345">
        <ele>74.989676</ele>
        <time>2020-07-26T11:32:14.316Z</time>
      </trkpt>
      <trkpt lat="61.15005" lon="5.34337">
        <ele>75.211319</ele>
        <time>2020-07-26T11:32:17.315Z</time>
      </trkpt>
      <trkpt lat="61.15015" lon="5.3433">
        <ele>75.466345</ele>
        <time>2020-07-26T11:32:20.315Z</time>
      </trkpt>
      <trkpt lat="61.15026" lon="5.34325">
        <ele>75.741005</ele>
        <time>2020-07-26T11:32:23.315Z</time>
      </trkpt>
      <trkpt lat="61.15038" lon="5.34321">
        <ele>76.028615</ele>
        <time>2020-07-26T11:32:26.326Z</time>
      </trkpt>
      <trkpt lat="61.1505" lon="5.34322">
        <ele>76.32075</ele>
        <time>2020-07-26T11:32:29.325Z</time>
      </trkpt>
      <trkpt lat="61.15062" lon="5.34321">
        <ele>76.617766</ele>
        <time>2020-07-26T11:32:32.322Z</time>
      </trkpt>
      <trkpt lat="61.15073" lon="5.34326">
        <ele>76.907033</ele>
        <time>2020-07-26T11:32:35.328Z</time>
      </trkpt>
      <trkpt lat="61.15085" lon="5.34334">
        <ele>77.213832</ele>
        <time>2020-07-26T11:32:38.335Z</time>
      </trkpt>
      <trkpt lat="61.15096" lon="5.34346">
        <ele>77.508342</ele>
        <time>2020-07-26T11:32:41.344Z</time>
      </trkpt>
      <trkpt lat="61.15105" lon="5.3436">
        <ele>77.788159</ele>
        <time>2020-07-26T11:32:44.312Z</time>
      </trkpt>
      <trkpt lat="61.15113" lon="5.34375">
        <ele>78.03512</ele>
        <time>2020-07-26T11:32:47.341Z</time>
      </trkpt>
      <trkpt lat="61.1512" lon="5.34388">
        <ele>78.26451</ele>
        <time>2020-07-26T11:32:50.313Z</time>
      </trkpt>
      <trkpt lat="61.1513" lon="5.34406">
        <ele>78.502943</ele>
        <time>2020-07-26T11:32:53.309Z</time>
      </trkpt>
      <trkpt lat="61.15137" lon="5.34419">
        <ele>78.58731</ele>
        <time>2020-07-26T11:32:55.320Z</time>
      </trkpt>
      <trkpt lat="61.15144" lon="5.34432">
        <ele>78.67282</ele>
        <time>2020-07-26T11:32:57.303Z</time>
      </trkpt>
      <trkpt lat="61.15151" lon="5.34444">
        <ele>78.757471</ele>
        <time>2020-07-26T11:32:59.353Z</time>
      </trkpt>
      <trkpt lat="61.15159" lon="5.34457">
        <ele>78.849407</ele>
        <time>2020-07-26T11:33:01.324Z</time>
      </trkpt>
      <trkpt lat="61.1517" lon="5.34476">
        <ele>78.975048</ele>
        <time>2020-07-26T11:33:04.335Z</time>
      </trkpt>
      <trkpt lat="61.15177" lon="5.34488">
        <ele>79.056765</ele>
        <time>2020-07-26T11:33:06.322Z</time>
      </trkpt>
      <trkpt lat="61.15184" lon="5.345">
        <ele>79.138627</ele>
        <time>2020-07-26T11:33:08.333Z</time>
      </trkpt>
      <trkpt lat="61.15193" lon="5.34519">
        <ele>79.252384</ele>
        <time>2020-07-26T11:33:11.342Z</time>
      </trkpt>
      <trkpt lat="61.15201" lon="5.34536">
        <ele>79.361561</ele>
        <time>2020-07-26T11:33:14.332Z</time>
      </trkpt>
      <trkpt lat="61.15208" lon="5.34553">
        <ele>79.45882</ele>
        <time>2020-07-26T11:33:17.311Z</time>
      </trkpt>
      <trkpt lat="61.15215" lon="5.34571">
        <ele>79.557122</ele>
        <time>2020-07-26T11:33:20.323Z</time>
      </trkpt>
      <trkpt lat="61.15222" lon="5.34589">
        <ele>79.659523</ele>
        <time>2020-07-26T11:33:23.319Z</time>
      </trkpt>
      <trkpt lat="61.1523" lon="5.3461">
        <ele>79.775732</ele>
        <time>2020-07-26T11:33:26.316Z</time>
      </trkpt>
      <trkpt lat="61.15238" lon="5.34631">
        <ele>79.895303</ele>
        <time>2020-07-26T11:33:29.309Z</time>
      </trkpt>
      <trkpt lat="61.15244" lon="5.34645">
        <ele>79.976582</ele>
        <time>2020-07-26T11:33:31.305Z</time>
      </trkpt>
      <trkpt lat="61.15252" lon="5.34665">
        <ele>80.037887</ele>
        <time>2020-07-26T11:33:34.321Z</time>
      </trkpt>
      <trkpt lat="61.15258" lon="5.34682">
        <ele>79.853828</ele>
        <time>2020-07-26T11:33:37.304Z</time>
      </trkpt>
      <trkpt lat="61.15265" lon="5.34698">
        <ele>79.673486</ele>
        <time>2020-07-26T11:33:40.310Z</time>
      </trkpt>
      <trkpt lat="61.15273" lon="5.34717">
        <ele>79.447481</ele>
        <time>2020-07-26T11:33:43.312Z</time>
      </trkpt>
      <trkpt lat="61.15281" lon="5.34732">
        <ele>79.249831</ele>
        <time>2020-07-26T11:33:45.312Z</time>
      </trkpt>
      <trkpt lat="61.15292" lon="5.34749">
        <ele>78.992522</ele>
        <time>2020-07-26T11:33:47.327Z</time>
      </trkpt>
      <trkpt lat="61.15304" lon="5.34764">
        <ele>78.74417</ele>
        <time>2020-07-26T11:33:49.327Z</time>
      </trkpt>
      <trkpt lat="61.15313" lon="5.34776">
        <ele>78.540338</ele>
        <time>2020-07-26T11:33:51.336Z</time>
      </trkpt>
      <trkpt lat="61.1532" lon="5.34787">
        <ele>78.374979</ele>
        <time>2020-07-26T11:33:53.337Z</time>
      </trkpt>
      <trkpt lat="61.15328" lon="5.34797">
        <ele>78.203584</ele>
        <time>2020-07-26T11:33:55.361Z</time>
      </trkpt>
      <trkpt lat="61.15339" lon="5.3481">
        <ele>77.980151</ele>
        <time>2020-07-26T11:33:58.341Z</time>
      </trkpt>
      <trkpt lat="61.15349" lon="5.34824">
        <ele>77.751407</ele>
        <time>2020-07-26T11:34:01.327Z</time>
      </trkpt>
      <trkpt lat="61.1536" lon="5.34839">
        <ele>77.520722</ele>
        <time>2020-07-26T11:34:04.319Z</time>
      </trkpt>
      <trkpt lat="61.15369" lon="5.3485">
        <ele>77.316109</ele>
        <time>2020-07-26T11:34:07.317Z</time>
      </trkpt>
      <trkpt lat="61.1538" lon="5.34863">
        <ele>77.097874</ele>
        <time>2020-07-26T11:34:10.316Z</time>
      </trkpt>
      <trkpt lat="61.15391" lon="5.34876">
        <ele>76.85935</ele>
        <time>2020-07-26T11:34:13.360Z</time>
      </trkpt>
      <trkpt lat="61.154" lon="5.34884">
        <ele>76.641934</ele>
        <time>2020-07-26T11:34:15.320Z</time>
      </trkpt>
      <trkpt lat="61.15408" lon="5.34893">
        <ele>76.397178</ele>
        <time>2020-07-26T11:34:17.334Z</time>
      </trkpt>
      <trkpt lat="61.15417" lon="5.34902">
        <ele>76.132437</ele>
        <time>2020-07-26T11:34:19.320Z</time>
      </trkpt>
      <trkpt lat="61.15425" lon="5.34911">
        <ele>75.88653</ele>
        <time>2020-07-26T11:34:21.339Z</time>
      </trkpt>
      <trkpt lat="61.15436" lon="5.34921">
        <ele>75.56689</ele>
        <time>2020-07-26T11:34:24.362Z</time>
      </trkpt>
      <trkpt lat="61.15448" lon="5.34931">
        <ele>75.236689</ele>
        <time>2020-07-26T11:34:27.331Z</time>
      </trkpt>
      <trkpt lat="61.15459" lon="5.34941">
        <ele>74.923968</ele>
        <time>2020-07-26T11:34:30.346Z</time>
      </trkpt>
      <trkpt lat="61.15469" lon="5.34952">
        <ele>74.615754</ele>
        <time>2020-07-26T11:34:33.341Z</time>
      </trkpt>
      <trkpt lat="61.1548" lon="5.34961">
        <ele>74.299715</ele>
        <time>2020-07-26T11:34:36.319Z</time>
      </trkpt>
      <trkpt lat="61.15492" lon="5.34971">
        <ele>73.968542</ele>
        <time>2020-07-26T11:34:39.336Z</time>
      </trkpt>
      <trkpt lat="61.15502" lon="5.3498">
        <ele>73.682799</ele>
        <time>2020-07-26T11:34:42.325Z</time>
      </trkpt>
      <trkpt lat="61.15512" lon="5.34987">
        <ele>73.387091</ele>
        <time>2020-07-26T11:34:45.315Z</time>
      </trkpt>
      <trkpt lat="61.15521" lon="5.34993">
        <ele>73.1343</ele>
        <time>2020-07-26T11:34:48.322Z</time>
      </trkpt>
      <trkpt lat="61.15533" lon="5.35001">
        <ele>72.818088</ele>
        <time>2020-07-26T11:34:52.335Z</time>
      </trkpt>
      <trkpt lat="61.15542" lon="5.35007">
        <ele>72.551536</ele>
        <time>2020-07-26T11:34:55.337Z</time>
      </trkpt>
      <trkpt lat="61.15551" lon="5.35015">
        <ele>72.290209</ele>
        <time>2020-07-26T11:34:58.312Z</time>
      </trkpt>
      <trkpt lat="61.15561" lon="5.35025">
        <ele>72.03812</ele>
        <time>2020-07-26T11:35:01.347Z</time>
      </trkpt>
      <trkpt lat="61.15571" lon="5.35033">
        <ele>72.415324</ele>
        <time>2020-07-26T11:35:04.327Z</time>
      </trkpt>
      <trkpt lat="61.15582" lon="5.35039">
        <ele>72.794928</ele>
        <time>2020-07-26T11:35:07.344Z</time>
      </trkpt>
      <trkpt lat="61.15591" lon="5.35046">
        <ele>73.099994</ele>
        <time>2020-07-26T11:35:10.313Z</time>
      </trkpt>
      <trkpt lat="61.156" lon="5.35043">
        <ele>73.413565</ele>
        <time>2020-07-26T11:35:13.317Z</time>
      </trkpt>
      <trkpt lat="61.15606" lon="5.35021">
        <ele>73.828225</ele>
        <time>2020-07-26T11:35:16.313Z</time>
      </trkpt>
      <trkpt lat="61.1561" lon="5.35002">
        <ele>74.175024</ele>
        <time>2020-07-26T11:35:18.348Z</time>
      </trkpt>
      <trkpt lat="61.15615" lon="5.34982">
        <ele>74.531869</ele>
        <time>2020-07-26T11:35:20.323Z</time>
      </trkpt>
      <trkpt lat="61.15619" lon="5.34964">
        <ele>74.86675</ele>
        <time>2020-07-26T11:35:22.330Z</time>
      </trkpt>
      <trkpt lat="61.15623" lon="5.34947">
        <ele>75.176612</ele>
        <time>2020-07-26T11:35:24.327Z</time>
      </trkpt>
      <trkpt lat="61.15631" lon="5.34925">
        <ele>75.601971</ele>
        <time>2020-07-26T11:35:27.350Z</time>
      </trkpt>
      <trkpt lat="61.15636" lon="5.34906">
        <ele>75.970357</ele>
        <time>2020-07-26T11:35:30.331Z</time>
      </trkpt>
      <trkpt lat="61.15641" lon="5.34889">
        <ele>76.303062</ele>
        <time>2020-07-26T11:35:33.327Z</time>
      </trkpt>
      <trkpt lat="61.15645" lon="5.34871">
        <ele>76.620246</ele>
        <time>2020-07-26T11:35:36.316Z</time>
      </trkpt>
      <trkpt lat="61.1565" lon="5.34849">
        <ele>77.009661</ele>
        <time>2020-07-26T11:35:40.350Z</time>
      </trkpt>
      <trkpt lat="61.15653" lon="5.34831">
        <ele>77.320138</ele>
        <time>2020-07-26T11:35:43.311Z</time>
      </trkpt>
      <trkpt lat="61.15656" lon="5.34811">
        <ele>77.654372</ele>
        <time>2020-07-26T11:35:46.332Z</time>
      </trkpt>
      <trkpt lat="61.15657" lon="5.34792">
        <ele>77.971625</ele>
        <time>2020-07-26T11:35:49.364Z</time>
      </trkpt>
      <trkpt lat="61.15659" lon="5.34769">
        <ele>78.891722</ele>
        <time>2020-07-26T11:35:53.319Z</time>
      </trkpt>
      <trkpt lat="61.15659" lon="5.34747">
        <ele>79.973518</ele>
        <time>2020-07-26T11:35:57.324Z</time>
      </trkpt>
      <trkpt lat="61.15658" lon="5.34726">
        <ele>81.016054</ele>
        <time>2020-07-26T11:36:01.323Z</time>
      </trkpt>
      <trkpt lat="61.1566" lon="5.34708">
        <ele>81.959686</ele>
        <time>2020-07-26T11:36:05.316Z</time>
      </trkpt>
      <trkpt lat="61.15661" lon="5.34688">
        <ele>82.940569</ele>
        <time>2020-07-26T11:36:10.372Z</time>
      </trkpt>
      <trkpt lat="61.1566" lon="5.34669">
        <ele>83.896981</ele>
        <time>2020-07-26T11:36:15.319Z</time>
      </trkpt>
      <trkpt lat="61.15658" lon="5.3465">
        <ele>84.879113</ele>
        <time>2020-07-26T11:36:21.333Z</time>
      </trkpt>
      <trkpt lat="61.15655" lon="5.34631">
        <ele>85.885074</ele>
        <time>2020-07-26T11:36:27.314Z</time>
      </trkpt>
      <trkpt lat="61.15654" lon="5.34611">
        <ele>86.857589</ele>
        <time>2020-07-26T11:36:33.318Z</time>
      </trkpt>
      <trkpt lat="61.15648" lon="5.34595">
        <ele>87.89054</ele>
        <time>2020-07-26T11:36:39.317Z</time>
      </trkpt>
      <trkpt lat="61.15645" lon="5.34575">
        <ele>88.928969</ele>
        <time>2020-07-26T11:36:47.332Z</time>
      </trkpt>
      <trkpt lat="61.15642" lon="5.34555">
        <ele>89.971674</ele>
        <time>2020-07-26T11:36:54.310Z</time>
      </trkpt>
      <trkpt lat="61.15637" lon="5.34536">
        <ele>91.040106</ele>
        <time>2020-07-26T11:37:01.322Z</time>
      </trkpt>
      <trkpt lat="61.15632" lon="5.3452">
        <ele>91.9982</ele>
        <time>2020-07-26T11:37:07.320Z</time>
      </trkpt>
      <trkpt lat="61.1563" lon="5.34499">
        <ele>93.045768</ele>
        <time>2020-07-26T11:37:14.353Z</time>
      </trkpt>
      <trkpt lat="61.15624" lon="5.34484">
        <ele>94.021248</ele>
        <time>2020-07-26T11:37:19.328Z</time>
      </trkpt>
      <trkpt lat="61.15619" lon="5.34466">
        <ele>95.049614</ele>
        <time>2020-07-26T11:37:25.323Z</time>
      </trkpt>
      <trkpt lat="61.15615" lon="5.3445">
        <ele>95.988648</ele>
        <time>2020-07-26T11:37:31.311Z</time>
      </trkpt>
      <trkpt lat="61.15612" lon="5.34431">
        <ele>96.902362</ele>
        <time>2020-07-26T11:37:37.353Z</time>
      </trkpt>
      <trkpt lat="61.15608" lon="5.34412">
        <ele>97.706111</ele>
        <time>2020-07-26T11:37:45.353Z</time>
      </trkpt>
      <trkpt lat="61.15601" lon="5.344">
        <ele>98.44923</ele>
        <time>2020-07-26T11:37:51.320Z</time>
      </trkpt>
      <trkpt lat="61.15593" lon="5.34387">
        <ele>99.214353</ele>
        <time>2020-07-26T11:37:57.333Z</time>
      </trkpt>
      <trkpt lat="61.15584" lon="5.34378">
        <ele>100.021953</ele>
        <time>2020-07-26T11:38:04.318Z</time>
      </trkpt>
      <trkpt lat="61.15575" lon="5.34373">
        <ele>100.781869</ele>
        <time>2020-07-26T11:38:09.350Z</time>
      </trkpt>
      <trkpt lat="61.15566" lon="5.34369">
        <ele>101.515946</ele>
        <time>2020-07-26T11:38:14.317Z</time>
      </trkpt>
      <trkpt lat="61.15556" lon="5.34362">
        <ele>102.313812</ele>
        <time>2020-07-26T11:38:24.313Z</time>
      </trkpt>
      <trkpt lat="61.15547" lon="5.34364">
        <ele>103.056064</ele>
        <time>2020-07-26T11:38:29.336Z</time>
      </trkpt>
      <trkpt lat="61.15538" lon="5.34363">
        <ele>103.771564</ele>
        <time>2020-07-26T11:38:35.320Z</time>
      </trkpt>
      <trkpt lat="61.15529" lon="5.34369">
        <ele>104.50013</ele>
        <time>2020-07-26T11:38:41.322Z</time>
      </trkpt>
      <trkpt lat="61.1552" lon="5.34373">
        <ele>105.223082</ele>
        <time>2020-07-26T11:38:47.361Z</time>
      </trkpt>
      <trkpt lat="61.15511" lon="5.34372">
        <ele>105.961382</ele>
        <time>2020-07-26T11:38:53.342Z</time>
      </trkpt>
      <trkpt lat="61.15503" lon="5.34363">
        <ele>106.690967</ele>
        <time>2020-07-26T11:38:59.312Z</time>
      </trkpt>
      <trkpt lat="61.15503" lon="5.34344">
        <ele>107.430182</ele>
        <time>2020-07-26T11:39:06.329Z</time>
      </trkpt>
      <trkpt lat="61.15509" lon="5.34329">
        <ele>108.204887</ele>
        <time>2020-07-26T11:39:14.306Z</time>
      </trkpt>
      <trkpt lat="61.15517" lon="5.34317">
        <ele>108.973702</ele>
        <time>2020-07-26T11:39:21.324Z</time>
      </trkpt>
      <trkpt lat="61.15524" lon="5.34303">
        <ele>109.720835</ele>
        <time>2020-07-26T11:39:28.329Z</time>
      </trkpt>
      <trkpt lat="61.15533" lon="5.34296">
        <ele>110.478704</ele>
        <time>2020-07-26T11:39:35.310Z</time>
      </trkpt>
      <trkpt lat="61.15542" lon="5.34292">
        <ele>111.189763</ele>
        <time>2020-07-26T11:39:41.336Z</time>
      </trkpt>
      <trkpt lat="61.15551" lon="5.34287">
        <ele>111.910502</ele>
        <time>2020-07-26T11:39:48.323Z</time>
      </trkpt>
      <trkpt lat="61.1556" lon="5.34284">
        <ele>112.579679</ele>
        <time>2020-07-26T11:39:56.334Z</time>
      </trkpt>
      <trkpt lat="61.1557" lon="5.34283">
        <ele>113.318887</ele>
        <time>2020-07-26T11:40:04.317Z</time>
      </trkpt>
      <trkpt lat="61.15579" lon="5.34282">
        <ele>113.985469</ele>
        <time>2020-07-26T11:40:10.341Z</time>
      </trkpt>
      <trkpt lat="61.15588" lon="5.34277">
        <ele>114.676893</ele>
        <time>2020-07-26T11:40:16.324Z</time>
      </trkpt>
      <trkpt lat="61.15598" lon="5.34276">
        <ele>115.373553</ele>
        <time>2020-07-26T11:40:25.327Z</time>
      </trkpt>
      <trkpt lat="61.15608" lon="5.34276">
        <ele>116.112382</ele>
        <time>2020-07-26T11:40:33.350Z</time>
      </trkpt>
      <trkpt lat="61.15618" lon="5.34278">
        <ele>116.825777</ele>
        <time>2020-07-26T11:40:39.317Z</time>
      </trkpt>
      <trkpt lat="61.15627" lon="5.3428">
        <ele>117.525007</ele>
        <time>2020-07-26T11:40:46.363Z</time>
      </trkpt>
      <trkpt lat="61.15636" lon="5.3429">
        <ele>118.22724</ele>
        <time>2020-07-26T11:40:53.344Z</time>
      </trkpt>
      <trkpt lat="61.15642" lon="5.34305">
        <ele>118.931723</ele>
        <time>2020-07-26T11:41:00.311Z</time>
      </trkpt>
      <trkpt lat="61.15646" lon="5.34322">
        <ele>119.607267</ele>
        <time>2020-07-26T11:41:07.348Z</time>
      </trkpt>
      <trkpt lat="61.15651" lon="5.34339">
        <ele>120.284273</ele>
        <time>2020-07-26T11:41:14.316Z</time>
      </trkpt>
      <trkpt lat="61.15656" lon="5.34356">
        <ele>120.993702</ele>
        <time>2020-07-26T11:41:22.309Z</time>
      </trkpt>
      <trkpt lat="61.1566" lon="5.34374">
        <ele>121.69932</ele>
        <time>2020-07-26T11:41:30.334Z</time>
      </trkpt>
      <trkpt lat="61.15663" lon="5.34392">
        <ele>122.365057</ele>
        <time>2020-07-26T11:41:39.317Z</time>
      </trkpt>
      <trkpt lat="61.15668" lon="5.34409">
        <ele>123.063195</ele>
        <time>2020-07-26T11:41:48.305Z</time>
      </trkpt>
      <trkpt lat="61.15675" lon="5.34421">
        <ele>123.759231</ele>
        <time>2020-07-26T11:41:54.310Z</time>
      </trkpt>
      <trkpt lat="61.15682" lon="5.34433">
        <ele>124.53859</ele>
        <time>2020-07-26T11:41:59.322Z</time>
      </trkpt>
      <trkpt lat="61.15689" lon="5.34448">
        <ele>125.596394</ele>
        <time>2020-07-26T11:42:06.310Z</time>
      </trkpt>
      <trkpt lat="61.15696" lon="5.34464">
        <ele>126.678082</ele>
        <time>2020-07-26T11:42:13.314Z</time>
      </trkpt>
      <trkpt lat="61.15703" lon="5.34478">
        <ele>127.775767</ele>
        <time>2020-07-26T11:42:20.328Z</time>
      </trkpt>
      <trkpt lat="61.15709" lon="5.34492">
        <ele>128.741105</ele>
        <time>2020-07-26T11:42:27.322Z</time>
      </trkpt>
      <trkpt lat="61.15717" lon="5.34505">
        <ele>129.826389</ele>
        <time>2020-07-26T11:42:34.331Z</time>
      </trkpt>
      <trkpt lat="61.15725" lon="5.34518">
        <ele>130.867037</ele>
        <time>2020-07-26T11:42:40.317Z</time>
      </trkpt>
      <trkpt lat="61.15732" lon="5.34531">
        <ele>131.902735</ele>
        <time>2020-07-26T11:42:48.330Z</time>
      </trkpt>
      <trkpt lat="61.15742" lon="5.34532">
        <ele>132.98946</ele>
        <time>2020-07-26T11:42:55.331Z</time>
      </trkpt>
      <trkpt lat="61.15749" lon="5.3452">
        <ele>134.0037</ele>
        <time>2020-07-26T11:43:01.331Z</time>
      </trkpt>
      <trkpt lat="61.15749" lon="5.345">
        <ele>135.003993</ele>
        <time>2020-07-26T11:43:08.325Z</time>
      </trkpt>
      <trkpt lat="61.15742" lon="5.34487">
        <ele>136.031769</ele>
        <time>2020-07-26T11:43:14.322Z</time>
      </trkpt>
      <trkpt lat="61.15734" lon="5.34473">
        <ele>137.158331</ele>
        <time>2020-07-26T11:43:20.307Z</time>
      </trkpt>
      <trkpt lat="61.15726" lon="5.34461">
        <ele>138.19916</ele>
        <time>2020-07-26T11:43:26.317Z</time>
      </trkpt>
      <trkpt lat="61.15719" lon="5.34448">
        <ele>139.228372</ele>
        <time>2020-07-26T11:43:32.321Z</time>
      </trkpt>
      <trkpt lat="61.15713" lon="5.34432">
        <ele>140.266353</ele>
        <time>2020-07-26T11:43:38.313Z</time>
      </trkpt>
      <trkpt lat="61.15709" lon="5.34413">
        <ele>141.357432</ele>
        <time>2020-07-26T11:43:46.339Z</time>
      </trkpt>
      <trkpt lat="61.15705" lon="5.34395">
        <ele>142.350318</ele>
        <time>2020-07-26T11:43:52.336Z</time>
      </trkpt>
      <trkpt lat="61.15701" lon="5.34378">
        <ele>143.361923</ele>
        <time>2020-07-26T11:43:59.321Z</time>
      </trkpt>
      <trkpt lat="61.157" lon="5.34358">
        <ele>144.162354</ele>
        <time>2020-07-26T11:44:06.342Z</time>
      </trkpt>
      <trkpt lat="61.15701" lon="5.34338">
        <ele>144.970674</ele>
        <time>2020-07-26T11:44:14.329Z</time>
      </trkpt>
      <trkpt lat="61.15705" lon="5.34318">
        <ele>145.810405</ele>
        <time>2020-07-26T11:44:22.307Z</time>
      </trkpt>
      <trkpt lat="61.15711" lon="5.34303">
        <ele>146.590234</ele>
        <time>2020-07-26T11:44:30.382Z</time>
      </trkpt>
      <trkpt lat="61.15719" lon="5.34292">
        <ele>147.394418</ele>
        <time>2020-07-26T11:44:36.303Z</time>
      </trkpt>
      <trkpt lat="61.15729" lon="5.34291">
        <ele>148.191588</ele>
        <time>2020-07-26T11:44:43.313Z</time>
      </trkpt>
      <trkpt lat="61.15738" lon="5.34292">
        <ele>148.980312</ele>
        <time>2020-07-26T11:44:49.319Z</time>
      </trkpt>
      <trkpt lat="61.15747" lon="5.343">
        <ele>149.725815</ele>
        <time>2020-07-26T11:44:56.333Z</time>
      </trkpt>
      <trkpt lat="61.15754" lon="5.34313">
        <ele>150.5226</ele>
        <time>2020-07-26T11:45:04.336Z</time>
      </trkpt>
      <trkpt lat="61.15762" lon="5.34325">
        <ele>151.300654</ele>
        <time>2020-07-26T11:45:12.341Z</time>
      </trkpt>
      <trkpt lat="61.1577" lon="5.34334">
        <ele>152.053417</ele>
        <time>2020-07-26T11:45:19.306Z</time>
      </trkpt>
      <trkpt lat="61.15777" lon="5.34347">
        <ele>152.870075</ele>
        <time>2020-07-26T11:45:27.320Z</time>
      </trkpt>
      <trkpt lat="61.15786" lon="5.34353">
        <ele>153.620534</ele>
        <time>2020-07-26T11:45:35.404Z</time>
      </trkpt>
      <trkpt lat="61.15795" lon="5.34355">
        <ele>154.377778</ele>
        <time>2020-07-26T11:45:41.312Z</time>
      </trkpt>
      <trkpt lat="61.15804" lon="5.34357">
        <ele>155.145177</ele>
        <time>2020-07-26T11:45:47.320Z</time>
      </trkpt>
      <trkpt lat="61.15814" lon="5.34355">
        <ele>155.928032</ele>
        <time>2020-07-26T11:45:53.321Z</time>
      </trkpt>
      <trkpt lat="61.15824" lon="5.34351">
        <ele>156.75095</ele>
        <time>2020-07-26T11:46:01.319Z</time>
      </trkpt>
      <trkpt lat="61.15833" lon="5.34343">
        <ele>157.592033</ele>
        <time>2020-07-26T11:46:09.315Z</time>
      </trkpt>
      <trkpt lat="61.15843" lon="5.34336">
        <ele>158.287681</ele>
        <time>2020-07-26T11:46:16.353Z</time>
      </trkpt>
      <trkpt lat="61.15851" lon="5.34326">
        <ele>158.585988</ele>
        <time>2020-07-26T11:46:24.310Z</time>
      </trkpt>
      <trkpt lat="61.15859" lon="5.34317">
        <ele>158.857904</ele>
        <time>2020-07-26T11:46:30.316Z</time>
      </trkpt>
      <trkpt lat="61.15867" lon="5.34305">
        <ele>159.147661</ele>
        <time>2020-07-26T11:46:38.330Z</time>
      </trkpt>
      <trkpt lat="61.15877" lon="5.34298">
        <ele>159.458856</ele>
        <time>2020-07-26T11:46:45.321Z</time>
      </trkpt>
      <trkpt lat="61.15885" lon="5.34289">
        <ele>159.729292</ele>
        <time>2020-07-26T11:46:51.369Z</time>
      </trkpt>
      <trkpt lat="61.15892" lon="5.34276">
        <ele>160.010311</ele>
        <time>2020-07-26T11:46:57.324Z</time>
      </trkpt>
      <trkpt lat="61.159" lon="5.34262">
        <ele>160.318769</ele>
        <time>2020-07-26T11:47:02.342Z</time>
      </trkpt>
      <trkpt lat="61.15907" lon="5.34248">
        <ele>160.607894</ele>
        <time>2020-07-26T11:47:07.310Z</time>
      </trkpt>
      <trkpt lat="61.15912" lon="5.34232">
        <ele>160.897397</ele>
        <time>2020-07-26T11:47:13.340Z</time>
      </trkpt>
      <trkpt lat="61.15916" lon="5.34213">
        <ele>161.195087</ele>
        <time>2020-07-26T11:47:18.334Z</time>
      </trkpt>
      <trkpt lat="61.15919" lon="5.34191">
        <ele>161.52004</ele>
        <time>2020-07-26T11:47:23.321Z</time>
      </trkpt>
      <trkpt lat="61.15921" lon="5.34172">
        <ele>161.80006</ele>
        <time>2020-07-26T11:47:27.338Z</time>
      </trkpt>
      <trkpt lat="61.15921" lon="5.34154">
        <ele>162.06823</ele>
        <time>2020-07-26T11:47:31.334Z</time>
      </trkpt>
      <trkpt lat="61.15922" lon="5.34135">
        <ele>162.341907</ele>
        <time>2020-07-26T11:47:35.317Z</time>
      </trkpt>
      <trkpt lat="61.15923" lon="5.34114">
        <ele>162.638259</ele>
        <time>2020-07-26T11:47:39.322Z</time>
      </trkpt>
      <trkpt lat="61.15925" lon="5.3409">
        <ele>162.994756</ele>
        <time>2020-07-26T11:47:43.329Z</time>
      </trkpt>
      <trkpt lat="61.15927" lon="5.34071">
        <ele>163.270666</ele>
        <time>2020-07-26T11:47:46.314Z</time>
      </trkpt>
      <trkpt lat="61.1593" lon="5.34054">
        <ele>163.539182</ele>
        <time>2020-07-26T11:47:49.331Z</time>
      </trkpt>
      <trkpt lat="61.15933" lon="5.34035">
        <ele>163.480558</ele>
        <time>2020-07-26T11:47:52.315Z</time>
      </trkpt>
      <trkpt lat="61.15937" lon="5.34014">
        <ele>163.297143</ele>
        <time>2020-07-26T11:47:56.315Z</time>
      </trkpt>
      <trkpt lat="61.15942" lon="5.33996">
        <ele>163.126987</ele>
        <time>2020-07-26T11:48:00.358Z</time>
      </trkpt>
      <trkpt lat="61.15947" lon="5.33975">
        <ele>162.931697</ele>
        <time>2020-07-26T11:48:05.309Z</time>
      </trkpt>
      <trkpt lat="61.15953" lon="5.33955">
        <ele>162.738599</ele>
        <time>2020-07-26T11:48:09.316Z</time>
      </trkpt>
      <trkpt lat="61.1596" lon="5.3394">
        <ele>162.57525</ele>
        <time>2020-07-26T11:48:12.318Z</time>
      </trkpt>
      <trkpt lat="61.15966" lon="5.33925">
        <ele>162.406304</ele>
        <time>2020-07-26T11:48:15.320Z</time>
      </trkpt>
      <trkpt lat="61.15974" lon="5.33911">
        <ele>162.229397</ele>
        <time>2020-07-26T11:48:18.329Z</time>
      </trkpt>
      <trkpt lat="61.15982" lon="5.33898">
        <ele>162.070705</ele>
        <time>2020-07-26T11:48:21.324Z</time>
      </trkpt>
      <trkpt lat="61.15989" lon="5.33886">
        <ele>161.908095</ele>
        <time>2020-07-26T11:48:24.343Z</time>
      </trkpt>
      <trkpt lat="61.15997" lon="5.33875">
        <ele>161.752804</ele>
        <time>2020-07-26T11:48:27.312Z</time>
      </trkpt>
      <trkpt lat="61.16005" lon="5.33865">
        <ele>161.593501</ele>
        <time>2020-07-26T11:48:30.337Z</time>
      </trkpt>
      <trkpt lat="61.16013" lon="5.33855">
        <ele>161.431025</ele>
        <time>2020-07-26T11:48:33.317Z</time>
      </trkpt>
      <trkpt lat="61.16022" lon="5.33846">
        <ele>161.274243</ele>
        <time>2020-07-26T11:48:36.337Z</time>
      </trkpt>
      <trkpt lat="61.1603" lon="5.33838">
        <ele>161.119336</ele>
        <time>2020-07-26T11:48:39.337Z</time>
      </trkpt>
      <trkpt lat="61.1604" lon="5.33827">
        <ele>160.924294</ele>
        <time>2020-07-26T11:48:43.328Z</time>
      </trkpt>
      <trkpt lat="61.16049" lon="5.33817">
        <ele>160.7562</ele>
        <time>2020-07-26T11:48:46.344Z</time>
      </trkpt>
      <trkpt lat="61.1606" lon="5.33807">
        <ele>160.608412</ele>
        <time>2020-07-26T11:48:50.320Z</time>
      </trkpt>
      <trkpt lat="61.16069" lon="5.33798">
        <ele>161.320331</ele>
        <time>2020-07-26T11:48:54.323Z</time>
      </trkpt>
      <trkpt lat="61.16078" lon="5.33788">
        <ele>162.013014</ele>
        <time>2020-07-26T11:48:58.322Z</time>
      </trkpt>
      <trkpt lat="61.16088" lon="5.33777">
        <ele>162.781019</ele>
        <time>2020-07-26T11:49:03.327Z</time>
      </trkpt>
      <trkpt lat="61.16096" lon="5.33768">
        <ele>163.435804</ele>
        <time>2020-07-26T11:49:07.310Z</time>
      </trkpt>
      <trkpt lat="61.16105" lon="5.3376">
        <ele>164.108059</ele>
        <time>2020-07-26T11:49:11.326Z</time>
      </trkpt>
      <trkpt lat="61.16115" lon="5.33752">
        <ele>164.866861</ele>
        <time>2020-07-26T11:49:16.313Z</time>
      </trkpt>
      <trkpt lat="61.16123" lon="5.33742">
        <ele>165.518519</ele>
        <time>2020-07-26T11:49:21.317Z</time>
      </trkpt>
      <trkpt lat="61.16132" lon="5.3373">
        <ele>166.241915</ele>
        <time>2020-07-26T11:49:27.309Z</time>
      </trkpt>
      <trkpt lat="61.1614" lon="5.33715">
        <ele>166.979787</ele>
        <time>2020-07-26T11:49:33.314Z</time>
      </trkpt>
      <trkpt lat="61.16148" lon="5.33704">
        <ele>167.629239</ele>
        <time>2020-07-26T11:49:38.326Z</time>
      </trkpt>
      <trkpt lat="61.16153" lon="5.33686">
        <ele>168.312819</ele>
        <time>2020-07-26T11:49:45.322Z</time>
      </trkpt>
      <trkpt lat="61.1616" lon="5.33675">
        <ele>168.962697</ele>
        <time>2020-07-26T11:49:51.315Z</time>
      </trkpt>
      <trkpt lat="61.16166" lon="5.33658">
        <ele>169.643858</ele>
        <time>2020-07-26T11:49:58.350Z</time>
      </trkpt>
      <trkpt lat="61.16173" lon="5.33641">
        <ele>170.354974</ele>
        <time>2020-07-26T11:50:04.319Z</time>
      </trkpt>
      <trkpt lat="61.16178" lon="5.33626">
        <ele>170.978562</ele>
        <time>2020-07-26T11:50:09.349Z</time>
      </trkpt>
      <trkpt lat="61.16183" lon="5.33608">
        <ele>171.677757</ele>
        <time>2020-07-26T11:50:14.316Z</time>
      </trkpt>
      <trkpt lat="61.16187" lon="5.33589">
        <ele>172.364962</ele>
        <time>2020-07-26T11:50:19.331Z</time>
      </trkpt>
      <trkpt lat="61.16191" lon="5.33571">
        <ele>172.95266</ele>
        <time>2020-07-26T11:50:23.317Z</time>
      </trkpt>
      <trkpt lat="61.16195" lon="5.33551">
        <ele>172.675291</ele>
        <time>2020-07-26T11:50:27.313Z</time>
      </trkpt>
      <trkpt lat="61.16199" lon="5.33533">
        <ele>172.418925</ele>
        <time>2020-07-26T11:50:31.311Z</time>
      </trkpt>
      <trkpt lat="61.16202" lon="5.33511">
        <ele>172.112045</ele>
        <time>2020-07-26T11:50:35.344Z</time>
      </trkpt>
      <trkpt lat="61.16207" lon="5.33489">
        <ele>171.791881</ele>
        <time>2020-07-26T11:50:39.343Z</time>
      </trkpt>
      <trkpt lat="61.16211" lon="5.33472">
        <ele>171.53722</ele>
        <time>2020-07-26T11:50:42.318Z</time>
      </trkpt>
      <trkpt lat="61.16216" lon="5.33453">
        <ele>171.258788</ele>
        <time>2020-07-26T11:50:45.320Z</time>
      </trkpt>
      <trkpt lat="61.16221" lon="5.33433">
        <ele>170.957749</ele>
        <time>2020-07-26T11:50:48.321Z</time>
      </trkpt>
      <trkpt lat="61.16225" lon="5.33409">
        <ele>170.616811</ele>
        <time>2020-07-26T11:50:51.337Z</time>
      </trkpt>
      <trkpt lat="61.16229" lon="5.33389">
        <ele>170.339718</ele>
        <time>2020-07-26T11:50:53.319Z</time>
      </trkpt>
      <trkpt lat="61.16233" lon="5.33368">
        <ele>170.040244</ele>
        <time>2020-07-26T11:50:55.318Z</time>
      </trkpt>
      <trkpt lat="61.16237" lon="5.33345">
        <ele>169.72155</ele>
        <time>2020-07-26T11:50:57.320Z</time>
      </trkpt>
      <trkpt lat="61.16239" lon="5.33319">
        <ele>169.368943</ele>
        <time>2020-07-26T11:50:59.308Z</time>
      </trkpt>
      <trkpt lat="61.1624" lon="5.33289">
        <ele>168.97515</ele>
        <time>2020-07-26T11:51:01.310Z</time>
      </trkpt>
      <trkpt lat="61.16238" lon="5.33257">
        <ele>168.551772</ele>
        <time>2020-07-26T11:51:03.305Z</time>
      </trkpt>
      <trkpt lat="61.16233" lon="5.33221">
        <ele>168.046783</ele>
        <time>2020-07-26T11:51:05.351Z</time>
      </trkpt>
      <trkpt lat="61.1623" lon="5.33202">
        <ele>167.193243</ele>
        <time>2020-07-26T11:51:06.318Z</time>
      </trkpt>
      <trkpt lat="61.16226" lon="5.33183">
        <ele>166.30103</ele>
        <time>2020-07-26T11:51:07.310Z</time>
      </trkpt>
      <trkpt lat="61.16222" lon="5.33164">
        <ele>165.392947</ele>
        <time>2020-07-26T11:51:08.329Z</time>
      </trkpt>
      <trkpt lat="61.16219" lon="5.33144">
        <ele>164.464958</ele>
        <time>2020-07-26T11:51:09.328Z</time>
      </trkpt>
      <trkpt lat="61.16215" lon="5.33123">
        <ele>163.538595</ele>
        <time>2020-07-26T11:51:10.311Z</time>
      </trkpt>
      <trkpt lat="61.16212" lon="5.33104">
        <ele>162.636236</ele>
        <time>2020-07-26T11:51:11.343Z</time>
      </trkpt>
      <trkpt lat="61.16208" lon="5.33083">
        <ele>161.722875</ele>
        <time>2020-07-26T11:51:12.344Z</time>
      </trkpt>
      <trkpt lat="61.16205" lon="5.33063">
        <ele>160.808263</ele>
        <time>2020-07-26T11:51:13.307Z</time>
      </trkpt>
      <trkpt lat="61.16202" lon="5.33043">
        <ele>159.878595</ele>
        <time>2020-07-26T11:51:14.370Z</time>
      </trkpt>
      <trkpt lat="61.16199" lon="5.33022">
        <ele>158.947206</ele>
        <time>2020-07-26T11:51:15.338Z</time>
      </trkpt>
      <trkpt lat="61.16196" lon="5.33001">
        <ele>158.022888</ele>
        <time>2020-07-26T11:51:16.351Z</time>
      </trkpt>
      <trkpt lat="61.16194" lon="5.3298">
        <ele>157.104526</ele>
        <time>2020-07-26T11:51:17.304Z</time>
      </trkpt>
      <trkpt lat="61.16193" lon="5.3296">
        <ele>156.204075</ele>
        <time>2020-07-26T11:51:18.337Z</time>
      </trkpt>
      <trkpt lat="61.16192" lon="5.32939">
        <ele>155.310763</ele>
        <time>2020-07-26T11:51:19.335Z</time>
      </trkpt>
      <trkpt lat="61.16192" lon="5.32918">
        <ele>154.424426</ele>
        <time>2020-07-26T11:51:20.328Z</time>
      </trkpt>
      <trkpt lat="61.16192" lon="5.32898">
        <ele>153.54185</ele>
        <time>2020-07-26T11:51:21.334Z</time>
      </trkpt>
      <trkpt lat="61.16193" lon="5.32878">
        <ele>152.674951</ele>
        <time>2020-07-26T11:51:22.308Z</time>
      </trkpt>
      <trkpt lat="61.16194" lon="5.32858">
        <ele>151.904003</ele>
        <time>2020-07-26T11:51:23.309Z</time>
      </trkpt>
      <trkpt lat="61.16197" lon="5.32838">
        <ele>151.470386</ele>
        <time>2020-07-26T11:51:24.319Z</time>
      </trkpt>
      <trkpt lat="61.162" lon="5.3282">
        <ele>151.045402</ele>
        <time>2020-07-26T11:51:25.323Z</time>
      </trkpt>
      <trkpt lat="61.16203" lon="5.32801">
        <ele>150.611475</ele>
        <time>2020-07-26T11:51:26.353Z</time>
      </trkpt>
      <trkpt lat="61.16207" lon="5.32782">
        <ele>150.162007</ele>
        <time>2020-07-26T11:51:27.322Z</time>
      </trkpt>
      <trkpt lat="61.1621" lon="5.32763">
        <ele>149.708454</ele>
        <time>2020-07-26T11:51:28.308Z</time>
      </trkpt>
      <trkpt lat="61.16214" lon="5.32744">
        <ele>149.246018</ele>
        <time>2020-07-26T11:51:29.313Z</time>
      </trkpt>
      <trkpt lat="61.16218" lon="5.32724">
        <ele>148.783583</ele>
        <time>2020-07-26T11:51:30.314Z</time>
      </trkpt>
      <trkpt lat="61.16222" lon="5.32705">
        <ele>148.326674</ele>
        <time>2020-07-26T11:51:31.353Z</time>
      </trkpt>
      <trkpt lat="61.16226" lon="5.32685">
        <ele>147.854391</ele>
        <time>2020-07-26T11:51:32.352Z</time>
      </trkpt>
      <trkpt lat="61.1623" lon="5.32665">
        <ele>147.371381</ele>
        <time>2020-07-26T11:51:33.341Z</time>
      </trkpt>
      <trkpt lat="61.16233" lon="5.32644">
        <ele>146.893536</ele>
        <time>2020-07-26T11:51:34.321Z</time>
      </trkpt>
      <trkpt lat="61.16236" lon="5.32623">
        <ele>146.40665</ele>
        <time>2020-07-26T11:51:35.324Z</time>
      </trkpt>
      <trkpt lat="61.16239" lon="5.326">
        <ele>145.897344</ele>
        <time>2020-07-26T11:51:36.391Z</time>
      </trkpt>
      <trkpt lat="61.16242" lon="5.32578">
        <ele>145.394412</ele>
        <time>2020-07-26T11:51:37.330Z</time>
      </trkpt>
      <trkpt lat="61.16243" lon="5.32555">
        <ele>144.899572</ele>
        <time>2020-07-26T11:51:38.320Z</time>
      </trkpt>
      <trkpt lat="61.16244" lon="5.32533">
        <ele>144.412229</ele>
        <time>2020-07-26T11:51:39.318Z</time>
      </trkpt>
      <trkpt lat="61.16243" lon="5.32511">
        <ele>143.931686</ele>
        <time>2020-07-26T11:51:40.338Z</time>
      </trkpt>
      <trkpt lat="61.16242" lon="5.32489">
        <ele>143.513129</ele>
        <time>2020-07-26T11:51:41.316Z</time>
      </trkpt>
      <trkpt lat="61.1624" lon="5.32467">
        <ele>143.113562</ele>
        <time>2020-07-26T11:51:42.330Z</time>
      </trkpt>
      <trkpt lat="61.16237" lon="5.32446">
        <ele>142.714775</ele>
        <time>2020-07-26T11:51:43.341Z</time>
      </trkpt>
      <trkpt lat="61.16234" lon="5.32425">
        <ele>142.324802</ele>
        <time>2020-07-26T11:51:44.314Z</time>
      </trkpt>
      <trkpt lat="61.16231" lon="5.32404">
        <ele>141.937579</ele>
        <time>2020-07-26T11:51:45.314Z</time>
      </trkpt>
      <trkpt lat="61.16229" lon="5.32383">
        <ele>141.544326</ele>
        <time>2020-07-26T11:51:46.317Z</time>
      </trkpt>
      <trkpt lat="61.16228" lon="5.3236">
        <ele>141.139282</ele>
        <time>2020-07-26T11:51:47.314Z</time>
      </trkpt>
      <trkpt lat="61.16229" lon="5.32337">
        <ele>140.713949</ele>
        <time>2020-07-26T11:51:48.333Z</time>
      </trkpt>
      <trkpt lat="61.1623" lon="5.32312">
        <ele>140.271661</ele>
        <time>2020-07-26T11:51:49.333Z</time>
      </trkpt>
      <trkpt lat="61.16233" lon="5.32287">
        <ele>139.812047</ele>
        <time>2020-07-26T11:51:50.312Z</time>
      </trkpt>
      <trkpt lat="61.16237" lon="5.32261">
        <ele>139.328699</ele>
        <time>2020-07-26T11:51:51.335Z</time>
      </trkpt>
      <trkpt lat="61.16242" lon="5.32236">
        <ele>138.841249</ele>
        <time>2020-07-26T11:51:52.323Z</time>
      </trkpt>
      <trkpt lat="61.16246" lon="5.32211">
        <ele>138.362924</ele>
        <time>2020-07-26T11:51:53.304Z</time>
      </trkpt>
      <trkpt lat="61.16249" lon="5.32185">
        <ele>137.888481</ele>
        <time>2020-07-26T11:51:54.319Z</time>
      </trkpt>
      <trkpt lat="61.16251" lon="5.3216">
        <ele>137.429396</ele>
        <time>2020-07-26T11:51:55.357Z</time>
      </trkpt>
      <trkpt lat="61.16251" lon="5.32136">
        <ele>136.975903</ele>
        <time>2020-07-26T11:51:56.322Z</time>
      </trkpt>
      <trkpt lat="61.1625" lon="5.32112">
        <ele>136.506032</ele>
        <time>2020-07-26T11:51:57.336Z</time>
      </trkpt>
      <trkpt lat="61.16247" lon="5.32088">
        <ele>136.037385</ele>
        <time>2020-07-26T11:51:58.333Z</time>
      </trkpt>
      <trkpt lat="61.16244" lon="5.32065">
        <ele>135.568328</ele>
        <time>2020-07-26T11:51:59.338Z</time>
      </trkpt>
      <trkpt lat="61.16241" lon="5.32043">
        <ele>135.116126</ele>
        <time>2020-07-26T11:52:00.306Z</time>
      </trkpt>
      <trkpt lat="61.16238" lon="5.32021">
        <ele>134.668372</ele>
        <time>2020-07-26T11:52:01.324Z</time>
      </trkpt>
      <trkpt lat="61.16236" lon="5.31998">
        <ele>134.228941</ele>
        <time>2020-07-26T11:52:02.336Z</time>
      </trkpt>
      <trkpt lat="61.16236" lon="5.31976">
        <ele>133.794748</ele>
        <time>2020-07-26T11:52:03.316Z</time>
      </trkpt>
      <trkpt lat="61.16236" lon="5.31954">
        <ele>133.362957</ele>
        <time>2020-07-26T11:52:04.324Z</time>
      </trkpt>
      <trkpt lat="61.16238" lon="5.31932">
        <ele>132.927937</ele>
        <time>2020-07-26T11:52:05.336Z</time>
      </trkpt>
      <trkpt lat="61.1624" lon="5.3191">
        <ele>132.495173</ele>
        <time>2020-07-26T11:52:06.337Z</time>
      </trkpt>
      <trkpt lat="61.16243" lon="5.31889">
        <ele>132.068858</ele>
        <time>2020-07-26T11:52:07.335Z</time>
      </trkpt>
      <trkpt lat="61.16246" lon="5.31869">
        <ele>131.655888</ele>
        <time>2020-07-26T11:52:08.335Z</time>
      </trkpt>
      <trkpt lat="61.1625" lon="5.31851">
        <ele>131.251435</ele>
        <time>2020-07-26T11:52:09.353Z</time>
      </trkpt>
      <trkpt lat="61.16255" lon="5.31832">
        <ele>130.846961</ele>
        <time>2020-07-26T11:52:10.342Z</time>
      </trkpt>
      <trkpt lat="61.1626" lon="5.31814">
        <ele>130.444054</ele>
        <time>2020-07-26T11:52:11.321Z</time>
      </trkpt>
      <trkpt lat="61.16265" lon="5.31796">
        <ele>130.047757</ele>
        <time>2020-07-26T11:52:12.320Z</time>
      </trkpt>
      <trkpt lat="61.16269" lon="5.31779">
        <ele>130.016785</ele>
        <time>2020-07-26T11:52:13.316Z</time>
      </trkpt>
      <trkpt lat="61.16274" lon="5.31761">
        <ele>130.2813</ele>
        <time>2020-07-26T11:52:14.310Z</time>
      </trkpt>
      <trkpt lat="61.16278" lon="5.31744">
        <ele>130.539749</ele>
        <time>2020-07-26T11:52:15.318Z</time>
      </trkpt>
      <trkpt lat="61.16282" lon="5.31728">
        <ele>130.792853</ele>
        <time>2020-07-26T11:52:16.313Z</time>
      </trkpt>
      <trkpt lat="61.16287" lon="5.31712">
        <ele>131.044797</ele>
        <time>2020-07-26T11:52:17.325Z</time>
      </trkpt>
      <trkpt lat="61.16297" lon="5.31683">
        <ele>131.517735</ele>
        <time>2020-07-26T11:52:19.333Z</time>
      </trkpt>
      <trkpt lat="61.16307" lon="5.31657">
        <ele>131.963066</ele>
        <time>2020-07-26T11:52:21.352Z</time>
      </trkpt>
      <trkpt lat="61.16315" lon="5.31633">
        <ele>132.371728</ele>
        <time>2020-07-26T11:52:23.324Z</time>
      </trkpt>
      <trkpt lat="61.16322" lon="5.3161">
        <ele>132.736087</ele>
        <time>2020-07-26T11:52:25.330Z</time>
      </trkpt>
      <trkpt lat="61.16327" lon="5.3159">
        <ele>133.036956</ele>
        <time>2020-07-26T11:52:27.314Z</time>
      </trkpt>
      <trkpt lat="61.16331" lon="5.31565">
        <ele>133.393436</ele>
        <time>2020-07-26T11:52:30.334Z</time>
      </trkpt>
      <trkpt lat="61.16336" lon="5.31549">
        <ele>133.642802</ele>
        <time>2020-07-26T11:52:33.349Z</time>
      </trkpt>
      <trkpt lat="61.16339" lon="5.31527">
        <ele>133.943374</ele>
        <time>2020-07-26T11:52:37.333Z</time>
      </trkpt>
      <trkpt lat="61.16338" lon="5.31504">
        <ele>134.257385</ele>
        <time>2020-07-26T11:52:41.308Z</time>
      </trkpt>
      <trkpt lat="61.16339" lon="5.3148">
        <ele>134.576666</ele>
        <time>2020-07-26T11:52:45.341Z</time>
      </trkpt>
      <trkpt lat="61.16339" lon="5.31456">
        <ele>134.901544</ele>
        <time>2020-07-26T11:52:49.351Z</time>
      </trkpt>
      <trkpt lat="61.16338" lon="5.31436">
        <ele>135.204159</ele>
        <time>2020-07-26T11:52:52.332Z</time>
      </trkpt>
      <trkpt lat="61.16341" lon="5.31413">
        <ele>135.556017</ele>
        <time>2020-07-26T11:52:56.305Z</time>
      </trkpt>
      <trkpt lat="61.16343" lon="5.3139">
        <ele>135.913119</ele>
        <time>2020-07-26T11:53:00.314Z</time>
      </trkpt>
      <trkpt lat="61.16344" lon="5.31369">
        <ele>136.216951</ele>
        <time>2020-07-26T11:53:03.315Z</time>
      </trkpt>
      <trkpt lat="61.16346" lon="5.31351">
        <ele>136.495559</ele>
        <time>2020-07-26T11:53:06.362Z</time>
      </trkpt>
      <trkpt lat="61.16346" lon="5.31332">
        <ele>136.779815</ele>
        <time>2020-07-26T11:53:09.321Z</time>
      </trkpt>
      <trkpt lat="61.16348" lon="5.31312">
        <ele>137.077903</ele>
        <time>2020-07-26T11:53:12.331Z</time>
      </trkpt>
      <trkpt lat="61.1635" lon="5.3129">
        <ele>137.415164</ele>
        <time>2020-07-26T11:53:15.308Z</time>
      </trkpt>
      <trkpt lat="61.16354" lon="5.31266">
        <ele>137.786765</ele>
        <time>2020-07-26T11:53:18.321Z</time>
      </trkpt>
      <trkpt lat="61.16357" lon="5.31241">
        <ele>138.180256</ele>
        <time>2020-07-26T11:53:21.341Z</time>
      </trkpt>
      <trkpt lat="61.16363" lon="5.31219">
        <ele>138.551153</ele>
        <time>2020-07-26T11:53:24.319Z</time>
      </trkpt>
      <trkpt lat="61.16369" lon="5.31197">
        <ele>138.935686</ele>
        <time>2020-07-26T11:53:27.314Z</time>
      </trkpt>
      <trkpt lat="61.16377" lon="5.3118">
        <ele>139.289992</ele>
        <time>2020-07-26T11:53:30.322Z</time>
      </trkpt>
      <trkpt lat="61.16384" lon="5.31167">
        <ele>139.577111</ele>
        <time>2020-07-26T11:53:32.312Z</time>
      </trkpt>
      <trkpt lat="61.16392" lon="5.31153">
        <ele>139.893283</ele>
        <time>2020-07-26T11:53:34.337Z</time>
      </trkpt>
      <trkpt lat="61.164" lon="5.3114">
        <ele>140.218483</ele>
        <time>2020-07-26T11:53:36.313Z</time>
      </trkpt>
      <trkpt lat="61.16408" lon="5.31126">
        <ele>140.288242</ele>
        <time>2020-07-26T11:53:38.319Z</time>
      </trkpt>
      <trkpt lat="61.16418" lon="5.31111">
        <ele>139.678607</ele>
        <time>2020-07-26T11:53:40.325Z</time>
      </trkpt>
      <trkpt lat="61.16427" lon="5.31092">
        <ele>139.034547</ele>
        <time>2020-07-26T11:53:42.319Z</time>
      </trkpt>
      <trkpt lat="61.16435" lon="5.31069">
        <ele>138.321797</ele>
        <time>2020-07-26T11:53:44.313Z</time>
      </trkpt>
      <trkpt lat="61.16441" lon="5.3104">
        <ele>137.52851</ele>
        <time>2020-07-26T11:53:46.325Z</time>
      </trkpt>
      <trkpt lat="61.16443" lon="5.31007">
        <ele>136.702513</ele>
        <time>2020-07-26T11:53:48.341Z</time>
      </trkpt>
      <trkpt lat="61.16442" lon="5.30971">
        <ele>135.81195</ele>
        <time>2020-07-26T11:53:50.322Z</time>
      </trkpt>
      <trkpt lat="61.16437" lon="5.30937">
        <ele>134.912786</ele>
        <time>2020-07-26T11:53:52.310Z</time>
      </trkpt>
      <trkpt lat="61.16433" lon="5.3092">
        <ele>134.444912</ele>
        <time>2020-07-26T11:53:53.312Z</time>
      </trkpt>
      <trkpt lat="61.16428" lon="5.30904">
        <ele>133.982906</ele>
        <time>2020-07-26T11:53:54.376Z</time>
      </trkpt>
      <trkpt lat="61.16424" lon="5.30887">
        <ele>133.511467</ele>
        <time>2020-07-26T11:53:55.344Z</time>
      </trkpt>
      <trkpt lat="61.16419" lon="5.30871">
        <ele>133.029338</ele>
        <time>2020-07-26T11:53:56.311Z</time>
      </trkpt>
      <trkpt lat="61.16413" lon="5.30854">
        <ele>132.531776</ele>
        <time>2020-07-26T11:53:57.314Z</time>
      </trkpt>
      <trkpt lat="61.16408" lon="5.30837">
        <ele>132.014063</ele>
        <time>2020-07-26T11:53:58.318Z</time>
      </trkpt>
      <trkpt lat="61.16403" lon="5.30818">
        <ele>131.475893</ele>
        <time>2020-07-26T11:53:59.341Z</time>
      </trkpt>
      <trkpt lat="61.16398" lon="5.30798">
        <ele>130.875886</ele>
        <time>2020-07-26T11:54:00.318Z</time>
      </trkpt>
      <trkpt lat="61.16393" lon="5.30777">
        <ele>130.227475</ele>
        <time>2020-07-26T11:54:01.320Z</time>
      </trkpt>
      <trkpt lat="61.16389" lon="5.30757">
        <ele>129.571077</ele>
        <time>2020-07-26T11:54:02.321Z</time>
      </trkpt>
      <trkpt lat="61.16385" lon="5.30735">
        <ele>128.912925</ele>
        <time>2020-07-26T11:54:03.322Z</time>
      </trkpt>
      <trkpt lat="61.16381" lon="5.30713">
        <ele>128.241274</ele>
        <time>2020-07-26T11:54:04.340Z</time>
      </trkpt>
      <trkpt lat="61.16378" lon="5.30691">
        <ele>127.567859</ele>
        <time>2020-07-26T11:54:05.348Z</time>
      </trkpt>
      <trkpt lat="61.16375" lon="5.30668">
        <ele>126.89071</ele>
        <time>2020-07-26T11:54:06.305Z</time>
      </trkpt>
      <trkpt lat="61.16372" lon="5.30645">
        <ele>126.214656</ele>
        <time>2020-07-26T11:54:07.310Z</time>
      </trkpt>
      <trkpt lat="61.1637" lon="5.30622">
        <ele>125.54064</ele>
        <time>2020-07-26T11:54:08.320Z</time>
      </trkpt>
      <trkpt lat="61.16368" lon="5.30599">
        <ele>124.869724</ele>
        <time>2020-07-26T11:54:09.302Z</time>
      </trkpt>
      <trkpt lat="61.16367" lon="5.30576">
        <ele>124.204221</ele>
        <time>2020-07-26T11:54:10.338Z</time>
      </trkpt>
      <trkpt lat="61.16368" lon="5.30553">
        <ele>123.527148</ele>
        <time>2020-07-26T11:54:11.331Z</time>
      </trkpt>
      <trkpt lat="61.16369" lon="5.3053">
        <ele>122.85234</ele>
        <time>2020-07-26T11:54:12.319Z</time>
      </trkpt>
      <trkpt lat="61.16372" lon="5.30507">
        <ele>122.19445</ele>
        <time>2020-07-26T11:54:13.335Z</time>
      </trkpt>
      <trkpt lat="61.16375" lon="5.30486">
        <ele>121.543819</ele>
        <time>2020-07-26T11:54:14.319Z</time>
      </trkpt>
      <trkpt lat="61.16381" lon="5.30466">
        <ele>120.881695</ele>
        <time>2020-07-26T11:54:15.312Z</time>
      </trkpt>
      <trkpt lat="61.16387" lon="5.30447">
        <ele>120.25901</ele>
        <time>2020-07-26T11:54:16.321Z</time>
      </trkpt>
      <trkpt lat="61.16396" lon="5.3043">
        <ele>119.693998</ele>
        <time>2020-07-26T11:54:17.306Z</time>
      </trkpt>
      <trkpt lat="61.16405" lon="5.30414">
        <ele>119.136652</ele>
        <time>2020-07-26T11:54:18.344Z</time>
      </trkpt>
      <trkpt lat="61.16414" lon="5.304">
        <ele>118.594874</ele>
        <time>2020-07-26T11:54:19.337Z</time>
      </trkpt>
      <trkpt lat="61.16423" lon="5.30385">
        <ele>118.052666</ele>
        <time>2020-07-26T11:54:20.320Z</time>
      </trkpt>
      <trkpt lat="61.16432" lon="5.30369">
        <ele>117.495809</ele>
        <time>2020-07-26T11:54:21.312Z</time>
      </trkpt>
      <trkpt lat="61.1644" lon="5.30351">
        <ele>116.914367</ele>
        <time>2020-07-26T11:54:22.336Z</time>
      </trkpt>
      <trkpt lat="61.16449" lon="5.30331">
        <ele>116.315398</ele>
        <time>2020-07-26T11:54:23.302Z</time>
      </trkpt>
      <trkpt lat="61.16456" lon="5.30311">
        <ele>115.718982</ele>
        <time>2020-07-26T11:54:24.353Z</time>
      </trkpt>
      <trkpt lat="61.16464" lon="5.30291">
        <ele>115.132706</ele>
        <time>2020-07-26T11:54:25.336Z</time>
      </trkpt>
      <trkpt lat="61.16472" lon="5.30271">
        <ele>114.54817</ele>
        <time>2020-07-26T11:54:26.308Z</time>
      </trkpt>
      <trkpt lat="61.1648" lon="5.30253">
        <ele>113.966732</ele>
        <time>2020-07-26T11:54:27.310Z</time>
      </trkpt>
      <trkpt lat="61.16489" lon="5.30236">
        <ele>113.393144</ele>
        <time>2020-07-26T11:54:28.331Z</time>
      </trkpt>
      <trkpt lat="61.165" lon="5.30221">
        <ele>112.794607</ele>
        <time>2020-07-26T11:54:29.305Z</time>
      </trkpt>
      <trkpt lat="61.16511" lon="5.30207">
        <ele>112.169311</ele>
        <time>2020-07-26T11:54:30.317Z</time>
      </trkpt>
      <trkpt lat="61.16523" lon="5.30195">
        <ele>111.49379</ele>
        <time>2020-07-26T11:54:31.321Z</time>
      </trkpt>
      <trkpt lat="61.16536" lon="5.30185">
        <ele>110.788169</ele>
        <time>2020-07-26T11:54:32.355Z</time>
      </trkpt>
      <trkpt lat="61.16548" lon="5.30176">
        <ele>110.082074</ele>
        <time>2020-07-26T11:54:33.315Z</time>
      </trkpt>
      <trkpt lat="61.16562" lon="5.30167">
        <ele>109.363406</ele>
        <time>2020-07-26T11:54:34.347Z</time>
      </trkpt>
      <trkpt lat="61.16574" lon="5.30158">
        <ele>108.649102</ele>
        <time>2020-07-26T11:54:35.328Z</time>
      </trkpt>
      <trkpt lat="61.16587" lon="5.30147">
        <ele>107.936979</ele>
        <time>2020-07-26T11:54:36.318Z</time>
      </trkpt>
      <trkpt lat="61.16599" lon="5.30134">
        <ele>107.236933</ele>
        <time>2020-07-26T11:54:37.313Z</time>
      </trkpt>
      <trkpt lat="61.1661" lon="5.30118">
        <ele>106.519854</ele>
        <time>2020-07-26T11:54:38.333Z</time>
      </trkpt>
      <trkpt lat="61.1662" lon="5.30099">
        <ele>105.798829</ele>
        <time>2020-07-26T11:54:39.306Z</time>
      </trkpt>
      <trkpt lat="61.1663" lon="5.30079">
        <ele>105.081432</ele>
        <time>2020-07-26T11:54:40.313Z</time>
      </trkpt>
      <trkpt lat="61.1664" lon="5.30059">
        <ele>104.349775</ele>
        <time>2020-07-26T11:54:41.319Z</time>
      </trkpt>
      <trkpt lat="61.16649" lon="5.30037">
        <ele>103.633585</ele>
        <time>2020-07-26T11:54:42.333Z</time>
      </trkpt>
      <trkpt lat="61.16657" lon="5.30016">
        <ele>102.937619</ele>
        <time>2020-07-26T11:54:43.338Z</time>
      </trkpt>
      <trkpt lat="61.16666" lon="5.29995">
        <ele>102.251274</ele>
        <time>2020-07-26T11:54:44.309Z</time>
      </trkpt>
      <trkpt lat="61.16674" lon="5.29977">
        <ele>101.582798</ele>
        <time>2020-07-26T11:54:45.316Z</time>
      </trkpt>
      <trkpt lat="61.16682" lon="5.2996">
        <ele>100.944177</ele>
        <time>2020-07-26T11:54:46.309Z</time>
      </trkpt>
      <trkpt lat="61.16692" lon="5.29947">
        <ele>100.31496</ele>
        <time>2020-07-26T11:54:47.326Z</time>
      </trkpt>
      <trkpt lat="61.16702" lon="5.29937">
        <ele>99.681023</ele>
        <time>2020-07-26T11:54:48.310Z</time>
      </trkpt>
      <trkpt lat="61.16713" lon="5.29929">
        <ele>99.049336</ele>
        <time>2020-07-26T11:54:49.305Z</time>
      </trkpt>
      <trkpt lat="61.16725" lon="5.29924">
        <ele>98.412673</ele>
        <time>2020-07-26T11:54:50.313Z</time>
      </trkpt>
      <trkpt lat="61.16735" lon="5.29919">
        <ele>97.799205</ele>
        <time>2020-07-26T11:54:51.323Z</time>
      </trkpt>
      <trkpt lat="61.16746" lon="5.29915">
        <ele>97.22561</ele>
        <time>2020-07-26T11:54:52.317Z</time>
      </trkpt>
      <trkpt lat="61.16755" lon="5.2991">
        <ele>96.675836</ele>
        <time>2020-07-26T11:54:53.320Z</time>
      </trkpt>
      <trkpt lat="61.16765" lon="5.29905">
        <ele>96.142061</ele>
        <time>2020-07-26T11:54:54.365Z</time>
      </trkpt>
      <trkpt lat="61.16774" lon="5.299">
        <ele>95.624254</ele>
        <time>2020-07-26T11:54:55.332Z</time>
      </trkpt>
      <trkpt lat="61.16783" lon="5.29894">
        <ele>95.122405</ele>
        <time>2020-07-26T11:54:56.330Z</time>
      </trkpt>
      <trkpt lat="61.16799" lon="5.29883">
        <ele>94.169902</ele>
        <time>2020-07-26T11:54:58.342Z</time>
      </trkpt>
      <trkpt lat="61.16814" lon="5.29869">
        <ele>93.241796</ele>
        <time>2020-07-26T11:55:00.303Z</time>
      </trkpt>
      <trkpt lat="61.16829" lon="5.29854">
        <ele>92.583652</ele>
        <time>2020-07-26T11:55:02.318Z</time>
      </trkpt>
      <trkpt lat="61.16843" lon="5.29839">
        <ele>92.480323</ele>
        <time>2020-07-26T11:55:04.326Z</time>
      </trkpt>
      <trkpt lat="61.16856" lon="5.29823">
        <ele>92.377725</ele>
        <time>2020-07-26T11:55:06.312Z</time>
      </trkpt>
      <trkpt lat="61.1687" lon="5.29809">
        <ele>92.27553</ele>
        <time>2020-07-26T11:55:08.306Z</time>
      </trkpt>
      <trkpt lat="61.16884" lon="5.29798">
        <ele>92.177373</ele>
        <time>2020-07-26T11:55:10.396Z</time>
      </trkpt>
      <trkpt lat="61.16898" lon="5.29788">
        <ele>92.080488</ele>
        <time>2020-07-26T11:55:12.338Z</time>
      </trkpt>
      <trkpt lat="61.16912" lon="5.29781">
        <ele>91.986387</ele>
        <time>2020-07-26T11:55:14.333Z</time>
      </trkpt>
      <trkpt lat="61.16925" lon="5.29777">
        <ele>91.900314</ele>
        <time>2020-07-26T11:55:16.309Z</time>
      </trkpt>
      <trkpt lat="61.16937" lon="5.29775">
        <ele>91.818474</ele>
        <time>2020-07-26T11:55:18.341Z</time>
      </trkpt>
      <trkpt lat="61.16949" lon="5.29775">
        <ele>91.743415</ele>
        <time>2020-07-26T11:55:20.332Z</time>
      </trkpt>
      <trkpt lat="61.1696" lon="5.29777">
        <ele>91.67219</ele>
        <time>2020-07-26T11:55:22.333Z</time>
      </trkpt>
      <trkpt lat="61.16969" lon="5.29778">
        <ele>91.607493</ele>
        <time>2020-07-26T11:55:24.313Z</time>
      </trkpt>
      <trkpt lat="61.16982" lon="5.2978">
        <ele>91.52376</ele>
        <time>2020-07-26T11:55:27.323Z</time>
      </trkpt>
      <trkpt lat="61.16992" lon="5.29781">
        <ele>91.461097</ele>
        <time>2020-07-26T11:55:30.303Z</time>
      </trkpt>
      <trkpt lat="61.17002" lon="5.29777">
        <ele>91.229008</ele>
        <time>2020-07-26T11:55:34.315Z</time>
      </trkpt>
      <trkpt lat="61.17011" lon="5.29763">
        <ele>90.820877</ele>
        <time>2020-07-26T11:55:38.321Z</time>
      </trkpt>
      <trkpt lat="61.17014" lon="5.29745">
        <ele>90.489095</ele>
        <time>2020-07-26T11:55:41.351Z</time>
      </trkpt>
      <trkpt lat="61.17018" lon="5.29721">
        <ele>90.061689</ele>
        <time>2020-07-26T11:55:44.326Z</time>
      </trkpt>
      <trkpt lat="61.17024" lon="5.29702">
        <ele>89.654195</ele>
        <time>2020-07-26T11:55:47.326Z</time>
      </trkpt>
      <trkpt lat="61.17031" lon="5.29689">
        <ele>89.322078</ele>
        <time>2020-07-26T11:55:50.333Z</time>
      </trkpt>
      <trkpt lat="61.1704" lon="5.29679">
        <ele>88.93299</ele>
        <time>2020-07-26T11:55:55.340Z</time>
      </trkpt>
      <trkpt lat="61.17049" lon="5.2967">
        <ele>88.592315</ele>
        <time>2020-07-26T11:56:01.313Z</time>
      </trkpt>
      <trkpt lat="61.17074" lon="5.29651">
        <ele>87.634749</ele>
        <time>2020-07-26T11:57:49.340Z</time>
      </trkpt>
      <trkpt lat="61.17084" lon="5.29643">
        <ele>87.252471</ele>
        <time>2020-07-26T11:57:51.321Z</time>
      </trkpt>
      <trkpt lat="61.17093" lon="5.29637">
        <ele>86.929562</ele>
        <time>2020-07-26T11:57:53.316Z</time>
      </trkpt>
      <trkpt lat="61.17103" lon="5.29629">
        <ele>86.545569</ele>
        <time>2020-07-26T11:57:56.329Z</time>
      </trkpt>
      <trkpt lat="61.17124" lon="5.29608">
        <ele>85.706833</ele>
        <time>2020-07-26T11:59:17.327Z</time>
      </trkpt>
      <trkpt lat="61.17135" lon="5.29607">
        <ele>85.305362</ele>
        <time>2020-07-26T11:59:20.332Z</time>
      </trkpt>
      <trkpt lat="61.17148" lon="5.29612">
        <ele>84.817207</ele>
        <time>2020-07-26T11:59:23.309Z</time>
      </trkpt>
      <trkpt lat="61.17157" lon="5.29615">
        <ele>84.407649</ele>
        <time>2020-07-26T11:59:25.309Z</time>
      </trkpt>
      <trkpt lat="61.17167" lon="5.29619">
        <ele>83.989303</ele>
        <time>2020-07-26T11:59:27.309Z</time>
      </trkpt>
      <trkpt lat="61.17179" lon="5.29622">
        <ele>83.490461</ele>
        <time>2020-07-26T11:59:29.312Z</time>
      </trkpt>
      <trkpt lat="61.17192" lon="5.29624">
        <ele>82.956001</ele>
        <time>2020-07-26T11:59:31.309Z</time>
      </trkpt>
      <trkpt lat="61.17206" lon="5.29626">
        <ele>82.405918</ele>
        <time>2020-07-26T11:59:33.327Z</time>
      </trkpt>
      <trkpt lat="61.17219" lon="5.29626">
        <ele>81.844896</ele>
        <time>2020-07-26T11:59:35.311Z</time>
      </trkpt>
      <trkpt lat="61.17236" lon="5.29629">
        <ele>81.170807</ele>
        <time>2020-07-26T11:59:37.351Z</time>
      </trkpt>
      <trkpt lat="61.1725" lon="5.29626">
        <ele>80.553077</ele>
        <time>2020-07-26T11:59:39.326Z</time>
      </trkpt>
      <trkpt lat="61.17266" lon="5.29625">
        <ele>79.892756</ele>
        <time>2020-07-26T11:59:41.305Z</time>
      </trkpt>
      <trkpt lat="61.17283" lon="5.2963">
        <ele>79.218665</ele>
        <time>2020-07-26T11:59:43.321Z</time>
      </trkpt>
      <trkpt lat="61.17297" lon="5.29646">
        <ele>78.545662</ele>
        <time>2020-07-26T11:59:45.339Z</time>
      </trkpt>
      <trkpt lat="61.1731" lon="5.29671">
        <ele>77.823916</ele>
        <time>2020-07-26T11:59:47.357Z</time>
      </trkpt>
      <trkpt lat="61.17314" lon="5.29688">
        <ele>77.406355</ele>
        <time>2020-07-26T11:59:48.337Z</time>
      </trkpt>
      <trkpt lat="61.17317" lon="5.29706">
        <ele>76.936018</ele>
        <time>2020-07-26T11:59:49.339Z</time>
      </trkpt>
      <trkpt lat="61.17318" lon="5.29726">
        <ele>76.451486</ele>
        <time>2020-07-26T11:59:50.324Z</time>
      </trkpt>
      <trkpt lat="61.17319" lon="5.29746">
        <ele>75.961495</ele>
        <time>2020-07-26T11:59:51.332Z</time>
      </trkpt>
      <trkpt lat="61.1732" lon="5.29766">
        <ele>75.462449</ele>
        <time>2020-07-26T11:59:52.331Z</time>
      </trkpt>
      <trkpt lat="61.17321" lon="5.29786">
        <ele>74.969831</ele>
        <time>2020-07-26T11:59:53.306Z</time>
      </trkpt>
      <trkpt lat="61.17325" lon="5.29804">
        <ele>74.503137</ele>
        <time>2020-07-26T11:59:54.325Z</time>
      </trkpt>
      <trkpt lat="61.17329" lon="5.2982">
        <ele>74.044383</ele>
        <time>2020-07-26T11:59:55.344Z</time>
      </trkpt>
      <trkpt lat="61.17342" lon="5.29847">
        <ele>73.104511</ele>
        <time>2020-07-26T11:59:57.336Z</time>
      </trkpt>
      <trkpt lat="61.1735" lon="5.2986">
        <ele>72.577228</ele>
        <time>2020-07-26T11:59:58.329Z</time>
      </trkpt>
      <trkpt lat="61.17358" lon="5.29874">
        <ele>72.071245</ele>
        <time>2020-07-26T11:59:59.342Z</time>
      </trkpt>
      <trkpt lat="61.17364" lon="5.29891">
        <ele>71.565659</ele>
        <time>2020-07-26T12:00:00.341Z</time>
      </trkpt>
      <trkpt lat="61.17369" lon="5.29908">
        <ele>71.059175</ele>
        <time>2020-07-26T12:00:01.310Z</time>
      </trkpt>
      <trkpt lat="61.17374" lon="5.29927">
        <ele>70.539689</ele>
        <time>2020-07-26T12:00:02.313Z</time>
      </trkpt>
      <trkpt lat="61.17378" lon="5.29947">
        <ele>70.008917</ele>
        <time>2020-07-26T12:00:03.338Z</time>
      </trkpt>
      <trkpt lat="61.17383" lon="5.29966">
        <ele>69.476063</ele>
        <time>2020-07-26T12:00:04.332Z</time>
      </trkpt>
      <trkpt lat="61.17388" lon="5.29983">
        <ele>68.970001</ele>
        <time>2020-07-26T12:00:05.412Z</time>
      </trkpt>
      <trkpt lat="61.17395" lon="5.29997">
        <ele>68.475122</ele>
        <time>2020-07-26T12:00:06.338Z</time>
      </trkpt>
      <trkpt lat="61.17403" lon="5.30008">
        <ele>68.503272</ele>
        <time>2020-07-26T12:00:07.330Z</time>
      </trkpt>
      <trkpt lat="61.17413" lon="5.30016">
        <ele>68.609868</ele>
        <time>2020-07-26T12:00:08.322Z</time>
      </trkpt>
      <trkpt lat="61.17422" lon="5.30019">
        <ele>68.710284</ele>
        <time>2020-07-26T12:00:09.359Z</time>
      </trkpt>
      <trkpt lat="61.17437" lon="5.30015">
        <ele>68.876283</ele>
        <time>2020-07-26T12:00:11.327Z</time>
      </trkpt>
      <trkpt lat="61.1745" lon="5.30005">
        <ele>69.023841</ele>
        <time>2020-07-26T12:00:13.322Z</time>
      </trkpt>
      <trkpt lat="61.17458" lon="5.29988">
        <ele>69.150742</ele>
        <time>2020-07-26T12:00:15.326Z</time>
      </trkpt>
      <trkpt lat="61.17464" lon="5.29971">
        <ele>69.257426</ele>
        <time>2020-07-26T12:00:17.313Z</time>
      </trkpt>
      <trkpt lat="61.1747" lon="5.29949">
        <ele>69.390418</ele>
        <time>2020-07-26T12:00:20.338Z</time>
      </trkpt>
      <trkpt lat="61.17475" lon="5.29931">
        <ele>69.492953</ele>
        <time>2020-07-26T12:00:23.322Z</time>
      </trkpt>
      <trkpt lat="61.17478" lon="5.29913">
        <ele>69.591929</ele>
        <time>2020-07-26T12:00:26.309Z</time>
      </trkpt>
      <trkpt lat="61.17482" lon="5.29894">
        <ele>69.701087</ele>
        <time>2020-07-26T12:00:30.314Z</time>
      </trkpt>
      <trkpt lat="61.17484" lon="5.29875">
        <ele>69.804531</ele>
        <time>2020-07-26T12:00:35.330Z</time>
      </trkpt>
      <trkpt lat="61.17487" lon="5.29855">
        <ele>69.910455</ele>
        <time>2020-07-26T12:00:40.354Z</time>
      </trkpt>
      <trkpt lat="61.17492" lon="5.29839">
        <ele>70.011261</ele>
        <time>2020-07-26T12:00:44.316Z</time>
      </trkpt>
      <trkpt lat="61.17499" lon="5.29822">
        <ele>70.125405</ele>
        <time>2020-07-26T12:00:49.316Z</time>
      </trkpt>
      <trkpt lat="61.17503" lon="5.29805">
        <ele>70.224513</ele>
        <time>2020-07-26T12:00:54.351Z</time>
      </trkpt>
      <trkpt lat="61.1751" lon="5.29787">
        <ele>70.342818</ele>
        <time>2020-07-26T12:00:58.329Z</time>
      </trkpt>
      <trkpt lat="61.17516" lon="5.29773">
        <ele>70.366982</ele>
        <time>2020-07-26T12:01:02.337Z</time>
      </trkpt>
      <trkpt lat="61.17526" lon="5.29763">
        <ele>70.391165</ele>
        <time>2020-07-26T12:01:06.312Z</time>
      </trkpt>
      <trkpt lat="61.17535" lon="5.29758">
        <ele>70.41158</ele>
        <time>2020-07-26T12:01:09.315Z</time>
      </trkpt>
      <trkpt lat="61.17545" lon="5.29755">
        <ele>70.43192</ele>
        <time>2020-07-26T12:01:12.338Z</time>
      </trkpt>
      <trkpt lat="61.17554" lon="5.29754">
        <ele>70.452759</ele>
        <time>2020-07-26T12:01:15.328Z</time>
      </trkpt>
      <trkpt lat="61.17566" lon="5.29754">
        <ele>70.47893</ele>
        <time>2020-07-26T12:01:19.352Z</time>
      </trkpt>
      <trkpt lat="61.17576" lon="5.29759">
        <ele>70.501178</ele>
        <time>2020-07-26T12:01:22.334Z</time>
      </trkpt>
      <trkpt lat="61.17586" lon="5.29764">
        <ele>70.521802</ele>
        <time>2020-07-26T12:01:25.313Z</time>
      </trkpt>
      <trkpt lat="61.17594" lon="5.29769">
        <ele>70.541621</ele>
        <time>2020-07-26T12:01:28.303Z</time>
      </trkpt>
      <trkpt lat="61.17605" lon="5.29777">
        <ele>70.5666</ele>
        <time>2020-07-26T12:01:32.323Z</time>
      </trkpt>
      <trkpt lat="61.17614" lon="5.29781">
        <ele>70.586699</ele>
        <time>2020-07-26T12:01:35.311Z</time>
      </trkpt>
      <trkpt lat="61.17625" lon="5.2979">
        <ele>70.610675</ele>
        <time>2020-07-26T12:01:39.318Z</time>
      </trkpt>
      <trkpt lat="61.17634" lon="5.29796">
        <ele>70.630776</ele>
        <time>2020-07-26T12:01:42.320Z</time>
      </trkpt>
      <trkpt lat="61.17643" lon="5.29802">
        <ele>70.652522</ele>
        <time>2020-07-26T12:01:45.318Z</time>
      </trkpt>
      <trkpt lat="61.17655" lon="5.29807">
        <ele>70.677957</ele>
        <time>2020-07-26T12:01:49.329Z</time>
      </trkpt>
      <trkpt lat="61.17665" lon="5.29816">
        <ele>70.702613</ele>
        <time>2020-07-26T12:01:53.327Z</time>
      </trkpt>
      <trkpt lat="61.17676" lon="5.29824">
        <ele>70.727347</ele>
        <time>2020-07-26T12:01:57.329Z</time>
      </trkpt>
      <trkpt lat="61.17685" lon="5.29831">
        <ele>70.832248</ele>
        <time>2020-07-26T12:02:00.316Z</time>
      </trkpt>
      <trkpt lat="61.17695" lon="5.29841">
        <ele>71.036263</ele>
        <time>2020-07-26T12:02:03.328Z</time>
      </trkpt>
      <trkpt lat="61.17707" lon="5.29853">
        <ele>71.27298</ele>
        <time>2020-07-26T12:02:06.321Z</time>
      </trkpt>
      <trkpt lat="61.17718" lon="5.29863">
        <ele>71.499231</ele>
        <time>2020-07-26T12:02:09.337Z</time>
      </trkpt>
      <trkpt lat="61.17729" lon="5.29873">
        <ele>71.718392</ele>
        <time>2020-07-26T12:02:12.310Z</time>
      </trkpt>
      <trkpt lat="61.17741" lon="5.29882">
        <ele>71.945637</ele>
        <time>2020-07-26T12:02:15.334Z</time>
      </trkpt>
      <trkpt lat="61.1775" lon="5.29893">
        <ele>72.135536</ele>
        <time>2020-07-26T12:02:18.304Z</time>
      </trkpt>
      <trkpt lat="61.17761" lon="5.29902">
        <ele>72.340942</ele>
        <time>2020-07-26T12:02:21.361Z</time>
      </trkpt>
      <trkpt lat="61.1777" lon="5.29909">
        <ele>72.522182</ele>
        <time>2020-07-26T12:02:24.317Z</time>
      </trkpt>
      <trkpt lat="61.17779" lon="5.29916">
        <ele>72.698662</ele>
        <time>2020-07-26T12:02:27.299Z</time>
      </trkpt>
      <trkpt lat="61.17788" lon="5.29925">
        <ele>72.878841</ele>
        <time>2020-07-26T12:02:30.346Z</time>
      </trkpt>
      <trkpt lat="61.17798" lon="5.29932">
        <ele>73.073544</ele>
        <time>2020-07-26T12:02:33.313Z</time>
      </trkpt>
      <trkpt lat="61.17808" lon="5.29938">
        <ele>73.263106</ele>
        <time>2020-07-26T12:02:36.336Z</time>
      </trkpt>
      <trkpt lat="61.17817" lon="5.29942">
        <ele>73.436476</ele>
        <time>2020-07-26T12:02:39.337Z</time>
      </trkpt>
      <trkpt lat="61.17828" lon="5.29948">
        <ele>73.642776</ele>
        <time>2020-07-26T12:02:43.328Z</time>
      </trkpt>
      <trkpt lat="61.17837" lon="5.29954">
        <ele>73.810783</ele>
        <time>2020-07-26T12:02:47.326Z</time>
      </trkpt>
      <trkpt lat="61.17847" lon="5.2996">
        <ele>74.001944</ele>
        <time>2020-07-26T12:02:52.350Z</time>
      </trkpt>
      <trkpt lat="61.17857" lon="5.29964">
        <ele>74.072757</ele>
        <time>2020-07-26T12:02:57.314Z</time>
      </trkpt>
      <trkpt lat="61.17866" lon="5.29969">
        <ele>74.140895</ele>
        <time>2020-07-26T12:03:02.327Z</time>
      </trkpt>
      <trkpt lat="61.17876" lon="5.29973">
        <ele>74.211897</ele>
        <time>2020-07-26T12:03:07.346Z</time>
      </trkpt>
      <trkpt lat="61.17886" lon="5.29977">
        <ele>74.285895</ele>
        <time>2020-07-26T12:03:12.315Z</time>
      </trkpt>
      <trkpt lat="61.17896" lon="5.29982">
        <ele>74.355391</ele>
        <time>2020-07-26T12:03:17.333Z</time>
      </trkpt>
      <trkpt lat="61.17905" lon="5.29986">
        <ele>74.421452</ele>
        <time>2020-07-26T12:03:22.340Z</time>
      </trkpt>
      <trkpt lat="61.17914" lon="5.29992">
        <ele>74.487346</ele>
        <time>2020-07-26T12:03:27.337Z</time>
      </trkpt>
      <trkpt lat="61.17924" lon="5.29997">
        <ele>74.558881</ele>
        <time>2020-07-26T12:03:33.338Z</time>
      </trkpt>
      <trkpt lat="61.17935" lon="5.30002">
        <ele>74.63519</ele>
        <time>2020-07-26T12:03:38.342Z</time>
      </trkpt>
      <trkpt lat="61.17945" lon="5.30008">
        <ele>74.710401</ele>
        <time>2020-07-26T12:03:43.328Z</time>
      </trkpt>
      <trkpt lat="61.17954" lon="5.30012">
        <ele>74.773238</ele>
        <time>2020-07-26T12:03:47.312Z</time>
      </trkpt>
      <trkpt lat="61.17964" lon="5.30014">
        <ele>74.843957</ele>
        <time>2020-07-26T12:03:51.309Z</time>
      </trkpt>
      <trkpt lat="61.17972" lon="5.30022">
        <ele>74.909771</ele>
        <time>2020-07-26T12:03:55.314Z</time>
      </trkpt>
      <trkpt lat="61.17982" lon="5.3003">
        <ele>74.980375</ele>
        <time>2020-07-26T12:03:59.317Z</time>
      </trkpt>
      <trkpt lat="61.17992" lon="5.30039">
        <ele>75.060442</ele>
        <time>2020-07-26T12:04:03.305Z</time>
      </trkpt>
      <trkpt lat="61.18003" lon="5.30048">
        <ele>75.139085</ele>
        <time>2020-07-26T12:04:06.312Z</time>
      </trkpt>
      <trkpt lat="61.18012" lon="5.3006">
        <ele>75.219345</ele>
        <time>2020-07-26T12:04:09.364Z</time>
      </trkpt>
      <trkpt lat="61.18021" lon="5.3007">
        <ele>75.24798</ele>
        <time>2020-07-26T12:04:11.314Z</time>
      </trkpt>
      <trkpt lat="61.18029" lon="5.30082">
        <ele>75.140693</ele>
        <time>2020-07-26T12:04:13.334Z</time>
      </trkpt>
      <trkpt lat="61.18038" lon="5.30095">
        <ele>75.02779</ele>
        <time>2020-07-26T12:04:15.318Z</time>
      </trkpt>
      <trkpt lat="61.18046" lon="5.30109">
        <ele>74.921661</ele>
        <time>2020-07-26T12:04:17.357Z</time>
      </trkpt>
      <trkpt lat="61.18055" lon="5.30126">
        <ele>74.800944</ele>
        <time>2020-07-26T12:04:19.317Z</time>
      </trkpt>
      <trkpt lat="61.18064" lon="5.30143">
        <ele>74.672556</ele>
        <time>2020-07-26T12:04:21.341Z</time>
      </trkpt>
      <trkpt lat="61.18076" lon="5.30164">
        <ele>74.508951</ele>
        <time>2020-07-26T12:04:23.339Z</time>
      </trkpt>
      <trkpt lat="61.18083" lon="5.30177">
        <ele>74.412679</ele>
        <time>2020-07-26T12:04:24.308Z</time>
      </trkpt>
      <trkpt lat="61.1809" lon="5.30189">
        <ele>74.317689</ele>
        <time>2020-07-26T12:04:25.319Z</time>
      </trkpt>
      <trkpt lat="61.18098" lon="5.30201">
        <ele>74.22326</ele>
        <time>2020-07-26T12:04:26.319Z</time>
      </trkpt>
      <trkpt lat="61.18111" lon="5.30223">
        <ele>74.052221</ele>
        <time>2020-07-26T12:04:28.331Z</time>
      </trkpt>
      <trkpt lat="61.18121" lon="5.30244">
        <ele>73.902546</ele>
        <time>2020-07-26T12:04:30.313Z</time>
      </trkpt>
      <trkpt lat="61.18131" lon="5.30265">
        <ele>73.754883</ele>
        <time>2020-07-26T12:04:32.325Z</time>
      </trkpt>
      <trkpt lat="61.18143" lon="5.30288">
        <ele>73.592957</ele>
        <time>2020-07-26T12:04:34.311Z</time>
      </trkpt>
      <trkpt lat="61.18153" lon="5.3031">
        <ele>73.441499</ele>
        <time>2020-07-26T12:04:36.308Z</time>
      </trkpt>
      <trkpt lat="61.18163" lon="5.30332">
        <ele>72.783379</ele>
        <time>2020-07-26T12:04:38.316Z</time>
      </trkpt>
      <trkpt lat="61.18172" lon="5.30353">
        <ele>72.078961</ele>
        <time>2020-07-26T12:04:40.338Z</time>
      </trkpt>
      <trkpt lat="61.18181" lon="5.30374">
        <ele>71.416539</ele>
        <time>2020-07-26T12:04:42.341Z</time>
      </trkpt>
      <trkpt lat="61.18188" lon="5.30393">
        <ele>70.857439</ele>
        <time>2020-07-26T12:04:44.360Z</time>
      </trkpt>
      <trkpt lat="61.18194" lon="5.30413">
        <ele>70.283783</ele>
        <time>2020-07-26T12:04:46.335Z</time>
      </trkpt>
      <trkpt lat="61.182" lon="5.30436">
        <ele>69.659785</ele>
        <time>2020-07-26T12:04:48.326Z</time>
      </trkpt>
      <trkpt lat="61.18204" lon="5.30463">
        <ele>68.989894</ele>
        <time>2020-07-26T12:04:50.338Z</time>
      </trkpt>
      <trkpt lat="61.18207" lon="5.30492">
        <ele>68.27419</ele>
        <time>2020-07-26T12:04:52.329Z</time>
      </trkpt>
      <trkpt lat="61.18207" lon="5.30525">
        <ele>67.48328</ele>
        <time>2020-07-26T12:04:54.310Z</time>
      </trkpt>
      <trkpt lat="61.18206" lon="5.30543">
        <ele>67.0383</ele>
        <time>2020-07-26T12:04:55.341Z</time>
      </trkpt>
      <trkpt lat="61.18207" lon="5.30562">
        <ele>66.578472</ele>
        <time>2020-07-26T12:04:56.312Z</time>
      </trkpt>
      <trkpt lat="61.18207" lon="5.30582">
        <ele>66.109599</ele>
        <time>2020-07-26T12:04:57.321Z</time>
      </trkpt>
      <trkpt lat="61.18207" lon="5.30601">
        <ele>65.65667</ele>
        <time>2020-07-26T12:04:58.358Z</time>
      </trkpt>
      <trkpt lat="61.18206" lon="5.3062">
        <ele>65.196841</ele>
        <time>2020-07-26T12:04:59.337Z</time>
      </trkpt>
      <trkpt lat="61.18205" lon="5.30639">
        <ele>64.729173</ele>
        <time>2020-07-26T12:05:00.320Z</time>
      </trkpt>
      <trkpt lat="61.18205" lon="5.3066">
        <ele>64.234523</ele>
        <time>2020-07-26T12:05:01.329Z</time>
      </trkpt>
      <trkpt lat="61.18206" lon="5.30682">
        <ele>63.739595</ele>
        <time>2020-07-26T12:05:02.328Z</time>
      </trkpt>
      <trkpt lat="61.18207" lon="5.30702">
        <ele>63.258795</ele>
        <time>2020-07-26T12:05:03.336Z</time>
      </trkpt>
      <trkpt lat="61.18208" lon="5.30723">
        <ele>62.780273</ele>
        <time>2020-07-26T12:05:04.342Z</time>
      </trkpt>
      <trkpt lat="61.18209" lon="5.30744">
        <ele>62.31119</ele>
        <time>2020-07-26T12:05:05.337Z</time>
      </trkpt>
      <trkpt lat="61.1821" lon="5.30763">
        <ele>61.851171</ele>
        <time>2020-07-26T12:05:06.316Z</time>
      </trkpt>
      <trkpt lat="61.18213" lon="5.30782">
        <ele>61.395939</ele>
        <time>2020-07-26T12:05:07.331Z</time>
      </trkpt>
      <trkpt lat="61.18216" lon="5.30801">
        <ele>60.948578</ele>
        <time>2020-07-26T12:05:08.336Z</time>
      </trkpt>
      <trkpt lat="61.18221" lon="5.30818">
        <ele>60.505912</ele>
        <time>2020-07-26T12:05:09.312Z</time>
      </trkpt>
      <trkpt lat="61.18226" lon="5.30835">
        <ele>60.045744</ele>
        <time>2020-07-26T12:05:10.332Z</time>
      </trkpt>
      <trkpt lat="61.18231" lon="5.30851">
        <ele>59.599733</ele>
        <time>2020-07-26T12:05:11.359Z</time>
      </trkpt>
      <trkpt lat="61.18237" lon="5.30867">
        <ele>59.150451</ele>
        <time>2020-07-26T12:05:12.315Z</time>
      </trkpt>
      <trkpt lat="61.18244" lon="5.30881">
        <ele>58.673591</ele>
        <time>2020-07-26T12:05:13.310Z</time>
      </trkpt>
      <trkpt lat="61.18251" lon="5.30893">
        <ele>58.222101</ele>
        <time>2020-07-26T12:05:14.334Z</time>
      </trkpt>
      <trkpt lat="61.18259" lon="5.30904">
        <ele>57.784762</ele>
        <time>2020-07-26T12:05:15.360Z</time>
      </trkpt>
      <trkpt lat="61.18267" lon="5.30914">
        <ele>57.347276</ele>
        <time>2020-07-26T12:05:16.318Z</time>
      </trkpt>
      <trkpt lat="61.18281" lon="5.30933">
        <ele>56.548884</ele>
        <time>2020-07-26T12:05:18.333Z</time>
      </trkpt>
      <trkpt lat="61.18293" lon="5.30955">
        <ele>55.886105</ele>
        <time>2020-07-26T12:05:20.340Z</time>
      </trkpt>
      <trkpt lat="61.18299" lon="5.30968">
        <ele>55.870566</ele>
        <time>2020-07-26T12:05:21.315Z</time>
      </trkpt>
      <trkpt lat="61.18307" lon="5.30983">
        <ele>55.852126</ele>
        <time>2020-07-26T12:05:22.316Z</time>
      </trkpt>
      <trkpt lat="61.18316" lon="5.30997">
        <ele>55.833474</ele>
        <time>2020-07-26T12:05:23.312Z</time>
      </trkpt>
      <trkpt lat="61.18324" lon="5.3101">
        <ele>55.815141</ele>
        <time>2020-07-26T12:05:24.324Z</time>
      </trkpt>
      <trkpt lat="61.18333" lon="5.31024">
        <ele>55.797351</ele>
        <time>2020-07-26T12:05:25.337Z</time>
      </trkpt>
      <trkpt lat="61.18341" lon="5.31036">
        <ele>55.78037</ele>
        <time>2020-07-26T12:05:26.320Z</time>
      </trkpt>
      <trkpt lat="61.18348" lon="5.31048">
        <ele>55.764451</ele>
        <time>2020-07-26T12:05:27.337Z</time>
      </trkpt>
      <trkpt lat="61.18355" lon="5.3106">
        <ele>55.749088</ele>
        <time>2020-07-26T12:05:28.332Z</time>
      </trkpt>
      <trkpt lat="61.18367" lon="5.31081">
        <ele>55.721545</ele>
        <time>2020-07-26T12:05:30.321Z</time>
      </trkpt>
      <trkpt lat="61.18378" lon="5.31104">
        <ele>55.695863</ele>
        <time>2020-07-26T12:05:32.301Z</time>
      </trkpt>
      <trkpt lat="61.18388" lon="5.31125">
        <ele>55.670891</ele>
        <time>2020-07-26T12:05:34.329Z</time>
      </trkpt>
      <trkpt lat="61.18397" lon="5.31147">
        <ele>55.647119</ele>
        <time>2020-07-26T12:05:36.366Z</time>
      </trkpt>
      <trkpt lat="61.18405" lon="5.31167">
        <ele>55.626117</ele>
        <time>2020-07-26T12:05:38.324Z</time>
      </trkpt>
      <trkpt lat="61.18412" lon="5.31186">
        <ele>55.605881</ele>
        <time>2020-07-26T12:05:40.343Z</time>
      </trkpt>
      <trkpt lat="61.18418" lon="5.31206">
        <ele>55.586794</ele>
        <time>2020-07-26T12:05:42.372Z</time>
      </trkpt>
      <trkpt lat="61.18424" lon="5.31226">
        <ele>55.681685</ele>
        <time>2020-07-26T12:05:44.336Z</time>
      </trkpt>
      <trkpt lat="61.18429" lon="5.31244">
        <ele>55.79868</ele>
        <time>2020-07-26T12:05:46.331Z</time>
      </trkpt>
      <trkpt lat="61.18434" lon="5.31261">
        <ele>55.912008</ele>
        <time>2020-07-26T12:05:48.344Z</time>
      </trkpt>
      <trkpt lat="61.18438" lon="5.31278">
        <ele>56.022247</ele>
        <time>2020-07-26T12:05:50.322Z</time>
      </trkpt>
      <trkpt lat="61.18444" lon="5.31302">
        <ele>56.176155</ele>
        <time>2020-07-26T12:05:53.331Z</time>
      </trkpt>
      <trkpt lat="61.18449" lon="5.31327">
        <ele>56.326245</ele>
        <time>2020-07-26T12:05:56.317Z</time>
      </trkpt>
      <trkpt lat="61.18456" lon="5.31351">
        <ele>56.482063</ele>
        <time>2020-07-26T12:05:59.345Z</time>
      </trkpt>
      <trkpt lat="61.18461" lon="5.31367">
        <ele>56.587318</ele>
        <time>2020-07-26T12:06:01.307Z</time>
      </trkpt>
      <trkpt lat="61.18469" lon="5.31389">
        <ele>56.745839</ele>
        <time>2020-07-26T12:06:04.323Z</time>
      </trkpt>
      <trkpt lat="61.18476" lon="5.31401">
        <ele>56.859122</ele>
        <time>2020-07-26T12:06:06.338Z</time>
      </trkpt>
      <trkpt lat="61.18487" lon="5.31416">
        <ele>57.010902</ele>
        <time>2020-07-26T12:06:09.321Z</time>
      </trkpt>
      <trkpt lat="61.18496" lon="5.31426">
        <ele>57.127469</ele>
        <time>2020-07-26T12:06:12.320Z</time>
      </trkpt>
      <trkpt lat="61.18506" lon="5.31432">
        <ele>57.249227</ele>
        <time>2020-07-26T12:06:17.303Z</time>
      </trkpt>
      <trkpt lat="61.18517" lon="5.31435">
        <ele>57.372623</ele>
        <time>2020-07-26T12:06:22.342Z</time>
      </trkpt>
      <trkpt lat="61.18527" lon="5.31434">
        <ele>57.496565</ele>
        <time>2020-07-26T12:06:26.325Z</time>
      </trkpt>
      <trkpt lat="61.18537" lon="5.31435">
        <ele>57.608849</ele>
        <time>2020-07-26T12:06:30.360Z</time>
      </trkpt>
      <trkpt lat="61.18546" lon="5.31433">
        <ele>57.814586</ele>
        <time>2020-07-26T12:06:34.315Z</time>
      </trkpt>
      <trkpt lat="61.18555" lon="5.31432">
        <ele>58.200697</ele>
        <time>2020-07-26T12:06:38.313Z</time>
      </trkpt>
      <trkpt lat="61.18566" lon="5.31428">
        <ele>58.653936</ele>
        <time>2020-07-26T12:06:43.313Z</time>
      </trkpt>
      <trkpt lat="61.18575" lon="5.31427">
        <ele>59.053977</ele>
        <time>2020-07-26T12:06:48.322Z</time>
      </trkpt>
      <trkpt lat="61.18586" lon="5.31427">
        <ele>59.525722</ele>
        <time>2020-07-26T12:06:54.310Z</time>
      </trkpt>
      <trkpt lat="61.18596" lon="5.31427">
        <ele>59.941735</ele>
        <time>2020-07-26T12:06:59.333Z</time>
      </trkpt>
      <trkpt lat="61.18606" lon="5.31424">
        <ele>60.370231</ele>
        <time>2020-07-26T12:07:04.318Z</time>
      </trkpt>
      <trkpt lat="61.18615" lon="5.31419">
        <ele>60.775127</ele>
        <time>2020-07-26T12:07:09.352Z</time>
      </trkpt>
      <trkpt lat="61.18625" lon="5.31415">
        <ele>61.203867</ele>
        <time>2020-07-26T12:07:15.326Z</time>
      </trkpt>
      <trkpt lat="61.18634" lon="5.31413">
        <ele>61.62757</ele>
        <time>2020-07-26T12:07:21.339Z</time>
      </trkpt>
      <trkpt lat="61.18644" lon="5.3141">
        <ele>62.025763</ele>
        <time>2020-07-26T12:07:25.327Z</time>
      </trkpt>
      <trkpt lat="61.18653" lon="5.31417">
        <ele>62.447286</ele>
        <time>2020-07-26T12:07:30.342Z</time>
      </trkpt>
      <trkpt lat="61.18671" lon="5.31402">
        <ele>63.280115</ele>
        <time>2020-07-26T12:07:44.387Z</time>
      </trkpt>
      <trkpt lat="61.18688" lon="5.31397">
        <ele>64.018306</ele>
        <time>2020-07-26T12:07:46.345Z</time>
      </trkpt>
      <trkpt lat="61.187" lon="5.31396">
        <ele>64.520495</ele>
        <time>2020-07-26T12:07:48.333Z</time>
      </trkpt>
      <trkpt lat="61.1871" lon="5.31395">
        <ele>64.958009</ele>
        <time>2020-07-26T12:07:50.316Z</time>
      </trkpt>
      <trkpt lat="61.1872" lon="5.31393">
        <ele>65.389321</ele>
        <time>2020-07-26T12:07:52.339Z</time>
      </trkpt>
      <trkpt lat="61.18732" lon="5.31392">
        <ele>65.10116</ele>
        <time>2020-07-26T12:07:54.322Z</time>
      </trkpt>
      <trkpt lat="61.18744" lon="5.31389">
        <ele>64.777787</ele>
        <time>2020-07-26T12:07:56.338Z</time>
      </trkpt>
      <trkpt lat="61.18757" lon="5.31387">
        <ele>64.447452</ele>
        <time>2020-07-26T12:07:58.325Z</time>
      </trkpt>
      <trkpt lat="61.18772" lon="5.31384">
        <ele>64.056231</ele>
        <time>2020-07-26T12:08:00.325Z</time>
      </trkpt>
      <trkpt lat="61.18787" lon="5.31381">
        <ele>63.662806</ele>
        <time>2020-07-26T12:08:02.324Z</time>
      </trkpt>
      <trkpt lat="61.18802" lon="5.31378">
        <ele>63.267028</ele>
        <time>2020-07-26T12:08:04.336Z</time>
      </trkpt>
      <trkpt lat="61.18819" lon="5.31376">
        <ele>62.820003</ele>
        <time>2020-07-26T12:08:06.306Z</time>
      </trkpt>
      <trkpt lat="61.18835" lon="5.31373">
        <ele>62.401171</ele>
        <time>2020-07-26T12:08:08.367Z</time>
      </trkpt>
      <trkpt lat="61.18852" lon="5.31367">
        <ele>61.959039</ele>
        <time>2020-07-26T12:08:10.321Z</time>
      </trkpt>
      <trkpt lat="61.18869" lon="5.31354">
        <ele>61.493743</ele>
        <time>2020-07-26T12:08:12.335Z</time>
      </trkpt>
      <trkpt lat="61.18877" lon="5.31344">
        <ele>61.254846</ele>
        <time>2020-07-26T12:08:13.324Z</time>
      </trkpt>
      <trkpt lat="61.18885" lon="5.31334">
        <ele>61.013703</ele>
        <time>2020-07-26T12:08:14.317Z</time>
      </trkpt>
      <trkpt lat="61.18892" lon="5.31322">
        <ele>60.766767</ele>
        <time>2020-07-26T12:08:15.316Z</time>
      </trkpt>
      <trkpt lat="61.18899" lon="5.31309">
        <ele>60.430601</ele>
        <time>2020-07-26T12:08:16.379Z</time>
      </trkpt>
      <trkpt lat="61.18909" lon="5.31279">
        <ele>59.763295</ele>
        <time>2020-07-26T12:08:18.317Z</time>
      </trkpt>
      <trkpt lat="61.18916" lon="5.31252">
        <ele>59.197427</ele>
        <time>2020-07-26T12:08:20.338Z</time>
      </trkpt>
      <trkpt lat="61.1892" lon="5.31225">
        <ele>58.666434</ele>
        <time>2020-07-26T12:08:22.333Z</time>
      </trkpt>
      <trkpt lat="61.1892" lon="5.31199">
        <ele>58.194853</ele>
        <time>2020-07-26T12:08:24.325Z</time>
      </trkpt>
      <trkpt lat="61.18917" lon="5.31176">
        <ele>57.760484</ele>
        <time>2020-07-26T12:08:26.309Z</time>
      </trkpt>
      <trkpt lat="61.18916" lon="5.31153">
        <ele>57.33876</ele>
        <time>2020-07-26T12:08:28.337Z</time>
      </trkpt>
      <trkpt lat="61.18915" lon="5.31133">
        <ele>56.968839</ele>
        <time>2020-07-26T12:08:30.321Z</time>
      </trkpt>
      <trkpt lat="61.18913" lon="5.31107">
        <ele>56.466241</ele>
        <time>2020-07-26T12:08:33.336Z</time>
      </trkpt>
      <trkpt lat="61.18912" lon="5.31081">
        <ele>55.994288</ele>
        <time>2020-07-26T12:08:36.328Z</time>
      </trkpt>
      <trkpt lat="61.18913" lon="5.31053">
        <ele>55.487017</ele>
        <time>2020-07-26T12:08:39.321Z</time>
      </trkpt>
      <trkpt lat="61.18912" lon="5.31034">
        <ele>55.120671</ele>
        <time>2020-07-26T12:08:41.309Z</time>
      </trkpt>
      <trkpt lat="61.18912" lon="5.31013">
        <ele>54.748576</ele>
        <time>2020-07-26T12:08:43.304Z</time>
      </trkpt>
      <trkpt lat="61.18914" lon="5.30993">
        <ele>54.375123</ele>
        <time>2020-07-26T12:08:45.307Z</time>
      </trkpt>
      <trkpt lat="61.18916" lon="5.30972">
        <ele>53.971771</ele>
        <time>2020-07-26T12:08:47.347Z</time>
      </trkpt>
      <trkpt lat="61.18917" lon="5.30951">
        <ele>54.013684</ele>
        <time>2020-07-26T12:08:49.316Z</time>
      </trkpt>
      <trkpt lat="61.1892" lon="5.30929">
        <ele>54.24394</ele>
        <time>2020-07-26T12:08:51.316Z</time>
      </trkpt>
      <trkpt lat="61.18923" lon="5.30909">
        <ele>54.459328</ele>
        <time>2020-07-26T12:08:53.308Z</time>
      </trkpt>
      <trkpt lat="61.18926" lon="5.3089">
        <ele>54.666295</ele>
        <time>2020-07-26T12:08:55.321Z</time>
      </trkpt>
      <trkpt lat="61.18929" lon="5.30864">
        <ele>54.932068</ele>
        <time>2020-07-26T12:08:58.336Z</time>
      </trkpt>
      <trkpt lat="61.18929" lon="5.30843">
        <ele>55.153547</ele>
        <time>2020-07-26T12:09:01.322Z</time>
      </trkpt>
      <trkpt lat="61.18931" lon="5.30821">
        <ele>55.376296</ele>
        <time>2020-07-26T12:09:04.324Z</time>
      </trkpt>
      <trkpt lat="61.18935" lon="5.308">
        <ele>55.609164</ele>
        <time>2020-07-26T12:09:07.325Z</time>
      </trkpt>
      <trkpt lat="61.18939" lon="5.30779">
        <ele>55.837873</ele>
        <time>2020-07-26T12:09:10.315Z</time>
      </trkpt>
      <trkpt lat="61.18941" lon="5.3076">
        <ele>56.038914</ele>
        <time>2020-07-26T12:09:13.319Z</time>
      </trkpt>
      <trkpt lat="61.18942" lon="5.30739">
        <ele>56.253725</ele>
        <time>2020-07-26T12:09:17.310Z</time>
      </trkpt>
      <trkpt lat="61.18944" lon="5.3072">
        <ele>56.453666</ele>
        <time>2020-07-26T12:09:21.337Z</time>
      </trkpt>
      <trkpt lat="61.18948" lon="5.30701">
        <ele>56.666049</ele>
        <time>2020-07-26T12:09:25.319Z</time>
      </trkpt>
      <trkpt lat="61.1895" lon="5.30679">
        <ele>56.89143</ele>
        <time>2020-07-26T12:09:30.330Z</time>
      </trkpt>
      <trkpt lat="61.18952" lon="5.30661">
        <ele>57.084412</ele>
        <time>2020-07-26T12:09:35.330Z</time>
      </trkpt>
      <trkpt lat="61.18957" lon="5.30641">
        <ele>57.307842</ele>
        <time>2020-07-26T12:09:40.318Z</time>
      </trkpt>
      <trkpt lat="61.1896" lon="5.3062">
        <ele>57.533656</ele>
        <time>2020-07-26T12:09:45.317Z</time>
      </trkpt>
      <trkpt lat="61.18963" lon="5.30601">
        <ele>57.935636</ele>
        <time>2020-07-26T12:09:50.370Z</time>
      </trkpt>
      <trkpt lat="61.18963" lon="5.30582">
        <ele>58.680791</ele>
        <time>2020-07-26T12:09:55.322Z</time>
      </trkpt>
      <trkpt lat="61.18967" lon="5.30563">
        <ele>59.485123</ele>
        <time>2020-07-26T12:10:00.348Z</time>
      </trkpt>
      <trkpt lat="61.18971" lon="5.30545">
        <ele>60.26594</ele>
        <time>2020-07-26T12:10:06.312Z</time>
      </trkpt>
      <trkpt lat="61.18969" lon="5.30525">
        <ele>61.070189</ele>
        <time>2020-07-26T12:10:12.305Z</time>
      </trkpt>
      <trkpt lat="61.18972" lon="5.30507">
        <ele>61.811895</ele>
        <time>2020-07-26T12:10:17.315Z</time>
      </trkpt>
      <trkpt lat="61.18975" lon="5.30487">
        <ele>62.639943</ele>
        <time>2020-07-26T12:10:23.479Z</time>
      </trkpt>
      <trkpt lat="61.18979" lon="5.30466">
        <ele>63.496585</ele>
        <time>2020-07-26T12:10:29.339Z</time>
      </trkpt>
      <trkpt lat="61.18983" lon="5.3045">
        <ele>64.245749</ele>
        <time>2020-07-26T12:10:34.312Z</time>
      </trkpt>
      <trkpt lat="61.18989" lon="5.30434">
        <ele>65.009192</ele>
        <time>2020-07-26T12:10:39.322Z</time>
      </trkpt>
      <trkpt lat="61.18989" lon="5.30414">
        <ele>65.795625</ele>
        <time>2020-07-26T12:10:44.316Z</time>
      </trkpt>
      <trkpt lat="61.18994" lon="5.30396">
        <ele>66.64937</ele>
        <time>2020-07-26T12:10:50.324Z</time>
      </trkpt>
      <trkpt lat="61.18998" lon="5.30379">
        <ele>67.402432</ele>
        <time>2020-07-26T12:10:56.332Z</time>
      </trkpt>
      <trkpt lat="61.19004" lon="5.30364">
        <ele>68.166951</ele>
        <time>2020-07-26T12:11:01.342Z</time>
      </trkpt>
      <trkpt lat="61.1901" lon="5.30348">
        <ele>68.938515</ele>
        <time>2020-07-26T12:11:06.317Z</time>
      </trkpt>
      <trkpt lat="61.19013" lon="5.3033">
        <ele>69.715186</ele>
        <time>2020-07-26T12:11:11.303Z</time>
      </trkpt>
      <trkpt lat="61.19017" lon="5.30312">
        <ele>70.450612</ele>
        <time>2020-07-26T12:11:15.337Z</time>
      </trkpt>
      <trkpt lat="61.19022" lon="5.30293">
        <ele>71.337492</ele>
        <time>2020-07-26T12:11:20.317Z</time>
      </trkpt>
      <trkpt lat="61.19026" lon="5.30272">
        <ele>72.222458</ele>
        <time>2020-07-26T12:11:26.332Z</time>
      </trkpt>
      <trkpt lat="61.19032" lon="5.30253">
        <ele>72.67953</ele>
        <time>2020-07-26T12:11:31.353Z</time>
      </trkpt>
      <trkpt lat="61.19037" lon="5.30238">
        <ele>73.032056</ele>
        <time>2020-07-26T12:11:35.312Z</time>
      </trkpt>
      <trkpt lat="61.19044" lon="5.3022">
        <ele>73.449052</ele>
        <time>2020-07-26T12:11:40.315Z</time>
      </trkpt>
      <trkpt lat="61.19048" lon="5.30204">
        <ele>73.798165</ele>
        <time>2020-07-26T12:11:44.319Z</time>
      </trkpt>
      <trkpt lat="61.19052" lon="5.30184">
        <ele>74.209488</ele>
        <time>2020-07-26T12:11:49.338Z</time>
      </trkpt>
      <trkpt lat="61.19057" lon="5.30163">
        <ele>74.642773</ele>
        <time>2020-07-26T12:11:54.316Z</time>
      </trkpt>
      <trkpt lat="61.19065" lon="5.30147">
        <ele>75.046894</ele>
        <time>2020-07-26T12:11:58.329Z</time>
      </trkpt>
      <trkpt lat="61.19072" lon="5.30131">
        <ele>75.464488</ele>
        <time>2020-07-26T12:12:02.319Z</time>
      </trkpt>
      <trkpt lat="61.19078" lon="5.30114">
        <ele>75.874648</ele>
        <time>2020-07-26T12:12:06.326Z</time>
      </trkpt>
      <trkpt lat="61.19084" lon="5.30096">
        <ele>76.281919</ele>
        <time>2020-07-26T12:12:10.316Z</time>
      </trkpt>
      <trkpt lat="61.1909" lon="5.3008">
        <ele>76.655334</ele>
        <time>2020-07-26T12:12:14.337Z</time>
      </trkpt>
      <trkpt lat="61.19096" lon="5.30062">
        <ele>77.057328</ele>
        <time>2020-07-26T12:12:19.311Z</time>
      </trkpt>
      <trkpt lat="61.19102" lon="5.30045">
        <ele>77.45798</ele>
        <time>2020-07-26T12:12:24.374Z</time>
      </trkpt>
      <trkpt lat="61.1911" lon="5.30032">
        <ele>77.867859</ele>
        <time>2020-07-26T12:12:28.320Z</time>
      </trkpt>
      <trkpt lat="61.19118" lon="5.30016">
        <ele>78.27333</ele>
        <time>2020-07-26T12:12:32.316Z</time>
      </trkpt>
      <trkpt lat="61.19124" lon="5.29998">
        <ele>78.696823</ele>
        <time>2020-07-26T12:12:36.365Z</time>
      </trkpt>
      <trkpt lat="61.19131" lon="5.29982">
        <ele>79.090662</ele>
        <time>2020-07-26T12:12:40.323Z</time>
      </trkpt>
      <trkpt lat="61.19137" lon="5.29963">
        <ele>79.387454</ele>
        <time>2020-07-26T12:12:44.312Z</time>
      </trkpt>
      <trkpt lat="61.19144" lon="5.29946">
        <ele>79.552805</ele>
        <time>2020-07-26T12:12:48.335Z</time>
      </trkpt>
      <trkpt lat="61.19151" lon="5.29933">
        <ele>79.700045</ele>
        <time>2020-07-26T12:12:52.323Z</time>
      </trkpt>
      <trkpt lat="61.19158" lon="5.29917">
        <ele>79.864148</ele>
        <time>2020-07-26T12:12:56.302Z</time>
      </trkpt>
      <trkpt lat="61.19164" lon="5.29903">
        <ele>80.012494</ele>
        <time>2020-07-26T12:13:00.335Z</time>
      </trkpt>
      <trkpt lat="61.1917" lon="5.29888">
        <ele>80.159226</ele>
        <time>2020-07-26T12:13:04.342Z</time>
      </trkpt>
      <trkpt lat="61.19177" lon="5.29873">
        <ele>80.32225</ele>
        <time>2020-07-26T12:13:08.311Z</time>
      </trkpt>
      <trkpt lat="61.19186" lon="5.29859">
        <ele>80.492714</ele>
        <time>2020-07-26T12:13:12.354Z</time>
      </trkpt>
      <trkpt lat="61.19193" lon="5.29841">
        <ele>80.672862</ele>
        <time>2020-07-26T12:13:17.326Z</time>
      </trkpt>
      <trkpt lat="61.192" lon="5.29826">
        <ele>80.829789</ele>
        <time>2020-07-26T12:13:21.341Z</time>
      </trkpt>
      <trkpt lat="61.19207" lon="5.29809">
        <ele>81.001364</ele>
        <time>2020-07-26T12:13:26.329Z</time>
      </trkpt>
      <trkpt lat="61.19216" lon="5.29795">
        <ele>81.178437</ele>
        <time>2020-07-26T12:13:31.329Z</time>
      </trkpt>
      <trkpt lat="61.19226" lon="5.2978">
        <ele>81.37072</ele>
        <time>2020-07-26T12:13:36.340Z</time>
      </trkpt>
      <trkpt lat="61.19233" lon="5.29767">
        <ele>81.528598</ele>
        <time>2020-07-26T12:13:40.328Z</time>
      </trkpt>
      <trkpt lat="61.19241" lon="5.2975">
        <ele>81.707114</ele>
        <time>2020-07-26T12:13:45.302Z</time>
      </trkpt>
      <trkpt lat="61.19248" lon="5.29738">
        <ele>81.8528</ele>
        <time>2020-07-26T12:13:48.341Z</time>
      </trkpt>
      <trkpt lat="61.19255" lon="5.29724">
        <ele>82.000993</ele>
        <time>2020-07-26T12:13:51.357Z</time>
      </trkpt>
      <trkpt lat="61.19262" lon="5.29708">
        <ele>82.008662</ele>
        <time>2020-07-26T12:13:54.318Z</time>
      </trkpt>
      <trkpt lat="61.19269" lon="5.29691">
        <ele>80.969395</ele>
        <time>2020-07-26T12:13:57.325Z</time>
      </trkpt>
      <trkpt lat="61.19276" lon="5.29673">
        <ele>79.905253</ele>
        <time>2020-07-26T12:14:00.358Z</time>
      </trkpt>
      <trkpt lat="61.19283" lon="5.29657">
        <ele>78.957226</ele>
        <time>2020-07-26T12:14:03.342Z</time>
      </trkpt>
      <trkpt lat="61.19289" lon="5.2964">
        <ele>77.988705</ele>
        <time>2020-07-26T12:14:06.334Z</time>
      </trkpt>
      <trkpt lat="61.19296" lon="5.29626">
        <ele>77.082766</ele>
        <time>2020-07-26T12:14:09.344Z</time>
      </trkpt>
      <trkpt lat="61.19303" lon="5.29611">
        <ele>76.131316</ele>
        <time>2020-07-26T12:14:12.340Z</time>
      </trkpt>
      <trkpt lat="61.1931" lon="5.29594">
        <ele>75.183268</ele>
        <time>2020-07-26T12:14:15.340Z</time>
      </trkpt>
      <trkpt lat="61.19318" lon="5.2958">
        <ele>74.17936</ele>
        <time>2020-07-26T12:14:18.343Z</time>
      </trkpt>
      <trkpt lat="61.19325" lon="5.29566">
        <ele>73.270074</ele>
        <time>2020-07-26T12:14:21.311Z</time>
      </trkpt>
      <trkpt lat="61.19332" lon="5.29552">
        <ele>72.362099</ele>
        <time>2020-07-26T12:14:24.332Z</time>
      </trkpt>
      <trkpt lat="61.19338" lon="5.29538">
        <ele>71.478998</ele>
        <time>2020-07-26T12:14:27.334Z</time>
      </trkpt>
      <trkpt lat="61.19344" lon="5.29523">
        <ele>70.604922</ele>
        <time>2020-07-26T12:14:30.318Z</time>
      </trkpt>
      <trkpt lat="61.19351" lon="5.29506">
        <ele>69.590052</ele>
        <time>2020-07-26T12:14:34.313Z</time>
      </trkpt>
      <trkpt lat="61.19358" lon="5.29488">
        <ele>68.556491</ele>
        <time>2020-07-26T12:14:38.312Z</time>
      </trkpt>
      <trkpt lat="61.19366" lon="5.29472">
        <ele>67.524678</ele>
        <time>2020-07-26T12:14:42.329Z</time>
      </trkpt>
      <trkpt lat="61.19373" lon="5.29459">
        <ele>66.628699</ele>
        <time>2020-07-26T12:14:45.318Z</time>
      </trkpt>
      <trkpt lat="61.19382" lon="5.29445">
        <ele>65.590216</ele>
        <time>2020-07-26T12:14:48.360Z</time>
      </trkpt>
      <trkpt lat="61.19392" lon="5.29431">
        <ele>65.793493</ele>
        <time>2020-07-26T12:14:51.322Z</time>
      </trkpt>
      <trkpt lat="61.19401" lon="5.29422">
        <ele>66.330097</ele>
        <time>2020-07-26T12:14:53.330Z</time>
      </trkpt>
      <trkpt lat="61.19412" lon="5.29412">
        <ele>66.974314</ele>
        <time>2020-07-26T12:14:55.323Z</time>
      </trkpt>
      <trkpt lat="61.19423" lon="5.294">
        <ele>67.679377</ele>
        <time>2020-07-26T12:14:57.309Z</time>
      </trkpt>
      <trkpt lat="61.19436" lon="5.29386">
        <ele>68.467279</ele>
        <time>2020-07-26T12:14:59.327Z</time>
      </trkpt>
      <trkpt lat="61.19449" lon="5.29369">
        <ele>69.295947</ele>
        <time>2020-07-26T12:15:01.319Z</time>
      </trkpt>
      <trkpt lat="61.19462" lon="5.29351">
        <ele>70.122204</ele>
        <time>2020-07-26T12:15:03.308Z</time>
      </trkpt>
      <trkpt lat="61.19472" lon="5.29332">
        <ele>70.871663</ele>
        <time>2020-07-26T12:15:05.370Z</time>
      </trkpt>
      <trkpt lat="61.19481" lon="5.2931">
        <ele>71.624276</ele>
        <time>2020-07-26T12:15:07.329Z</time>
      </trkpt>
      <trkpt lat="61.19489" lon="5.2929">
        <ele>72.289052</ele>
        <time>2020-07-26T12:15:09.332Z</time>
      </trkpt>
      <trkpt lat="61.19496" lon="5.2927">
        <ele>72.960422</ele>
        <time>2020-07-26T12:15:11.326Z</time>
      </trkpt>
      <trkpt lat="61.19505" lon="5.29249">
        <ele>73.694403</ele>
        <time>2020-07-26T12:15:13.321Z</time>
      </trkpt>
      <trkpt lat="61.19514" lon="5.29228">
        <ele>74.409194</ele>
        <time>2020-07-26T12:15:15.321Z</time>
      </trkpt>
      <trkpt lat="61.19522" lon="5.29207">
        <ele>75.120766</ele>
        <time>2020-07-26T12:15:17.323Z</time>
      </trkpt>
      <trkpt lat="61.19529" lon="5.29188">
        <ele>75.855646</ele>
        <time>2020-07-26T12:15:19.357Z</time>
      </trkpt>
      <trkpt lat="61.19535" lon="5.29171">
        <ele>76.497651</ele>
        <time>2020-07-26T12:15:21.308Z</time>
      </trkpt>
      <trkpt lat="61.19541" lon="5.29156">
        <ele>77.079229</ele>
        <time>2020-07-26T12:15:23.310Z</time>
      </trkpt>
      <trkpt lat="61.19548" lon="5.29132">
        <ele>77.916435</ele>
        <time>2020-07-26T12:15:26.352Z</time>
      </trkpt>
      <trkpt lat="61.19553" lon="5.29117">
        <ele>78.489432</ele>
        <time>2020-07-26T12:15:28.321Z</time>
      </trkpt>
      <trkpt lat="61.19559" lon="5.29102">
        <ele>79.089571</ele>
        <time>2020-07-26T12:15:30.309Z</time>
      </trkpt>
      <trkpt lat="61.19565" lon="5.29087">
        <ele>79.659656</ele>
        <time>2020-07-26T12:15:32.332Z</time>
      </trkpt>
      <trkpt lat="61.19573" lon="5.29064">
        <ele>80.499389</ele>
        <time>2020-07-26T12:15:35.323Z</time>
      </trkpt>
      <trkpt lat="61.19578" lon="5.29049">
        <ele>81.077475</ele>
        <time>2020-07-26T12:15:37.322Z</time>
      </trkpt>
      <trkpt lat="61.19583" lon="5.29033">
        <ele>81.66625</ele>
        <time>2020-07-26T12:15:39.330Z</time>
      </trkpt>
      <trkpt lat="61.19588" lon="5.29018">
        <ele>82.236755</ele>
        <time>2020-07-26T12:15:41.304Z</time>
      </trkpt>
      <trkpt lat="61.19596" lon="5.28996">
        <ele>83.063276</ele>
        <time>2020-07-26T12:15:44.328Z</time>
      </trkpt>
      <trkpt lat="61.19604" lon="5.28974">
        <ele>83.874764</ele>
        <time>2020-07-26T12:15:47.341Z</time>
      </trkpt>
      <trkpt lat="61.19611" lon="5.28952">
        <ele>84.665165</ele>
        <time>2020-07-26T12:15:50.312Z</time>
      </trkpt>
      <trkpt lat="61.19617" lon="5.2893">
        <ele>85.464304</ele>
        <time>2020-07-26T12:15:53.316Z</time>
      </trkpt>
      <trkpt lat="61.19625" lon="5.28907">
        <ele>86.311531</ele>
        <time>2020-07-26T12:15:56.347Z</time>
      </trkpt>
      <trkpt lat="61.19632" lon="5.28888">
        <ele>86.300357</ele>
        <time>2020-07-26T12:15:59.361Z</time>
      </trkpt>
      <trkpt lat="61.19638" lon="5.28872">
        <ele>86.21322</ele>
        <time>2020-07-26T12:16:02.329Z</time>
      </trkpt>
      <trkpt lat="61.19644" lon="5.28858">
        <ele>86.136929</ele>
        <time>2020-07-26T12:16:05.334Z</time>
      </trkpt>
      <trkpt lat="61.19652" lon="5.28842">
        <ele>86.049336</ele>
        <time>2020-07-26T12:16:08.333Z</time>
      </trkpt>
      <trkpt lat="61.19657" lon="5.28821">
        <ele>85.948412</ele>
        <time>2020-07-26T12:16:12.323Z</time>
      </trkpt>
      <trkpt lat="61.19663" lon="5.28804">
        <ele>85.862733</ele>
        <time>2020-07-26T12:16:15.329Z</time>
      </trkpt>
      <trkpt lat="61.19669" lon="5.28789">
        <ele>85.785816</ele>
        <time>2020-07-26T12:16:18.311Z</time>
      </trkpt>
      <trkpt lat="61.19675" lon="5.2877">
        <ele>85.693425</ele>
        <time>2020-07-26T12:16:22.314Z</time>
      </trkpt>
      <trkpt lat="61.1968" lon="5.28752">
        <ele>85.608815</ele>
        <time>2020-07-26T12:16:26.340Z</time>
      </trkpt>
      <trkpt lat="61.19686" lon="5.28737">
        <ele>85.530635</ele>
        <time>2020-07-26T12:16:29.318Z</time>
      </trkpt>
      <trkpt lat="61.19693" lon="5.28721">
        <ele>85.443189</ele>
        <time>2020-07-26T12:16:32.352Z</time>
      </trkpt>
      <trkpt lat="61.197" lon="5.28706">
        <ele>85.356784</ele>
        <time>2020-07-26T12:16:35.337Z</time>
      </trkpt>
      <trkpt lat="61.19707" lon="5.28691">
        <ele>85.26912</ele>
        <time>2020-07-26T12:16:38.349Z</time>
      </trkpt>
      <trkpt lat="61.19716" lon="5.28677">
        <ele>85.173687</ele>
        <time>2020-07-26T12:16:41.322Z</time>
      </trkpt>
      <trkpt lat="61.19725" lon="5.28661">
        <ele>85.074744</ele>
        <time>2020-07-26T12:16:44.333Z</time>
      </trkpt>
      <trkpt lat="61.19734" lon="5.28647">
        <ele>84.980736</ele>
        <time>2020-07-26T12:16:47.369Z</time>
      </trkpt>
      <trkpt lat="61.19743" lon="5.2863">
        <ele>84.873437</ele>
        <time>2020-07-26T12:16:50.325Z</time>
      </trkpt>
      <trkpt lat="61.19754" lon="5.28615">
        <ele>84.276335</ele>
        <time>2020-07-26T12:16:53.317Z</time>
      </trkpt>
      <trkpt lat="61.19765" lon="5.28599">
        <ele>83.601954</ele>
        <time>2020-07-26T12:16:56.311Z</time>
      </trkpt>
      <trkpt lat="61.19774" lon="5.28588">
        <ele>83.068754</ele>
        <time>2020-07-26T12:16:58.354Z</time>
      </trkpt>
      <trkpt lat="61.19782" lon="5.28576">
        <ele>82.542103</ele>
        <time>2020-07-26T12:17:00.337Z</time>
      </trkpt>
      <trkpt lat="61.19792" lon="5.28563">
        <ele>81.94454</ele>
        <time>2020-07-26T12:17:02.348Z</time>
      </trkpt>
      <trkpt lat="61.19802" lon="5.28548">
        <ele>81.323255</ele>
        <time>2020-07-26T12:17:04.313Z</time>
      </trkpt>
      <trkpt lat="61.19813" lon="5.28532">
        <ele>80.651016</ele>
        <time>2020-07-26T12:17:06.312Z</time>
      </trkpt>
      <trkpt lat="61.19823" lon="5.28512">
        <ele>79.93721</ele>
        <time>2020-07-26T12:17:08.324Z</time>
      </trkpt>
      <trkpt lat="61.19832" lon="5.28489">
        <ele>79.199311</ele>
        <time>2020-07-26T12:17:10.322Z</time>
      </trkpt>
      <trkpt lat="61.1984" lon="5.28463">
        <ele>78.46355</ele>
        <time>2020-07-26T12:17:12.326Z</time>
      </trkpt>
      <trkpt lat="61.19847" lon="5.28437">
        <ele>77.732349</ele>
        <time>2020-07-26T12:17:14.352Z</time>
      </trkpt>
      <trkpt lat="61.19854" lon="5.2841">
        <ele>76.957885</ele>
        <time>2020-07-26T12:17:16.307Z</time>
      </trkpt>
      <trkpt lat="61.19862" lon="5.28379">
        <ele>76.115137</ele>
        <time>2020-07-26T12:17:18.321Z</time>
      </trkpt>
      <trkpt lat="61.19871" lon="5.28346">
        <ele>75.036184</ele>
        <time>2020-07-26T12:17:20.379Z</time>
      </trkpt>
      <trkpt lat="61.19875" lon="5.28329">
        <ele>74.411048</ele>
        <time>2020-07-26T12:17:21.304Z</time>
      </trkpt>
      <trkpt lat="61.1988" lon="5.28311">
        <ele>73.755021</ele>
        <time>2020-07-26T12:17:22.314Z</time>
      </trkpt>
      <trkpt lat="61.19886" lon="5.28293">
        <ele>73.060933</ele>
        <time>2020-07-26T12:17:23.332Z</time>
      </trkpt>
      <trkpt lat="61.1989" lon="5.28273">
        <ele>72.374681</ele>
        <time>2020-07-26T12:17:24.338Z</time>
      </trkpt>
      <trkpt lat="61.19895" lon="5.28253">
        <ele>71.668062</ele>
        <time>2020-07-26T12:17:25.359Z</time>
      </trkpt>
      <trkpt lat="61.19898" lon="5.28232">
        <ele>70.935329</ele>
        <time>2020-07-26T12:17:26.339Z</time>
      </trkpt>
      <trkpt lat="61.19901" lon="5.28209">
        <ele>70.205738</ele>
        <time>2020-07-26T12:17:27.325Z</time>
      </trkpt>
      <trkpt lat="61.19903" lon="5.28187">
        <ele>69.492607</ele>
        <time>2020-07-26T12:17:28.329Z</time>
      </trkpt>
      <trkpt lat="61.19904" lon="5.28167">
        <ele>68.83504</ele>
        <time>2020-07-26T12:17:29.333Z</time>
      </trkpt>
      <trkpt lat="61.19906" lon="5.28148">
        <ele>68.221142</ele>
        <time>2020-07-26T12:17:30.314Z</time>
      </trkpt>
      <trkpt lat="61.19912" lon="5.28115">
        <ele>67.104571</ele>
        <time>2020-07-26T12:17:32.339Z</time>
      </trkpt>
      <trkpt lat="61.1992" lon="5.28086">
        <ele>66.038393</ele>
        <time>2020-07-26T12:17:34.337Z</time>
      </trkpt>
      <trkpt lat="61.19931" lon="5.28057">
        <ele>64.86844</ele>
        <time>2020-07-26T12:17:36.349Z</time>
      </trkpt>
      <trkpt lat="61.1994" lon="5.28026">
        <ele>63.766308</ele>
        <time>2020-07-26T12:17:38.343Z</time>
      </trkpt>
      <trkpt lat="61.19947" lon="5.27994">
        <ele>63.2407</ele>
        <time>2020-07-26T12:17:40.320Z</time>
      </trkpt>
      <trkpt lat="61.19953" lon="5.27979">
        <ele>62.965562</ele>
        <time>2020-07-26T12:17:41.311Z</time>
      </trkpt>
      <trkpt lat="61.19959" lon="5.27965">
        <ele>62.686048</ele>
        <time>2020-07-26T12:17:42.336Z</time>
      </trkpt>
      <trkpt lat="61.19965" lon="5.27951">
        <ele>62.403951</ele>
        <time>2020-07-26T12:17:43.330Z</time>
      </trkpt>
      <trkpt lat="61.19977" lon="5.27923">
        <ele>61.854382</ele>
        <time>2020-07-26T12:17:45.324Z</time>
      </trkpt>
      <trkpt lat="61.19984" lon="5.2791">
        <ele>61.566272</ele>
        <time>2020-07-26T12:17:46.328Z</time>
      </trkpt>
      <trkpt lat="61.19991" lon="5.27897">
        <ele>61.274905</ele>
        <time>2020-07-26T12:17:47.361Z</time>
      </trkpt>
      <trkpt lat="61.19998" lon="5.27883">
        <ele>60.983022</ele>
        <time>2020-07-26T12:17:48.310Z</time>
      </trkpt>
      <trkpt lat="61.20005" lon="5.27869">
        <ele>60.692409</ele>
        <time>2020-07-26T12:17:49.347Z</time>
      </trkpt>
      <trkpt lat="61.20012" lon="5.27855">
        <ele>60.399634</ele>
        <time>2020-07-26T12:17:50.316Z</time>
      </trkpt>
      <trkpt lat="61.20019" lon="5.27842">
        <ele>60.112793</ele>
        <time>2020-07-26T12:17:51.312Z</time>
      </trkpt>
      <trkpt lat="61.20025" lon="5.27829">
        <ele>59.825952</ele>
        <time>2020-07-26T12:17:52.341Z</time>
      </trkpt>
      <trkpt lat="61.20033" lon="5.27816">
        <ele>59.535566</ele>
        <time>2020-07-26T12:17:53.321Z</time>
      </trkpt>
      <trkpt lat="61.20039" lon="5.27803">
        <ele>59.25197</ele>
        <time>2020-07-26T12:17:54.337Z</time>
      </trkpt>
      <trkpt lat="61.20046" lon="5.2779">
        <ele>58.963533</ele>
        <time>2020-07-26T12:17:55.309Z</time>
      </trkpt>
      <trkpt lat="61.20054" lon="5.27777">
        <ele>58.670856</ele>
        <time>2020-07-26T12:17:56.360Z</time>
      </trkpt>
      <trkpt lat="61.20061" lon="5.27763">
        <ele>58.382013</ele>
        <time>2020-07-26T12:17:57.345Z</time>
      </trkpt>
      <trkpt lat="61.20067" lon="5.2775">
        <ele>58.395188</ele>
        <time>2020-07-26T12:17:58.347Z</time>
      </trkpt>
      <trkpt lat="61.20079" lon="5.27722">
        <ele>58.634385</ele>
        <time>2020-07-26T12:18:00.316Z</time>
      </trkpt>
      <trkpt lat="61.20089" lon="5.27693">
        <ele>58.868615</ele>
        <time>2020-07-26T12:18:02.330Z</time>
      </trkpt>
      <trkpt lat="61.20097" lon="5.27665">
        <ele>59.083421</ele>
        <time>2020-07-26T12:18:04.334Z</time>
      </trkpt>
      <trkpt lat="61.20104" lon="5.27637">
        <ele>59.286933</ele>
        <time>2020-07-26T12:18:06.321Z</time>
      </trkpt>
      <trkpt lat="61.20107" lon="5.27611">
        <ele>59.457111</ele>
        <time>2020-07-26T12:18:08.332Z</time>
      </trkpt>
      <trkpt lat="61.2011" lon="5.27589">
        <ele>59.604015</ele>
        <time>2020-07-26T12:18:10.325Z</time>
      </trkpt>
      <trkpt lat="61.20112" lon="5.27571">
        <ele>59.727647</ele>
        <time>2020-07-26T12:18:12.332Z</time>
      </trkpt>
      <trkpt lat="61.20116" lon="5.27548">
        <ele>59.880641</ele>
        <time>2020-07-26T12:18:15.336Z</time>
      </trkpt>
      <trkpt lat="61.20119" lon="5.27528">
        <ele>60.021986</ele>
        <time>2020-07-26T12:18:18.328Z</time>
      </trkpt>
      <trkpt lat="61.20122" lon="5.27504">
        <ele>60.17927</ele>
        <time>2020-07-26T12:18:22.324Z</time>
      </trkpt>
      <trkpt lat="61.20122" lon="5.27484">
        <ele>60.307398</ele>
        <time>2020-07-26T12:18:25.312Z</time>
      </trkpt>
      <trkpt lat="61.20124" lon="5.27461">
        <ele>60.458131</ele>
        <time>2020-07-26T12:18:28.327Z</time>
      </trkpt>
      <trkpt lat="61.2013" lon="5.27438">
        <ele>60.623693</ele>
        <time>2020-07-26T12:18:31.324Z</time>
      </trkpt>
      <trkpt lat="61.20134" lon="5.27422">
        <ele>60.746337</ele>
        <time>2020-07-26T12:18:33.308Z</time>
      </trkpt>
      <trkpt lat="61.20139" lon="5.27404">
        <ele>60.876288</ele>
        <time>2020-07-26T12:18:35.332Z</time>
      </trkpt>
      <trkpt lat="61.20144" lon="5.27387">
        <ele>61.003364</ele>
        <time>2020-07-26T12:18:37.337Z</time>
      </trkpt>
      <trkpt lat="61.2015" lon="5.27371">
        <ele>61.130863</ele>
        <time>2020-07-26T12:18:39.316Z</time>
      </trkpt>
      <trkpt lat="61.20156" lon="5.27355">
        <ele>61.260022</ele>
        <time>2020-07-26T12:18:41.309Z</time>
      </trkpt>
      <trkpt lat="61.20162" lon="5.27339">
        <ele>61.388864</ele>
        <time>2020-07-26T12:18:43.319Z</time>
      </trkpt>
      <trkpt lat="61.20169" lon="5.27322">
        <ele>61.529632</ele>
        <time>2020-07-26T12:18:45.332Z</time>
      </trkpt>
      <trkpt lat="61.20177" lon="5.27302">
        <ele>61.691903</ele>
        <time>2020-07-26T12:18:47.338Z</time>
      </trkpt>
      <trkpt lat="61.20185" lon="5.27282">
        <ele>61.857447</ele>
        <time>2020-07-26T12:18:49.321Z</time>
      </trkpt>
      <trkpt lat="61.20193" lon="5.27264">
        <ele>62.016258</ele>
        <time>2020-07-26T12:18:51.354Z</time>
      </trkpt>
      <trkpt lat="61.202" lon="5.27246">
        <ele>62.168446</ele>
        <time>2020-07-26T12:18:53.317Z</time>
      </trkpt>
      <trkpt lat="61.20207" lon="5.27231">
        <ele>62.298475</ele>
        <time>2020-07-26T12:18:55.348Z</time>
      </trkpt>
      <trkpt lat="61.20213" lon="5.27216">
        <ele>62.424798</ele>
        <time>2020-07-26T12:18:57.341Z</time>
      </trkpt>
      <trkpt lat="61.2022" lon="5.27201">
        <ele>62.555299</ele>
        <time>2020-07-26T12:18:59.311Z</time>
      </trkpt>
      <trkpt lat="61.20227" lon="5.27186">
        <ele>62.684799</ele>
        <time>2020-07-26T12:19:01.348Z</time>
      </trkpt>
      <trkpt lat="61.20234" lon="5.27171">
        <ele>62.814314</ele>
        <time>2020-07-26T12:19:03.312Z</time>
      </trkpt>
      <trkpt lat="61.2024" lon="5.27157">
        <ele>62.940614</ele>
        <time>2020-07-26T12:19:05.360Z</time>
      </trkpt>
      <trkpt lat="61.20247" lon="5.27143">
        <ele>63.066557</ele>
        <time>2020-07-26T12:19:07.317Z</time>
      </trkpt>
      <trkpt lat="61.20254" lon="5.2713">
        <ele>62.926432</ele>
        <time>2020-07-26T12:19:09.346Z</time>
      </trkpt>
      <trkpt lat="61.2026" lon="5.27116">
        <ele>62.70321</ele>
        <time>2020-07-26T12:19:11.325Z</time>
      </trkpt>
      <trkpt lat="61.20266" lon="5.27103">
        <ele>62.480039</ele>
        <time>2020-07-26T12:19:13.313Z</time>
      </trkpt>
      <trkpt lat="61.20274" lon="5.27084">
        <ele>62.176313</ele>
        <time>2020-07-26T12:19:16.314Z</time>
      </trkpt>
      <trkpt lat="61.20281" lon="5.27062">
        <ele>61.86784</ele>
        <time>2020-07-26T12:19:19.317Z</time>
      </trkpt>
      <trkpt lat="61.20286" lon="5.27046">
        <ele>61.644763</ele>
        <time>2020-07-26T12:19:21.323Z</time>
      </trkpt>
      <trkpt lat="61.20292" lon="5.27031">
        <ele>61.404988</ele>
        <time>2020-07-26T12:19:23.331Z</time>
      </trkpt>
      <trkpt lat="61.20298" lon="5.27015">
        <ele>61.176875</ele>
        <time>2020-07-26T12:19:25.334Z</time>
      </trkpt>
      <trkpt lat="61.20306" lon="5.26994">
        <ele>60.854921</ele>
        <time>2020-07-26T12:19:28.339Z</time>
      </trkpt>
      <trkpt lat="61.20313" lon="5.26975">
        <ele>60.570593</ele>
        <time>2020-07-26T12:19:31.315Z</time>
      </trkpt>
      <trkpt lat="61.20319" lon="5.2696">
        <ele>60.338531</ele>
        <time>2020-07-26T12:19:34.335Z</time>
      </trkpt>
      <trkpt lat="61.20327" lon="5.26941">
        <ele>60.049667</ele>
        <time>2020-07-26T12:19:37.343Z</time>
      </trkpt>
      <trkpt lat="61.20336" lon="5.26919">
        <ele>59.703396</ele>
        <time>2020-07-26T12:19:40.324Z</time>
      </trkpt>
      <trkpt lat="61.20342" lon="5.26904">
        <ele>59.46571</ele>
        <time>2020-07-26T12:19:42.361Z</time>
      </trkpt>
      <trkpt lat="61.20349" lon="5.26889">
        <ele>59.218485</ele>
        <time>2020-07-26T12:19:44.349Z</time>
      </trkpt>
      <trkpt lat="61.20356" lon="5.26873">
        <ele>58.958562</ele>
        <time>2020-07-26T12:19:46.353Z</time>
      </trkpt>
      <trkpt lat="61.20363" lon="5.26856">
        <ele>58.696477</ele>
        <time>2020-07-26T12:19:48.323Z</time>
      </trkpt>
      <trkpt lat="61.2037" lon="5.26838">
        <ele>58.478858</ele>
        <time>2020-07-26T12:19:50.327Z</time>
      </trkpt>
      <trkpt lat="61.20377" lon="5.26819">
        <ele>58.257255</ele>
        <time>2020-07-26T12:19:52.320Z</time>
      </trkpt>
      <trkpt lat="61.20384" lon="5.268">
        <ele>58.037326</ele>
        <time>2020-07-26T12:19:54.315Z</time>
      </trkpt>
      <trkpt lat="61.2039" lon="5.26781">
        <ele>57.823353</ele>
        <time>2020-07-26T12:19:56.332Z</time>
      </trkpt>
      <trkpt lat="61.20397" lon="5.26761">
        <ele>57.604189</ele>
        <time>2020-07-26T12:19:58.356Z</time>
      </trkpt>
      <trkpt lat="61.20403" lon="5.26742">
        <ele>57.38459</ele>
        <time>2020-07-26T12:20:00.318Z</time>
      </trkpt>
      <trkpt lat="61.2041" lon="5.26722">
        <ele>57.165089</ele>
        <time>2020-07-26T12:20:02.322Z</time>
      </trkpt>
      <trkpt lat="61.20416" lon="5.26701">
        <ele>56.944036</ele>
        <time>2020-07-26T12:20:04.318Z</time>
      </trkpt>
      <trkpt lat="61.20421" lon="5.26683">
        <ele>56.744502</ele>
        <time>2020-07-26T12:20:06.372Z</time>
      </trkpt>
      <trkpt lat="61.20427" lon="5.26665">
        <ele>56.546209</ele>
        <time>2020-07-26T12:20:08.336Z</time>
      </trkpt>
      <trkpt lat="61.20433" lon="5.26647">
        <ele>56.342165</ele>
        <time>2020-07-26T12:20:10.333Z</time>
      </trkpt>
      <trkpt lat="61.20439" lon="5.26628">
        <ele>56.136586</ele>
        <time>2020-07-26T12:20:12.340Z</time>
      </trkpt>
      <trkpt lat="61.20444" lon="5.26611">
        <ele>55.949833</ele>
        <time>2020-07-26T12:20:14.310Z</time>
      </trkpt>
      <trkpt lat="61.20449" lon="5.26594">
        <ele>55.764094</ele>
        <time>2020-07-26T12:20:16.330Z</time>
      </trkpt>
      <trkpt lat="61.20455" lon="5.26577">
        <ele>55.579408</ele>
        <time>2020-07-26T12:20:18.334Z</time>
      </trkpt>
      <trkpt lat="61.2046" lon="5.26562">
        <ele>55.407587</ele>
        <time>2020-07-26T12:20:20.350Z</time>
      </trkpt>
      <trkpt lat="61.20466" lon="5.26542">
        <ele>55.332503</ele>
        <time>2020-07-26T12:20:23.332Z</time>
      </trkpt>
      <trkpt lat="61.20471" lon="5.2652">
        <ele>56.126236</ele>
        <time>2020-07-26T12:20:26.315Z</time>
      </trkpt>
      <trkpt lat="61.20477" lon="5.26497">
        <ele>56.934672</ele>
        <time>2020-07-26T12:20:29.306Z</time>
      </trkpt>
      <trkpt lat="61.20484" lon="5.26475">
        <ele>57.747333</ele>
        <time>2020-07-26T12:20:32.337Z</time>
      </trkpt>
      <trkpt lat="61.20491" lon="5.26452">
        <ele>58.590708</ele>
        <time>2020-07-26T12:20:35.326Z</time>
      </trkpt>
      <trkpt lat="61.20496" lon="5.2643">
        <ele>59.34185</ele>
        <time>2020-07-26T12:20:38.330Z</time>
      </trkpt>
      <trkpt lat="61.20502" lon="5.26409">
        <ele>60.142337</ele>
        <time>2020-07-26T12:20:41.311Z</time>
      </trkpt>
      <trkpt lat="61.20508" lon="5.26387">
        <ele>60.899645</ele>
        <time>2020-07-26T12:20:44.349Z</time>
      </trkpt>
      <trkpt lat="61.20512" lon="5.26369">
        <ele>61.54098</ele>
        <time>2020-07-26T12:20:47.323Z</time>
      </trkpt>
      <trkpt lat="61.20518" lon="5.26347">
        <ele>62.308682</ele>
        <time>2020-07-26T12:20:51.338Z</time>
      </trkpt>
      <trkpt lat="61.20524" lon="5.2633">
        <ele>62.967249</ele>
        <time>2020-07-26T12:20:54.311Z</time>
      </trkpt>
      <trkpt lat="61.20528" lon="5.26312">
        <ele>63.59184</ele>
        <time>2020-07-26T12:20:57.321Z</time>
      </trkpt>
      <trkpt lat="61.20532" lon="5.2629">
        <ele>64.33754</ele>
        <time>2020-07-26T12:21:01.339Z</time>
      </trkpt>
      <trkpt lat="61.20536" lon="5.2627">
        <ele>64.989596</ele>
        <time>2020-07-26T12:21:05.321Z</time>
      </trkpt>
      <trkpt lat="61.20538" lon="5.26251">
        <ele>65.595509</ele>
        <time>2020-07-26T12:21:09.336Z</time>
      </trkpt>
      <trkpt lat="61.20541" lon="5.26232">
        <ele>66.236791</ele>
        <time>2020-07-26T12:21:13.341Z</time>
      </trkpt>
      <trkpt lat="61.20545" lon="5.26211">
        <ele>66.900797</ele>
        <time>2020-07-26T12:21:18.323Z</time>
      </trkpt>
      <trkpt lat="61.20548" lon="5.26189">
        <ele>67.046373</ele>
        <time>2020-07-26T12:21:23.332Z</time>
      </trkpt>
      <trkpt lat="61.20552" lon="5.26169">
        <ele>67.188986</ele>
        <time>2020-07-26T12:21:28.325Z</time>
      </trkpt>
      <trkpt lat="61.20557" lon="5.2615">
        <ele>67.331776</ele>
        <time>2020-07-26T12:21:33.332Z</time>
      </trkpt>
      <trkpt lat="61.20562" lon="5.26131">
        <ele>67.472938</ele>
        <time>2020-07-26T12:21:37.364Z</time>
      </trkpt>
      <trkpt lat="61.20566" lon="5.26114">
        <ele>67.595582</ele>
        <time>2020-07-26T12:21:41.351Z</time>
      </trkpt>
      <trkpt lat="61.2057" lon="5.26093">
        <ele>67.740346</ele>
        <time>2020-07-26T12:21:46.321Z</time>
      </trkpt>
      <trkpt lat="61.20571" lon="5.26074">
        <ele>67.872171</ele>
        <time>2020-07-26T12:21:51.305Z</time>
      </trkpt>
      <trkpt lat="61.20574" lon="5.26053">
        <ele>68.014222</ele>
        <time>2020-07-26T12:21:56.311Z</time>
      </trkpt>
      <trkpt lat="61.20578" lon="5.26032">
        <ele>68.158545</ele>
        <time>2020-07-26T12:22:00.369Z</time>
      </trkpt>
      <trkpt lat="61.20581" lon="5.26015">
        <ele>68.281838</ele>
        <time>2020-07-26T12:22:03.324Z</time>
      </trkpt>
      <trkpt lat="61.20586" lon="5.25995">
        <ele>68.425787</ele>
        <time>2020-07-26T12:22:06.333Z</time>
      </trkpt>
      <trkpt lat="61.20593" lon="5.25974">
        <ele>68.590582</ele>
        <time>2020-07-26T12:22:09.314Z</time>
      </trkpt>
      <trkpt lat="61.20598" lon="5.25959">
        <ele>68.713172</ele>
        <time>2020-07-26T12:22:11.377Z</time>
      </trkpt>
      <trkpt lat="61.20603" lon="5.25942">
        <ele>68.841261</ele>
        <time>2020-07-26T12:22:13.335Z</time>
      </trkpt>
      <trkpt lat="61.20608" lon="5.25925">
        <ele>68.969831</ele>
        <time>2020-07-26T12:22:15.332Z</time>
      </trkpt>
      <trkpt lat="61.20611" lon="5.25906">
        <ele>69.10075</ele>
        <time>2020-07-26T12:22:17.338Z</time>
      </trkpt>
      <trkpt lat="61.20615" lon="5.25889">
        <ele>69.224717</ele>
        <time>2020-07-26T12:22:19.318Z</time>
      </trkpt>
      <trkpt lat="61.2062" lon="5.25865">
        <ele>69.017506</ele>
        <time>2020-07-26T12:22:22.369Z</time>
      </trkpt>
      <trkpt lat="61.20626" lon="5.25842">
        <ele>68.140246</ele>
        <time>2020-07-26T12:22:25.318Z</time>
      </trkpt>
      <trkpt lat="61.2063" lon="5.25823">
        <ele>67.460104</ele>
        <time>2020-07-26T12:22:27.351Z</time>
      </trkpt>
      <trkpt lat="61.20634" lon="5.25804">
        <ele>66.765021</ele>
        <time>2020-07-26T12:22:29.332Z</time>
      </trkpt>
      <trkpt lat="61.20638" lon="5.25786">
        <ele>66.108638</ele>
        <time>2020-07-26T12:22:31.320Z</time>
      </trkpt>
      <trkpt lat="61.20644" lon="5.25761">
        <ele>65.175024</ele>
        <time>2020-07-26T12:22:34.313Z</time>
      </trkpt>
      <trkpt lat="61.20649" lon="5.25744">
        <ele>64.520409</ele>
        <time>2020-07-26T12:22:36.330Z</time>
      </trkpt>
      <trkpt lat="61.20656" lon="5.2572">
        <ele>63.618095</ele>
        <time>2020-07-26T12:22:39.323Z</time>
      </trkpt>
      <trkpt lat="61.20662" lon="5.25697">
        <ele>62.743489</ele>
        <time>2020-07-26T12:22:42.334Z</time>
      </trkpt>
      <trkpt lat="61.20668" lon="5.25674">
        <ele>61.876771</ele>
        <time>2020-07-26T12:22:45.321Z</time>
      </trkpt>
      <trkpt lat="61.20674" lon="5.25651">
        <ele>61.02616</ele>
        <time>2020-07-26T12:22:48.329Z</time>
      </trkpt>
      <trkpt lat="61.20679" lon="5.25628">
        <ele>60.182154</ele>
        <time>2020-07-26T12:22:51.323Z</time>
      </trkpt>
      <trkpt lat="61.20684" lon="5.25604">
        <ele>59.302285</ele>
        <time>2020-07-26T12:22:54.351Z</time>
      </trkpt>
      <trkpt lat="61.2069" lon="5.2558">
        <ele>58.398137</ele>
        <time>2020-07-26T12:22:57.335Z</time>
      </trkpt>
      <trkpt lat="61.20695" lon="5.25564">
        <ele>57.780032</ele>
        <time>2020-07-26T12:22:59.323Z</time>
      </trkpt>
      <trkpt lat="61.20699" lon="5.25546">
        <ele>57.113396</ele>
        <time>2020-07-26T12:23:01.323Z</time>
      </trkpt>
      <trkpt lat="61.20705" lon="5.25528">
        <ele>56.987499</ele>
        <time>2020-07-26T12:23:03.324Z</time>
      </trkpt>
      <trkpt lat="61.2071" lon="5.25509">
        <ele>57.010949</ele>
        <time>2020-07-26T12:23:05.328Z</time>
      </trkpt>
      <trkpt lat="61.20716" lon="5.25488">
        <ele>57.036018</ele>
        <time>2020-07-26T12:23:07.323Z</time>
      </trkpt>
      <trkpt lat="61.20722" lon="5.25467">
        <ele>57.062291</ele>
        <time>2020-07-26T12:23:09.321Z</time>
      </trkpt>
      <trkpt lat="61.20727" lon="5.25445">
        <ele>57.088356</ele>
        <time>2020-07-26T12:23:11.351Z</time>
      </trkpt>
      <trkpt lat="61.20733" lon="5.25423">
        <ele>57.11461</ele>
        <time>2020-07-26T12:23:13.325Z</time>
      </trkpt>
      <trkpt lat="61.20738" lon="5.254">
        <ele>57.142004</ele>
        <time>2020-07-26T12:23:15.331Z</time>
      </trkpt>
      <trkpt lat="61.20744" lon="5.25377">
        <ele>57.169995</ele>
        <time>2020-07-26T12:23:17.333Z</time>
      </trkpt>
      <trkpt lat="61.2075" lon="5.25352">
        <ele>57.199204</ele>
        <time>2020-07-26T12:23:19.322Z</time>
      </trkpt>
      <trkpt lat="61.20756" lon="5.25327">
        <ele>57.229278</ele>
        <time>2020-07-26T12:23:21.312Z</time>
      </trkpt>
      <trkpt lat="61.20762" lon="5.25302">
        <ele>57.259356</ele>
        <time>2020-07-26T12:23:23.316Z</time>
      </trkpt>
      <trkpt lat="61.20768" lon="5.25276">
        <ele>57.289335</ele>
        <time>2020-07-26T12:23:25.336Z</time>
      </trkpt>
      <trkpt lat="61.20774" lon="5.25252">
        <ele>57.318162</ele>
        <time>2020-07-26T12:23:27.334Z</time>
      </trkpt>
      <trkpt lat="61.2078" lon="5.25229">
        <ele>57.344978</ele>
        <time>2020-07-26T12:23:29.312Z</time>
      </trkpt>
      <trkpt lat="61.20785" lon="5.25211">
        <ele>57.400349</ele>
        <time>2020-07-26T12:23:31.320Z</time>
      </trkpt>
      <trkpt lat="61.20791" lon="5.25187">
        <ele>57.873705</ele>
        <time>2020-07-26T12:23:34.334Z</time>
      </trkpt>
      <trkpt lat="61.20796" lon="5.25167">
        <ele>58.268241</ele>
        <time>2020-07-26T12:23:37.371Z</time>
      </trkpt>
      <trkpt lat="61.208" lon="5.25149">
        <ele>58.614081</ele>
        <time>2020-07-26T12:23:40.316Z</time>
      </trkpt>
      <trkpt lat="61.20804" lon="5.25129">
        <ele>59.000504</ele>
        <time>2020-07-26T12:23:44.343Z</time>
      </trkpt>
      <trkpt lat="61.20808" lon="5.2511">
        <ele>59.36545</ele>
        <time>2020-07-26T12:23:49.336Z</time>
      </trkpt>
      <trkpt lat="61.20813" lon="5.25092">
        <ele>59.739817</ele>
        <time>2020-07-26T12:23:54.353Z</time>
      </trkpt>
      <trkpt lat="61.20819" lon="5.25072">
        <ele>60.157583</ele>
        <time>2020-07-26T12:23:59.307Z</time>
      </trkpt>
      <trkpt lat="61.20824" lon="5.25053">
        <ele>60.54843</ele>
        <time>2020-07-26T12:24:03.315Z</time>
      </trkpt>
      <trkpt lat="61.2083" lon="5.25033">
        <ele>60.955893</ele>
        <time>2020-07-26T12:24:07.356Z</time>
      </trkpt>
      <trkpt lat="61.20836" lon="5.25012">
        <ele>61.387159</ele>
        <time>2020-07-26T12:24:11.329Z</time>
      </trkpt>
      <trkpt lat="61.20843" lon="5.24993">
        <ele>61.802068</ele>
        <time>2020-07-26T12:24:15.328Z</time>
      </trkpt>
      <trkpt lat="61.20852" lon="5.24976">
        <ele>62.24468</ele>
        <time>2020-07-26T12:24:19.332Z</time>
      </trkpt>
      <trkpt lat="61.20858" lon="5.2496">
        <ele>62.604972</ele>
        <time>2020-07-26T12:24:22.316Z</time>
      </trkpt>
      <trkpt lat="61.20864" lon="5.24945">
        <ele>62.943995</ele>
        <time>2020-07-26T12:24:25.322Z</time>
      </trkpt>
      <trkpt lat="61.20869" lon="5.24929">
        <ele>63.27658</ele>
        <time>2020-07-26T12:24:28.350Z</time>
      </trkpt>
      <trkpt lat="61.20875" lon="5.24913">
        <ele>63.6532</ele>
        <time>2020-07-26T12:24:31.323Z</time>
      </trkpt>
      <trkpt lat="61.20883" lon="5.24894">
        <ele>63.838617</ele>
        <time>2020-07-26T12:24:34.315Z</time>
      </trkpt>
      <trkpt lat="61.2089" lon="5.24874">
        <ele>63.435278</ele>
        <time>2020-07-26T12:24:37.352Z</time>
      </trkpt>
      <trkpt lat="61.20898" lon="5.24852">
        <ele>62.982539</ele>
        <time>2020-07-26T12:24:40.342Z</time>
      </trkpt>
      <trkpt lat="61.20904" lon="5.24837">
        <ele>62.663011</ele>
        <time>2020-07-26T12:24:42.309Z</time>
      </trkpt>
      <trkpt lat="61.2091" lon="5.24821">
        <ele>62.333687</ele>
        <time>2020-07-26T12:24:44.363Z</time>
      </trkpt>
      <trkpt lat="61.20916" lon="5.24804">
        <ele>61.990723</ele>
        <time>2020-07-26T12:24:46.327Z</time>
      </trkpt>
      <trkpt lat="61.20922" lon="5.24786">
        <ele>61.633156</ele>
        <time>2020-07-26T12:24:48.314Z</time>
      </trkpt>
      <trkpt lat="61.20929" lon="5.24768">
        <ele>61.252377</ele>
        <time>2020-07-26T12:24:50.332Z</time>
      </trkpt>
      <trkpt lat="61.20935" lon="5.24747">
        <ele>60.847922</ele>
        <time>2020-07-26T12:24:52.338Z</time>
      </trkpt>
      <trkpt lat="61.20941" lon="5.24726">
        <ele>60.441972</ele>
        <time>2020-07-26T12:24:54.313Z</time>
      </trkpt>
      <trkpt lat="61.20948" lon="5.24704">
        <ele>60.019609</ele>
        <time>2020-07-26T12:24:56.336Z</time>
      </trkpt>
      <trkpt lat="61.20955" lon="5.24683">
        <ele>59.601846</ele>
        <time>2020-07-26T12:24:58.314Z</time>
      </trkpt>
      <trkpt lat="61.2096" lon="5.24661">
        <ele>59.201591</ele>
        <time>2020-07-26T12:25:00.340Z</time>
      </trkpt>
      <trkpt lat="61.20965" lon="5.24638">
        <ele>58.785307</ele>
        <time>2020-07-26T12:25:02.350Z</time>
      </trkpt>
      <trkpt lat="61.2097" lon="5.24615">
        <ele>58.385239</ele>
        <time>2020-07-26T12:25:04.310Z</time>
      </trkpt>
      <trkpt lat="61.20974" lon="5.24594">
        <ele>57.997043</ele>
        <time>2020-07-26T12:25:06.352Z</time>
      </trkpt>
      <trkpt lat="61.20978" lon="5.24573">
        <ele>57.747337</ele>
        <time>2020-07-26T12:25:08.331Z</time>
      </trkpt>
      <trkpt lat="61.20981" lon="5.24553">
        <ele>57.59053</ele>
        <time>2020-07-26T12:25:10.342Z</time>
      </trkpt>
      <trkpt lat="61.20985" lon="5.24534">
        <ele>57.436848</ele>
        <time>2020-07-26T12:25:12.314Z</time>
      </trkpt>
      <trkpt lat="61.20989" lon="5.24515">
        <ele>57.28248</ele>
        <time>2020-07-26T12:25:14.340Z</time>
      </trkpt>
      <trkpt lat="61.20992" lon="5.24496">
        <ele>57.130112</ele>
        <time>2020-07-26T12:25:16.331Z</time>
      </trkpt>
      <trkpt lat="61.20996" lon="5.24478">
        <ele>56.982591</ele>
        <time>2020-07-26T12:25:18.341Z</time>
      </trkpt>
      <trkpt lat="61.21001" lon="5.24454">
        <ele>56.79325</ele>
        <time>2020-07-26T12:25:21.336Z</time>
      </trkpt>
      <trkpt lat="61.21006" lon="5.24433">
        <ele>56.616666</ele>
        <time>2020-07-26T12:25:24.324Z</time>
      </trkpt>
      <trkpt lat="61.21009" lon="5.24416">
        <ele>56.475252</ele>
        <time>2020-07-26T12:25:26.362Z</time>
      </trkpt>
      <trkpt lat="61.21014" lon="5.24398">
        <ele>56.326433</ele>
        <time>2020-07-26T12:25:28.318Z</time>
      </trkpt>
      <trkpt lat="61.21018" lon="5.2438">
        <ele>56.178956</ele>
        <time>2020-07-26T12:25:30.323Z</time>
      </trkpt>
      <trkpt lat="61.21022" lon="5.24363">
        <ele>56.032732</ele>
        <time>2020-07-26T12:25:32.318Z</time>
      </trkpt>
      <trkpt lat="61.21027" lon="5.24345">
        <ele>55.880432</ele>
        <time>2020-07-26T12:25:34.310Z</time>
      </trkpt>
      <trkpt lat="61.21031" lon="5.24326">
        <ele>55.724859</ele>
        <time>2020-07-26T12:25:36.320Z</time>
      </trkpt>
      <trkpt lat="61.21036" lon="5.24306">
        <ele>55.563236</ele>
        <time>2020-07-26T12:25:38.351Z</time>
      </trkpt>
      <trkpt lat="61.2104" lon="5.24287">
        <ele>55.402965</ele>
        <time>2020-07-26T12:25:40.321Z</time>
      </trkpt>
      <trkpt lat="61.21045" lon="5.24268">
        <ele>55.246068</ele>
        <time>2020-07-26T12:25:42.311Z</time>
      </trkpt>
      <trkpt lat="61.21049" lon="5.2425">
        <ele>55.091122</ele>
        <time>2020-07-26T12:25:44.345Z</time>
      </trkpt>
      <trkpt lat="61.21053" lon="5.24232">
        <ele>55.164147</ele>
        <time>2020-07-26T12:25:46.329Z</time>
      </trkpt>
      <trkpt lat="61.21057" lon="5.24214">
        <ele>55.318046</ele>
        <time>2020-07-26T12:25:48.318Z</time>
      </trkpt>
      <trkpt lat="61.21061" lon="5.24197">
        <ele>55.465653</ele>
        <time>2020-07-26T12:25:50.330Z</time>
      </trkpt>
      <trkpt lat="61.21068" lon="5.24174">
        <ele>55.670134</ele>
        <time>2020-07-26T12:25:53.315Z</time>
      </trkpt>
      <trkpt lat="61.21072" lon="5.24156">
        <ele>55.829612</ele>
        <time>2020-07-26T12:25:55.331Z</time>
      </trkpt>
      <trkpt lat="61.21078" lon="5.24131">
        <ele>56.040643</ele>
        <time>2020-07-26T12:25:58.308Z</time>
      </trkpt>
      <trkpt lat="61.21085" lon="5.24107">
        <ele>56.255689</ele>
        <time>2020-07-26T12:26:01.317Z</time>
      </trkpt>
      <trkpt lat="61.2109" lon="5.24088">
        <ele>56.427942</ele>
        <time>2020-07-26T12:26:03.322Z</time>
      </trkpt>
      <trkpt lat="61.21095" lon="5.24069">
        <ele>56.596154</ele>
        <time>2020-07-26T12:26:05.332Z</time>
      </trkpt>
      <trkpt lat="61.21101" lon="5.24049">
        <ele>56.773463</ele>
        <time>2020-07-26T12:26:07.335Z</time>
      </trkpt>
      <trkpt lat="61.21106" lon="5.2403">
        <ele>56.938753</ele>
        <time>2020-07-26T12:26:09.330Z</time>
      </trkpt>
      <trkpt lat="61.21111" lon="5.24011">
        <ele>57.102508</ele>
        <time>2020-07-26T12:26:11.330Z</time>
      </trkpt>
      <trkpt lat="61.21116" lon="5.23993">
        <ele>57.263897</ele>
        <time>2020-07-26T12:26:13.335Z</time>
      </trkpt>
      <trkpt lat="61.2112" lon="5.23975">
        <ele>57.42417</ele>
        <time>2020-07-26T12:26:15.326Z</time>
      </trkpt>
      <trkpt lat="61.21125" lon="5.23958">
        <ele>57.574676</ele>
        <time>2020-07-26T12:26:17.333Z</time>
      </trkpt>
      <trkpt lat="61.2113" lon="5.23936">
        <ele>57.762674</ele>
        <time>2020-07-26T12:26:20.333Z</time>
      </trkpt>
      <trkpt lat="61.21135" lon="5.23916">
        <ele>57.934759</ele>
        <time>2020-07-26T12:26:23.317Z</time>
      </trkpt>
      <trkpt lat="61.21141" lon="5.23895">
        <ele>58.464214</ele>
        <time>2020-07-26T12:26:26.354Z</time>
      </trkpt>
      <trkpt lat="61.21147" lon="5.23873">
        <ele>59.008625</ele>
        <time>2020-07-26T12:26:29.314Z</time>
      </trkpt>
      <trkpt lat="61.21153" lon="5.2385">
        <ele>59.56576</ele>
        <time>2020-07-26T12:26:32.324Z</time>
      </trkpt>
      <trkpt lat="61.21158" lon="5.23829">
        <ele>60.076135</ele>
        <time>2020-07-26T12:26:35.358Z</time>
      </trkpt>
      <trkpt lat="61.21163" lon="5.2381">
        <ele>60.542354</ele>
        <time>2020-07-26T12:26:38.339Z</time>
      </trkpt>
      <trkpt lat="61.21169" lon="5.23789">
        <ele>61.06041</ele>
        <time>2020-07-26T12:26:41.349Z</time>
      </trkpt>
      <trkpt lat="61.21174" lon="5.23768">
        <ele>61.567589</ele>
        <time>2020-07-26T12:26:44.328Z</time>
      </trkpt>
      <trkpt lat="61.2118" lon="5.23748">
        <ele>62.084136</ele>
        <time>2020-07-26T12:26:47.333Z</time>
      </trkpt>
      <trkpt lat="61.21185" lon="5.23728">
        <ele>62.559828</ele>
        <time>2020-07-26T12:26:50.331Z</time>
      </trkpt>
      <trkpt lat="61.2119" lon="5.2371">
        <ele>62.994805</ele>
        <time>2020-07-26T12:26:53.309Z</time>
      </trkpt>
      <trkpt lat="61.21194" lon="5.23692">
        <ele>63.439088</ele>
        <time>2020-07-26T12:26:56.321Z</time>
      </trkpt>
      <trkpt lat="61.21199" lon="5.23671">
        <ele>63.937678</ele>
        <time>2020-07-26T12:26:59.349Z</time>
      </trkpt>
      <trkpt lat="61.21204" lon="5.23651">
        <ele>64.42077</ele>
        <time>2020-07-26T12:27:02.337Z</time>
      </trkpt>
      <trkpt lat="61.21209" lon="5.2363">
        <ele>64.945464</ele>
        <time>2020-07-26T12:27:05.317Z</time>
      </trkpt>
      <trkpt lat="61.21215" lon="5.23606">
        <ele>65.521846</ele>
        <time>2020-07-26T12:27:08.316Z</time>
      </trkpt>
      <trkpt lat="61.21221" lon="5.23586">
        <ele>65.981779</ele>
        <time>2020-07-26T12:27:11.322Z</time>
      </trkpt>
      <trkpt lat="61.21226" lon="5.2357">
        <ele>65.987097</ele>
        <time>2020-07-26T12:27:14.340Z</time>
      </trkpt>
      <trkpt lat="61.21231" lon="5.23553">
        <ele>65.992669</ele>
        <time>2020-07-26T12:27:18.348Z</time>
      </trkpt>
      <trkpt lat="61.21236" lon="5.23537">
        <ele>65.997865</ele>
        <time>2020-07-26T12:27:22.316Z</time>
      </trkpt>
      <trkpt lat="61.21242" lon="5.23518">
        <ele>66.004293</ele>
        <time>2020-07-26T12:27:27.322Z</time>
      </trkpt>
      <trkpt lat="61.21248" lon="5.23502">
        <ele>66.009882</ele>
        <time>2020-07-26T12:27:31.357Z</time>
      </trkpt>
      <trkpt lat="61.21255" lon="5.23484">
        <ele>66.016158</ele>
        <time>2020-07-26T12:27:35.315Z</time>
      </trkpt>
      <trkpt lat="61.21262" lon="5.2347">
        <ele>66.022032</ele>
        <time>2020-07-26T12:27:39.325Z</time>
      </trkpt>
      <trkpt lat="61.2127" lon="5.23458">
        <ele>66.027512</ele>
        <time>2020-07-26T12:27:43.359Z</time>
      </trkpt>
      <trkpt lat="61.21279" lon="5.23446">
        <ele>66.033772</ele>
        <time>2020-07-26T12:27:47.347Z</time>
      </trkpt>
      <trkpt lat="61.21288" lon="5.23432">
        <ele>66.040333</ele>
        <time>2020-07-26T12:27:51.325Z</time>
      </trkpt>
      <trkpt lat="61.21296" lon="5.23421">
        <ele>66.046103</ele>
        <time>2020-07-26T12:27:54.345Z</time>
      </trkpt>
      <trkpt lat="61.21304" lon="5.2341">
        <ele>66.051552</ele>
        <time>2020-07-26T12:27:57.321Z</time>
      </trkpt>
      <trkpt lat="61.2131" lon="5.23396">
        <ele>66.056959</ele>
        <time>2020-07-26T12:28:01.318Z</time>
      </trkpt>
      <trkpt lat="61.21317" lon="5.23381">
        <ele>66.062754</ele>
        <time>2020-07-26T12:28:05.314Z</time>
      </trkpt>
      <trkpt lat="61.21323" lon="5.23361">
        <ele>66.068989</ele>
        <time>2020-07-26T12:28:09.338Z</time>
      </trkpt>
      <trkpt lat="61.21327" lon="5.2334">
        <ele>66.075404</ele>
        <time>2020-07-26T12:28:13.337Z</time>
      </trkpt>
      <trkpt lat="61.21331" lon="5.23317">
        <ele>66.082269</ele>
        <time>2020-07-26T12:28:17.323Z</time>
      </trkpt>
      <trkpt lat="61.21335" lon="5.23295">
        <ele>66.123684</ele>
        <time>2020-07-26T12:28:21.384Z</time>
      </trkpt>
      <trkpt lat="61.21338" lon="5.23274">
        <ele>66.195394</ele>
        <time>2020-07-26T12:28:25.334Z</time>
      </trkpt>
      <trkpt lat="61.21342" lon="5.23252">
        <ele>66.271886</ele>
        <time>2020-07-26T12:28:29.322Z</time>
      </trkpt>
      <trkpt lat="61.21345" lon="5.23232">
        <ele>66.336463</ele>
        <time>2020-07-26T12:28:32.362Z</time>
      </trkpt>
      <trkpt lat="61.21347" lon="5.23214">
        <ele>66.399422</ele>
        <time>2020-07-26T12:28:35.307Z</time>
      </trkpt>
      <trkpt lat="61.2135" lon="5.23195">
        <ele>66.463286</ele>
        <time>2020-07-26T12:28:38.303Z</time>
      </trkpt>
      <trkpt lat="61.21353" lon="5.23172">
        <ele>66.540244</ele>
        <time>2020-07-26T12:28:42.324Z</time>
      </trkpt>
      <trkpt lat="61.21357" lon="5.2315">
        <ele>66.611237</ele>
        <time>2020-07-26T12:28:46.319Z</time>
      </trkpt>
      <trkpt lat="61.2136" lon="5.23127">
        <ele>66.689565</ele>
        <time>2020-07-26T12:28:50.322Z</time>
      </trkpt>
      <trkpt lat="61.21363" lon="5.23106">
        <ele>66.759803</ele>
        <time>2020-07-26T12:28:53.338Z</time>
      </trkpt>
      <trkpt lat="61.21366" lon="5.23083">
        <ele>66.83725</ele>
        <time>2020-07-26T12:28:56.324Z</time>
      </trkpt>
      <trkpt lat="61.2137" lon="5.23057">
        <ele>66.92407</ele>
        <time>2020-07-26T12:28:59.334Z</time>
      </trkpt>
      <trkpt lat="61.21373" lon="5.23038">
        <ele>66.986609</ele>
        <time>2020-07-26T12:29:01.342Z</time>
      </trkpt>
      <trkpt lat="61.21375" lon="5.23019">
        <ele>67.050438</ele>
        <time>2020-07-26T12:29:03.334Z</time>
      </trkpt>
      <trkpt lat="61.21378" lon="5.22997">
        <ele>67.123154</ele>
        <time>2020-07-26T12:29:05.326Z</time>
      </trkpt>
      <trkpt lat="61.21381" lon="5.22972">
        <ele>67.205215</ele>
        <time>2020-07-26T12:29:07.315Z</time>
      </trkpt>
      <trkpt lat="61.21385" lon="5.22946">
        <ele>67.281427</ele>
        <time>2020-07-26T12:29:09.318Z</time>
      </trkpt>
      <trkpt lat="61.21388" lon="5.22921">
        <ele>67.257573</ele>
        <time>2020-07-26T12:29:11.341Z</time>
      </trkpt>
      <trkpt lat="61.21391" lon="5.22897">
        <ele>67.23519</ele>
        <time>2020-07-26T12:29:13.310Z</time>
      </trkpt>
      <trkpt lat="61.21395" lon="5.22873">
        <ele>67.212492</ele>
        <time>2020-07-26T12:29:15.335Z</time>
      </trkpt>
      <trkpt lat="61.21398" lon="5.2285">
        <ele>67.190097</ele>
        <time>2020-07-26T12:29:17.347Z</time>
      </trkpt>
      <trkpt lat="61.21401" lon="5.22824">
        <ele>67.165563</ele>
        <time>2020-07-26T12:29:19.312Z</time>
      </trkpt>
      <trkpt lat="61.21405" lon="5.22796">
        <ele>67.138886</ele>
        <time>2020-07-26T12:29:21.308Z</time>
      </trkpt>
      <trkpt lat="61.21411" lon="5.22771">
        <ele>67.113929</ele>
        <time>2020-07-26T12:29:23.317Z</time>
      </trkpt>
      <trkpt lat="61.21417" lon="5.22748">
        <ele>67.089918</ele>
        <time>2020-07-26T12:29:25.320Z</time>
      </trkpt>
      <trkpt lat="61.21425" lon="5.2273">
        <ele>67.06739</ele>
        <time>2020-07-26T12:29:27.323Z</time>
      </trkpt>
      <trkpt lat="61.21434" lon="5.22712">
        <ele>67.043989</ele>
        <time>2020-07-26T12:29:29.329Z</time>
      </trkpt>
      <trkpt lat="61.21442" lon="5.227">
        <ele>67.024847</ele>
        <time>2020-07-26T12:29:31.337Z</time>
      </trkpt>
      <trkpt lat="61.21453" lon="5.22689">
        <ele>67.000907</ele>
        <time>2020-07-26T12:29:34.341Z</time>
      </trkpt>
      <trkpt lat="61.21464" lon="5.22681">
        <ele>66.980194</ele>
        <time>2020-07-26T12:29:37.340Z</time>
      </trkpt>
      <trkpt lat="61.21475" lon="5.22676">
        <ele>66.95898</ele>
        <time>2020-07-26T12:29:41.331Z</time>
      </trkpt>
      <trkpt lat="61.21484" lon="5.22671">
        <ele>67.021437</ele>
        <time>2020-07-26T12:29:47.354Z</time>
      </trkpt>
      <trkpt lat="61.21494" lon="5.22668">
        <ele>67.549825</ele>
        <time>2020-07-26T12:29:53.302Z</time>
      </trkpt>
      <trkpt lat="61.21504" lon="5.22665">
        <ele>68.122467</ele>
        <time>2020-07-26T12:29:59.321Z</time>
      </trkpt>
      <trkpt lat="61.21514" lon="5.22662">
        <ele>68.682527</ele>
        <time>2020-07-26T12:30:05.330Z</time>
      </trkpt>
      <trkpt lat="61.21524" lon="5.22659">
        <ele>69.231131</ele>
        <time>2020-07-26T12:30:11.311Z</time>
      </trkpt>
      <trkpt lat="61.21534" lon="5.22655">
        <ele>69.771918</ele>
        <time>2020-07-26T12:30:20.319Z</time>
      </trkpt>
      <trkpt lat="61.21544" lon="5.22653">
        <ele>70.320215</ele>
        <time>2020-07-26T12:30:26.340Z</time>
      </trkpt>
      <trkpt lat="61.21553" lon="5.22648">
        <ele>70.846228</ele>
        <time>2020-07-26T12:30:32.312Z</time>
      </trkpt>
      <trkpt lat="61.21563" lon="5.22646">
        <ele>71.366589</ele>
        <time>2020-07-26T12:30:37.335Z</time>
      </trkpt>
      <trkpt lat="61.21572" lon="5.22642">
        <ele>71.867893</ele>
        <time>2020-07-26T12:30:42.317Z</time>
      </trkpt>
      <trkpt lat="61.21581" lon="5.22638">
        <ele>72.366141</ele>
        <time>2020-07-26T12:30:47.311Z</time>
      </trkpt>
      <trkpt lat="61.21591" lon="5.22632">
        <ele>72.938323</ele>
        <time>2020-07-26T12:30:53.312Z</time>
      </trkpt>
      <trkpt lat="61.216" lon="5.22626">
        <ele>73.427305</ele>
        <time>2020-07-26T12:30:59.332Z</time>
      </trkpt>
      <trkpt lat="61.21609" lon="5.22621">
        <ele>73.986173</ele>
        <time>2020-07-26T12:31:05.311Z</time>
      </trkpt>
      <trkpt lat="61.21618" lon="5.22613">
        <ele>74.503285</ele>
        <time>2020-07-26T12:31:10.359Z</time>
      </trkpt>
      <trkpt lat="61.21627" lon="5.22607">
        <ele>74.990235</ele>
        <time>2020-07-26T12:31:15.334Z</time>
      </trkpt>
      <trkpt lat="61.21636" lon="5.22599">
        <ele>75.548892</ele>
        <time>2020-07-26T12:31:21.319Z</time>
      </trkpt>
      <trkpt lat="61.21646" lon="5.22592">
        <ele>76.118511</ele>
        <time>2020-07-26T12:31:28.333Z</time>
      </trkpt>
      <trkpt lat="61.21655" lon="5.22582">
        <ele>76.678048</ele>
        <time>2020-07-26T12:31:33.313Z</time>
      </trkpt>
      <trkpt lat="61.21664" lon="5.22574">
        <ele>77.097347</ele>
        <time>2020-07-26T12:31:38.382Z</time>
      </trkpt>
      <trkpt lat="61.21674" lon="5.22569">
        <ele>77.499369</ele>
        <time>2020-07-26T12:31:44.326Z</time>
      </trkpt>
      <trkpt lat="61.21683" lon="5.22559">
        <ele>77.921905</ele>
        <time>2020-07-26T12:31:49.330Z</time>
      </trkpt>
      <trkpt lat="61.21692" lon="5.22552">
        <ele>78.318575</ele>
        <time>2020-07-26T12:31:55.351Z</time>
      </trkpt>
      <trkpt lat="61.21702" lon="5.22546">
        <ele>78.748396</ele>
        <time>2020-07-26T12:32:01.319Z</time>
      </trkpt>
      <trkpt lat="61.2171" lon="5.22541">
        <ele>79.123437</ele>
        <time>2020-07-26T12:32:05.325Z</time>
      </trkpt>
      <trkpt lat="61.2172" lon="5.22535">
        <ele>79.528795</ele>
        <time>2020-07-26T12:32:09.314Z</time>
      </trkpt>
      <trkpt lat="61.21729" lon="5.2253">
        <ele>79.935357</ele>
        <time>2020-07-26T12:32:13.321Z</time>
      </trkpt>
      <trkpt lat="61.21741" lon="5.22523">
        <ele>80.420862</ele>
        <time>2020-07-26T12:32:17.328Z</time>
      </trkpt>
      <trkpt lat="61.2175" lon="5.22515">
        <ele>80.828402</ele>
        <time>2020-07-26T12:32:21.332Z</time>
      </trkpt>
      <trkpt lat="61.21758" lon="5.22505">
        <ele>81.208953</ele>
        <time>2020-07-26T12:32:25.314Z</time>
      </trkpt>
      <trkpt lat="61.21765" lon="5.22492">
        <ele>81.623298</ele>
        <time>2020-07-26T12:32:30.328Z</time>
      </trkpt>
      <trkpt lat="61.21772" lon="5.22476">
        <ele>82.035756</ele>
        <time>2020-07-26T12:32:35.311Z</time>
      </trkpt>
      <trkpt lat="61.21777" lon="5.22456">
        <ele>82.484679</ele>
        <time>2020-07-26T12:32:40.322Z</time>
      </trkpt>
      <trkpt lat="61.21782" lon="5.22437">
        <ele>82.910464</ele>
        <time>2020-07-26T12:32:44.324Z</time>
      </trkpt>
      <trkpt lat="61.21785" lon="5.22419">
        <ele>83.293613</ele>
        <time>2020-07-26T12:32:48.320Z</time>
      </trkpt>
      <trkpt lat="61.21789" lon="5.224">
        <ele>83.706842</ele>
        <time>2020-07-26T12:32:53.341Z</time>
      </trkpt>
      <trkpt lat="61.21792" lon="5.22381">
        <ele>84.112079</ele>
        <time>2020-07-26T12:32:57.371Z</time>
      </trkpt>
      <trkpt lat="61.21798" lon="5.22361">
        <ele>84.35389</ele>
        <time>2020-07-26T12:33:02.324Z</time>
      </trkpt>
      <trkpt lat="61.21803" lon="5.22343">
        <ele>84.548597</ele>
        <time>2020-07-26T12:33:07.345Z</time>
      </trkpt>
      <trkpt lat="61.21808" lon="5.22326">
        <ele>84.745978</ele>
        <time>2020-07-26T12:33:11.327Z</time>
      </trkpt>
      <trkpt lat="61.21816" lon="5.22309">
        <ele>84.970981</ele>
        <time>2020-07-26T12:33:15.309Z</time>
      </trkpt>
      <trkpt lat="61.21824" lon="5.22296">
        <ele>85.176153</ele>
        <time>2020-07-26T12:33:18.335Z</time>
      </trkpt>
      <trkpt lat="61.21833" lon="5.22284">
        <ele>85.386244</ele>
        <time>2020-07-26T12:33:21.305Z</time>
      </trkpt>
      <trkpt lat="61.21842" lon="5.22272">
        <ele>85.600726</ele>
        <time>2020-07-26T12:33:24.315Z</time>
      </trkpt>
      <trkpt lat="61.21851" lon="5.22261">
        <ele>85.813838</ele>
        <time>2020-07-26T12:33:27.331Z</time>
      </trkpt>
      <trkpt lat="61.2186" lon="5.22252">
        <ele>86.014026</ele>
        <time>2020-07-26T12:33:30.329Z</time>
      </trkpt>
      <trkpt lat="61.21869" lon="5.22241">
        <ele>86.223719</ele>
        <time>2020-07-26T12:33:34.359Z</time>
      </trkpt>
      <trkpt lat="61.21878" lon="5.22232">
        <ele>86.40895</ele>
        <time>2020-07-26T12:33:38.331Z</time>
      </trkpt>
      <trkpt lat="61.21887" lon="5.22223">
        <ele>86.622427</ele>
        <time>2020-07-26T12:33:43.317Z</time>
      </trkpt>
      <trkpt lat="61.21898" lon="5.22212">
        <ele>86.860268</ele>
        <time>2020-07-26T12:33:48.324Z</time>
      </trkpt>
      <trkpt lat="61.21907" lon="5.22203">
        <ele>87.055603</ele>
        <time>2020-07-26T12:33:53.329Z</time>
      </trkpt>
      <trkpt lat="61.21916" lon="5.22191">
        <ele>87.276292</ele>
        <time>2020-07-26T12:33:58.329Z</time>
      </trkpt>
      <trkpt lat="61.21925" lon="5.22183">
        <ele>87.471787</ele>
        <time>2020-07-26T12:34:03.338Z</time>
      </trkpt>
      <trkpt lat="61.21935" lon="5.22172">
        <ele>87.694555</ele>
        <time>2020-07-26T12:34:07.312Z</time>
      </trkpt>
      <trkpt lat="61.21944" lon="5.22162">
        <ele>87.721267</ele>
        <time>2020-07-26T12:34:11.314Z</time>
      </trkpt>
      <trkpt lat="61.21952" lon="5.2215">
        <ele>87.689505</ele>
        <time>2020-07-26T12:34:16.349Z</time>
      </trkpt>
      <trkpt lat="61.21962" lon="5.22139">
        <ele>87.656937</ele>
        <time>2020-07-26T12:34:20.346Z</time>
      </trkpt>
      <trkpt lat="61.2197" lon="5.22126">
        <ele>87.627547</ele>
        <time>2020-07-26T12:34:24.348Z</time>
      </trkpt>
      <trkpt lat="61.21977" lon="5.22114">
        <ele>87.598894</ele>
        <time>2020-07-26T12:34:27.316Z</time>
      </trkpt>
      <trkpt lat="61.21984" lon="5.22101">
        <ele>87.571995</ele>
        <time>2020-07-26T12:34:30.333Z</time>
      </trkpt>
      <trkpt lat="61.21989" lon="5.22085">
        <ele>87.54447</ele>
        <time>2020-07-26T12:34:33.314Z</time>
      </trkpt>
      <trkpt lat="61.21993" lon="5.22068">
        <ele>87.517025</ele>
        <time>2020-07-26T12:34:36.323Z</time>
      </trkpt>
      <trkpt lat="61.21997" lon="5.22049">
        <ele>87.486202</ele>
        <time>2020-07-26T12:34:39.339Z</time>
      </trkpt>
      <trkpt lat="61.22001" lon="5.22026">
        <ele>87.452061</ele>
        <time>2020-07-26T12:34:42.328Z</time>
      </trkpt>
      <trkpt lat="61.22004" lon="5.22002">
        <ele>87.415771</ele>
        <time>2020-07-26T12:34:45.316Z</time>
      </trkpt>
      <trkpt lat="61.22008" lon="5.21978">
        <ele>87.378475</ele>
        <time>2020-07-26T12:34:48.320Z</time>
      </trkpt>
      <trkpt lat="61.22013" lon="5.21952">
        <ele>87.339186</ele>
        <time>2020-07-26T12:34:51.329Z</time>
      </trkpt>
      <trkpt lat="61.22016" lon="5.21935">
        <ele>87.311957</ele>
        <time>2020-07-26T12:34:53.314Z</time>
      </trkpt>
      <trkpt lat="61.22019" lon="5.21916">
        <ele>87.283618</ele>
        <time>2020-07-26T12:34:55.352Z</time>
      </trkpt>
      <trkpt lat="61.22023" lon="5.21899">
        <ele>87.256299</ele>
        <time>2020-07-26T12:34:57.339Z</time>
      </trkpt>
      <trkpt lat="61.22025" lon="5.2188">
        <ele>87.228967</ele>
        <time>2020-07-26T12:34:59.320Z</time>
      </trkpt>
      <trkpt lat="61.22029" lon="5.21856">
        <ele>87.126586</ele>
        <time>2020-07-26T12:35:02.371Z</time>
      </trkpt>
      <trkpt lat="61.22033" lon="5.21832">
        <ele>86.904636</ele>
        <time>2020-07-26T12:35:05.311Z</time>
      </trkpt>
      <trkpt lat="61.22037" lon="5.21809">
        <ele>86.69342</ele>
        <time>2020-07-26T12:35:08.323Z</time>
      </trkpt>
      <trkpt lat="61.22041" lon="5.21786">
        <ele>86.47415</ele>
        <time>2020-07-26T12:35:11.329Z</time>
      </trkpt>
      <trkpt lat="61.22045" lon="5.21757">
        <ele>86.206174</ele>
        <time>2020-07-26T12:35:14.315Z</time>
      </trkpt>
      <trkpt lat="61.22049" lon="5.21735">
        <ele>86.003891</ele>
        <time>2020-07-26T12:35:16.343Z</time>
      </trkpt>
      <trkpt lat="61.22052" lon="5.21716">
        <ele>85.820893</ele>
        <time>2020-07-26T12:35:18.324Z</time>
      </trkpt>
      <trkpt lat="61.22056" lon="5.21692">
        <ele>85.597394</ele>
        <time>2020-07-26T12:35:20.369Z</time>
      </trkpt>
      <trkpt lat="61.22061" lon="5.21667">
        <ele>85.367414</ele>
        <time>2020-07-26T12:35:22.320Z</time>
      </trkpt>
      <trkpt lat="61.22066" lon="5.21641">
        <ele>85.109845</ele>
        <time>2020-07-26T12:35:24.328Z</time>
      </trkpt>
      <trkpt lat="61.22072" lon="5.21611">
        <ele>84.826563</ele>
        <time>2020-07-26T12:35:26.326Z</time>
      </trkpt>
      <trkpt lat="61.22078" lon="5.21582">
        <ele>84.550619</ele>
        <time>2020-07-26T12:35:28.320Z</time>
      </trkpt>
      <trkpt lat="61.22084" lon="5.2155">
        <ele>84.246798</ele>
        <time>2020-07-26T12:35:30.321Z</time>
      </trkpt>
      <trkpt lat="61.2209" lon="5.21519">
        <ele>83.957928</ele>
        <time>2020-07-26T12:35:32.340Z</time>
      </trkpt>
      <trkpt lat="61.22096" lon="5.21493">
        <ele>83.856569</ele>
        <time>2020-07-26T12:35:34.349Z</time>
      </trkpt>
      <trkpt lat="61.22101" lon="5.21467">
        <ele>83.791734</ele>
        <time>2020-07-26T12:35:36.351Z</time>
      </trkpt>
      <trkpt lat="61.22108" lon="5.21441">
        <ele>83.724181</ele>
        <time>2020-07-26T12:35:38.332Z</time>
      </trkpt>
      <trkpt lat="61.22114" lon="5.21417">
        <ele>83.661427</ele>
        <time>2020-07-26T12:35:40.333Z</time>
      </trkpt>
      <trkpt lat="61.2212" lon="5.21392">
        <ele>83.595753</ele>
        <time>2020-07-26T12:35:42.333Z</time>
      </trkpt>
      <trkpt lat="61.22125" lon="5.21365">
        <ele>83.529428</ele>
        <time>2020-07-26T12:35:44.311Z</time>
      </trkpt>
      <trkpt lat="61.2213" lon="5.21337">
        <ele>83.460331</ele>
        <time>2020-07-26T12:35:46.331Z</time>
      </trkpt>
      <trkpt lat="61.22134" lon="5.21307">
        <ele>83.388122</ele>
        <time>2020-07-26T12:35:48.334Z</time>
      </trkpt>
      <trkpt lat="61.22137" lon="5.21276">
        <ele>83.314439</ele>
        <time>2020-07-26T12:35:50.329Z</time>
      </trkpt>
      <trkpt lat="61.2214" lon="5.2125">
        <ele>83.253219</ele>
        <time>2020-07-26T12:35:52.320Z</time>
      </trkpt>
      <trkpt lat="61.22144" lon="5.21222">
        <ele>83.184718</ele>
        <time>2020-07-26T12:35:54.345Z</time>
      </trkpt>
      <trkpt lat="61.22147" lon="5.21194">
        <ele>83.119251</ele>
        <time>2020-07-26T12:35:56.312Z</time>
      </trkpt>
      <trkpt lat="61.22151" lon="5.21168">
        <ele>83.055004</ele>
        <time>2020-07-26T12:35:58.363Z</time>
      </trkpt>
      <trkpt lat="61.22154" lon="5.21144">
        <ele>82.981239</ele>
        <time>2020-07-26T12:36:00.347Z</time>
      </trkpt>
      <trkpt lat="61.22157" lon="5.21123">
        <ele>82.914683</ele>
        <time>2020-07-26T12:36:02.331Z</time>
      </trkpt>
      <trkpt lat="61.2216" lon="5.21103">
        <ele>82.847508</ele>
        <time>2020-07-26T12:36:04.314Z</time>
      </trkpt>
      <trkpt lat="61.22162" lon="5.21071">
        <ele>82.749757</ele>
        <time>2020-07-26T12:36:07.349Z</time>
      </trkpt>
      <trkpt lat="61.2217" lon="5.21064">
        <ele>82.688558</ele>
        <time>2020-07-26T12:36:11.334Z</time>
      </trkpt>
      <trkpt lat="61.22182" lon="5.21043">
        <ele>82.590262</ele>
        <time>2020-07-26T12:36:13.343Z</time>
      </trkpt>
      <trkpt lat="61.22191" lon="5.21032">
        <ele>82.523572</ele>
        <time>2020-07-26T12:36:15.308Z</time>
      </trkpt>
      <trkpt lat="61.22198" lon="5.21015">
        <ele>82.455125</ele>
        <time>2020-07-26T12:36:17.328Z</time>
      </trkpt>
      <trkpt lat="61.22202" lon="5.20989">
        <ele>82.369911</ele>
        <time>2020-07-26T12:36:20.335Z</time>
      </trkpt>
      <trkpt lat="61.22205" lon="5.20968">
        <ele>82.299055</ele>
        <time>2020-07-26T12:36:22.303Z</time>
      </trkpt>
      <trkpt lat="61.22209" lon="5.20947">
        <ele>82.230969</ele>
        <time>2020-07-26T12:36:24.308Z</time>
      </trkpt>
      <trkpt lat="61.22213" lon="5.2093">
        <ele>82.173085</ele>
        <time>2020-07-26T12:36:26.320Z</time>
      </trkpt>
      <trkpt lat="61.22214" lon="5.20909">
        <ele>82.107816</ele>
        <time>2020-07-26T12:36:29.330Z</time>
      </trkpt>
      <trkpt lat="61.22215" lon="5.20884">
        <ele>82.027687</ele>
        <time>2020-07-26T12:36:33.327Z</time>
      </trkpt>
      <trkpt lat="61.22213" lon="5.2086">
        <ele>81.953606</ele>
        <time>2020-07-26T12:36:37.320Z</time>
      </trkpt>
      <trkpt lat="61.22214" lon="5.20835">
        <ele>81.921041</ele>
        <time>2020-07-26T12:36:41.305Z</time>
      </trkpt>
      <trkpt lat="61.22214" lon="5.20811">
        <ele>82.092414</ele>
        <time>2020-07-26T12:36:45.323Z</time>
      </trkpt>
      <trkpt lat="61.22217" lon="5.20789">
        <ele>82.254276</ele>
        <time>2020-07-26T12:36:50.343Z</time>
      </trkpt>
      <trkpt lat="61.2222" lon="5.20769">
        <ele>82.402416</ele>
        <time>2020-07-26T12:36:52.328Z</time>
      </trkpt>
      <trkpt lat="61.22225" lon="5.2075">
        <ele>82.560258</ele>
        <time>2020-07-26T12:36:55.312Z</time>
      </trkpt>
      <trkpt lat="61.22231" lon="5.2073">
        <ele>82.730643</ele>
        <time>2020-07-26T12:36:59.315Z</time>
      </trkpt>
      <trkpt lat="61.22236" lon="5.20712">
        <ele>82.883482</ele>
        <time>2020-07-26T12:37:02.337Z</time>
      </trkpt>
      <trkpt lat="61.22242" lon="5.20692">
        <ele>83.041951</ele>
        <time>2020-07-26T12:37:05.334Z</time>
      </trkpt>
      <trkpt lat="61.22246" lon="5.20673">
        <ele>83.198381</ele>
        <time>2020-07-26T12:37:08.321Z</time>
      </trkpt>
      <trkpt lat="61.22252" lon="5.20654">
        <ele>83.356563</ele>
        <time>2020-07-26T12:37:12.361Z</time>
      </trkpt>
      <trkpt lat="61.22257" lon="5.20636">
        <ele>83.505221</ele>
        <time>2020-07-26T12:37:15.395Z</time>
      </trkpt>
      <trkpt lat="61.22263" lon="5.20618">
        <ele>83.662298</ele>
        <time>2020-07-26T12:37:18.327Z</time>
      </trkpt>
      <trkpt lat="61.2227" lon="5.206">
        <ele>83.827076</ele>
        <time>2020-07-26T12:37:21.330Z</time>
      </trkpt>
      <trkpt lat="61.22277" lon="5.20583">
        <ele>83.99239</ele>
        <time>2020-07-26T12:37:24.362Z</time>
      </trkpt>
      <trkpt lat="61.22284" lon="5.20569">
        <ele>84.139103</ele>
        <time>2020-07-26T12:37:27.341Z</time>
      </trkpt>
      <trkpt lat="61.22292" lon="5.20553">
        <ele>84.29923</ele>
        <time>2020-07-26T12:37:30.312Z</time>
      </trkpt>
      <trkpt lat="61.223" lon="5.20534">
        <ele>84.476074</ele>
        <time>2020-07-26T12:37:33.333Z</time>
      </trkpt>
      <trkpt lat="61.22307" lon="5.20519">
        <ele>84.424927</ele>
        <time>2020-07-26T12:37:36.327Z</time>
      </trkpt>
      <trkpt lat="61.22315" lon="5.20501">
        <ele>84.053994</ele>
        <time>2020-07-26T12:37:39.361Z</time>
      </trkpt>
      <trkpt lat="61.22323" lon="5.20483">
        <ele>83.683432</ele>
        <time>2020-07-26T12:37:42.315Z</time>
      </trkpt>
      <trkpt lat="61.22331" lon="5.20468">
        <ele>83.345138</ele>
        <time>2020-07-26T12:37:45.349Z</time>
      </trkpt>
      <trkpt lat="61.22338" lon="5.20448">
        <ele>82.966869</ele>
        <time>2020-07-26T12:37:48.316Z</time>
      </trkpt>
      <trkpt lat="61.22344" lon="5.20426">
        <ele>82.57232</ele>
        <time>2020-07-26T12:37:51.361Z</time>
      </trkpt>
      <trkpt lat="61.2235" lon="5.20404">
        <ele>82.191824</ele>
        <time>2020-07-26T12:37:54.342Z</time>
      </trkpt>
      <trkpt lat="61.22354" lon="5.20383">
        <ele>81.84641</ele>
        <time>2020-07-26T12:37:57.356Z</time>
      </trkpt>
      <trkpt lat="61.22359" lon="5.20362">
        <ele>81.491531</ele>
        <time>2020-07-26T12:38:00.323Z</time>
      </trkpt>
      <trkpt lat="61.22362" lon="5.20342">
        <ele>81.163532</ele>
        <time>2020-07-26T12:38:03.332Z</time>
      </trkpt>
      <trkpt lat="61.22366" lon="5.20325">
        <ele>80.874775</ele>
        <time>2020-07-26T12:38:06.320Z</time>
      </trkpt>
      <trkpt lat="61.22372" lon="5.20308">
        <ele>80.557911</ele>
        <time>2020-07-26T12:38:10.310Z</time>
      </trkpt>
      <trkpt lat="61.22369" lon="5.20288">
        <ele>80.238363</ele>
        <time>2020-07-26T12:38:16.343Z</time>
      </trkpt>
      <trkpt lat="61.22372" lon="5.20269">
        <ele>79.938625</ele>
        <time>2020-07-26T12:38:18.346Z</time>
      </trkpt>
      <trkpt lat="61.22365" lon="5.20253">
        <ele>79.598561</ele>
        <time>2020-07-26T12:38:21.336Z</time>
      </trkpt>
      <trkpt lat="61.22357" lon="5.20238">
        <ele>79.250429</ele>
        <time>2020-07-26T12:38:24.321Z</time>
      </trkpt>
      <trkpt lat="61.22356" lon="5.20259">
        <ele>78.933215</ele>
        <time>2020-07-26T12:38:34.316Z</time>
      </trkpt>
      <trkpt lat="61.22343" lon="5.20266">
        <ele>78.842363</ele>
        <time>2020-07-26T12:38:39.364Z</time>
      </trkpt>
      <trkpt lat="61.22333" lon="5.20263">
        <ele>78.842363</ele>
        <time>2020-07-26T12:38:42.339Z</time>
      </trkpt>
      <trkpt lat="61.22324" lon="5.20263">
        <ele>78.842363</ele>
        <time>2020-07-26T12:38:45.337Z</time>
      </trkpt>
      <trkpt lat="61.22313" lon="5.20266">
        <ele>78.842363</ele>
        <time>2020-07-26T12:38:48.327Z</time>
      </trkpt>
      <trkpt lat="61.22322" lon="5.20267">
        <ele>78.842363</ele>
        <time>2020-07-26T12:38:52.331Z</time>
      </trkpt>
      <trkpt lat="61.22314" lon="5.20249">
        <ele>78.842363</ele>
        <time>2020-07-26T12:38:53.311Z</time>
      </trkpt>
      <trkpt lat="61.22299" lon="5.20241">
        <ele>78.842363</ele>
        <time>2020-07-26T12:38:55.336Z</time>
      </trkpt>
      <trkpt lat="61.22288" lon="5.20236">
        <ele>78.842363</ele>
        <time>2020-07-26T12:39:00.313Z</time>
      </trkpt>
      <trkpt lat="61.22291" lon="5.20235">
        <ele>78.842363</ele>
        <time>2020-07-26T12:40:20.028Z</time>
      </trkpt>
    </trkseg>
  </trk>
</gpx>